<?xml version='1.0' encoding='UTF-8'?><gpx version="1.1" creator="JPX - https://github.com/jenetics/jpx" xmlns="http://www.topografix.com/GPX/1/1"><trk><trkseg><trkpt lat="43.571642475167295" lon="12.663776776273414"><ele>240.0</ele><time>2026-04-23T14:19:37Z</time></trkpt><trkpt lat="43.571843828437444" lon="12.66392044602091"><ele>240.0</ele><time>2026-04-23T14:19:38Z</time></trkpt><trkpt lat="43.572040707387195" lon="12.664065387203108"><ele>240.0</ele><time>2026-04-23T14:19:39Z</time></trkpt><trkpt lat="43.57223796446443" lon="12.664214781062903"><ele>240.0</ele><time>2026-04-23T14:19:40Z</time></trkpt><trkpt lat="43.5724340990921" lon="12.664359373862439"><ele>240.0</ele><time>2026-04-23T14:19:41Z</time></trkpt><trkpt lat="43.57263100359835" lon="12.664503711485361"><ele>238.0</ele><time>2026-04-23T14:19:42Z</time></trkpt><trkpt lat="43.57282540684224" lon="12.664650832507578"><ele>236.0</ele><time>2026-04-23T14:19:43Z</time></trkpt><trkpt lat="43.57301627287458" lon="12.664800141284198"><ele>234.0</ele><time>2026-04-23T14:19:44Z</time></trkpt><trkpt lat="43.57321116645216" lon="12.664950358856302"><ele>233.66666666666669</ele><time>2026-04-23T14:19:45Z</time></trkpt><trkpt lat="43.573406032239305" lon="12.665099526865532"><ele>233.33333333333334</ele><time>2026-04-23T14:19:46Z</time></trkpt><trkpt lat="43.5736040667817" lon="12.665246405150338"><ele>233.0</ele><time>2026-04-23T14:19:47Z</time></trkpt><trkpt lat="43.573797497461484" lon="12.66538938683741"><ele>234.66666666666669</ele><time>2026-04-23T14:19:48Z</time></trkpt><trkpt lat="43.573992439929995" lon="12.665535825138512"><ele>236.33333333333331</ele><time>2026-04-23T14:19:49Z</time></trkpt><trkpt lat="43.574180757195116" lon="12.665682034826727"><ele>238.0</ele><time>2026-04-23T14:19:50Z</time></trkpt><trkpt lat="43.5743736714213" lon="12.66582600978362"><ele>237.33333333333331</ele><time>2026-04-23T14:19:51Z</time></trkpt><trkpt lat="43.574565798869074" lon="12.665967420783877"><ele>236.66666666666669</ele><time>2026-04-23T14:19:52Z</time></trkpt><trkpt lat="43.57475639081266" lon="12.666110677556423"><ele>236.0</ele><time>2026-04-23T14:19:53Z</time></trkpt><trkpt lat="43.574946766282274" lon="12.666251510981041"><ele>236.0</ele><time>2026-04-23T14:19:54Z</time></trkpt><trkpt lat="43.575136485922194" lon="12.666399061862759"><ele>236.0</ele><time>2026-04-23T14:19:55Z</time></trkpt><trkpt lat="43.57532655296066" lon="12.6665482814337"><ele>236.0</ele><time>2026-04-23T14:19:56Z</time></trkpt><trkpt lat="43.575517785090845" lon="12.666689545372384"><ele>236.33333333333334</ele><time>2026-04-23T14:19:57Z</time></trkpt><trkpt lat="43.57571071721002" lon="12.666828920261896"><ele>236.66666666666669</ele><time>2026-04-23T14:19:58Z</time></trkpt><trkpt lat="43.57590121804894" lon="12.666969772224357"><ele>237.0</ele><time>2026-04-23T14:19:59Z</time></trkpt><trkpt lat="43.57609543196101" lon="12.66711357817788"><ele>236.66666666666669</ele><time>2026-04-23T14:20:00Z</time></trkpt><trkpt lat="43.5762831785993" lon="12.66725990294336"><ele>236.33333333333334</ele><time>2026-04-23T14:20:01Z</time></trkpt><trkpt lat="43.576473961665904" lon="12.667403564354998"><ele>236.0</ele><time>2026-04-23T14:20:02Z</time></trkpt><trkpt lat="43.57666402908589" lon="12.667546198217924"><ele>236.0</ele><time>2026-04-23T14:20:03Z</time></trkpt><trkpt lat="43.576857149574224" lon="12.667679729501623"><ele>236.0</ele><time>2026-04-23T14:20:04Z</time></trkpt><trkpt lat="43.57703075000129" lon="12.667811924499754"><ele>236.0</ele><time>2026-04-23T14:20:05Z</time></trkpt><trkpt lat="43.57719472656654" lon="12.667942825767073"><ele>235.33333333333334</ele><time>2026-04-23T14:20:06Z</time></trkpt><trkpt lat="43.57734921845126" lon="12.668060622650241"><ele>234.66666666666669</ele><time>2026-04-23T14:20:07Z</time></trkpt><trkpt lat="43.57749802277969" lon="12.66816789728766"><ele>234.0</ele><time>2026-04-23T14:20:08Z</time></trkpt><trkpt lat="43.57763986568308" lon="12.66827650692806"><ele>234.0</ele><time>2026-04-23T14:20:09Z</time></trkpt><trkpt lat="43.57778538729433" lon="12.668382853730384"><ele>234.0</ele><time>2026-04-23T14:20:10Z</time></trkpt><trkpt lat="43.577932708075096" lon="12.66849125698835"><ele>234.0</ele><time>2026-04-23T14:20:11Z</time></trkpt><trkpt lat="43.57808096809497" lon="12.668603891655358"><ele>234.0</ele><time>2026-04-23T14:20:12Z</time></trkpt><trkpt lat="43.57823001994962" lon="12.668716526452775"><ele>234.0</ele><time>2026-04-23T14:20:13Z</time></trkpt><trkpt lat="43.57838420503728" lon="12.66883365349593"><ele>234.0</ele><time>2026-04-23T14:20:14Z</time></trkpt><trkpt lat="43.57854247939582" lon="12.668947721908276"><ele>235.66666666666669</ele><time>2026-04-23T14:20:15Z</time></trkpt><trkpt lat="43.57870114722632" lon="12.66906649239943"><ele>237.33333333333334</ele><time>2026-04-23T14:20:16Z</time></trkpt><trkpt lat="43.578862936136694" lon="12.669191954571613"><ele>239.0</ele><time>2026-04-23T14:20:17Z</time></trkpt><trkpt lat="43.57902865622417" lon="12.669319459890545"><ele>237.66666666666669</ele><time>2026-04-23T14:20:18Z</time></trkpt><trkpt lat="43.57919450791027" lon="12.66944724609287"><ele>236.33333333333331</ele><time>2026-04-23T14:20:19Z</time></trkpt><trkpt lat="43.57936423092154" lon="12.669576546210388"><ele>235.0</ele><time>2026-04-23T14:20:20Z</time></trkpt><trkpt lat="43.579534197458266" lon="12.669700289647189"><ele>234.33333333333331</ele><time>2026-04-23T14:20:21Z</time></trkpt><trkpt lat="43.57970747300155" lon="12.669824970274801"><ele>233.66666666666669</ele><time>2026-04-23T14:20:22Z</time></trkpt><trkpt lat="43.57988258306701" lon="12.669952131112145"><ele>233.0</ele><time>2026-04-23T14:20:23Z</time></trkpt><trkpt lat="43.58003837440265" lon="12.670061229937806"><ele>233.0</ele><time>2026-04-23T14:20:24Z</time></trkpt><trkpt lat="43.58018143633062" lon="12.670170790660576"><ele>233.0</ele><time>2026-04-23T14:20:25Z</time></trkpt><trkpt lat="43.58031203320833" lon="12.670291914916174"><ele>233.0</ele><time>2026-04-23T14:20:26Z</time></trkpt><trkpt lat="43.58043224121115" lon="12.670383467536901"><ele>232.60000000000002</ele><time>2026-04-23T14:20:27Z</time></trkpt><trkpt lat="43.58053288838535" lon="12.670459888146144"><ele>232.20000000000002</ele><time>2026-04-23T14:20:28Z</time></trkpt><trkpt lat="43.58062235048105" lon="12.67052781583063"><ele>231.8</ele><time>2026-04-23T14:20:29Z</time></trkpt><trkpt lat="43.58069929399769" lon="12.670586238315854"><ele>231.4</ele><time>2026-04-23T14:20:30Z</time></trkpt><trkpt lat="43.58076719931113" lon="12.670637797224668"><ele>231.0</ele><time>2026-04-23T14:20:31Z</time></trkpt><trkpt lat="43.58085640150257" lon="12.67039470635453"><ele>231.0</ele><time>2026-04-23T14:20:33Z</time></trkpt><trkpt lat="43.58088697140678" lon="12.670315460938971"><ele>231.00000000000003</ele><time>2026-04-23T14:20:34Z</time></trkpt><trkpt lat="43.58092230629203" lon="12.670222799128386"><ele>231.00000000000003</ele><time>2026-04-23T14:20:35Z</time></trkpt><trkpt lat="43.580959268291004" lon="12.670123611373867"><ele>231.0</ele><time>2026-04-23T14:20:36Z</time></trkpt><trkpt lat="43.58099598901601" lon="12.67002079586932"><ele>231.0</ele><time>2026-04-23T14:20:37Z</time></trkpt><trkpt lat="43.58114255238842" lon="12.670014615389572"><ele>231.20000000000002</ele><time>2026-04-23T14:20:38.999Z</time></trkpt><trkpt lat="43.58120536603435" lon="12.670052156711577"><ele>231.40000000000003</ele><time>2026-04-23T14:20:39.999Z</time></trkpt><trkpt lat="43.5812867778005" lon="12.670105270148222"><ele>231.6</ele><time>2026-04-23T14:20:40.999Z</time></trkpt><trkpt lat="43.581390135817394" lon="12.67014874022855"><ele>231.8</ele><time>2026-04-23T14:20:41.999Z</time></trkpt><trkpt lat="43.58151282283031" lon="12.670237316310734"><ele>232.0</ele><time>2026-04-23T14:20:42.999Z</time></trkpt><trkpt lat="43.58165371232801" lon="12.6703379258741"><ele>232.0</ele><time>2026-04-23T14:20:43.999Z</time></trkpt><trkpt lat="43.58179623735047" lon="12.670423475223847"><ele>232.0</ele><time>2026-04-23T14:20:44.999Z</time></trkpt><trkpt lat="43.58193643982991" lon="12.670536242523985"><ele>232.0</ele><time>2026-04-23T14:20:45.999Z</time></trkpt><trkpt lat="43.58207172418334" lon="12.67066807998264"><ele>233.0</ele><time>2026-04-23T14:20:46.999Z</time></trkpt><trkpt lat="43.58224187097938" lon="12.670784837535955"><ele>234.0</ele><time>2026-04-23T14:20:47.999Z</time></trkpt><trkpt lat="43.58242170285653" lon="12.670916033176255"><ele>235.0</ele><time>2026-04-23T14:20:48.999Z</time></trkpt><trkpt lat="43.58260331159681" lon="12.671032892317807"><ele>235.33333333333331</ele><time>2026-04-23T14:20:49.999Z</time></trkpt><trkpt lat="43.582789331475475" lon="12.67113356751264"><ele>235.66666666666669</ele><time>2026-04-23T14:20:50.999Z</time></trkpt><trkpt lat="43.5829533733986" lon="12.67122171258385"><ele>236.0</ele><time>2026-04-23T14:20:51.999Z</time></trkpt><trkpt lat="43.58308848056529" lon="12.671330525323253"><ele>236.0</ele><time>2026-04-23T14:20:52.999Z</time></trkpt><trkpt lat="43.58322949370951" lon="12.671434183395045"><ele>236.0</ele><time>2026-04-23T14:20:53.999Z</time></trkpt><trkpt lat="43.58335577172639" lon="12.671528891954496"><ele>236.0</ele><time>2026-04-23T14:20:54.999Z</time></trkpt><trkpt lat="43.58348736389377" lon="12.671627399400474"><ele>236.0</ele><time>2026-04-23T14:20:55.999Z</time></trkpt><trkpt lat="43.58361584007338" lon="12.67171689797464"><ele>236.0</ele><time>2026-04-23T14:20:56.999Z</time></trkpt><trkpt lat="43.58374757098419" lon="12.671809261812054"><ele>236.0</ele><time>2026-04-23T14:20:57.999Z</time></trkpt><trkpt lat="43.583876809336964" lon="12.671909911826488"><ele>236.0</ele><time>2026-04-23T14:20:58.999Z</time></trkpt><trkpt lat="43.5839765354937" lon="12.672045433217278"><ele>235.5</ele><time>2026-04-23T14:20:59.999Z</time></trkpt><trkpt lat="43.58407172170938" lon="12.672160707790663"><ele>235.0</ele><time>2026-04-23T14:21:00.999Z</time></trkpt><trkpt lat="43.58416908602639" lon="12.672284704141928"><ele>234.5</ele><time>2026-04-23T14:21:01.999Z</time></trkpt><trkpt lat="43.584273824373405" lon="12.672379672771237"><ele>234.0</ele><time>2026-04-23T14:21:02.999Z</time></trkpt><trkpt lat="43.5843590884928" lon="12.672491032206949"><ele>234.0</ele><time>2026-04-23T14:21:04Z</time></trkpt><trkpt lat="43.584443230455335" lon="12.67254951101859"><ele>234.0</ele><time>2026-04-23T14:21:05Z</time></trkpt><trkpt lat="43.584504935933964" lon="12.672584037395128"><ele>234.0</ele><time>2026-04-23T14:21:06Z</time></trkpt><trkpt lat="43.58456670662171" lon="12.672636161999812"><ele>234.0</ele><time>2026-04-23T14:21:07Z</time></trkpt><trkpt lat="43.58463564618461" lon="12.672684546330036"><ele>234.0</ele><time>2026-04-23T14:21:08Z</time></trkpt><trkpt lat="43.5847162387752" lon="12.672744902034983"><ele>234.0</ele><time>2026-04-23T14:21:09Z</time></trkpt><trkpt lat="43.58479724705483" lon="12.672812954435738"><ele>232.25</ele><time>2026-04-23T14:21:10Z</time></trkpt><trkpt lat="43.584891336389504" lon="12.672887159334422"><ele>230.5</ele><time>2026-04-23T14:21:11Z</time></trkpt><trkpt lat="43.58500471637888" lon="12.672930035375163"><ele>228.75</ele><time>2026-04-23T14:21:12Z</time></trkpt><trkpt lat="43.585135907050336" lon="12.67296049402573"><ele>227.0</ele><time>2026-04-23T14:21:13Z</time></trkpt><trkpt lat="43.58527391729572" lon="12.673001017405197"><ele>227.0</ele><time>2026-04-23T14:21:14Z</time></trkpt><trkpt lat="43.58542102235286" lon="12.673049056467127"><ele>227.0</ele><time>2026-04-23T14:21:15Z</time></trkpt><trkpt lat="43.585571858693164" lon="12.673099480402168"><ele>227.0</ele><time>2026-04-23T14:21:16Z</time></trkpt><trkpt lat="43.58572741508884" lon="12.67315071254206"><ele>227.0</ele><time>2026-04-23T14:21:17Z</time></trkpt><trkpt lat="43.58588747048663" lon="12.673198092188139"><ele>227.0</ele><time>2026-04-23T14:21:18Z</time></trkpt><trkpt lat="43.586051995134014" lon="12.673245335074876"><ele>227.0</ele><time>2026-04-23T14:21:19Z</time></trkpt><trkpt lat="43.58622212736211" lon="12.673293989895589"><ele>229.33333333333334</ele><time>2026-04-23T14:21:20Z</time></trkpt><trkpt lat="43.58638874055377" lon="12.673338795083872"><ele>231.66666666666669</ele><time>2026-04-23T14:21:21Z</time></trkpt><trkpt lat="43.58654732549641" lon="12.673374025984241"><ele>234.0</ele><time>2026-04-23T14:21:22Z</time></trkpt><trkpt lat="43.58669613008069" lon="12.673420085660526"><ele>234.0</ele><time>2026-04-23T14:21:23Z</time></trkpt><trkpt lat="43.586831677996734" lon="12.6734576642981"><ele>233.99999999999997</ele><time>2026-04-23T14:21:24Z</time></trkpt><trkpt lat="43.58693334831287" lon="12.673485768081074"><ele>233.99999999999997</ele><time>2026-04-23T14:21:25Z</time></trkpt><trkpt lat="43.58700164655687" lon="12.673523056787742"><ele>234.0</ele><time>2026-04-23T14:21:26Z</time></trkpt><trkpt lat="43.5870630057744" lon="12.673570467503419"><ele>234.0</ele><time>2026-04-23T14:21:28Z</time></trkpt><trkpt lat="43.586990405281576" lon="12.673718570114252"><ele>234.0</ele><time>2026-04-23T14:21:30Z</time></trkpt><trkpt lat="43.586922955483246" lon="12.673747702133717"><ele>233.99999999999997</ele><time>2026-04-23T14:21:31Z</time></trkpt><trkpt lat="43.586842119583395" lon="12.673748974876728"><ele>233.99999999999997</ele><time>2026-04-23T14:21:32Z</time></trkpt><trkpt lat="43.586740192989225" lon="12.673709183323748"><ele>234.0</ele><time>2026-04-23T14:21:33Z</time></trkpt><trkpt lat="43.586618982136095" lon="12.673654149169296"><ele>234.0</ele><time>2026-04-23T14:21:34Z</time></trkpt><trkpt lat="43.58647666617547" lon="12.673599536295608"><ele>234.0</ele><time>2026-04-23T14:21:35Z</time></trkpt><trkpt lat="43.586309261142404" lon="12.673533860101172"><ele>234.0</ele><time>2026-04-23T14:21:36Z</time></trkpt><trkpt lat="43.58614149010646" lon="12.673476416403858"><ele>234.0</ele><time>2026-04-23T14:21:37Z</time></trkpt><trkpt lat="43.58600954056842" lon="12.673432999155752"><ele>232.6</ele><time>2026-04-23T14:21:38Z</time></trkpt><trkpt lat="43.585914069539896" lon="12.673402829093947"><ele>231.2</ele><time>2026-04-23T14:21:39Z</time></trkpt><trkpt lat="43.585840268349514" lon="12.673388693347258"><ele>229.79999999999998</ele><time>2026-04-23T14:21:40Z</time></trkpt><trkpt lat="43.58574848777774" lon="12.673466365890114"><ele>228.39999999999998</ele><time>2026-04-23T14:21:42Z</time></trkpt><trkpt lat="43.585713056390915" lon="12.67356420334571"><ele>227.0</ele><time>2026-04-23T14:21:43Z</time></trkpt><trkpt lat="43.58573006722979" lon="12.673713649559927"><ele>223.33333333333334</ele><time>2026-04-23T14:21:44Z</time></trkpt><trkpt lat="43.585715079427935" lon="12.673873079198142"><ele>219.66666666666669</ele><time>2026-04-23T14:21:45Z</time></trkpt><trkpt lat="43.585734574255135" lon="12.674064204912243"><ele>216.0</ele><time>2026-04-23T14:21:46Z</time></trkpt><trkpt lat="43.5857460176345" lon="12.67435158265935"><ele>216.75</ele><time>2026-04-23T14:21:47Z</time></trkpt><trkpt lat="43.585748669096134" lon="12.674539295703429"><ele>217.5</ele><time>2026-04-23T14:21:48Z</time></trkpt><trkpt lat="43.58575105780602" lon="12.674692907945643"><ele>218.25</ele><time>2026-04-23T14:21:49Z</time></trkpt><trkpt lat="43.58575094952159" lon="12.674809022704514"><ele>219.0</ele><time>2026-04-23T14:21:51Z</time></trkpt><trkpt lat="43.585880729508936" lon="12.674838023851668"><ele>219.0</ele><time>2026-04-23T14:21:53Z</time></trkpt><trkpt lat="43.58594895461638" lon="12.674868329271268"><ele>219.0</ele><time>2026-04-23T14:21:54Z</time></trkpt><trkpt lat="43.586060920856795" lon="12.674860798033517"><ele>219.0</ele><time>2026-04-23T14:21:55Z</time></trkpt><trkpt lat="43.58618854681266" lon="12.674899857997849"><ele>219.0</ele><time>2026-04-23T14:21:56Z</time></trkpt><trkpt lat="43.58632154001679" lon="12.674951995283227"><ele>219.0</ele><time>2026-04-23T14:21:57Z</time></trkpt><trkpt lat="43.58645387628929" lon="12.675018160902594"><ele>218.99999999999997</ele><time>2026-04-23T14:21:58Z</time></trkpt><trkpt lat="43.58656816536305" lon="12.675089529417644"><ele>218.99999999999997</ele><time>2026-04-23T14:21:59Z</time></trkpt><trkpt lat="43.58665153701136" lon="12.675159312019044"><ele>219.0</ele><time>2026-04-23T14:22:00Z</time></trkpt><trkpt lat="43.586722755123084" lon="12.675215723461251"><ele>219.0</ele><time>2026-04-23T14:22:01Z</time></trkpt><trkpt lat="43.586789513795345" lon="12.67528108187423"><ele>219.16666666666666</ele><time>2026-04-23T14:22:02Z</time></trkpt><trkpt lat="43.58685751809726" lon="12.675328465785844"><ele>219.33333333333331</ele><time>2026-04-23T14:22:03Z</time></trkpt><trkpt lat="43.586924816240455" lon="12.675372157323979"><ele>219.5</ele><time>2026-04-23T14:22:04Z</time></trkpt><trkpt lat="43.58698377478001" lon="12.675405044330523"><ele>219.66666666666666</ele><time>2026-04-23T14:22:05Z</time></trkpt><trkpt lat="43.58708608776977" lon="12.675464735220224"><ele>219.83333333333331</ele><time>2026-04-23T14:22:07Z</time></trkpt><trkpt lat="43.58719391363955" lon="12.675505393854088"><ele>220.0</ele><time>2026-04-23T14:22:09Z</time></trkpt><trkpt lat="43.58725864753568" lon="12.675540493667897"><ele>220.0</ele><time>2026-04-23T14:22:10Z</time></trkpt><trkpt lat="43.587325362969274" lon="12.675568661085347"><ele>220.0</ele><time>2026-04-23T14:22:11Z</time></trkpt><trkpt lat="43.58738728428451" lon="12.675594275620124"><ele>220.0</ele><time>2026-04-23T14:22:12Z</time></trkpt><trkpt lat="43.58745785459546" lon="12.675623467874662"><ele>220.0</ele><time>2026-04-23T14:22:14Z</time></trkpt><trkpt lat="43.58776970364099" lon="12.675774603000434"><ele>218.5</ele><time>2026-04-23T14:25:00Z</time></trkpt><trkpt lat="43.58788677078677" lon="12.675840946197878"><ele>217.0</ele><time>2026-04-23T14:25:01Z</time></trkpt><trkpt lat="43.587999268320736" lon="12.675898783335763"><ele>215.5</ele><time>2026-04-23T14:25:02Z</time></trkpt><trkpt lat="43.58809680628574" lon="12.675947342004948"><ele>214.0</ele><time>2026-04-23T14:25:03Z</time></trkpt><trkpt lat="43.588205768652905" lon="12.675986333804891"><ele>214.0</ele><time>2026-04-23T14:25:04Z</time></trkpt><trkpt lat="43.58831147625665" lon="12.676022698993762"><ele>213.99999999999997</ele><time>2026-04-23T14:25:05Z</time></trkpt><trkpt lat="43.5884027293488" lon="12.67605145474112"><ele>213.99999999999997</ele><time>2026-04-23T14:25:06Z</time></trkpt><trkpt lat="43.588490510682846" lon="12.676087596056114"><ele>214.0</ele><time>2026-04-23T14:25:07Z</time></trkpt><trkpt lat="43.58859326995844" lon="12.676133181834066"><ele>214.0</ele><time>2026-04-23T14:25:08Z</time></trkpt><trkpt lat="43.588701062157206" lon="12.676186219128025"><ele>213.75</ele><time>2026-04-23T14:25:09Z</time></trkpt><trkpt lat="43.58880399424457" lon="12.67624049259859"><ele>213.5</ele><time>2026-04-23T14:25:10Z</time></trkpt><trkpt lat="43.58891484281203" lon="12.676300852291636"><ele>213.25</ele><time>2026-04-23T14:25:11Z</time></trkpt><trkpt lat="43.589032681216814" lon="12.67637010817253"><ele>213.0</ele><time>2026-04-23T14:25:12Z</time></trkpt><trkpt lat="43.589157164639055" lon="12.676452793898443"><ele>213.0</ele><time>2026-04-23T14:25:13Z</time></trkpt><trkpt lat="43.58927140759796" lon="12.676539601028965"><ele>213.0</ele><time>2026-04-23T14:25:14Z</time></trkpt><trkpt lat="43.58937199759749" lon="12.676616705775592"><ele>213.0</ele><time>2026-04-23T14:25:15Z</time></trkpt><trkpt lat="43.58946169122728" lon="12.676688530625016"><ele>213.0</ele><time>2026-04-23T14:25:16Z</time></trkpt><trkpt lat="43.58954833473414" lon="12.676756250398657"><ele>213.0</ele><time>2026-04-23T14:25:17Z</time></trkpt><trkpt lat="43.589641826423254" lon="12.676837359973302"><ele>212.5</ele><time>2026-04-23T14:25:18Z</time></trkpt><trkpt lat="43.58974590676831" lon="12.676928706666361"><ele>212.0</ele><time>2026-04-23T14:25:19Z</time></trkpt><trkpt lat="43.58984880664176" lon="12.677038285778938"><ele>211.5</ele><time>2026-04-23T14:25:20Z</time></trkpt><trkpt lat="43.58996507147908" lon="12.677148297952993"><ele>211.0</ele><time>2026-04-23T14:25:21Z</time></trkpt><trkpt lat="43.59011152412587" lon="12.677303852688972"><ele>211.0</ele><time>2026-04-23T14:25:22Z</time></trkpt><trkpt lat="43.59026013164381" lon="12.67745958062906"><ele>211.0</ele><time>2026-04-23T14:25:23Z</time></trkpt><trkpt lat="43.59040935615979" lon="12.67764440416021"><ele>211.0</ele><time>2026-04-23T14:25:24Z</time></trkpt><trkpt lat="43.59054915950555" lon="12.6778380961709"><ele>211.0</ele><time>2026-04-23T14:25:25Z</time></trkpt><trkpt lat="43.590659625713386" lon="12.677985586601018"><ele>211.0</ele><time>2026-04-23T14:25:26Z</time></trkpt><trkpt lat="43.59074384863102" lon="12.678121198251539"><ele>211.0</ele><time>2026-04-23T14:25:27Z</time></trkpt><trkpt lat="43.59082583403337" lon="12.6782445983674"><ele>211.0</ele><time>2026-04-23T14:25:28Z</time></trkpt><trkpt lat="43.59091939035501" lon="12.678387296834481"><ele>211.0</ele><time>2026-04-23T14:25:29Z</time></trkpt><trkpt lat="43.59102360101182" lon="12.678548198645771"><ele>211.0</ele><time>2026-04-23T14:25:30Z</time></trkpt><trkpt lat="43.59112462481684" lon="12.678734482200877"><ele>211.0</ele><time>2026-04-23T14:25:31Z</time></trkpt><trkpt lat="43.59120212706424" lon="12.678913815868453"><ele>210.25</ele><time>2026-04-23T14:25:32Z</time></trkpt><trkpt lat="43.591267527216594" lon="12.679103140174908"><ele>209.5</ele><time>2026-04-23T14:25:33Z</time></trkpt><trkpt lat="43.59134591132963" lon="12.679285222602886"><ele>208.75</ele><time>2026-04-23T14:25:34Z</time></trkpt><trkpt lat="43.59141315203626" lon="12.679443743138243"><ele>208.0</ele><time>2026-04-23T14:25:35Z</time></trkpt><trkpt lat="43.591492354598536" lon="12.679562191643615"><ele>210.0</ele><time>2026-04-23T14:25:36Z</time></trkpt><trkpt lat="43.59157504085668" lon="12.679672107182025"><ele>212.0</ele><time>2026-04-23T14:25:37Z</time></trkpt><trkpt lat="43.591663645934524" lon="12.679780491383273"><ele>214.0</ele><time>2026-04-23T14:25:38Z</time></trkpt><trkpt lat="43.59174801708775" lon="12.679871125513273"><ele>216.0</ele><time>2026-04-23T14:25:39Z</time></trkpt><trkpt lat="43.59182367816113" lon="12.679952460794038"><ele>218.0</ele><time>2026-04-23T14:25:40Z</time></trkpt><trkpt lat="43.59188337706681" lon="12.680023303572952"><ele>218.0</ele><time>2026-04-23T14:25:41Z</time></trkpt><trkpt lat="43.591954155206885" lon="12.680125324439901"><ele>218.0</ele><time>2026-04-23T14:25:42Z</time></trkpt><trkpt lat="43.59204746663556" lon="12.680231920076235"><ele>218.0</ele><time>2026-04-23T14:25:43Z</time></trkpt><trkpt lat="43.59216133358022" lon="12.680312175854336"><ele>218.0</ele><time>2026-04-23T14:25:44Z</time></trkpt><trkpt lat="43.59228907851463" lon="12.680361240949283"><ele>220.8</ele><time>2026-04-23T14:25:45Z</time></trkpt><trkpt lat="43.59242574229047" lon="12.680420217220837"><ele>223.60000000000002</ele><time>2026-04-23T14:25:46Z</time></trkpt><trkpt lat="43.59252565688357" lon="12.68048149013991"><ele>226.39999999999998</ele><time>2026-04-23T14:25:47Z</time></trkpt><trkpt lat="43.5925871600482" lon="12.680531582202319"><ele>229.2</ele><time>2026-04-23T14:25:48Z</time></trkpt><trkpt lat="43.59264501360792" lon="12.680579736450525"><ele>232.0</ele><time>2026-04-23T14:25:51Z</time></trkpt><trkpt lat="43.59273341717674" lon="12.680616916040202"><ele>256.0</ele><time>2026-04-23T14:25:53Z</time></trkpt><trkpt lat="43.59325493119505" lon="12.681169181259813"><ele>256.0</ele><time>2026-04-23T14:26:02Z</time></trkpt><trkpt lat="43.59333959229684" lon="12.681213248618986"><ele>256.0</ele><time>2026-04-23T14:26:03Z</time></trkpt><trkpt lat="43.59340469882435" lon="12.681258344031171"><ele>256.0</ele><time>2026-04-23T14:26:04Z</time></trkpt><trkpt lat="43.59348111729168" lon="12.681319106052845"><ele>256.0</ele><time>2026-04-23T14:26:05Z</time></trkpt><trkpt lat="43.59358730150922" lon="12.681393109977256"><ele>256.0</ele><time>2026-04-23T14:26:06Z</time></trkpt><trkpt lat="43.59369018775477" lon="12.681454311658642"><ele>253.66666666666666</ele><time>2026-04-23T14:26:07Z</time></trkpt><trkpt lat="43.593768361663116" lon="12.68149560565089"><ele>251.33333333333331</ele><time>2026-04-23T14:26:08Z</time></trkpt><trkpt lat="43.593853172108574" lon="12.68153428691715"><ele>249.0</ele><time>2026-04-23T14:26:09Z</time></trkpt><trkpt lat="43.593936999133604" lon="12.68154796294496"><ele>246.66666666666669</ele><time>2026-04-23T14:26:10Z</time></trkpt><trkpt lat="43.594052913112485" lon="12.681540961577848"><ele>244.33333333333334</ele><time>2026-04-23T14:26:12Z</time></trkpt><trkpt lat="43.594121583058325" lon="12.681545536629347"><ele>242.0</ele><time>2026-04-23T14:26:13Z</time></trkpt><trkpt lat="43.59418447138194" lon="12.68158622250574"><ele>242.0</ele><time>2026-04-23T14:26:14Z</time></trkpt><trkpt lat="43.594231450475455" lon="12.681684470533657"><ele>242.0</ele><time>2026-04-23T14:26:16Z</time></trkpt><trkpt lat="43.594227012321305" lon="12.68180992295603"><ele>242.0</ele><time>2026-04-23T14:26:19Z</time></trkpt><trkpt lat="43.59424357100855" lon="12.68201297416791"><ele>242.0</ele><time>2026-04-23T14:26:21Z</time></trkpt><trkpt lat="43.59423869538512" lon="12.682142891980712"><ele>242.0</ele><time>2026-04-23T14:26:22Z</time></trkpt><trkpt lat="43.59423674444558" lon="12.682265527530443"><ele>245.16666666666669</ele><time>2026-04-23T14:26:23Z</time></trkpt><trkpt lat="43.59422870389313" lon="12.682364389704198"><ele>248.33333333333334</ele><time>2026-04-23T14:26:24Z</time></trkpt><trkpt lat="43.594207303879095" lon="12.682525564350863"><ele>251.5</ele><time>2026-04-23T14:26:26Z</time></trkpt><trkpt lat="43.59419065627956" lon="12.682620385440904"><ele>254.66666666666669</ele><time>2026-04-23T14:26:27Z</time></trkpt><trkpt lat="43.594173379620436" lon="12.682747818678829"><ele>257.8333333333333</ele><time>2026-04-23T14:26:28Z</time></trkpt><trkpt lat="43.59415615936299" lon="12.682845597772388"><ele>261.0</ele><time>2026-04-23T14:26:29Z</time></trkpt><trkpt lat="43.59411397369112" lon="12.682951652988649"><ele>262.0</ele><time>2026-04-23T14:26:31Z</time></trkpt><trkpt lat="43.5940742406944" lon="12.683078262974513"><ele>263.0</ele><time>2026-04-23T14:26:33Z</time></trkpt><trkpt lat="43.59405286643117" lon="12.683161577873848"><ele>264.0</ele><time>2026-04-23T14:26:34Z</time></trkpt><trkpt lat="43.59402512629874" lon="12.683255076097348"><ele>265.0</ele><time>2026-04-23T14:26:35Z</time></trkpt><trkpt lat="43.594001662541295" lon="12.683343819435928"><ele>266.0</ele><time>2026-04-23T14:26:36Z</time></trkpt><trkpt lat="43.593978259838885" lon="12.683446081080668"><ele>267.0</ele><time>2026-04-23T14:26:37Z</time></trkpt><trkpt lat="43.59396170650899" lon="12.683571940510845"><ele>269.0</ele><time>2026-04-23T14:26:38Z</time></trkpt><trkpt lat="43.593933588570366" lon="12.683686456598231"><ele>271.0</ele><time>2026-04-23T14:26:39Z</time></trkpt><trkpt lat="43.593899610710174" lon="12.68379515182763"><ele>273.0</ele><time>2026-04-23T14:26:43Z</time></trkpt><trkpt lat="43.59389419069774" lon="12.68394528128174"><ele>275.0</ele><time>2026-04-23T14:26:45Z</time></trkpt><trkpt lat="43.59388281126809" lon="12.68408429593353"><ele>277.0</ele><time>2026-04-23T14:26:47.001Z</time></trkpt><trkpt lat="43.59390638165633" lon="12.684231064816235"><ele>277.0</ele><time>2026-04-23T14:26:49.001Z</time></trkpt><trkpt lat="43.593907426682335" lon="12.684338843540804"><ele>277.0</ele><time>2026-04-23T14:26:52.001Z</time></trkpt><trkpt lat="43.59387584782263" lon="12.684446426793816"><ele>277.0</ele><time>2026-04-23T14:26:54.001Z</time></trkpt><trkpt lat="43.59386695225733" lon="12.684534826070621"><ele>277.0</ele><time>2026-04-23T14:26:56.001Z</time></trkpt><trkpt lat="43.5938364005893" lon="12.684651941725127"><ele>277.0</ele><time>2026-04-23T14:26:58.001Z</time></trkpt><trkpt lat="43.59378895343382" lon="12.684810520143582"><ele>277.0</ele><time>2026-04-23T14:27:00.001Z</time></trkpt><trkpt lat="43.593759569355264" lon="12.684898386456"><ele>279.8</ele><time>2026-04-23T14:27:01.001Z</time></trkpt><trkpt lat="43.59371701990234" lon="12.685059913489594"><ele>282.6</ele><time>2026-04-23T14:27:03.001Z</time></trkpt><trkpt lat="43.59371993786617" lon="12.685148718153393"><ele>285.40000000000003</ele><time>2026-04-23T14:27:04.001Z</time></trkpt><trkpt lat="43.59370910664671" lon="12.685305483449389"><ele>288.2</ele><time>2026-04-23T14:27:06.001Z</time></trkpt><trkpt lat="43.59367157267771" lon="12.685467758632477"><ele>291.0</ele><time>2026-04-23T14:27:08.001Z</time></trkpt><trkpt lat="43.593661021526785" lon="12.685558121965736"><ele>295.8333333333333</ele><time>2026-04-23T14:27:09Z</time></trkpt><trkpt lat="43.59365532992637" lon="12.685652687930341"><ele>300.6666666666667</ele><time>2026-04-23T14:27:10Z</time></trkpt><trkpt lat="43.59363420962287" lon="12.685735573915327"><ele>305.5</ele><time>2026-04-23T14:27:11Z</time></trkpt><trkpt lat="43.59358377375286" lon="12.685862780665836"><ele>310.33333333333337</ele><time>2026-04-23T14:27:13Z</time></trkpt><trkpt lat="43.59359688936064" lon="12.685949248666189"><ele>315.1666666666667</ele><time>2026-04-23T14:27:14Z</time></trkpt><trkpt lat="43.59359473851035" lon="12.686112893518224"><ele>320.0</ele><time>2026-04-23T14:27:16Z</time></trkpt><trkpt lat="43.5935779266241" lon="12.686240648914428"><ele>320.0</ele><time>2026-04-23T14:27:18Z</time></trkpt><trkpt lat="43.5935647204691" lon="12.68635096421738"><ele>320.0</ele><time>2026-04-23T14:27:21Z</time></trkpt><trkpt lat="43.59354689836515" lon="12.686472758509758"><ele>320.0</ele><time>2026-04-23T14:27:24Z</time></trkpt><trkpt lat="43.59353658493563" lon="12.68637322886243"><ele>320.0</ele><time>2026-04-23T14:27:58Z</time></trkpt><trkpt lat="43.59354717079891" lon="12.686272149422534"><ele>320.0</ele><time>2026-04-23T14:28:05Z</time></trkpt><trkpt lat="43.59355550590384" lon="12.686169867141864"><ele>320.0</ele><time>2026-04-23T14:28:12Z</time></trkpt><trkpt lat="43.59355541294703" lon="12.686080367836768"><ele>320.0</ele><time>2026-04-23T14:28:15Z</time></trkpt><trkpt lat="43.59355622172718" lon="12.685966855216066"><ele>320.0</ele><time>2026-04-23T14:28:18Z</time></trkpt><trkpt lat="43.593559344705874" lon="12.68584046775082"><ele>320.0</ele><time>2026-04-23T14:28:21Z</time></trkpt><trkpt lat="43.59357691232075" lon="12.685750526080321"><ele>320.0</ele><time>2026-04-23T14:28:23Z</time></trkpt><trkpt lat="43.59358089771106" lon="12.685629741734296"><ele>320.0</ele><time>2026-04-23T14:28:26Z</time></trkpt><trkpt lat="43.5936089242476" lon="12.685517494655786"><ele>320.0</ele><time>2026-04-23T14:28:28Z</time></trkpt><trkpt lat="43.59362664429346" lon="12.685419808825344"><ele>320.0</ele><time>2026-04-23T14:28:30Z</time></trkpt><trkpt lat="43.59364636359216" lon="12.685323951606568"><ele>320.0</ele><time>2026-04-23T14:28:32Z</time></trkpt><trkpt lat="43.59367568245986" lon="12.685242434276127"><ele>320.0</ele><time>2026-04-23T14:28:34Z</time></trkpt><trkpt lat="43.59369915673119" lon="12.685137866759462"><ele>320.0</ele><time>2026-04-23T14:28:36Z</time></trkpt><trkpt lat="43.593718737297685" lon="12.685002676066928"><ele>320.0</ele><time>2026-04-23T14:28:39Z</time></trkpt><trkpt lat="43.59374506940708" lon="12.684919724898538"><ele>320.0</ele><time>2026-04-23T14:28:41Z</time></trkpt><trkpt lat="43.59378066468971" lon="12.68481881463409"><ele>315.1666666666667</ele><time>2026-04-23T14:28:44Z</time></trkpt><trkpt lat="43.59380414514711" lon="12.684697399662445"><ele>310.33333333333337</ele><time>2026-04-23T14:28:46Z</time></trkpt><trkpt lat="43.593829722817375" lon="12.684583910609616"><ele>305.5</ele><time>2026-04-23T14:28:48Z</time></trkpt><trkpt lat="43.593861801291425" lon="12.684483735109445"><ele>300.6666666666667</ele><time>2026-04-23T14:28:50Z</time></trkpt><trkpt lat="43.59388360484254" lon="12.68438704747203"><ele>295.8333333333333</ele><time>2026-04-23T14:28:52Z</time></trkpt><trkpt lat="43.593890906949234" lon="12.684278032666734"><ele>291.0</ele><time>2026-04-23T14:28:54Z</time></trkpt><trkpt lat="43.59389235649145" lon="12.684188192419416"><ele>288.6666666666667</ele><time>2026-04-23T14:28:56Z</time></trkpt><trkpt lat="43.59386169837191" lon="12.684078938987371"><ele>286.3333333333333</ele><time>2026-04-23T14:28:58Z</time></trkpt><trkpt lat="43.59387557100144" lon="12.683967589162929"><ele>284.0</ele><time>2026-04-23T14:29:00Z</time></trkpt><trkpt lat="43.593904706146155" lon="12.6838542432842"><ele>281.66666666666663</ele><time>2026-04-23T14:29:02Z</time></trkpt><trkpt lat="43.593904716715784" lon="12.683760352768193"><ele>279.3333333333333</ele><time>2026-04-23T14:29:04Z</time></trkpt><trkpt lat="43.593920400429404" lon="12.68363403385665"><ele>277.0</ele><time>2026-04-23T14:29:06Z</time></trkpt><trkpt lat="43.59395847577702" lon="12.683470982134537"><ele>275.0</ele><time>2026-04-23T14:29:08Z</time></trkpt><trkpt lat="43.59397330327162" lon="12.683379764028354"><ele>273.0</ele><time>2026-04-23T14:29:09Z</time></trkpt><trkpt lat="43.59401413824855" lon="12.683245349542744"><ele>271.0</ele><time>2026-04-23T14:29:11Z</time></trkpt><trkpt lat="43.594049128774245" lon="12.683127787731472"><ele>269.0</ele><time>2026-04-23T14:29:13Z</time></trkpt><trkpt lat="43.59407667700072" lon="12.683005404256097"><ele>267.0</ele><time>2026-04-23T14:29:15Z</time></trkpt><trkpt lat="43.59412038723804" lon="12.682887020149806"><ele>265.8</ele><time>2026-04-23T14:29:17Z</time></trkpt><trkpt lat="43.59416831234593" lon="12.68272302634086"><ele>264.6</ele><time>2026-04-23T14:29:19Z</time></trkpt><trkpt lat="43.594187615347565" lon="12.682554431054832"><ele>263.40000000000003</ele><time>2026-04-23T14:29:21Z</time></trkpt><trkpt lat="43.594209540062664" lon="12.682457274459754"><ele>262.2</ele><time>2026-04-23T14:29:23Z</time></trkpt><trkpt lat="43.5942767001736" lon="12.682479936450253"><ele>261.0</ele><time>2026-04-23T14:29:26Z</time></trkpt><trkpt lat="43.59423952085791" lon="12.682382023175693"><ele>261.0</ele><time>2026-04-23T14:29:40Z</time></trkpt><trkpt lat="43.59424153008521" lon="12.68223585328464"><ele>261.0</ele><time>2026-04-23T14:29:42Z</time></trkpt><trkpt lat="43.59423758641274" lon="12.68209658102196"><ele>261.0</ele><time>2026-04-23T14:29:44Z</time></trkpt><trkpt lat="43.59423662512915" lon="12.681891977867355"><ele>261.0</ele><time>2026-04-23T14:29:46Z</time></trkpt><trkpt lat="43.59423459689538" lon="12.68179718047015"><ele>261.0</ele><time>2026-04-23T14:29:47Z</time></trkpt><trkpt lat="43.594207442358055" lon="12.681679157319303"><ele>257.2</ele><time>2026-04-23T14:29:49Z</time></trkpt><trkpt lat="43.59413241775587" lon="12.68157568844407"><ele>253.40000000000003</ele><time>2026-04-23T14:29:51Z</time></trkpt><trkpt lat="43.594018893952" lon="12.681551576640807"><ele>249.6</ele><time>2026-04-23T14:29:53Z</time></trkpt><trkpt lat="43.59391861915735" lon="12.681543498074166"><ele>245.8</ele><time>2026-04-23T14:29:55Z</time></trkpt><trkpt lat="43.59385392602629" lon="12.681537256195455"><ele>242.0</ele><time>2026-04-23T14:29:56Z</time></trkpt><trkpt lat="43.593772245455135" lon="12.681519504930112"><ele>242.00000000000003</ele><time>2026-04-23T14:29:57Z</time></trkpt><trkpt lat="43.59370267775206" lon="12.681475215412647"><ele>242.0</ele><time>2026-04-23T14:29:58Z</time></trkpt><trkpt lat="43.59363739745476" lon="12.681421366608646"><ele>242.0</ele><time>2026-04-23T14:29:59Z</time></trkpt><trkpt lat="43.59355115868084" lon="12.681380410933844"><ele>242.0</ele><time>2026-04-23T14:30:00Z</time></trkpt><trkpt lat="43.593462984352406" lon="12.681328780574704"><ele>242.00000000000003</ele><time>2026-04-23T14:30:01Z</time></trkpt><trkpt lat="43.59338142112486" lon="12.681268733628436"><ele>242.0</ele><time>2026-04-23T14:30:02Z</time></trkpt><trkpt lat="43.593308401133434" lon="12.681212915392699"><ele>244.33333333333334</ele><time>2026-04-23T14:30:03Z</time></trkpt><trkpt lat="43.59323570677692" lon="12.681166389126762"><ele>246.66666666666669</ele><time>2026-04-23T14:30:04Z</time></trkpt><trkpt lat="43.59316452922908" lon="12.681124256972826"><ele>249.0</ele><time>2026-04-23T14:30:05Z</time></trkpt><trkpt lat="43.59309103389242" lon="12.681087991250989"><ele>251.33333333333331</ele><time>2026-04-23T14:30:06Z</time></trkpt><trkpt lat="43.5930010779272" lon="12.681035880883222"><ele>253.66666666666666</ele><time>2026-04-23T14:30:07Z</time></trkpt><trkpt lat="43.59291641650017" lon="12.680971963636765"><ele>256.0</ele><time>2026-04-23T14:30:08Z</time></trkpt><trkpt lat="43.59284516889811" lon="12.68092178423959"><ele>251.99999999999997</ele><time>2026-04-23T14:30:09Z</time></trkpt><trkpt lat="43.59278355385399" lon="12.680877877538249"><ele>248.0</ele><time>2026-04-23T14:30:10Z</time></trkpt><trkpt lat="43.592730745474164" lon="12.68081878481387"><ele>244.0</ele><time>2026-04-23T14:30:11Z</time></trkpt><trkpt lat="43.59265535353111" lon="12.680693687020051"><ele>240.0</ele><time>2026-04-23T14:30:13Z</time></trkpt><trkpt lat="43.59262277999213" lon="12.68059392933546"><ele>235.99999999999997</ele><time>2026-04-23T14:30:15Z</time></trkpt><trkpt lat="43.59269154623067" lon="12.680535526655484"><ele>232.0</ele><time>2026-04-23T14:30:18Z</time></trkpt><trkpt lat="43.59286233135963" lon="12.680532408615772"><ele>228.66666666666666</ele><time>2026-04-23T14:30:20Z</time></trkpt><trkpt lat="43.59299946431509" lon="12.680518410846886"><ele>225.33333333333331</ele><time>2026-04-23T14:30:21Z</time></trkpt><trkpt lat="43.593191151204024" lon="12.680503246087234"><ele>222.0</ele><time>2026-04-23T14:30:22Z</time></trkpt><trkpt lat="43.59340472541729" lon="12.680465290078839"><ele>222.0</ele><time>2026-04-23T14:30:23Z</time></trkpt><trkpt lat="43.59363754623165" lon="12.680435904663861"><ele>222.0</ele><time>2026-04-23T14:30:24Z</time></trkpt><trkpt lat="43.59381839449082" lon="12.68040584258775"><ele>222.0</ele><time>2026-04-23T14:30:25Z</time></trkpt><trkpt lat="43.59396669463906" lon="12.680387076766394"><ele>221.8</ele><time>2026-04-23T14:30:26Z</time></trkpt><trkpt lat="43.594100107342655" lon="12.68037127097775"><ele>221.6</ele><time>2026-04-23T14:30:27Z</time></trkpt><trkpt lat="43.59421694050028" lon="12.68037748985559"><ele>221.40000000000003</ele><time>2026-04-23T14:30:28Z</time></trkpt><trkpt lat="43.59431203714816" lon="12.680403634834974"><ele>221.20000000000002</ele><time>2026-04-23T14:30:29Z</time></trkpt><trkpt lat="43.59438353736874" lon="12.680471311062606"><ele>221.0</ele><time>2026-04-23T14:30:30Z</time></trkpt><trkpt lat="43.59446056637153" lon="12.68053710604295"><ele>221.0</ele><time>2026-04-23T14:30:31Z</time></trkpt><trkpt lat="43.59454623455007" lon="12.680628265894269"><ele>221.00000000000003</ele><time>2026-04-23T14:30:32Z</time></trkpt><trkpt lat="43.59463655629545" lon="12.680732055730221"><ele>221.00000000000003</ele><time>2026-04-23T14:30:33Z</time></trkpt><trkpt lat="43.594697251018935" lon="12.680784610194506"><ele>221.0</ele><time>2026-04-23T14:30:34Z</time></trkpt><trkpt lat="43.59479751840335" lon="12.680731550631696"><ele>221.0</ele><time>2026-04-23T14:30:36Z</time></trkpt><trkpt lat="43.5948786053174" lon="12.68065736934198"><ele>221.0</ele><time>2026-04-23T14:30:37Z</time></trkpt><trkpt lat="43.594961986297214" lon="12.680614809542352"><ele>221.00000000000003</ele><time>2026-04-23T14:30:38Z</time></trkpt><trkpt lat="43.59503368295832" lon="12.680596114536094"><ele>221.00000000000003</ele><time>2026-04-23T14:30:39Z</time></trkpt><trkpt lat="43.59511180807085" lon="12.680589158105274"><ele>221.0</ele><time>2026-04-23T14:30:40Z</time></trkpt><trkpt lat="43.595206740641245" lon="12.68061160895187"><ele>221.0</ele><time>2026-04-23T14:30:41Z</time></trkpt><trkpt lat="43.595324598200904" lon="12.680612569964422"><ele>221.0</ele><time>2026-04-23T14:30:42Z</time></trkpt><trkpt lat="43.595442212391006" lon="12.680624138017308"><ele>221.0</ele><time>2026-04-23T14:30:43Z</time></trkpt><trkpt lat="43.59556844308859" lon="12.68064322116655"><ele>221.0</ele><time>2026-04-23T14:30:44Z</time></trkpt><trkpt lat="43.59570283685371" lon="12.680654509139554"><ele>221.0</ele><time>2026-04-23T14:30:45Z</time></trkpt><trkpt lat="43.59584806611927" lon="12.680637668008005"><ele>221.0</ele><time>2026-04-23T14:30:46Z</time></trkpt><trkpt lat="43.59601677490929" lon="12.680598038622446"><ele>221.0</ele><time>2026-04-23T14:30:47Z</time></trkpt><trkpt lat="43.59619867299728" lon="12.680558995216035"><ele>221.0</ele><time>2026-04-23T14:30:48Z</time></trkpt><trkpt lat="43.59640718862543" lon="12.680545280501521"><ele>220.66666666666669</ele><time>2026-04-23T14:30:49Z</time></trkpt><trkpt lat="43.59658380134145" lon="12.680516103676556"><ele>220.33333333333331</ele><time>2026-04-23T14:30:50Z</time></trkpt><trkpt lat="43.59674808603361" lon="12.6805014918688"><ele>220.0</ele><time>2026-04-23T14:30:51Z</time></trkpt><trkpt lat="43.59691491541841" lon="12.680500689593968"><ele>219.66666666666666</ele><time>2026-04-23T14:30:52Z</time></trkpt><trkpt lat="43.5970865442865" lon="12.680521786916549"><ele>219.33333333333331</ele><time>2026-04-23T14:30:53Z</time></trkpt><trkpt lat="43.59727817996398" lon="12.680568157511408"><ele>219.0</ele><time>2026-04-23T14:30:54Z</time></trkpt><trkpt lat="43.59749276857643" lon="12.680627368456342"><ele>219.0</ele><time>2026-04-23T14:30:55Z</time></trkpt><trkpt lat="43.597704490030324" lon="12.680687220911883"><ele>219.0</ele><time>2026-04-23T14:30:56Z</time></trkpt><trkpt lat="43.59789260758331" lon="12.68073983048344"><ele>219.0</ele><time>2026-04-23T14:30:57Z</time></trkpt><trkpt lat="43.59805896502358" lon="12.680809725388563"><ele>219.25</ele><time>2026-04-23T14:30:58Z</time></trkpt><trkpt lat="43.59821092659514" lon="12.680859205048367"><ele>219.5</ele><time>2026-04-23T14:30:59Z</time></trkpt><trkpt lat="43.59836202955328" lon="12.680864884083295"><ele>219.75</ele><time>2026-04-23T14:31:00Z</time></trkpt><trkpt lat="43.59849429706507" lon="12.680892473176172"><ele>220.0</ele><time>2026-04-23T14:31:01Z</time></trkpt><trkpt lat="43.59861433894407" lon="12.680950253110225"><ele>221.0</ele><time>2026-04-23T14:31:02Z</time></trkpt><trkpt lat="43.5987339056312" lon="12.680985283734216"><ele>222.0</ele><time>2026-04-23T14:31:03Z</time></trkpt><trkpt lat="43.598858249828595" lon="12.680998632120975"><ele>223.0</ele><time>2026-04-23T14:31:04Z</time></trkpt><trkpt lat="43.59899037288047" lon="12.681058273700424"><ele>224.0</ele><time>2026-04-23T14:31:05Z</time></trkpt><trkpt lat="43.59914540600233" lon="12.681076117907313"><ele>226.75</ele><time>2026-04-23T14:31:06Z</time></trkpt><trkpt lat="43.59928537686699" lon="12.681124203115624"><ele>229.5</ele><time>2026-04-23T14:31:07Z</time></trkpt><trkpt lat="43.59941628353072" lon="12.681156091476328"><ele>232.25</ele><time>2026-04-23T14:31:08Z</time></trkpt><trkpt lat="43.599536209558515" lon="12.681184901053292"><ele>235.0</ele><time>2026-04-23T14:31:09Z</time></trkpt><trkpt lat="43.59963882946766" lon="12.68120944745738"><ele>236.2</ele><time>2026-04-23T14:31:10Z</time></trkpt><trkpt lat="43.59973323062559" lon="12.68122786191617"><ele>237.4</ele><time>2026-04-23T14:31:11Z</time></trkpt><trkpt lat="43.599812650495416" lon="12.68123383699799"><ele>238.60000000000002</ele><time>2026-04-23T14:31:12Z</time></trkpt><trkpt lat="43.599894949445094" lon="12.681221076036"><ele>239.8</ele><time>2026-04-23T14:31:13Z</time></trkpt><trkpt lat="43.599995692421736" lon="12.681217463163616"><ele>241.0</ele><time>2026-04-23T14:31:14Z</time></trkpt><trkpt lat="43.600120760542" lon="12.681199869810538"><ele>241.0</ele><time>2026-04-23T14:31:15Z</time></trkpt><trkpt lat="43.60025793857852" lon="12.681176372812939"><ele>241.0</ele><time>2026-04-23T14:31:16Z</time></trkpt><trkpt lat="43.60041215218495" lon="12.681147876838494"><ele>241.0</ele><time>2026-04-23T14:31:17Z</time></trkpt><trkpt lat="43.60058292237591" lon="12.68112392627047"><ele>237.66666666666666</ele><time>2026-04-23T14:31:18Z</time></trkpt><trkpt lat="43.600786114719554" lon="12.681073866170973"><ele>234.33333333333331</ele><time>2026-04-23T14:31:19Z</time></trkpt><trkpt lat="43.600996768037426" lon="12.68101675967508"><ele>231.0</ele><time>2026-04-23T14:31:20Z</time></trkpt><trkpt lat="43.60117092207783" lon="12.680944861619533"><ele>231.0</ele><time>2026-04-23T14:31:21Z</time></trkpt><trkpt lat="43.60134739474083" lon="12.680877851673076"><ele>231.0</ele><time>2026-04-23T14:31:22Z</time></trkpt><trkpt lat="43.60154488266656" lon="12.68082800136384"><ele>231.0</ele><time>2026-04-23T14:31:23Z</time></trkpt><trkpt lat="43.60174497688431" lon="12.680755636690192"><ele>231.0</ele><time>2026-04-23T14:31:24Z</time></trkpt><trkpt lat="43.601944755512484" lon="12.680665884189613"><ele>231.0</ele><time>2026-04-23T14:31:25Z</time></trkpt><trkpt lat="43.60215091194375" lon="12.680571681438657"><ele>231.0</ele><time>2026-04-23T14:31:26Z</time></trkpt><trkpt lat="43.60234366933294" lon="12.680493132752954"><ele>233.33333333333331</ele><time>2026-04-23T14:31:27Z</time></trkpt><trkpt lat="43.60252945885788" lon="12.68042733369606"><ele>235.66666666666666</ele><time>2026-04-23T14:31:28Z</time></trkpt><trkpt lat="43.60272503867501" lon="12.680363948283384"><ele>238.0</ele><time>2026-04-23T14:31:29Z</time></trkpt><trkpt lat="43.602927512877685" lon="12.68031188001117"><ele>233.33333333333331</ele><time>2026-04-23T14:31:30Z</time></trkpt><trkpt lat="43.60312531496816" lon="12.680257510464784"><ele>228.66666666666669</ele><time>2026-04-23T14:31:31Z</time></trkpt><trkpt lat="43.60332663470786" lon="12.680195220148532"><ele>224.0</ele><time>2026-04-23T14:31:32Z</time></trkpt><trkpt lat="43.60353186721487" lon="12.680131358797768"><ele>224.0</ele><time>2026-04-23T14:31:33Z</time></trkpt><trkpt lat="43.60372171375834" lon="12.680084353885485"><ele>224.0</ele><time>2026-04-23T14:31:34Z</time></trkpt><trkpt lat="43.60390342196357" lon="12.680057368514458"><ele>224.0</ele><time>2026-04-23T14:31:35Z</time></trkpt><trkpt lat="43.60409865972189" lon="12.680046859552998"><ele>224.0</ele><time>2026-04-23T14:31:36Z</time></trkpt><trkpt lat="43.60429115379664" lon="12.680019167091242"><ele>224.0</ele><time>2026-04-23T14:31:37Z</time></trkpt><trkpt lat="43.60446464088539" lon="12.679984862310436"><ele>224.0</ele><time>2026-04-23T14:31:38Z</time></trkpt><trkpt lat="43.60465446483996" lon="12.679931007023905"><ele>224.33333333333334</ele><time>2026-04-23T14:31:39Z</time></trkpt><trkpt lat="43.60483973078656" lon="12.679828069306797"><ele>224.66666666666669</ele><time>2026-04-23T14:31:40Z</time></trkpt><trkpt lat="43.60502945075204" lon="12.679758998899857"><ele>225.0</ele><time>2026-04-23T14:31:41Z</time></trkpt><trkpt lat="43.605225650426455" lon="12.679696332709236"><ele>227.66666666666669</ele><time>2026-04-23T14:31:42Z</time></trkpt><trkpt lat="43.60542492841038" lon="12.67964043822291"><ele>230.33333333333334</ele><time>2026-04-23T14:31:43Z</time></trkpt><trkpt lat="43.605605250159186" lon="12.679569016231005"><ele>233.0</ele><time>2026-04-23T14:31:44Z</time></trkpt><trkpt lat="43.60577581904177" lon="12.679508368734883"><ele>233.0</ele><time>2026-04-23T14:31:45Z</time></trkpt><trkpt lat="43.6059306511993" lon="12.679448819060188"><ele>233.0</ele><time>2026-04-23T14:31:46Z</time></trkpt><trkpt lat="43.60607143917215" lon="12.67939168744495"><ele>233.0</ele><time>2026-04-23T14:31:47Z</time></trkpt><trkpt lat="43.60619493471583" lon="12.679346308379465"><ele>233.0</ele><time>2026-04-23T14:31:48Z</time></trkpt><trkpt lat="43.60631664835413" lon="12.679303965620537"><ele>227.33333333333334</ele><time>2026-04-23T14:31:49Z</time></trkpt><trkpt lat="43.60645242920149" lon="12.67927448246975"><ele>221.66666666666669</ele><time>2026-04-23T14:31:50Z</time></trkpt><trkpt lat="43.60661332793509" lon="12.679293459310337"><ele>216.0</ele><time>2026-04-23T14:31:51Z</time></trkpt><trkpt lat="43.60679226973216" lon="12.67929109449221"><ele>216.0</ele><time>2026-04-23T14:31:52Z</time></trkpt><trkpt lat="43.60694222907651" lon="12.67924737995481"><ele>216.0</ele><time>2026-04-23T14:31:53Z</time></trkpt><trkpt lat="43.60708131785646" lon="12.67919419548546"><ele>216.0</ele><time>2026-04-23T14:31:54Z</time></trkpt><trkpt lat="43.60723811325696" lon="12.679146332140208"><ele>219.33333333333331</ele><time>2026-04-23T14:31:55Z</time></trkpt><trkpt lat="43.60739761263435" lon="12.679121764585753"><ele>222.66666666666666</ele><time>2026-04-23T14:31:56Z</time></trkpt><trkpt lat="43.60755450642323" lon="12.679107952572975"><ele>226.0</ele><time>2026-04-23T14:31:57Z</time></trkpt><trkpt lat="43.60771243567532" lon="12.679144951184664"><ele>227.33333333333331</ele><time>2026-04-23T14:31:58Z</time></trkpt><trkpt lat="43.60788029133796" lon="12.679180106314623"><ele>228.66666666666669</ele><time>2026-04-23T14:31:59Z</time></trkpt><trkpt lat="43.60804943341362" lon="12.679186458610499"><ele>230.0</ele><time>2026-04-23T14:32:00Z</time></trkpt><trkpt lat="43.608219308808486" lon="12.679173464593498"><ele>230.0</ele><time>2026-04-23T14:32:01Z</time></trkpt><trkpt lat="43.608393888492735" lon="12.679190054451665"><ele>230.0</ele><time>2026-04-23T14:32:02Z</time></trkpt><trkpt lat="43.608568703547256" lon="12.679249114274196"><ele>230.0</ele><time>2026-04-23T14:32:03Z</time></trkpt><trkpt lat="43.608744086561764" lon="12.679270794054808"><ele>230.66666666666669</ele><time>2026-04-23T14:32:04Z</time></trkpt><trkpt lat="43.60891176352345" lon="12.679283935426705"><ele>231.33333333333331</ele><time>2026-04-23T14:32:05Z</time></trkpt><trkpt lat="43.609082748390804" lon="12.67927312281743"><ele>232.0</ele><time>2026-04-23T14:32:06Z</time></trkpt><trkpt lat="43.60925341511688" lon="12.67928627906949"><ele>232.0</ele><time>2026-04-23T14:32:07Z</time></trkpt><trkpt lat="43.60942914117911" lon="12.67930356394052"><ele>232.0</ele><time>2026-04-23T14:32:08Z</time></trkpt><trkpt lat="43.60960361322597" lon="12.679309990473355"><ele>232.0</ele><time>2026-04-23T14:32:09Z</time></trkpt><trkpt lat="43.60978138852667" lon="12.679332131805607"><ele>234.0</ele><time>2026-04-23T14:32:10Z</time></trkpt><trkpt lat="43.60997728982707" lon="12.679320653308972"><ele>236.0</ele><time>2026-04-23T14:32:11Z</time></trkpt><trkpt lat="43.610145080688206" lon="12.679322837953343"><ele>238.0</ele><time>2026-04-23T14:32:12Z</time></trkpt><trkpt lat="43.61029335968491" lon="12.679316645005368"><ele>240.25</ele><time>2026-04-23T14:32:13Z</time></trkpt><trkpt lat="43.61042403333458" lon="12.679303747931732"><ele>242.5</ele><time>2026-04-23T14:32:14Z</time></trkpt><trkpt lat="43.610549070108355" lon="12.679276740247989"><ele>244.75</ele><time>2026-04-23T14:32:15Z</time></trkpt><trkpt lat="43.61067749886511" lon="12.679245808409476"><ele>247.0</ele><time>2026-04-23T14:32:16Z</time></trkpt><trkpt lat="43.61079738175849" lon="12.67923284892699"><ele>247.0</ele><time>2026-04-23T14:32:17Z</time></trkpt><trkpt lat="43.61092882641256" lon="12.679267056142967"><ele>247.0</ele><time>2026-04-23T14:32:18Z</time></trkpt><trkpt lat="43.61106355147411" lon="12.679262270121342"><ele>247.0</ele><time>2026-04-23T14:32:19Z</time></trkpt><trkpt lat="43.61119518980878" lon="12.679282463735605"><ele>247.0</ele><time>2026-04-23T14:32:20Z</time></trkpt><trkpt lat="43.61132500255372" lon="12.679307599300381"><ele>247.0</ele><time>2026-04-23T14:32:21Z</time></trkpt><trkpt lat="43.61145026086788" lon="12.679359320786876"><ele>247.0</ele><time>2026-04-23T14:32:22Z</time></trkpt><trkpt lat="43.611555943688415" lon="12.679452406635319"><ele>247.0</ele><time>2026-04-23T14:32:23Z</time></trkpt><trkpt lat="43.61168347600538" lon="12.67950602046977"><ele>247.0</ele><time>2026-04-23T14:32:24Z</time></trkpt><trkpt lat="43.61179437578908" lon="12.679570723984272"><ele>253.99999999999997</ele><time>2026-04-23T14:32:25Z</time></trkpt><trkpt lat="43.61187054698605" lon="12.679662350668485"><ele>261.0</ele><time>2026-04-23T14:32:26Z</time></trkpt><trkpt lat="43.61195382190057" lon="12.679687363413013"><ele>268.0</ele><time>2026-04-23T14:32:27Z</time></trkpt><trkpt lat="43.612027543065864" lon="12.679691960813175"><ele>275.0</ele><time>2026-04-23T14:32:28Z</time></trkpt><trkpt lat="43.6121049391441" lon="12.679621828518252"><ele>282.0</ele><time>2026-04-23T14:32:29Z</time></trkpt><trkpt lat="43.61217222567683" lon="12.679629998604868"><ele>289.0</ele><time>2026-04-23T14:32:30Z</time></trkpt><trkpt lat="43.612248147008465" lon="12.67959579706612"><ele>289.7142857142857</ele><time>2026-04-23T14:32:31Z</time></trkpt><trkpt lat="43.61230901722544" lon="12.67963558460044"><ele>290.42857142857144</ele><time>2026-04-23T14:32:32Z</time></trkpt><trkpt lat="43.61236651372237" lon="12.679676569417635"><ele>291.1428571428571</ele><time>2026-04-23T14:32:33Z</time></trkpt><trkpt lat="43.61243930459661" lon="12.67970092075455"><ele>291.8571428571429</ele><time>2026-04-23T14:32:34Z</time></trkpt><trkpt lat="43.61252719835695" lon="12.679691416033542"><ele>292.57142857142856</ele><time>2026-04-23T14:32:35Z</time></trkpt><trkpt lat="43.61259878895595" lon="12.679626626741232"><ele>293.2857142857143</ele><time>2026-04-23T14:32:36Z</time></trkpt><trkpt lat="43.61265799527736" lon="12.679583435136191"><ele>294.0</ele><time>2026-04-23T14:32:37Z</time></trkpt><trkpt lat="43.612731754846706" lon="12.679540401807575"><ele>294.0</ele><time>2026-04-23T14:32:38Z</time></trkpt><trkpt lat="43.61281154880495" lon="12.679553686353822"><ele>294.0</ele><time>2026-04-23T14:32:39Z</time></trkpt><trkpt lat="43.612900804720546" lon="12.679616665271773"><ele>294.0</ele><time>2026-04-23T14:32:40Z</time></trkpt><trkpt lat="43.612999313420175" lon="12.679581716232962"><ele>294.0</ele><time>2026-04-23T14:32:41Z</time></trkpt><trkpt lat="43.6131039644513" lon="12.679555403271326"><ele>294.0</ele><time>2026-04-23T14:32:42Z</time></trkpt><trkpt lat="43.61319144797436" lon="12.679541695089597"><ele>292.25</ele><time>2026-04-23T14:32:43Z</time></trkpt><trkpt lat="43.61328970657385" lon="12.679650538219127"><ele>290.5</ele><time>2026-04-23T14:32:45Z</time></trkpt><trkpt lat="43.6133214465922" lon="12.679777816776669"><ele>288.75</ele><time>2026-04-23T14:32:46Z</time></trkpt><trkpt lat="43.613388283440756" lon="12.679918004198923"><ele>287.0</ele><time>2026-04-23T14:32:47Z</time></trkpt><trkpt lat="43.61345487205863" lon="12.680046762487645"><ele>287.0</ele><time>2026-04-23T14:32:48Z</time></trkpt><trkpt lat="43.613521430526966" lon="12.680122262186766"><ele>287.0</ele><time>2026-04-23T14:32:49Z</time></trkpt><trkpt lat="43.61361650355147" lon="12.680138358514945"><ele>287.0</ele><time>2026-04-23T14:32:50Z</time></trkpt><trkpt lat="43.61369399219422" lon="12.68015589804824"><ele>287.0</ele><time>2026-04-23T14:32:51Z</time></trkpt><trkpt lat="43.61375838334481" lon="12.680165644529175"><ele>287.0</ele><time>2026-04-23T14:32:52Z</time></trkpt><trkpt lat="43.61385327331118" lon="12.680242353508605"><ele>287.0</ele><time>2026-04-23T14:32:54Z</time></trkpt><trkpt lat="43.61394950752127" lon="12.680335433243272"><ele>286.2</ele><time>2026-04-23T14:32:56Z</time></trkpt><trkpt lat="43.61401470721876" lon="12.680388205195523"><ele>285.4</ele><time>2026-04-23T14:32:57Z</time></trkpt><trkpt lat="43.61408364709982" lon="12.680467940234783"><ele>284.6</ele><time>2026-04-23T14:32:58Z</time></trkpt><trkpt lat="43.614157209839334" lon="12.680570384619493"><ele>283.8</ele><time>2026-04-23T14:32:59Z</time></trkpt><trkpt lat="43.61422316323811" lon="12.68066170125238"><ele>283.0</ele><time>2026-04-23T14:33:00Z</time></trkpt><trkpt lat="43.61428779216541" lon="12.680744353580256"><ele>283.0</ele><time>2026-04-23T14:33:01Z</time></trkpt><trkpt lat="43.614326669904095" lon="12.680815524604395"><ele>283.0</ele><time>2026-04-23T14:33:02Z</time></trkpt><trkpt lat="43.61443028561316" lon="12.680859671631184"><ele>283.0</ele><time>2026-04-23T14:33:04Z</time></trkpt><trkpt lat="43.61448750589497" lon="12.680801532215423"><ele>283.0</ele><time>2026-04-23T14:33:05Z</time></trkpt><trkpt lat="43.61454711550005" lon="12.680756528764963"><ele>283.0</ele><time>2026-04-23T14:33:06Z</time></trkpt><trkpt lat="43.61461463577446" lon="12.68069910186839"><ele>283.0</ele><time>2026-04-23T14:33:07Z</time></trkpt><trkpt lat="43.61469609050729" lon="12.680628468092687"><ele>281.8</ele><time>2026-04-23T14:33:08Z</time></trkpt><trkpt lat="43.614787050055135" lon="12.680560179320421"><ele>280.6</ele><time>2026-04-23T14:33:09Z</time></trkpt><trkpt lat="43.61488475220015" lon="12.680498628452053"><ele>279.4</ele><time>2026-04-23T14:33:10Z</time></trkpt><trkpt lat="43.614987731327524" lon="12.68042751412281"><ele>278.2</ele><time>2026-04-23T14:33:11Z</time></trkpt><trkpt lat="43.61507391053067" lon="12.680368014934423"><ele>277.0</ele><time>2026-04-23T14:33:12Z</time></trkpt><trkpt lat="43.615167244521686" lon="12.680283950070818"><ele>274.6</ele><time>2026-04-23T14:33:13Z</time></trkpt><trkpt lat="43.61526872678722" lon="12.680203165579043"><ele>272.2</ele><time>2026-04-23T14:33:14Z</time></trkpt><trkpt lat="43.615370625908206" lon="12.68013672850122"><ele>269.8</ele><time>2026-04-23T14:33:15Z</time></trkpt><trkpt lat="43.61546522394004" lon="12.680079975868077"><ele>267.4</ele><time>2026-04-23T14:33:16Z</time></trkpt><trkpt lat="43.61555602918985" lon="12.68003853267607"><ele>265.0</ele><time>2026-04-23T14:33:17Z</time></trkpt><trkpt lat="43.615638722591825" lon="12.679986056633124"><ele>265.0</ele><time>2026-04-23T14:33:18Z</time></trkpt><trkpt lat="43.61571958061281" lon="12.67991835698619"><ele>265.0</ele><time>2026-04-23T14:33:19Z</time></trkpt><trkpt lat="43.615794921904815" lon="12.67984353504914"><ele>265.0</ele><time>2026-04-23T14:33:20Z</time></trkpt><trkpt lat="43.615866344017086" lon="12.679760797010024"><ele>265.0</ele><time>2026-04-23T14:33:21Z</time></trkpt><trkpt lat="43.61593717357555" lon="12.679661496173447"><ele>265.0</ele><time>2026-04-23T14:33:22Z</time></trkpt><trkpt lat="43.616009882564526" lon="12.67954596819741"><ele>265.0</ele><time>2026-04-23T14:33:23Z</time></trkpt><trkpt lat="43.616082442353985" lon="12.67943853967913"><ele>265.0</ele><time>2026-04-23T14:33:24Z</time></trkpt><trkpt lat="43.6161574645261" lon="12.679348284933196"><ele>265.0</ele><time>2026-04-23T14:33:25Z</time></trkpt><trkpt lat="43.616249796736206" lon="12.67927685996148"><ele>265.0</ele><time>2026-04-23T14:33:26Z</time></trkpt><trkpt lat="43.61634216503546" lon="12.679210755381234"><ele>265.0</ele><time>2026-04-23T14:33:27Z</time></trkpt><trkpt lat="43.61643154253643" lon="12.679161940822686"><ele>262.4</ele><time>2026-04-23T14:33:28Z</time></trkpt><trkpt lat="43.61651023484762" lon="12.679118683358228"><ele>259.8</ele><time>2026-04-23T14:33:29Z</time></trkpt><trkpt lat="43.616578053785005" lon="12.679083794276046"><ele>257.2</ele><time>2026-04-23T14:33:30Z</time></trkpt><trkpt lat="43.61669852315708" lon="12.679072469111375"><ele>254.6</ele><time>2026-04-23T14:33:32Z</time></trkpt><trkpt lat="43.61677424795614" lon="12.679089148780795"><ele>252.0</ele><time>2026-04-23T14:33:33Z</time></trkpt><trkpt lat="43.61686824201118" lon="12.67913826052694"><ele>252.0</ele><time>2026-04-23T14:33:34Z</time></trkpt><trkpt lat="43.61697967892243" lon="12.67921188488797"><ele>252.0</ele><time>2026-04-23T14:33:35Z</time></trkpt><trkpt lat="43.617111937235755" lon="12.679312226141477"><ele>252.0</ele><time>2026-04-23T14:33:36Z</time></trkpt><trkpt lat="43.61727274330988" lon="12.679457476490715"><ele>251.75</ele><time>2026-04-23T14:33:37Z</time></trkpt><trkpt lat="43.61741063053729" lon="12.679587780069678"><ele>251.5</ele><time>2026-04-23T14:33:38Z</time></trkpt><trkpt lat="43.61752094562504" lon="12.679686572430324"><ele>251.25</ele><time>2026-04-23T14:33:39Z</time></trkpt><trkpt lat="43.61758943064776" lon="12.679755463860207"><ele>251.0</ele><time>2026-04-23T14:33:40Z</time></trkpt><trkpt lat="43.617639749672996" lon="12.679823707781068"><ele>251.0</ele><time>2026-04-23T14:33:41Z</time></trkpt><trkpt lat="43.617630805968496" lon="12.679948930896119"><ele>251.0</ele><time>2026-04-23T14:33:43Z</time></trkpt><trkpt lat="43.61755410341233" lon="12.680109525387287"><ele>251.0</ele><time>2026-04-23T14:33:45Z</time></trkpt><trkpt lat="43.61748895053889" lon="12.680254795940824"><ele>251.0</ele><time>2026-04-23T14:33:46Z</time></trkpt><trkpt lat="43.6174312334684" lon="12.680402078972755"><ele>250.60000000000002</ele><time>2026-04-23T14:33:47Z</time></trkpt><trkpt lat="43.61740190444063" lon="12.680533435363458"><ele>250.20000000000002</ele><time>2026-04-23T14:33:48Z</time></trkpt><trkpt lat="43.617398233901135" lon="12.680680020045815"><ele>249.79999999999998</ele><time>2026-04-23T14:33:49Z</time></trkpt><trkpt lat="43.617398072850655" lon="12.680813063001183"><ele>249.39999999999998</ele><time>2026-04-23T14:33:50Z</time></trkpt><trkpt lat="43.61740038375473" lon="12.680917410643737"><ele>249.0</ele><time>2026-04-23T14:33:51Z</time></trkpt><trkpt lat="43.6174108958506" lon="12.681042790049794"><ele>249.0</ele><time>2026-04-23T14:33:53Z</time></trkpt><trkpt lat="43.617297505095486" lon="12.681054831696807"><ele>249.0</ele><time>2026-04-23T14:33:54Z</time></trkpt><trkpt lat="43.617201298524925" lon="12.681153523292119"><ele>249.0</ele><time>2026-04-23T14:33:55Z</time></trkpt><trkpt lat="43.61707331922267" lon="12.681291025367061"><ele>249.0</ele><time>2026-04-23T14:33:56Z</time></trkpt><trkpt lat="43.61692514997563" lon="12.681447600454442"><ele>248.33333333333331</ele><time>2026-04-23T14:33:57Z</time></trkpt><trkpt lat="43.616764078358436" lon="12.681634826209898"><ele>247.66666666666666</ele><time>2026-04-23T14:33:58Z</time></trkpt><trkpt lat="43.61662190453479" lon="12.681815470680863"><ele>247.0</ele><time>2026-04-23T14:33:59Z</time></trkpt><trkpt lat="43.616501715753174" lon="12.68197576116671"><ele>247.0</ele><time>2026-04-23T14:34:00Z</time></trkpt><trkpt lat="43.61639636652805" lon="12.682122421019374"><ele>247.0</ele><time>2026-04-23T14:34:01Z</time></trkpt><trkpt lat="43.61629933093173" lon="12.682261208393749"><ele>247.0</ele><time>2026-04-23T14:34:02Z</time></trkpt><trkpt lat="43.616218542604514" lon="12.682431527828784"><ele>247.0</ele><time>2026-04-23T14:34:03Z</time></trkpt><trkpt lat="43.616173712174195" lon="12.68265141295917"><ele>251.5</ele><time>2026-04-23T14:34:04Z</time></trkpt><trkpt lat="43.61610359451151" lon="12.682858059093187"><ele>256.0</ele><time>2026-04-23T14:34:05Z</time></trkpt><trkpt lat="43.61604174475748" lon="12.683030124259261"><ele>260.5</ele><time>2026-04-23T14:34:06Z</time></trkpt><trkpt lat="43.61598308720005" lon="12.683162863616634"><ele>265.0</ele><time>2026-04-23T14:34:07Z</time></trkpt><trkpt lat="43.61592040825381" lon="12.683264335721972"><ele>265.0</ele><time>2026-04-23T14:34:08Z</time></trkpt><trkpt lat="43.61585015183758" lon="12.683357228879107"><ele>265.0</ele><time>2026-04-23T14:34:09Z</time></trkpt><trkpt lat="43.61576165720123" lon="12.683422894032491"><ele>265.0</ele><time>2026-04-23T14:34:10Z</time></trkpt><trkpt lat="43.61563818824258" lon="12.683488856298075"><ele>265.0</ele><time>2026-04-23T14:34:11Z</time></trkpt><trkpt lat="43.615508371448094" lon="12.68355495044306"><ele>266.66666666666663</ele><time>2026-04-23T14:34:12Z</time></trkpt><trkpt lat="43.61535881964405" lon="12.683642922066804"><ele>268.3333333333333</ele><time>2026-04-23T14:34:13Z</time></trkpt><trkpt lat="43.61520516006183" lon="12.683759528995086"><ele>270.0</ele><time>2026-04-23T14:34:14Z</time></trkpt><trkpt lat="43.61504375826361" lon="12.683832878752648"><ele>270.0</ele><time>2026-04-23T14:34:15Z</time></trkpt><trkpt lat="43.61489183815903" lon="12.683884209505338"><ele>270.0</ele><time>2026-04-23T14:34:16Z</time></trkpt><trkpt lat="43.61474401714034" lon="12.683939341391499"><ele>270.0</ele><time>2026-04-23T14:34:17Z</time></trkpt><trkpt lat="43.61458970117172" lon="12.684005992101936"><ele>274.6666666666667</ele><time>2026-04-23T14:34:18Z</time></trkpt><trkpt lat="43.614406430811485" lon="12.684083973489308"><ele>279.33333333333337</ele><time>2026-04-23T14:34:19Z</time></trkpt><trkpt lat="43.61421333989288" lon="12.684161828997395"><ele>284.0</ele><time>2026-04-23T14:34:20Z</time></trkpt><trkpt lat="43.61401267536913" lon="12.684240767547124"><ele>284.0</ele><time>2026-04-23T14:34:21Z</time></trkpt><trkpt lat="43.61382621763672" lon="12.684325750271798"><ele>284.0</ele><time>2026-04-23T14:34:22Z</time></trkpt><trkpt lat="43.61365261848164" lon="12.684442306549844"><ele>284.0</ele><time>2026-04-23T14:34:23Z</time></trkpt><trkpt lat="43.61350396483691" lon="12.684530853279902"><ele>283.0</ele><time>2026-04-23T14:34:24Z</time></trkpt><trkpt lat="43.613371121767976" lon="12.684590764210972"><ele>282.0</ele><time>2026-04-23T14:34:25Z</time></trkpt><trkpt lat="43.61325771529187" lon="12.684603141990369"><ele>281.0</ele><time>2026-04-23T14:34:26Z</time></trkpt><trkpt lat="43.61314903362881" lon="12.684623243641798"><ele>280.0</ele><time>2026-04-23T14:34:27Z</time></trkpt><trkpt lat="43.61302823749974" lon="12.684660843579984"><ele>280.0</ele><time>2026-04-23T14:34:28Z</time></trkpt><trkpt lat="43.61289951172497" lon="12.684655977021254"><ele>280.0</ele><time>2026-04-23T14:34:29Z</time></trkpt><trkpt lat="43.612770724889536" lon="12.684628357833253"><ele>280.0</ele><time>2026-04-23T14:34:30Z</time></trkpt><trkpt lat="43.61266089768704" lon="12.684570677718465"><ele>280.0</ele><time>2026-04-23T14:34:31Z</time></trkpt><trkpt lat="43.61255951910667" lon="12.684475691513047"><ele>282.4</ele><time>2026-04-23T14:34:32Z</time></trkpt><trkpt lat="43.61244180462243" lon="12.684430137245435"><ele>284.8</ele><time>2026-04-23T14:34:33Z</time></trkpt><trkpt lat="43.61235738074561" lon="12.684347346341347"><ele>287.2</ele><time>2026-04-23T14:34:34Z</time></trkpt><trkpt lat="43.6122932629696" lon="12.684270426544346"><ele>289.6</ele><time>2026-04-23T14:34:36Z</time></trkpt><trkpt lat="43.61235445513003" lon="12.684203052016581"><ele>292.0</ele><time>2026-04-23T14:34:38Z</time></trkpt><trkpt lat="43.612438380233" lon="12.684260818588017"><ele>295.0</ele><time>2026-04-23T14:34:41Z</time></trkpt><trkpt lat="43.612519587332955" lon="12.684316802912797"><ele>298.0</ele><time>2026-04-23T14:34:43Z</time></trkpt><trkpt lat="43.61264668038536" lon="12.684384084501794"><ele>301.0</ele><time>2026-04-23T14:34:45Z</time></trkpt><trkpt lat="43.61274424101316" lon="12.68440778533011"><ele>304.0</ele><time>2026-04-23T14:34:46Z</time></trkpt><trkpt lat="43.61285700656837" lon="12.684402410791092"><ele>307.0</ele><time>2026-04-23T14:34:47Z</time></trkpt><trkpt lat="43.612941061209796" lon="12.684357854372202"><ele>307.0</ele><time>2026-04-23T14:34:48Z</time></trkpt><trkpt lat="43.61301891657229" lon="12.68429039257763"><ele>307.0</ele><time>2026-04-23T14:34:49Z</time></trkpt><trkpt lat="43.61310889620453" lon="12.684192475778389"><ele>307.0</ele><time>2026-04-23T14:34:50Z</time></trkpt><trkpt lat="43.61321401441128" lon="12.684071196692951"><ele>307.0</ele><time>2026-04-23T14:34:51Z</time></trkpt><trkpt lat="43.61333379478102" lon="12.683929074872973"><ele>307.0</ele><time>2026-04-23T14:34:52Z</time></trkpt><trkpt lat="43.613470068189564" lon="12.683776283613115"><ele>307.0</ele><time>2026-04-23T14:34:53Z</time></trkpt><trkpt lat="43.61361955842202" lon="12.68361175121527"><ele>307.0</ele><time>2026-04-23T14:34:54Z</time></trkpt><trkpt lat="43.61374869340958" lon="12.683455732902974"><ele>306.6</ele><time>2026-04-23T14:34:55Z</time></trkpt><trkpt lat="43.61386029483724" lon="12.683306441024273"><ele>306.2</ele><time>2026-04-23T14:34:56Z</time></trkpt><trkpt lat="43.61393677847054" lon="12.683187546123087"><ele>305.8</ele><time>2026-04-23T14:34:57Z</time></trkpt><trkpt lat="43.6139969693168" lon="12.683084982858013"><ele>305.4</ele><time>2026-04-23T14:34:58Z</time></trkpt><trkpt lat="43.61403471219391" lon="12.682984812950886"><ele>305.0</ele><time>2026-04-23T14:34:59Z</time></trkpt><trkpt lat="43.61405877127353" lon="12.682874241652152"><ele>308.0</ele><time>2026-04-23T14:35:00Z</time></trkpt><trkpt lat="43.61406312168407" lon="12.682744652184143"><ele>311.0</ele><time>2026-04-23T14:35:01Z</time></trkpt><trkpt lat="43.61405119785776" lon="12.682623444333165"><ele>314.0</ele><time>2026-04-23T14:35:02Z</time></trkpt><trkpt lat="43.61402140100211" lon="12.682516991626436"><ele>317.0</ele><time>2026-04-23T14:35:03Z</time></trkpt><trkpt lat="43.61396962302625" lon="12.682421841056234"><ele>320.0</ele><time>2026-04-23T14:35:04Z</time></trkpt><trkpt lat="43.613893084242" lon="12.682330105160078"><ele>320.0</ele><time>2026-04-23T14:35:05Z</time></trkpt><trkpt lat="43.613805425489716" lon="12.682219533343943"><ele>320.0</ele><time>2026-04-23T14:35:06Z</time></trkpt><trkpt lat="43.61370709203518" lon="12.682082287120894"><ele>320.0</ele><time>2026-04-23T14:35:07Z</time></trkpt><trkpt lat="43.61361084845729" lon="12.681939123826014"><ele>320.0</ele><time>2026-04-23T14:35:08Z</time></trkpt><trkpt lat="43.613562750541476" lon="12.681822975258846"><ele>323.2</ele><time>2026-04-23T14:35:09Z</time></trkpt><trkpt lat="43.61350690789713" lon="12.681757646454093"><ele>326.4</ele><time>2026-04-23T14:35:11Z</time></trkpt><trkpt lat="43.613395487786946" lon="12.681795478997739"><ele>329.6</ele><time>2026-04-23T14:35:13Z</time></trkpt><trkpt lat="43.61337369907886" lon="12.681910971312595"><ele>332.8</ele><time>2026-04-23T14:35:14Z</time></trkpt><trkpt lat="43.61340293919227" lon="12.682036790247317"><ele>336.0</ele><time>2026-04-23T14:35:15Z</time></trkpt><trkpt lat="43.61343346399096" lon="12.682148685935344"><ele>337.75</ele><time>2026-04-23T14:35:16Z</time></trkpt><trkpt lat="43.613464163611866" lon="12.682257707070013"><ele>339.5</ele><time>2026-04-23T14:35:17Z</time></trkpt><trkpt lat="43.61350772357238" lon="12.682434169081791"><ele>341.25</ele><time>2026-04-23T14:35:18Z</time></trkpt><trkpt lat="43.613547522473446" lon="12.682618966500046"><ele>343.0</ele><time>2026-04-23T14:35:19Z</time></trkpt><trkpt lat="43.61358048046424" lon="12.682750643706264"><ele>340.79999999999995</ele><time>2026-04-23T14:35:20Z</time></trkpt><trkpt lat="43.61356544994032" lon="12.682853369957048"><ele>338.6</ele><time>2026-04-23T14:35:21Z</time></trkpt><trkpt lat="43.613522754774436" lon="12.682981934838867"><ele>336.4</ele><time>2026-04-23T14:35:23Z</time></trkpt><trkpt lat="43.61340823492334" lon="12.683030777668328"><ele>334.20000000000005</ele><time>2026-04-23T14:35:25Z</time></trkpt><trkpt lat="43.61331876779098" lon="12.683028244611883"><ele>332.0</ele><time>2026-04-23T14:35:27Z</time></trkpt><trkpt lat="43.61328189927225" lon="12.682887587559687"><ele>333.83333333333337</ele><time>2026-04-23T14:35:29Z</time></trkpt><trkpt lat="43.61330794729718" lon="12.682762446321778"><ele>335.6666666666667</ele><time>2026-04-23T14:35:30Z</time></trkpt><trkpt lat="43.613311129298154" lon="12.682618919643158"><ele>337.5</ele><time>2026-04-23T14:35:31Z</time></trkpt><trkpt lat="43.61331592977486" lon="12.682491054928704"><ele>339.3333333333333</ele><time>2026-04-23T14:35:32Z</time></trkpt><trkpt lat="43.61329576297234" lon="12.682396842126806"><ele>341.16666666666663</ele><time>2026-04-23T14:35:33Z</time></trkpt><trkpt lat="43.613251426262856" lon="12.682321542816233"><ele>343.0</ele><time>2026-04-23T14:35:34Z</time></trkpt><trkpt lat="43.61315423863514" lon="12.682169013102767"><ele>343.0</ele><time>2026-04-23T14:35:36Z</time></trkpt><trkpt lat="43.613101548734235" lon="12.682096824119022"><ele>343.0</ele><time>2026-04-23T14:35:37Z</time></trkpt><trkpt lat="43.613035147320005" lon="12.68200584921019"><ele>343.0</ele><time>2026-04-23T14:35:38Z</time></trkpt><trkpt lat="43.61294990205865" lon="12.68195285585079"><ele>343.0</ele><time>2026-04-23T14:35:39Z</time></trkpt><trkpt lat="43.61287103897923" lon="12.681890874430119"><ele>343.0</ele><time>2026-04-23T14:35:40Z</time></trkpt><trkpt lat="43.612778680100824" lon="12.681822934848652"><ele>345.2</ele><time>2026-04-23T14:35:41Z</time></trkpt><trkpt lat="43.61268721983703" lon="12.681732300731834"><ele>347.4</ele><time>2026-04-23T14:35:42Z</time></trkpt><trkpt lat="43.61257461323473" lon="12.681670148807768"><ele>349.59999999999997</ele><time>2026-04-23T14:35:43Z</time></trkpt><trkpt lat="43.61248115978532" lon="12.681638843215456"><ele>351.79999999999995</ele><time>2026-04-23T14:35:44Z</time></trkpt><trkpt lat="43.61241548724366" lon="12.68162865465865"><ele>354.0</ele><time>2026-04-23T14:35:45Z</time></trkpt><trkpt lat="43.61232554053532" lon="12.68163475188227"><ele>354.0</ele><time>2026-04-23T14:35:46Z</time></trkpt><trkpt lat="43.61221840594991" lon="12.681649159116606"><ele>354.0</ele><time>2026-04-23T14:35:47Z</time></trkpt><trkpt lat="43.61208727083625" lon="12.681672092707045"><ele>354.0</ele><time>2026-04-23T14:35:48Z</time></trkpt><trkpt lat="43.61194790155364" lon="12.681696619472266"><ele>354.0</ele><time>2026-04-23T14:35:49Z</time></trkpt><trkpt lat="43.61180383599855" lon="12.681723500064086"><ele>357.3333333333333</ele><time>2026-04-23T14:35:50Z</time></trkpt><trkpt lat="43.61165318896045" lon="12.681772496546634"><ele>360.66666666666663</ele><time>2026-04-23T14:35:51Z</time></trkpt><trkpt lat="43.61149069532635" lon="12.681796369790078"><ele>364.0</ele><time>2026-04-23T14:35:52Z</time></trkpt><trkpt lat="43.61133118238321" lon="12.681827865002463"><ele>364.0</ele><time>2026-04-23T14:35:53Z</time></trkpt><trkpt lat="43.6111643791318" lon="12.681862623786262"><ele>364.0</ele><time>2026-04-23T14:35:54Z</time></trkpt><trkpt lat="43.61100247921816" lon="12.681889439937002"><ele>364.0</ele><time>2026-04-23T14:35:55Z</time></trkpt><trkpt lat="43.610854388022815" lon="12.68190809817959"><ele>364.25</ele><time>2026-04-23T14:35:56Z</time></trkpt><trkpt lat="43.61070850657564" lon="12.681900727754899"><ele>364.5</ele><time>2026-04-23T14:35:57Z</time></trkpt><trkpt lat="43.61059309400739" lon="12.681939042700126"><ele>364.75</ele><time>2026-04-23T14:35:58Z</time></trkpt><trkpt lat="43.61049813998578" lon="12.681974234255197"><ele>365.0</ele><time>2026-04-23T14:35:59Z</time></trkpt><trkpt lat="43.610409683891696" lon="12.68204046112388"><ele>369.0</ele><time>2026-04-23T14:36:00Z</time></trkpt><trkpt lat="43.61030635638325" lon="12.682110650789589"><ele>373.0</ele><time>2026-04-23T14:36:01Z</time></trkpt><trkpt lat="43.61021875673677" lon="12.682219558770798"><ele>377.0</ele><time>2026-04-23T14:36:02Z</time></trkpt><trkpt lat="43.61012868348808" lon="12.682347339333994"><ele>381.0</ele><time>2026-04-23T14:36:03Z</time></trkpt><trkpt lat="43.610047899428956" lon="12.682497788337436"><ele>381.0</ele><time>2026-04-23T14:36:04Z</time></trkpt><trkpt lat="43.60995105323916" lon="12.682643717530485"><ele>381.0</ele><time>2026-04-23T14:36:05Z</time></trkpt><trkpt lat="43.609859608471645" lon="12.682742124372293"><ele>381.0</ele><time>2026-04-23T14:36:06Z</time></trkpt><trkpt lat="43.60977056409918" lon="12.682801174375506"><ele>381.0</ele><time>2026-04-23T14:36:07Z</time></trkpt><trkpt lat="43.60967744970359" lon="12.682853653113794"><ele>381.5</ele><time>2026-04-23T14:36:08Z</time></trkpt><trkpt lat="43.60957412674453" lon="12.682885824612278"><ele>382.0</ele><time>2026-04-23T14:36:09Z</time></trkpt><trkpt lat="43.609443634060696" lon="12.682917415363256"><ele>382.5</ele><time>2026-04-23T14:36:10Z</time></trkpt><trkpt lat="43.609306399341506" lon="12.682972482509783"><ele>383.0</ele><time>2026-04-23T14:36:11Z</time></trkpt><trkpt lat="43.6091873609216" lon="12.683063143942402"><ele>383.0</ele><time>2026-04-23T14:36:12Z</time></trkpt><trkpt lat="43.60907528389542" lon="12.68313730007756"><ele>383.0</ele><time>2026-04-23T14:36:13Z</time></trkpt><trkpt lat="43.608965425520545" lon="12.683264650634996"><ele>383.0</ele><time>2026-04-23T14:36:14Z</time></trkpt><trkpt lat="43.60883597585156" lon="12.683440617468353"><ele>383.0</ele><time>2026-04-23T14:36:15Z</time></trkpt><trkpt lat="43.60871489811269" lon="12.683578106289362"><ele>386.33333333333337</ele><time>2026-04-23T14:36:16Z</time></trkpt><trkpt lat="43.60857642497376" lon="12.683709741923488"><ele>389.6666666666667</ele><time>2026-04-23T14:36:17Z</time></trkpt><trkpt lat="43.60843942787727" lon="12.683848502766633"><ele>393.0</ele><time>2026-04-23T14:36:18Z</time></trkpt><trkpt lat="43.60831249033796" lon="12.683976265613786"><ele>393.0</ele><time>2026-04-23T14:36:19Z</time></trkpt><trkpt lat="43.608188580592866" lon="12.684104490009517"><ele>393.0</ele><time>2026-04-23T14:36:20Z</time></trkpt><trkpt lat="43.60808754229238" lon="12.684219086845518"><ele>393.0</ele><time>2026-04-23T14:36:21Z</time></trkpt><trkpt lat="43.60798306514517" lon="12.684336932915055"><ele>393.0</ele><time>2026-04-23T14:36:22Z</time></trkpt><trkpt lat="43.60787027410782" lon="12.684460813532318"><ele>396.33333333333337</ele><time>2026-04-23T14:36:23Z</time></trkpt><trkpt lat="43.60774969834721" lon="12.68459324416345"><ele>399.6666666666667</ele><time>2026-04-23T14:36:24Z</time></trkpt><trkpt lat="43.60762779945441" lon="12.68473079633475"><ele>403.0</ele><time>2026-04-23T14:36:25Z</time></trkpt><trkpt lat="43.60752077616999" lon="12.684852532164962"><ele>403.0</ele><time>2026-04-23T14:36:26Z</time></trkpt><trkpt lat="43.607435463887555" lon="12.684954601515976"><ele>403.0</ele><time>2026-04-23T14:36:27Z</time></trkpt><trkpt lat="43.60734709776577" lon="12.685057580209657"><ele>403.0</ele><time>2026-04-23T14:36:28Z</time></trkpt><trkpt lat="43.607245126673384" lon="12.685158752367283"><ele>403.0</ele><time>2026-04-23T14:36:29Z</time></trkpt><trkpt lat="43.607145504461826" lon="12.685252202539989"><ele>406.25</ele><time>2026-04-23T14:36:30Z</time></trkpt><trkpt lat="43.607034548019826" lon="12.685338507950402"><ele>409.5</ele><time>2026-04-23T14:36:31Z</time></trkpt><trkpt lat="43.60691075764506" lon="12.685426335329321"><ele>412.75</ele><time>2026-04-23T14:36:32Z</time></trkpt><trkpt lat="43.60679878611162" lon="12.685516341830256"><ele>416.0</ele><time>2026-04-23T14:36:33Z</time></trkpt><trkpt lat="43.60672925432716" lon="12.685611127077388"><ele>416.0</ele><time>2026-04-23T14:36:34Z</time></trkpt><trkpt lat="43.60668065345525" lon="12.685689798435396"><ele>416.0</ele><time>2026-04-23T14:36:35Z</time></trkpt><trkpt lat="43.60664497334297" lon="12.685824857052687"><ele>416.0</ele><time>2026-04-23T14:36:36Z</time></trkpt><trkpt lat="43.60656582466037" lon="12.685920428540015"><ele>416.0</ele><time>2026-04-23T14:36:37Z</time></trkpt><trkpt lat="43.60649917144732" lon="12.685974107327313"><ele>416.0</ele><time>2026-04-23T14:36:38Z</time></trkpt><trkpt lat="43.60639813880503" lon="12.686032966392826"><ele>412.75</ele><time>2026-04-23T14:36:39Z</time></trkpt><trkpt lat="43.60631024425009" lon="12.686110426736537"><ele>409.5</ele><time>2026-04-23T14:36:40Z</time></trkpt><trkpt lat="43.606255445588346" lon="12.686242928651573"><ele>406.25</ele><time>2026-04-23T14:36:41Z</time></trkpt><trkpt lat="43.60623375015104" lon="12.686388255246676"><ele>403.0</ele><time>2026-04-23T14:36:42Z</time></trkpt><trkpt lat="43.606199624046646" lon="12.686557900791437"><ele>415.0</ele><time>2026-04-23T14:36:43Z</time></trkpt><trkpt lat="43.60615378584319" lon="12.686762073647099"><ele>427.0</ele><time>2026-04-23T14:36:44Z</time></trkpt><trkpt lat="43.606125356042966" lon="12.686970247767256"><ele>439.0</ele><time>2026-04-23T14:36:45Z</time></trkpt><trkpt lat="43.606086887450964" lon="12.687184011805348"><ele>439.0</ele><time>2026-04-23T14:36:46Z</time></trkpt><trkpt lat="43.606048299261715" lon="12.687397723944558"><ele>439.0</ele><time>2026-04-23T14:36:47Z</time></trkpt><trkpt lat="43.6060076629138" lon="12.687539359892353"><ele>439.0</ele><time>2026-04-23T14:36:48Z</time></trkpt><trkpt lat="43.60596783924897" lon="12.687644448559968"><ele>439.0</ele><time>2026-04-23T14:36:49Z</time></trkpt><trkpt lat="43.60591525567402" lon="12.687774469819756"><ele>436.50000000000006</ele><time>2026-04-23T14:36:50Z</time></trkpt><trkpt lat="43.60584557280577" lon="12.6879028014639"><ele>434.0</ele><time>2026-04-23T14:36:51Z</time></trkpt><trkpt lat="43.60578373475728" lon="12.687978790962209"><ele>431.5</ele><time>2026-04-23T14:36:52Z</time></trkpt><trkpt lat="43.60572412443612" lon="12.688021978387164"><ele>429.0</ele><time>2026-04-23T14:36:53Z</time></trkpt><trkpt lat="43.60565830420408" lon="12.688025773324219"><ele>426.50000000000006</ele><time>2026-04-23T14:36:54Z</time></trkpt><trkpt lat="43.60556962809463" lon="12.688041879468663"><ele>424.0</ele><time>2026-04-23T14:36:55Z</time></trkpt><trkpt lat="43.60544883795523" lon="12.688048796167795"><ele>429.0</ele><time>2026-04-23T14:36:56Z</time></trkpt><trkpt lat="43.60530126209161" lon="12.688069381196017"><ele>434.0</ele><time>2026-04-23T14:36:57Z</time></trkpt><trkpt lat="43.60514512334656" lon="12.688096960957115"><ele>439.0</ele><time>2026-04-23T14:36:58Z</time></trkpt><trkpt lat="43.60499455204226" lon="12.688148728001455"><ele>439.0</ele><time>2026-04-23T14:36:59Z</time></trkpt><trkpt lat="43.604849970895515" lon="12.68821807722007"><ele>439.0</ele><time>2026-04-23T14:37:00Z</time></trkpt><trkpt lat="43.604690839860865" lon="12.688305115067363"><ele>439.0</ele><time>2026-04-23T14:37:01Z</time></trkpt><trkpt lat="43.604548906661485" lon="12.688383232208668"><ele>444.25</ele><time>2026-04-23T14:37:02Z</time></trkpt><trkpt lat="43.60441049388481" lon="12.688433571207153"><ele>449.5</ele><time>2026-04-23T14:37:03Z</time></trkpt><trkpt lat="43.60427116595561" lon="12.688469705014485"><ele>454.75</ele><time>2026-04-23T14:37:04Z</time></trkpt><trkpt lat="43.60413382828754" lon="12.688505134467663"><ele>460.0</ele><time>2026-04-23T14:37:05Z</time></trkpt><trkpt lat="43.60402117354899" lon="12.688552645806487"><ele>453.0</ele><time>2026-04-23T14:37:06Z</time></trkpt><trkpt lat="43.603927664807514" lon="12.68863143777175"><ele>446.0</ele><time>2026-04-23T14:37:07Z</time></trkpt><trkpt lat="43.6038547425503" lon="12.688747147350487"><ele>439.0</ele><time>2026-04-23T14:37:08Z</time></trkpt><trkpt lat="43.603790265433744" lon="12.688892749318624"><ele>432.0</ele><time>2026-04-23T14:37:09Z</time></trkpt><trkpt lat="43.60371919566071" lon="12.689057619811571"><ele>433.6</ele><time>2026-04-23T14:37:10Z</time></trkpt><trkpt lat="43.60364739259652" lon="12.689224190748618"><ele>435.20000000000005</ele><time>2026-04-23T14:37:11Z</time></trkpt><trkpt lat="43.60357587636651" lon="12.689344581614309"><ele>436.8</ele><time>2026-04-23T14:37:12Z</time></trkpt><trkpt lat="43.60351751874619" lon="12.689408555703386"><ele>438.4</ele><time>2026-04-23T14:37:13Z</time></trkpt><trkpt lat="43.603450227691994" lon="12.689449163460578"><ele>440.0</ele><time>2026-04-23T14:37:14Z</time></trkpt><trkpt lat="43.60335732000174" lon="12.68948640148724"><ele>440.0</ele><time>2026-04-23T14:37:15Z</time></trkpt><trkpt lat="43.60323674384249" lon="12.689507177306817"><ele>440.0</ele><time>2026-04-23T14:37:16Z</time></trkpt><trkpt lat="43.60310149912516" lon="12.689514218486275"><ele>440.0</ele><time>2026-04-23T14:37:17Z</time></trkpt><trkpt lat="43.602967084704396" lon="12.689490528999212"><ele>440.0</ele><time>2026-04-23T14:37:18Z</time></trkpt><trkpt lat="43.60284251358049" lon="12.689469806595111"><ele>444.2</ele><time>2026-04-23T14:37:19Z</time></trkpt><trkpt lat="43.60274243716719" lon="12.689475315812595"><ele>448.4</ele><time>2026-04-23T14:37:20Z</time></trkpt><trkpt lat="43.60266239236316" lon="12.689500769716611"><ele>452.6</ele><time>2026-04-23T14:37:21Z</time></trkpt><trkpt lat="43.60256595251386" lon="12.689566230934044"><ele>456.8</ele><time>2026-04-23T14:37:22Z</time></trkpt><trkpt lat="43.602465989157665" lon="12.689627929928454"><ele>461.0</ele><time>2026-04-23T14:37:23Z</time></trkpt><trkpt lat="43.60234628498329" lon="12.689718096578915"><ele>461.0</ele><time>2026-04-23T14:37:24Z</time></trkpt><trkpt lat="43.60221550805447" lon="12.689833369424083"><ele>461.0</ele><time>2026-04-23T14:37:25Z</time></trkpt><trkpt lat="43.60209250285462" lon="12.68994988564107"><ele>461.0</ele><time>2026-04-23T14:37:26Z</time></trkpt><trkpt lat="43.601962916874115" lon="12.690081847363913"><ele>465.0</ele><time>2026-04-23T14:37:27Z</time></trkpt><trkpt lat="43.60185287952436" lon="12.69021780583544"><ele>469.0</ele><time>2026-04-23T14:37:28Z</time></trkpt><trkpt lat="43.60176556381185" lon="12.690343686007147"><ele>473.0</ele><time>2026-04-23T14:37:29Z</time></trkpt><trkpt lat="43.60168026758136" lon="12.69050035982976"><ele>477.0</ele><time>2026-04-23T14:37:30Z</time></trkpt><trkpt lat="43.601595864679574" lon="12.690676171627295"><ele>477.0</ele><time>2026-04-23T14:37:31Z</time></trkpt><trkpt lat="43.6015184994007" lon="12.690859415909248"><ele>477.0</ele><time>2026-04-23T14:37:32Z</time></trkpt><trkpt lat="43.601449346953935" lon="12.691035629257067"><ele>477.0</ele><time>2026-04-23T14:37:33Z</time></trkpt><trkpt lat="43.601388191953845" lon="12.691191072309666"><ele>477.0</ele><time>2026-04-23T14:37:34Z</time></trkpt><trkpt lat="43.60134445292892" lon="12.691325885679491"><ele>474.6</ele><time>2026-04-23T14:37:35Z</time></trkpt><trkpt lat="43.60131651080685" lon="12.691447441492432"><ele>472.20000000000005</ele><time>2026-04-23T14:37:36Z</time></trkpt><trkpt lat="43.601280755403" lon="12.69159269288036"><ele>469.8</ele><time>2026-04-23T14:37:37Z</time></trkpt><trkpt lat="43.60123875707559" lon="12.691720180227737"><ele>467.4</ele><time>2026-04-23T14:37:38Z</time></trkpt><trkpt lat="43.601177084068034" lon="12.691816787987582"><ele>465.0</ele><time>2026-04-23T14:37:39Z</time></trkpt><trkpt lat="43.60111059086161" lon="12.691891647778583"><ele>467.5</ele><time>2026-04-23T14:37:40Z</time></trkpt><trkpt lat="43.60099329175606" lon="12.691931043675455"><ele>470.0</ele><time>2026-04-23T14:37:42Z</time></trkpt><trkpt lat="43.600906453856126" lon="12.691892675180206"><ele>472.5</ele><time>2026-04-23T14:37:43Z</time></trkpt><trkpt lat="43.600782148972144" lon="12.691855028475405"><ele>475.0</ele><time>2026-04-23T14:37:44Z</time></trkpt><trkpt lat="43.60066841586385" lon="12.691859759035776"><ele>475.0</ele><time>2026-04-23T14:37:45Z</time></trkpt><trkpt lat="43.600569431764825" lon="12.691903557994165"><ele>475.0</ele><time>2026-04-23T14:37:46Z</time></trkpt><trkpt lat="43.60047436917543" lon="12.691987523402888"><ele>475.0</ele><time>2026-04-23T14:37:47Z</time></trkpt><trkpt lat="43.600379634776274" lon="12.692113768785475"><ele>475.0</ele><time>2026-04-23T14:37:48Z</time></trkpt><trkpt lat="43.600271093926224" lon="12.69224887335266"><ele>484.6666666666667</ele><time>2026-04-23T14:37:49Z</time></trkpt><trkpt lat="43.60014772956318" lon="12.692405737477339"><ele>494.33333333333337</ele><time>2026-04-23T14:37:50Z</time></trkpt><trkpt lat="43.60001580341461" lon="12.692574584356903"><ele>504.0</ele><time>2026-04-23T14:37:51Z</time></trkpt><trkpt lat="43.59988406403931" lon="12.692745050346474"><ele>505.25</ele><time>2026-04-23T14:37:52Z</time></trkpt><trkpt lat="43.59978003353538" lon="12.692912774282673"><ele>506.5</ele><time>2026-04-23T14:37:53Z</time></trkpt><trkpt lat="43.59967362469423" lon="12.693020970028517"><ele>507.75</ele><time>2026-04-23T14:37:54Z</time></trkpt><trkpt lat="43.5995841156312" lon="12.69312271409794"><ele>509.0</ele><time>2026-04-23T14:37:55Z</time></trkpt><trkpt lat="43.599476617301555" lon="12.69322234730108"><ele>509.0</ele><time>2026-04-23T14:37:56Z</time></trkpt><trkpt lat="43.59934935785138" lon="12.693331442679037"><ele>509.0</ele><time>2026-04-23T14:37:57Z</time></trkpt><trkpt lat="43.59921851943578" lon="12.69343014365672"><ele>509.0</ele><time>2026-04-23T14:37:58Z</time></trkpt><trkpt lat="43.59909856028778" lon="12.693538328699745"><ele>509.0</ele><time>2026-04-23T14:37:59Z</time></trkpt><trkpt lat="43.598982903899255" lon="12.693617919200552"><ele>510.6</ele><time>2026-04-23T14:38:00Z</time></trkpt><trkpt lat="43.59889846988628" lon="12.69365484640469"><ele>512.2</ele><time>2026-04-23T14:38:01Z</time></trkpt><trkpt lat="43.59881860118639" lon="12.693709794705619"><ele>513.8000000000001</ele><time>2026-04-23T14:38:02Z</time></trkpt><trkpt lat="43.598729869536626" lon="12.693770840530465"><ele>515.4</ele><time>2026-04-23T14:38:03Z</time></trkpt><trkpt lat="43.59863026631813" lon="12.693847616263978"><ele>517.0</ele><time>2026-04-23T14:38:04Z</time></trkpt><trkpt lat="43.59855092529235" lon="12.693964997820633"><ele>517.0</ele><time>2026-04-23T14:38:05Z</time></trkpt><trkpt lat="43.598471400838186" lon="12.694081315082048"><ele>517.0</ele><time>2026-04-23T14:38:06Z</time></trkpt><trkpt lat="43.59837836545477" lon="12.694194159548015"><ele>517.0</ele><time>2026-04-23T14:38:07Z</time></trkpt><trkpt lat="43.59827999198334" lon="12.694327304282803"><ele>517.0</ele><time>2026-04-23T14:38:08Z</time></trkpt><trkpt lat="43.59816256283423" lon="12.694472031343228"><ele>514.0</ele><time>2026-04-23T14:38:09Z</time></trkpt><trkpt lat="43.59805070352887" lon="12.694618848769013"><ele>511.0</ele><time>2026-04-23T14:38:10Z</time></trkpt><trkpt lat="43.59797314750782" lon="12.694748548503357"><ele>508.0</ele><time>2026-04-23T14:38:11Z</time></trkpt><trkpt lat="43.59791727001296" lon="12.694859806182144"><ele>505.0</ele><time>2026-04-23T14:38:12Z</time></trkpt><trkpt lat="43.59786164202975" lon="12.69497820806167"><ele>507.4</ele><time>2026-04-23T14:38:13Z</time></trkpt><trkpt lat="43.597783394103175" lon="12.695094816852944"><ele>509.8</ele><time>2026-04-23T14:38:14Z</time></trkpt><trkpt lat="43.59770613716837" lon="12.695190771974621"><ele>512.2</ele><time>2026-04-23T14:38:15Z</time></trkpt><trkpt lat="43.59763617804359" lon="12.695250789189858"><ele>514.6</ele><time>2026-04-23T14:38:16Z</time></trkpt><trkpt lat="43.59755530178127" lon="12.695319555726904"><ele>517.0</ele><time>2026-04-23T14:38:17Z</time></trkpt><trkpt lat="43.59746266035722" lon="12.695396174907815"><ele>517.0</ele><time>2026-04-23T14:38:18Z</time></trkpt><trkpt lat="43.59734189187493" lon="12.695502450906384"><ele>517.0</ele><time>2026-04-23T14:38:19Z</time></trkpt><trkpt lat="43.597206908533565" lon="12.695634209565975"><ele>517.0</ele><time>2026-04-23T14:38:20Z</time></trkpt><trkpt lat="43.59705967303574" lon="12.695778400847539"><ele>518.6666666666667</ele><time>2026-04-23T14:38:21Z</time></trkpt><trkpt lat="43.596891793270146" lon="12.695941363142433"><ele>520.3333333333334</ele><time>2026-04-23T14:38:22Z</time></trkpt><trkpt lat="43.59675447375431" lon="12.696090401576534"><ele>522.0</ele><time>2026-04-23T14:38:23Z</time></trkpt><trkpt lat="43.5966299949" lon="12.696199255100508"><ele>522.0</ele><time>2026-04-23T14:38:24Z</time></trkpt><trkpt lat="43.59654198041096" lon="12.696322707263997"><ele>522.0</ele><time>2026-04-23T14:38:25Z</time></trkpt><trkpt lat="43.596473335685495" lon="12.696419338864732"><ele>522.0</ele><time>2026-04-23T14:38:26Z</time></trkpt><trkpt lat="43.59641326163137" lon="12.696489968763002"><ele>522.0</ele><time>2026-04-23T14:38:27Z</time></trkpt><trkpt lat="43.596365157314104" lon="12.69655345031468"><ele>522.0</ele><time>2026-04-23T14:38:28Z</time></trkpt><trkpt lat="43.5964097416203" lon="12.696753696749225"><ele>522.0</ele><time>2026-04-23T14:38:29Z</time></trkpt><trkpt lat="43.596418843758926" lon="12.696904158045205"><ele>522.0</ele><time>2026-04-23T14:38:30Z</time></trkpt><trkpt lat="43.596441639676534" lon="12.697059686230046"><ele>522.0</ele><time>2026-04-23T14:38:31Z</time></trkpt><trkpt lat="43.59646807467357" lon="12.69721390081205"><ele>522.0</ele><time>2026-04-23T14:38:32Z</time></trkpt><trkpt lat="43.59649543729241" lon="12.697382587157685"><ele>522.8000000000001</ele><time>2026-04-23T14:38:33Z</time></trkpt><trkpt lat="43.59649137348172" lon="12.697556879519238"><ele>523.6</ele><time>2026-04-23T14:38:34Z</time></trkpt><trkpt lat="43.59648533547176" lon="12.697710775192553"><ele>524.4000000000001</ele><time>2026-04-23T14:38:35Z</time></trkpt><trkpt lat="43.59646510735976" lon="12.697828739644695"><ele>525.2</ele><time>2026-04-23T14:38:36Z</time></trkpt><trkpt lat="43.59644421341592" lon="12.697930731559559"><ele>526.0</ele><time>2026-04-23T14:38:37Z</time></trkpt><trkpt lat="43.59640100505266" lon="12.698039433751525"><ele>526.0</ele><time>2026-04-23T14:38:38Z</time></trkpt><trkpt lat="43.59634126941058" lon="12.6981730989771"><ele>526.0</ele><time>2026-04-23T14:38:39Z</time></trkpt><trkpt lat="43.59628182190633" lon="12.69833805920031"><ele>526.0</ele><time>2026-04-23T14:38:40Z</time></trkpt><trkpt lat="43.596211769287265" lon="12.69848288550486"><ele>526.0</ele><time>2026-04-23T14:38:41Z</time></trkpt><trkpt lat="43.596144963385406" lon="12.69864267613484"><ele>528.3333333333334</ele><time>2026-04-23T14:38:42Z</time></trkpt><trkpt lat="43.596083839747415" lon="12.698757449923038"><ele>530.6666666666667</ele><time>2026-04-23T14:38:43Z</time></trkpt><trkpt lat="43.59604405072708" lon="12.698836572165686"><ele>533.0</ele><time>2026-04-23T14:38:44Z</time></trkpt><trkpt lat="43.596010443429684" lon="12.69892000152675"><ele>535.3333333333334</ele><time>2026-04-23T14:38:45Z</time></trkpt><trkpt lat="43.59594276076263" lon="12.698977126881765"><ele>537.6666666666666</ele><time>2026-04-23T14:38:46Z</time></trkpt><trkpt lat="43.59585926039727" lon="12.69905276607674"><ele>540.0</ele><time>2026-04-23T14:38:47Z</time></trkpt><trkpt lat="43.59572971805031" lon="12.699116565148875"><ele>540.0</ele><time>2026-04-23T14:38:48Z</time></trkpt><trkpt lat="43.595582491806034" lon="12.699240704133803"><ele>540.0</ele><time>2026-04-23T14:38:49Z</time></trkpt><trkpt lat="43.595465488967115" lon="12.69933645414244"><ele>540.0</ele><time>2026-04-23T14:38:50Z</time></trkpt><trkpt lat="43.59535237602356" lon="12.699409892098565"><ele>540.0</ele><time>2026-04-23T14:38:51Z</time></trkpt><trkpt lat="43.595257065607456" lon="12.699448196814133"><ele>538.25</ele><time>2026-04-23T14:38:52Z</time></trkpt><trkpt lat="43.5951608748718" lon="12.699470127768366"><ele>536.5</ele><time>2026-04-23T14:38:53Z</time></trkpt><trkpt lat="43.59504524975541" lon="12.699488028109155"><ele>534.75</ele><time>2026-04-23T14:38:54Z</time></trkpt><trkpt lat="43.594903157708856" lon="12.699507551693339"><ele>533.0</ele><time>2026-04-23T14:38:55Z</time></trkpt><trkpt lat="43.594771796355225" lon="12.699552436987904"><ele>533.0</ele><time>2026-04-23T14:38:56Z</time></trkpt><trkpt lat="43.59463098897428" lon="12.699581823778209"><ele>533.0</ele><time>2026-04-23T14:38:57Z</time></trkpt><trkpt lat="43.594486505152936" lon="12.699610962425794"><ele>533.0</ele><time>2026-04-23T14:38:58Z</time></trkpt><trkpt lat="43.5943556629954" lon="12.699656481208654"><ele>533.0</ele><time>2026-04-23T14:38:59Z</time></trkpt><trkpt lat="43.59420961793911" lon="12.699690387631978"><ele>535.0</ele><time>2026-04-23T14:39:00Z</time></trkpt><trkpt lat="43.59405504551837" lon="12.699761745381045"><ele>537.0</ele><time>2026-04-23T14:39:01Z</time></trkpt><trkpt lat="43.59390353495215" lon="12.699798003333848"><ele>539.0</ele><time>2026-04-23T14:39:02Z</time></trkpt><trkpt lat="43.593781968007704" lon="12.699824115835252"><ele>541.0</ele><time>2026-04-23T14:39:03Z</time></trkpt><trkpt lat="43.59368619255929" lon="12.699853851988092"><ele>542.0</ele><time>2026-04-23T14:39:04Z</time></trkpt><trkpt lat="43.59361212634275" lon="12.699902701850027"><ele>543.0</ele><time>2026-04-23T14:39:05Z</time></trkpt><trkpt lat="43.59354022309642" lon="12.699976157176003"><ele>544.0</ele><time>2026-04-23T14:39:06Z</time></trkpt><trkpt lat="43.59347872945438" lon="12.700073384229196"><ele>545.0</ele><time>2026-04-23T14:39:07Z</time></trkpt><trkpt lat="43.593426458347736" lon="12.700188342597572"><ele>546.0</ele><time>2026-04-23T14:39:08Z</time></trkpt><trkpt lat="43.59337518160033" lon="12.700335182572802"><ele>546.0</ele><time>2026-04-23T14:39:09Z</time></trkpt><trkpt lat="43.59330045687229" lon="12.70051405961198"><ele>546.0</ele><time>2026-04-23T14:39:10Z</time></trkpt><trkpt lat="43.59321151885232" lon="12.700717500079275"><ele>546.0</ele><time>2026-04-23T14:39:11Z</time></trkpt><trkpt lat="43.593119860217406" lon="12.700942669102252"><ele>544.5</ele><time>2026-04-23T14:39:12Z</time></trkpt><trkpt lat="43.59301955669577" lon="12.701145823890844"><ele>543.0</ele><time>2026-04-23T14:39:13Z</time></trkpt><trkpt lat="43.59296893242497" lon="12.70132185023522"><ele>541.5</ele><time>2026-04-23T14:39:14Z</time></trkpt><trkpt lat="43.59292013887394" lon="12.701449515285612"><ele>540.0</ele><time>2026-04-23T14:39:15Z</time></trkpt><trkpt lat="43.5929029354786" lon="12.701574335638272"><ele>540.0</ele><time>2026-04-23T14:39:16Z</time></trkpt><trkpt lat="43.59289177635354" lon="12.701722740189222"><ele>540.0</ele><time>2026-04-23T14:39:17Z</time></trkpt><trkpt lat="43.59288552302074" lon="12.70191142895069"><ele>540.0</ele><time>2026-04-23T14:39:18Z</time></trkpt><trkpt lat="43.59286910600061" lon="12.702114812467567"><ele>540.0</ele><time>2026-04-23T14:39:19Z</time></trkpt><trkpt lat="43.59283499887189" lon="12.70228101967136"><ele>545.5</ele><time>2026-04-23T14:39:20Z</time></trkpt><trkpt lat="43.59278929647274" lon="12.702438752703946"><ele>551.0</ele><time>2026-04-23T14:39:21Z</time></trkpt><trkpt lat="43.59273695730812" lon="12.702602069001363"><ele>556.5</ele><time>2026-04-23T14:39:22Z</time></trkpt><trkpt lat="43.59267515833163" lon="12.702773761501465"><ele>562.0</ele><time>2026-04-23T14:39:23Z</time></trkpt><trkpt lat="43.592609041236685" lon="12.702949269538088"><ele>562.0</ele><time>2026-04-23T14:39:24Z</time></trkpt><trkpt lat="43.592553619916316" lon="12.703105500374896"><ele>562.0</ele><time>2026-04-23T14:39:25Z</time></trkpt><trkpt lat="43.5925166414768" lon="12.703254015213354"><ele>562.0</ele><time>2026-04-23T14:39:26Z</time></trkpt><trkpt lat="43.592476734751976" lon="12.703418355039933"><ele>562.0</ele><time>2026-04-23T14:39:27Z</time></trkpt><trkpt lat="43.59247396354606" lon="12.70357859520541"><ele>560.0</ele><time>2026-04-23T14:39:28Z</time></trkpt><trkpt lat="43.5924676258499" lon="12.703758315004546"><ele>558.0</ele><time>2026-04-23T14:39:29Z</time></trkpt><trkpt lat="43.592438509826366" lon="12.703966008842942"><ele>556.0</ele><time>2026-04-23T14:39:30Z</time></trkpt><trkpt lat="43.59239327915438" lon="12.704172954655293"><ele>554.0</ele><time>2026-04-23T14:39:31Z</time></trkpt><trkpt lat="43.59235720892497" lon="12.704346216894972"><ele>550.8</ele><time>2026-04-23T14:39:32Z</time></trkpt><trkpt lat="43.592295421497475" lon="12.704445450740996"><ele>547.5999999999999</ele><time>2026-04-23T14:39:33Z</time></trkpt><trkpt lat="43.59224835565489" lon="12.704518709761308"><ele>544.4</ele><time>2026-04-23T14:39:34Z</time></trkpt><trkpt lat="43.592202254531806" lon="12.70461442121459"><ele>541.1999999999999</ele><time>2026-04-23T14:39:35Z</time></trkpt><trkpt lat="43.59210035910422" lon="12.70472578658478"><ele>538.0</ele><time>2026-04-23T14:39:36Z</time></trkpt><trkpt lat="43.5920366604455" lon="12.70487054249364"><ele>541.0</ele><time>2026-04-23T14:39:37Z</time></trkpt><trkpt lat="43.59195100976498" lon="12.704993394142305"><ele>544.0</ele><time>2026-04-23T14:39:38Z</time></trkpt><trkpt lat="43.59189054342308" lon="12.705170386643005"><ele>547.0</ele><time>2026-04-23T14:39:39Z</time></trkpt><trkpt lat="43.59179748495357" lon="12.70528572610482"><ele>550.0</ele><time>2026-04-23T14:39:40Z</time></trkpt><trkpt lat="43.59170562316966" lon="12.705402176830557"><ele>550.0</ele><time>2026-04-23T14:39:41Z</time></trkpt><trkpt lat="43.59159606671979" lon="12.70553969564969"><ele>550.0</ele><time>2026-04-23T14:39:42Z</time></trkpt><trkpt lat="43.59150848173474" lon="12.705691672921517"><ele>550.0</ele><time>2026-04-23T14:39:43Z</time></trkpt><trkpt lat="43.5914116393488" lon="12.705791739652003"><ele>550.0</ele><time>2026-04-23T14:39:44Z</time></trkpt><trkpt lat="43.59133676807793" lon="12.705917197848873"><ele>550.0</ele><time>2026-04-23T14:39:45Z</time></trkpt><trkpt lat="43.591304128964424" lon="12.706042617109347"><ele>550.0</ele><time>2026-04-23T14:39:46Z</time></trkpt><trkpt lat="43.59127717350784" lon="12.706172021367452"><ele>550.0</ele><time>2026-04-23T14:39:47Z</time></trkpt><trkpt lat="43.591235639683944" lon="12.706321522879309"><ele>550.0</ele><time>2026-04-23T14:39:48Z</time></trkpt><trkpt lat="43.59120886616499" lon="12.70649600148763"><ele>550.0</ele><time>2026-04-23T14:39:49Z</time></trkpt><trkpt lat="43.59118448554064" lon="12.706679236010146"><ele>550.75</ele><time>2026-04-23T14:39:50Z</time></trkpt><trkpt lat="43.59116058708899" lon="12.706875565438729"><ele>551.5</ele><time>2026-04-23T14:39:51Z</time></trkpt><trkpt lat="43.591149910063216" lon="12.707069726590282"><ele>552.25</ele><time>2026-04-23T14:39:52Z</time></trkpt><trkpt lat="43.59112516069173" lon="12.707251120377151"><ele>553.0</ele><time>2026-04-23T14:39:53Z</time></trkpt><trkpt lat="43.5911253577684" lon="12.707438463537335"><ele>553.0</ele><time>2026-04-23T14:39:54Z</time></trkpt><trkpt lat="43.59113804193995" lon="12.707618038821511"><ele>553.0</ele><time>2026-04-23T14:39:55Z</time></trkpt><trkpt lat="43.591148444434744" lon="12.707793996846247"><ele>553.0</ele><time>2026-04-23T14:39:56Z</time></trkpt><trkpt lat="43.59116680715526" lon="12.707936402803568"><ele>553.0</ele><time>2026-04-23T14:39:57Z</time></trkpt><trkpt lat="43.5911730593875" lon="12.708042066328657"><ele>553.0</ele><time>2026-04-23T14:39:58Z</time></trkpt><trkpt lat="43.59116869777787" lon="12.708135808744842"><ele>549.8</ele><time>2026-04-23T14:39:59Z</time></trkpt><trkpt lat="43.5911153366372" lon="12.708200103593116"><ele>546.5999999999999</ele><time>2026-04-23T14:40:00Z</time></trkpt><trkpt lat="43.59105891378977" lon="12.708257852380633"><ele>543.4000000000001</ele><time>2026-04-23T14:40:01Z</time></trkpt><trkpt lat="43.59097391842454" lon="12.708286336421004"><ele>540.2</ele><time>2026-04-23T14:40:02Z</time></trkpt><trkpt lat="43.59088010246997" lon="12.708301001205983"><ele>537.0</ele><time>2026-04-23T14:40:03Z</time></trkpt><trkpt lat="43.59075190630569" lon="12.708315367141616"><ele>537.0</ele><time>2026-04-23T14:40:04Z</time></trkpt><trkpt lat="43.59063374307485" lon="12.708326985105144"><ele>537.0</ele><time>2026-04-23T14:40:05Z</time></trkpt><trkpt lat="43.590538610947604" lon="12.708330887850261"><ele>537.0</ele><time>2026-04-23T14:40:06Z</time></trkpt><trkpt lat="43.5904608851293" lon="12.708348956539172"><ele>537.0</ele><time>2026-04-23T14:40:07Z</time></trkpt><trkpt lat="43.59035810690754" lon="12.708465117663609"><ele>537.0</ele><time>2026-04-23T14:40:09Z</time></trkpt><trkpt lat="43.59031604717948" lon="12.708571271544102"><ele>535.5</ele><time>2026-04-23T14:40:10Z</time></trkpt><trkpt lat="43.590272890190036" lon="12.70872020947992"><ele>534.0</ele><time>2026-04-23T14:40:11Z</time></trkpt><trkpt lat="43.590230751878885" lon="12.708896013054792"><ele>532.5</ele><time>2026-04-23T14:40:12Z</time></trkpt><trkpt lat="43.590208173827236" lon="12.709097912545912"><ele>531.0</ele><time>2026-04-23T14:40:13Z</time></trkpt><trkpt lat="43.5901717724037" lon="12.709312243300687"><ele>529.4</ele><time>2026-04-23T14:40:14Z</time></trkpt><trkpt lat="43.590138889176266" lon="12.709494978926132"><ele>527.8</ele><time>2026-04-23T14:40:15Z</time></trkpt><trkpt lat="43.59009283599451" lon="12.709636374536093"><ele>526.1999999999999</ele><time>2026-04-23T14:40:16Z</time></trkpt><trkpt lat="43.590048891643235" lon="12.70973807623713"><ele>524.6</ele><time>2026-04-23T14:40:17Z</time></trkpt><trkpt lat="43.58998924122249" lon="12.7098141157364"><ele>523.0</ele><time>2026-04-23T14:40:18Z</time></trkpt><trkpt lat="43.58991441086068" lon="12.709862494975415"><ele>523.0</ele><time>2026-04-23T14:40:19Z</time></trkpt><trkpt lat="43.58981904327398" lon="12.709935538418343"><ele>523.0</ele><time>2026-04-23T14:40:20Z</time></trkpt><trkpt lat="43.58969496783252" lon="12.710042878435436"><ele>523.0</ele><time>2026-04-23T14:40:21Z</time></trkpt><trkpt lat="43.589597051948004" lon="12.710168024389196"><ele>523.0</ele><time>2026-04-23T14:40:22Z</time></trkpt><trkpt lat="43.58951229604478" lon="12.710284616032565"><ele>522.0</ele><time>2026-04-23T14:40:23Z</time></trkpt><trkpt lat="43.58945026019056" lon="12.710402638123968"><ele>521.0</ele><time>2026-04-23T14:40:24Z</time></trkpt><trkpt lat="43.58941325955617" lon="12.710539819467794"><ele>520.0</ele><time>2026-04-23T14:40:25Z</time></trkpt><trkpt lat="43.58936793056615" lon="12.71068568364315"><ele>519.0</ele><time>2026-04-23T14:40:26Z</time></trkpt><trkpt lat="43.58931673401737" lon="12.710837658363788"><ele>518.0</ele><time>2026-04-23T14:40:27Z</time></trkpt><trkpt lat="43.589251508499686" lon="12.71096362901899"><ele>518.0</ele><time>2026-04-23T14:40:28Z</time></trkpt><trkpt lat="43.58917645312755" lon="12.711047418757857"><ele>518.0</ele><time>2026-04-23T14:40:29Z</time></trkpt><trkpt lat="43.589098064978984" lon="12.711096796008315"><ele>518.0</ele><time>2026-04-23T14:40:30Z</time></trkpt><trkpt lat="43.589011554593725" lon="12.71112292910476"><ele>518.0</ele><time>2026-04-23T14:40:31Z</time></trkpt><trkpt lat="43.58890066743433" lon="12.711136491107473"><ele>518.0</ele><time>2026-04-23T14:40:32Z</time></trkpt><trkpt lat="43.58878550779859" lon="12.711148716640313"><ele>515.4</ele><time>2026-04-23T14:40:33Z</time></trkpt><trkpt lat="43.58868102160093" lon="12.711166866851896"><ele>512.8</ele><time>2026-04-23T14:40:34Z</time></trkpt><trkpt lat="43.588578734260146" lon="12.711207818412625"><ele>510.2</ele><time>2026-04-23T14:40:35Z</time></trkpt><trkpt lat="43.58849317930826" lon="12.71121664092046"><ele>507.6</ele><time>2026-04-23T14:40:36Z</time></trkpt><trkpt lat="43.588433764386416" lon="12.711255689198232"><ele>505.0</ele><time>2026-04-23T14:40:37Z</time></trkpt><trkpt lat="43.58834676071097" lon="12.711286579091212"><ele>505.00000000000006</ele><time>2026-04-23T14:40:38Z</time></trkpt><trkpt lat="43.58827788068828" lon="12.711338224419482"><ele>505.0</ele><time>2026-04-23T14:40:39Z</time></trkpt><trkpt lat="43.58824145472258" lon="12.711415744451807"><ele>505.0</ele><time>2026-04-23T14:40:40Z</time></trkpt><trkpt lat="43.58820374985466" lon="12.711487549893677"><ele>505.0</ele><time>2026-04-23T14:40:41Z</time></trkpt><trkpt lat="43.58814509512122" lon="12.711579144012918"><ele>505.00000000000006</ele><time>2026-04-23T14:40:42Z</time></trkpt><trkpt lat="43.58809131750269" lon="12.711758489746126"><ele>505.0</ele><time>2026-04-23T14:40:43Z</time></trkpt><trkpt lat="43.58805401406996" lon="12.711965206242496"><ele>503.0</ele><time>2026-04-23T14:40:44Z</time></trkpt><trkpt lat="43.58806228257409" lon="12.71219397344781"><ele>501.0</ele><time>2026-04-23T14:40:45Z</time></trkpt><trkpt lat="43.58802548277369" lon="12.712413641217644"><ele>499.0</ele><time>2026-04-23T14:40:46Z</time></trkpt><trkpt lat="43.58800155516972" lon="12.712556723900875"><ele>497.0</ele><time>2026-04-23T14:40:47Z</time></trkpt><trkpt lat="43.58797762303209" lon="12.71265780660018"><ele>496.0</ele><time>2026-04-23T14:40:48Z</time></trkpt><trkpt lat="43.58795217627033" lon="12.712757746220042"><ele>495.0</ele><time>2026-04-23T14:40:49Z</time></trkpt><trkpt lat="43.58792588806603" lon="12.712890012245193"><ele>494.0</ele><time>2026-04-23T14:40:50Z</time></trkpt><trkpt lat="43.58791780178418" lon="12.71306451058768"><ele>493.0</ele><time>2026-04-23T14:40:51Z</time></trkpt><trkpt lat="43.5879174503032" lon="12.713284919725313"><ele>493.0</ele><time>2026-04-23T14:40:52Z</time></trkpt><trkpt lat="43.58791616730283" lon="12.713443829016965"><ele>492.99999999999994</ele><time>2026-04-23T14:40:53Z</time></trkpt><trkpt lat="43.58791568089009" lon="12.71359053992311"><ele>492.99999999999994</ele><time>2026-04-23T14:40:54Z</time></trkpt><trkpt lat="43.58792799496857" lon="12.713729943084934"><ele>493.0</ele><time>2026-04-23T14:40:55Z</time></trkpt><trkpt lat="43.58796121857851" lon="12.713835995756575"><ele>493.0</ele><time>2026-04-23T14:40:56Z</time></trkpt><trkpt lat="43.58797631050046" lon="12.713940607423202"><ele>493.0</ele><time>2026-04-23T14:40:58Z</time></trkpt><trkpt lat="43.587938184478396" lon="12.714049217308531"><ele>493.0</ele><time>2026-04-23T14:41:02Z</time></trkpt><trkpt lat="43.587946550288294" lon="12.714138300706699"><ele>493.0</ele><time>2026-04-23T14:41:07Z</time></trkpt><trkpt lat="43.58801264121671" lon="12.714017122415463"><ele>493.0</ele><time>2026-04-23T14:41:11Z</time></trkpt><trkpt lat="43.58796952270862" lon="12.713754395819342"><ele>493.0</ele><time>2026-04-23T14:41:13Z</time></trkpt><trkpt lat="43.587961355091714" lon="12.71361140325631"><ele>493.0</ele><time>2026-04-23T14:41:14Z</time></trkpt><trkpt lat="43.5879525804503" lon="12.713428774286392"><ele>493.0</ele><time>2026-04-23T14:41:15Z</time></trkpt><trkpt lat="43.58795935858206" lon="12.71322023647673"><ele>493.0</ele><time>2026-04-23T14:41:16Z</time></trkpt><trkpt lat="43.587956654915075" lon="12.713009664217434"><ele>493.0</ele><time>2026-04-23T14:41:17Z</time></trkpt><trkpt lat="43.58796107248193" lon="12.712845119409439"><ele>493.0</ele><time>2026-04-23T14:41:18Z</time></trkpt><trkpt lat="43.58798249319125" lon="12.712704414495747"><ele>493.0</ele><time>2026-04-23T14:41:19Z</time></trkpt><trkpt lat="43.58802174117604" lon="12.712565095910358"><ele>493.0</ele><time>2026-04-23T14:41:20Z</time></trkpt><trkpt lat="43.588055857163646" lon="12.712403578227871"><ele>494.33333333333337</ele><time>2026-04-23T14:41:21Z</time></trkpt><trkpt lat="43.58808745675798" lon="12.712190440195414"><ele>495.66666666666663</ele><time>2026-04-23T14:41:22Z</time></trkpt><trkpt lat="43.588096840859315" lon="12.711965814036963"><ele>497.0</ele><time>2026-04-23T14:41:23Z</time></trkpt><trkpt lat="43.588111802472355" lon="12.71177981731828"><ele>498.6</ele><time>2026-04-23T14:41:24Z</time></trkpt><trkpt lat="43.58816073328837" lon="12.711629958134292"><ele>500.20000000000005</ele><time>2026-04-23T14:41:25Z</time></trkpt><trkpt lat="43.58819908747257" lon="12.711521024334552"><ele>501.8</ele><time>2026-04-23T14:41:26Z</time></trkpt><trkpt lat="43.58826743563844" lon="12.711472410622834"><ele>503.4</ele><time>2026-04-23T14:41:27Z</time></trkpt><trkpt lat="43.58834028988991" lon="12.711367576376865"><ele>505.0</ele><time>2026-04-23T14:41:28Z</time></trkpt><trkpt lat="43.588481732464956" lon="12.711295835687286"><ele>505.0</ele><time>2026-04-23T14:41:29Z</time></trkpt><trkpt lat="43.588622217902156" lon="12.711316017599508"><ele>505.0</ele><time>2026-04-23T14:41:30Z</time></trkpt><trkpt lat="43.588741957318284" lon="12.71132741102456"><ele>505.0</ele><time>2026-04-23T14:41:31Z</time></trkpt><trkpt lat="43.588893074406215" lon="12.711372396315383"><ele>505.0</ele><time>2026-04-23T14:41:32Z</time></trkpt><trkpt lat="43.58906345138887" lon="12.711417913985398"><ele>504.25</ele><time>2026-04-23T14:41:33Z</time></trkpt><trkpt lat="43.5892107701956" lon="12.71146160926684"><ele>503.5</ele><time>2026-04-23T14:41:34Z</time></trkpt><trkpt lat="43.58931897992811" lon="12.711485414953412"><ele>502.75</ele><time>2026-04-23T14:41:35Z</time></trkpt><trkpt lat="43.58939589215639" lon="12.711499893768668"><ele>502.0</ele><time>2026-04-23T14:41:36Z</time></trkpt><trkpt lat="43.58949370837998" lon="12.711399472175962"><ele>500.75</ele><time>2026-04-23T14:41:38Z</time></trkpt><trkpt lat="43.58952628585919" lon="12.711288572107934"><ele>499.5</ele><time>2026-04-23T14:41:39Z</time></trkpt><trkpt lat="43.589567229869026" lon="12.711143529209412"><ele>498.25</ele><time>2026-04-23T14:41:40Z</time></trkpt><trkpt lat="43.589637553180765" lon="12.710960243107166"><ele>497.0</ele><time>2026-04-23T14:41:41Z</time></trkpt><trkpt lat="43.58972169971586" lon="12.710815012452116"><ele>499.20000000000005</ele><time>2026-04-23T14:41:42Z</time></trkpt><trkpt lat="43.58980683837511" lon="12.71072243882702"><ele>501.40000000000003</ele><time>2026-04-23T14:41:43Z</time></trkpt><trkpt lat="43.58989329041616" lon="12.710665326210101"><ele>503.59999999999997</ele><time>2026-04-23T14:41:44Z</time></trkpt><trkpt lat="43.590010764749714" lon="12.710658431315284"><ele>505.79999999999995</ele><time>2026-04-23T14:41:45Z</time></trkpt><trkpt lat="43.59012542918509" lon="12.71065681248864"><ele>508.0</ele><time>2026-04-23T14:41:46Z</time></trkpt><trkpt lat="43.5902220918029" lon="12.710698428656611"><ele>508.0</ele><time>2026-04-23T14:41:47Z</time></trkpt><trkpt lat="43.590325624875696" lon="12.710759348202883"><ele>508.0</ele><time>2026-04-23T14:41:48Z</time></trkpt><trkpt lat="43.59043052716899" lon="12.71085701043491"><ele>508.0</ele><time>2026-04-23T14:41:49Z</time></trkpt><trkpt lat="43.590555752531465" lon="12.710931820181472"><ele>508.0</ele><time>2026-04-23T14:41:50Z</time></trkpt><trkpt lat="43.590670044064254" lon="12.711039368096447"><ele>504.0</ele><time>2026-04-23T14:41:51Z</time></trkpt><trkpt lat="43.59076968844041" lon="12.711149711080557"><ele>500.0</ele><time>2026-04-23T14:41:52Z</time></trkpt><trkpt lat="43.59087246795281" lon="12.711287880726097"><ele>496.0</ele><time>2026-04-23T14:41:53Z</time></trkpt><trkpt lat="43.590972898805205" lon="12.711443724845143"><ele>492.0</ele><time>2026-04-23T14:41:54Z</time></trkpt><trkpt lat="43.59100886372688" lon="12.71161748493831"><ele>492.0</ele><time>2026-04-23T14:41:55Z</time></trkpt><trkpt lat="43.5910343070299" lon="12.711776848942092"><ele>492.0</ele><time>2026-04-23T14:41:56Z</time></trkpt><trkpt lat="43.59106382183389" lon="12.711960231355144"><ele>492.0</ele><time>2026-04-23T14:41:57Z</time></trkpt><trkpt lat="43.59110433967707" lon="12.712186499968368"><ele>492.0</ele><time>2026-04-23T14:41:58Z</time></trkpt><trkpt lat="43.591125340560716" lon="12.712390880696505"><ele>492.0</ele><time>2026-04-23T14:41:59Z</time></trkpt><trkpt lat="43.591158357187055" lon="12.712555202387875"><ele>492.0</ele><time>2026-04-23T14:42:00Z</time></trkpt><trkpt lat="43.59120564923725" lon="12.712692566633255"><ele>492.0</ele><time>2026-04-23T14:42:01Z</time></trkpt><trkpt lat="43.5912786136002" lon="12.712807414643798"><ele>492.0</ele><time>2026-04-23T14:42:02Z</time></trkpt><trkpt lat="43.591376993066575" lon="12.712943425406058"><ele>489.6666666666667</ele><time>2026-04-23T14:42:03Z</time></trkpt><trkpt lat="43.59146237294089" lon="12.71305367966785"><ele>487.33333333333337</ele><time>2026-04-23T14:42:04Z</time></trkpt><trkpt lat="43.59152867593879" lon="12.713127754136123"><ele>485.0</ele><time>2026-04-23T14:42:05Z</time></trkpt><trkpt lat="43.5916000329526" lon="12.71315043734107"><ele>482.6666666666667</ele><time>2026-04-23T14:42:06Z</time></trkpt><trkpt lat="43.59167036683607" lon="12.713147629681476"><ele>480.33333333333337</ele><time>2026-04-23T14:42:07Z</time></trkpt><trkpt lat="43.59173957813398" lon="12.713102719002402"><ele>478.0</ele><time>2026-04-23T14:42:08Z</time></trkpt><trkpt lat="43.59180338990272" lon="12.713011892572748"><ele>478.0</ele><time>2026-04-23T14:42:09Z</time></trkpt><trkpt lat="43.59188083590788" lon="12.712869694392126"><ele>478.0</ele><time>2026-04-23T14:42:10Z</time></trkpt><trkpt lat="43.59198531503173" lon="12.712697657142323"><ele>478.0</ele><time>2026-04-23T14:42:11Z</time></trkpt><trkpt lat="43.59209579760433" lon="12.712525248315526"><ele>474.0</ele><time>2026-04-23T14:42:12Z</time></trkpt><trkpt lat="43.592178584706645" lon="12.712342454053665"><ele>470.0</ele><time>2026-04-23T14:42:13Z</time></trkpt><trkpt lat="43.59226854432769" lon="12.712160735645867"><ele>466.0</ele><time>2026-04-23T14:42:14Z</time></trkpt><trkpt lat="43.5923433687788" lon="12.712001559084536"><ele>466.4</ele><time>2026-04-23T14:42:15Z</time></trkpt><trkpt lat="43.59239032322928" lon="12.711847277047399"><ele>466.8</ele><time>2026-04-23T14:42:16Z</time></trkpt><trkpt lat="43.592478691081226" lon="12.711730812300504"><ele>467.19999999999993</ele><time>2026-04-23T14:42:17Z</time></trkpt><trkpt lat="43.592528932745786" lon="12.711607373866556"><ele>467.59999999999997</ele><time>2026-04-23T14:42:18Z</time></trkpt><trkpt lat="43.592576034305246" lon="12.711531698128754"><ele>468.0</ele><time>2026-04-23T14:42:19Z</time></trkpt><trkpt lat="43.59258854979204" lon="12.711364382508245"><ele>468.0</ele><time>2026-04-23T14:42:21Z</time></trkpt><trkpt lat="43.592529029868075" lon="12.711257753773662"><ele>467.99999999999994</ele><time>2026-04-23T14:42:22Z</time></trkpt><trkpt lat="43.592419911016556" lon="12.711170218913502"><ele>467.99999999999994</ele><time>2026-04-23T14:42:23Z</time></trkpt><trkpt lat="43.592344793954524" lon="12.711029998965852"><ele>468.0</ele><time>2026-04-23T14:42:24Z</time></trkpt><trkpt lat="43.59227794909613" lon="12.710929279711694"><ele>468.0</ele><time>2026-04-23T14:42:25Z</time></trkpt><trkpt lat="43.5922882208634" lon="12.710811196620474"><ele>468.0</ele><time>2026-04-23T14:42:27Z</time></trkpt><trkpt lat="43.59240720064652" lon="12.710765334077458"><ele>467.99999999999994</ele><time>2026-04-23T14:42:29Z</time></trkpt><trkpt lat="43.59247022028008" lon="12.710819263124911"><ele>467.99999999999994</ele><time>2026-04-23T14:42:30Z</time></trkpt><trkpt lat="43.592487834441854" lon="12.710969853178566"><ele>468.0</ele><time>2026-04-23T14:42:31Z</time></trkpt><trkpt lat="43.59257683421011" lon="12.71110173549619"><ele>468.0</ele><time>2026-04-23T14:42:32Z</time></trkpt><trkpt lat="43.59272747712507" lon="12.711164006150616"><ele>468.0</ele><time>2026-04-23T14:42:33Z</time></trkpt><trkpt lat="43.592814138721714" lon="12.711231655540047"><ele>467.99999999999994</ele><time>2026-04-23T14:42:34Z</time></trkpt><trkpt lat="43.59285638979203" lon="12.711300759382976"><ele>467.99999999999994</ele><time>2026-04-23T14:42:35Z</time></trkpt><trkpt lat="43.592841882205356" lon="12.711480839431635"><ele>468.0</ele><time>2026-04-23T14:42:37Z</time></trkpt><trkpt lat="43.59279354892797" lon="12.711597801671806"><ele>468.0</ele><time>2026-04-23T14:42:38Z</time></trkpt><trkpt lat="43.5927192818438" lon="12.7117589571313"><ele>467.5</ele><time>2026-04-23T14:42:39Z</time></trkpt><trkpt lat="43.59266187092896" lon="12.711920310272948"><ele>467.0</ele><time>2026-04-23T14:42:40Z</time></trkpt><trkpt lat="43.592667671308526" lon="12.712040174151477"><ele>466.5</ele><time>2026-04-23T14:42:41Z</time></trkpt><trkpt lat="43.59273671701642" lon="12.712225636618305"><ele>466.0</ele><time>2026-04-23T14:42:43Z</time></trkpt><trkpt lat="43.59286604336158" lon="12.712353648594785"><ele>456.6666666666667</ele><time>2026-04-23T14:42:44Z</time></trkpt><trkpt lat="43.59298592358652" lon="12.712490694672882"><ele>447.33333333333337</ele><time>2026-04-23T14:42:45Z</time></trkpt><trkpt lat="43.59312172842754" lon="12.712619964317014"><ele>438.0</ele><time>2026-04-23T14:42:46Z</time></trkpt><trkpt lat="43.59325874657715" lon="12.712736181520802"><ele>437.66666666666663</ele><time>2026-04-23T14:42:47Z</time></trkpt><trkpt lat="43.59339913949069" lon="12.712836257211443"><ele>437.3333333333333</ele><time>2026-04-23T14:42:48Z</time></trkpt><trkpt lat="43.59354546006503" lon="12.712918627335773"><ele>437.0</ele><time>2026-04-23T14:42:49Z</time></trkpt><trkpt lat="43.59371994900944" lon="12.712986978040105"><ele>437.0</ele><time>2026-04-23T14:42:50Z</time></trkpt><trkpt lat="43.59390426249379" lon="12.713031738750015"><ele>437.0</ele><time>2026-04-23T14:42:51Z</time></trkpt><trkpt lat="43.59407647940459" lon="12.713078289339881"><ele>437.0</ele><time>2026-04-23T14:42:52Z</time></trkpt><trkpt lat="43.59423135857525" lon="12.713141870664414"><ele>437.0</ele><time>2026-04-23T14:42:53Z</time></trkpt><trkpt lat="43.59438463679967" lon="12.713216882563076"><ele>437.0</ele><time>2026-04-23T14:42:54Z</time></trkpt><trkpt lat="43.59452609006507" lon="12.71329355001529"><ele>437.0</ele><time>2026-04-23T14:42:55Z</time></trkpt><trkpt lat="43.59465531721506" lon="12.713370113973037"><ele>430.5</ele><time>2026-04-23T14:42:56Z</time></trkpt><trkpt lat="43.59478612965893" lon="12.713433914218658"><ele>424.0</ele><time>2026-04-23T14:42:57Z</time></trkpt><trkpt lat="43.594900897934714" lon="12.713525870478831"><ele>417.5</ele><time>2026-04-23T14:42:58Z</time></trkpt><trkpt lat="43.5949823890954" lon="12.713607114614325"><ele>411.0</ele><time>2026-04-23T14:42:59Z</time></trkpt><trkpt lat="43.59504473659481" lon="12.713681030861554"><ele>410.8333333333333</ele><time>2026-04-23T14:43:00Z</time></trkpt><trkpt lat="43.59509095578227" lon="12.713757589266349"><ele>410.66666666666663</ele><time>2026-04-23T14:43:01Z</time></trkpt><trkpt lat="43.59510346574953" lon="12.71384734608572"><ele>410.5</ele><time>2026-04-23T14:43:02Z</time></trkpt><trkpt lat="43.59502820367701" lon="12.713922072329487"><ele>410.3333333333333</ele><time>2026-04-23T14:43:03Z</time></trkpt><trkpt lat="43.59501006553357" lon="12.714027204654885"><ele>410.16666666666663</ele><time>2026-04-23T14:43:04Z</time></trkpt><trkpt lat="43.59499886308191" lon="12.714176523711677"><ele>410.0</ele><time>2026-04-23T14:43:06Z</time></trkpt><trkpt lat="43.59507410337864" lon="12.714188035353951"><ele>410.0</ele><time>2026-04-23T14:43:07Z</time></trkpt><trkpt lat="43.59514157644779" lon="12.714140777314125"><ele>410.0</ele><time>2026-04-23T14:43:08Z</time></trkpt><trkpt lat="43.59521167814654" lon="12.714045263411652"><ele>410.0</ele><time>2026-04-23T14:43:09Z</time></trkpt><trkpt lat="43.59528340695193" lon="12.71390846348674"><ele>410.0</ele><time>2026-04-23T14:43:10Z</time></trkpt><trkpt lat="43.595335229000085" lon="12.713744190447773"><ele>410.0</ele><time>2026-04-23T14:43:11Z</time></trkpt><trkpt lat="43.59536881448458" lon="12.713606277020377"><ele>406.66666666666663</ele><time>2026-04-23T14:43:12Z</time></trkpt><trkpt lat="43.59542051056499" lon="12.713484203614197"><ele>403.3333333333333</ele><time>2026-04-23T14:43:14Z</time></trkpt><trkpt lat="43.59548531592297" lon="12.713485100719128"><ele>400.0</ele><time>2026-04-23T14:43:15Z</time></trkpt><trkpt lat="43.59553734044819" lon="12.713551757105474"><ele>396.66666666666663</ele><time>2026-04-23T14:43:16Z</time></trkpt><trkpt lat="43.595549514428335" lon="12.713642927566076"><ele>393.3333333333333</ele><time>2026-04-23T14:43:17Z</time></trkpt><trkpt lat="43.59550578729411" lon="12.71377001574844"><ele>390.0</ele><time>2026-04-23T14:43:18Z</time></trkpt><trkpt lat="43.595522601772615" lon="12.71395751693191"><ele>390.0</ele><time>2026-04-23T14:43:19Z</time></trkpt><trkpt lat="43.59549251776011" lon="12.714156263033622"><ele>390.0</ele><time>2026-04-23T14:43:20Z</time></trkpt><trkpt lat="43.595456149234735" lon="12.714285802669611"><ele>390.0</ele><time>2026-04-23T14:43:21Z</time></trkpt><trkpt lat="43.59540876630763" lon="12.714365987455317"><ele>390.0</ele><time>2026-04-23T14:43:22Z</time></trkpt><trkpt lat="43.59535951326501" lon="12.714438104809306"><ele>390.0</ele><time>2026-04-23T14:43:23Z</time></trkpt><trkpt lat="43.595346947294104" lon="12.714532679522051"><ele>390.0</ele><time>2026-04-23T14:43:24Z</time></trkpt><trkpt lat="43.59539337131237" lon="12.71461715804314"><ele>390.0</ele><time>2026-04-23T14:43:25Z</time></trkpt><trkpt lat="43.59548724691888" lon="12.714642785101468"><ele>390.0</ele><time>2026-04-23T14:43:26Z</time></trkpt><trkpt lat="43.5955782767676" lon="12.714534446476824"><ele>390.0</ele><time>2026-04-23T14:43:27Z</time></trkpt><trkpt lat="43.5956701535639" lon="12.714437124491534"><ele>390.0</ele><time>2026-04-23T14:43:28Z</time></trkpt><trkpt lat="43.59578164288266" lon="12.714324928911372"><ele>390.0</ele><time>2026-04-23T14:43:29Z</time></trkpt><trkpt lat="43.59589406231988" lon="12.71423901711647"><ele>390.0</ele><time>2026-04-23T14:43:30Z</time></trkpt><trkpt lat="43.59597873079995" lon="12.714167673524507"><ele>390.0</ele><time>2026-04-23T14:43:31Z</time></trkpt><trkpt lat="43.59601829782015" lon="12.714095114910752"><ele>390.0</ele><time>2026-04-23T14:43:32Z</time></trkpt><trkpt lat="43.59600303902862" lon="12.713906487786929"><ele>390.0</ele><time>2026-04-23T14:43:34Z</time></trkpt><trkpt lat="43.59595755397551" lon="12.713805037845509"><ele>390.0</ele><time>2026-04-23T14:43:35Z</time></trkpt><trkpt lat="43.59597837467806" lon="12.713672603932064"><ele>390.0</ele><time>2026-04-23T14:43:37Z</time></trkpt><trkpt lat="43.5960429833525" lon="12.713641718556067"><ele>390.0</ele><time>2026-04-23T14:43:38Z</time></trkpt><trkpt lat="43.596097725476206" lon="12.713728120158699"><ele>390.0</ele><time>2026-04-23T14:43:39Z</time></trkpt><trkpt lat="43.59615148992256" lon="12.713828362830037"><ele>390.0</ele><time>2026-04-23T14:43:40Z</time></trkpt><trkpt lat="43.59622331859668" lon="12.713979751359508"><ele>384.4</ele><time>2026-04-23T14:43:41Z</time></trkpt><trkpt lat="43.596289608176264" lon="12.714143103902037"><ele>378.8</ele><time>2026-04-23T14:43:42Z</time></trkpt><trkpt lat="43.596319047714324" lon="12.71428079575037"><ele>373.20000000000005</ele><time>2026-04-23T14:43:43Z</time></trkpt><trkpt lat="43.596320740092885" lon="12.714416443746906"><ele>367.6</ele><time>2026-04-23T14:43:44Z</time></trkpt><trkpt lat="43.5962997959155" lon="12.71455693583191"><ele>362.0</ele><time>2026-04-23T14:43:45Z</time></trkpt><trkpt lat="43.59627029279528" lon="12.714730015491154"><ele>361.75</ele><time>2026-04-23T14:43:46Z</time></trkpt><trkpt lat="43.59622586616615" lon="12.71493738383237"><ele>361.5</ele><time>2026-04-23T14:43:47Z</time></trkpt><trkpt lat="43.5961657807569" lon="12.715134383537825"><ele>361.25</ele><time>2026-04-23T14:43:48Z</time></trkpt><trkpt lat="43.59608641314303" lon="12.715257216928022"><ele>361.0</ele><time>2026-04-23T14:43:49Z</time></trkpt><trkpt lat="43.59602497801007" lon="12.715375267034778"><ele>361.4</ele><time>2026-04-23T14:43:50Z</time></trkpt><trkpt lat="43.5959895093316" lon="12.715451447430206"><ele>361.8</ele><time>2026-04-23T14:43:51Z</time></trkpt><trkpt lat="43.59601302099752" lon="12.715630479995914"><ele>362.2</ele><time>2026-04-23T14:43:53Z</time></trkpt><trkpt lat="43.596090041871285" lon="12.715673762406992"><ele>362.59999999999997</ele><time>2026-04-23T14:43:54Z</time></trkpt><trkpt lat="43.596180588333" lon="12.715631805946423"><ele>363.0</ele><time>2026-04-23T14:43:55Z</time></trkpt><trkpt lat="43.59629234901771" lon="12.715552774871348"><ele>362.3333333333333</ele><time>2026-04-23T14:43:56Z</time></trkpt><trkpt lat="43.59644011152817" lon="12.715430939600123"><ele>361.66666666666663</ele><time>2026-04-23T14:43:57Z</time></trkpt><trkpt lat="43.596592378735124" lon="12.71529901184508"><ele>361.0</ele><time>2026-04-23T14:43:58Z</time></trkpt><trkpt lat="43.59671051943389" lon="12.715217915402368"><ele>361.0</ele><time>2026-04-23T14:43:59Z</time></trkpt><trkpt lat="43.596821436813265" lon="12.715173120071528"><ele>361.0</ele><time>2026-04-23T14:44:00Z</time></trkpt><trkpt lat="43.59693011111851" lon="12.715186083050028"><ele>361.0</ele><time>2026-04-23T14:44:01Z</time></trkpt><trkpt lat="43.597006464283744" lon="12.715283922540603"><ele>361.0</ele><time>2026-04-23T14:44:02Z</time></trkpt><trkpt lat="43.59709982659403" lon="12.715364878941966"><ele>361.0</ele><time>2026-04-23T14:44:03Z</time></trkpt><trkpt lat="43.59723205540574" lon="12.715470968625878"><ele>356.3333333333333</ele><time>2026-04-23T14:44:04Z</time></trkpt><trkpt lat="43.59739202906012" lon="12.715629122165181"><ele>351.6666666666667</ele><time>2026-04-23T14:44:05Z</time></trkpt><trkpt lat="43.597528380579995" lon="12.715777814451956"><ele>347.0</ele><time>2026-04-23T14:44:06Z</time></trkpt><trkpt lat="43.59762910859942" lon="12.715852644708702"><ele>347.0</ele><time>2026-04-23T14:44:07Z</time></trkpt><trkpt lat="43.597693139909" lon="12.715933737481889"><ele>347.0</ele><time>2026-04-23T14:44:08Z</time></trkpt><trkpt lat="43.59776118846872" lon="12.715988963136633"><ele>347.0</ele><time>2026-04-23T14:44:09Z</time></trkpt><trkpt lat="43.5978352049104" lon="12.715981348775898"><ele>347.0</ele><time>2026-04-23T14:44:10Z</time></trkpt><trkpt lat="43.597903299424296" lon="12.71591285641337"><ele>347.0</ele><time>2026-04-23T14:44:11Z</time></trkpt><trkpt lat="43.597958327756416" lon="12.715822872496403"><ele>347.0</ele><time>2026-04-23T14:44:12Z</time></trkpt><trkpt lat="43.59796525551755" lon="12.715695885942626"><ele>346.75</ele><time>2026-04-23T14:44:13Z</time></trkpt><trkpt lat="43.59790476981267" lon="12.715556938960061"><ele>346.5</ele><time>2026-04-23T14:44:14Z</time></trkpt><trkpt lat="43.59784138346895" lon="12.715392689179698"><ele>346.25</ele><time>2026-04-23T14:44:15Z</time></trkpt><trkpt lat="43.597795149561804" lon="12.71519837189597"><ele>346.0</ele><time>2026-04-23T14:44:16Z</time></trkpt><trkpt lat="43.5977563409579" lon="12.715013234663996"><ele>346.0</ele><time>2026-04-23T14:44:17Z</time></trkpt><trkpt lat="43.597766331149586" lon="12.714775181854442"><ele>346.0</ele><time>2026-04-23T14:44:18Z</time></trkpt><trkpt lat="43.5977746319994" lon="12.714547416780066"><ele>346.0</ele><time>2026-04-23T14:44:19Z</time></trkpt><trkpt lat="43.597770790409434" lon="12.714372088581076"><ele>345.20000000000005</ele><time>2026-04-23T14:44:20Z</time></trkpt><trkpt lat="43.59778043428395" lon="12.714243193179161"><ele>344.40000000000003</ele><time>2026-04-23T14:44:21Z</time></trkpt><trkpt lat="43.59776732047684" lon="12.714142550446825"><ele>343.6</ele><time>2026-04-23T14:44:22Z</time></trkpt><trkpt lat="43.59772509337859" lon="12.714061496893036"><ele>342.8</ele><time>2026-04-23T14:44:23Z</time></trkpt><trkpt lat="43.59765026304167" lon="12.714007154677082"><ele>342.0</ele><time>2026-04-23T14:44:24Z</time></trkpt><trkpt lat="43.597537902064545" lon="12.713931471652364"><ele>342.0</ele><time>2026-04-23T14:44:25Z</time></trkpt><trkpt lat="43.59739099002584" lon="12.713809918198756"><ele>342.0</ele><time>2026-04-23T14:44:26Z</time></trkpt><trkpt lat="43.59729850256621" lon="12.71368160156091"><ele>342.0</ele><time>2026-04-23T14:44:27Z</time></trkpt><trkpt lat="43.59724598152914" lon="12.71356591686076"><ele>342.0</ele><time>2026-04-23T14:44:28Z</time></trkpt><trkpt lat="43.597251026041405" lon="12.713446068515747"><ele>339.6</ele><time>2026-04-23T14:44:29Z</time></trkpt><trkpt lat="43.59725237501883" lon="12.713315918608847"><ele>337.20000000000005</ele><time>2026-04-23T14:44:30Z</time></trkpt><trkpt lat="43.59727442854431" lon="12.713188788527551"><ele>334.8</ele><time>2026-04-23T14:44:31Z</time></trkpt><trkpt lat="43.59732925546663" lon="12.71308539313546"><ele>332.4</ele><time>2026-04-23T14:44:32Z</time></trkpt><trkpt lat="43.597404168239635" lon="12.713040923199802"><ele>330.0</ele><time>2026-04-23T14:44:33Z</time></trkpt><trkpt lat="43.5974991465342" lon="12.71302861723036"><ele>330.0</ele><time>2026-04-23T14:44:34Z</time></trkpt><trkpt lat="43.59762040906746" lon="12.71310411397592"><ele>330.0</ele><time>2026-04-23T14:44:35Z</time></trkpt><trkpt lat="43.597750958310655" lon="12.713123280970263"><ele>330.0</ele><time>2026-04-23T14:44:36Z</time></trkpt><trkpt lat="43.59786618681688" lon="12.713150197588334"><ele>330.0</ele><time>2026-04-23T14:44:37Z</time></trkpt><trkpt lat="43.597963366917206" lon="12.713083033656249"><ele>327.0</ele><time>2026-04-23T14:44:38Z</time></trkpt><trkpt lat="43.59804778643899" lon="12.71298905117991"><ele>324.0</ele><time>2026-04-23T14:44:39Z</time></trkpt><trkpt lat="43.59815115265872" lon="12.712846975063883"><ele>321.0</ele><time>2026-04-23T14:44:40Z</time></trkpt><trkpt lat="43.59828569080677" lon="12.712685496394808"><ele>318.0</ele><time>2026-04-23T14:44:41Z</time></trkpt><trkpt lat="43.59842811591165" lon="12.712539642100781"><ele>316.6666666666667</ele><time>2026-04-23T14:44:42Z</time></trkpt><trkpt lat="43.59855118574139" lon="12.712394958323774"><ele>315.33333333333337</ele><time>2026-04-23T14:44:43Z</time></trkpt><trkpt lat="43.59867264226263" lon="12.71225962699542"><ele>314.0</ele><time>2026-04-23T14:44:44Z</time></trkpt><trkpt lat="43.59879688849001" lon="12.712123747714287"><ele>312.0</ele><time>2026-04-23T14:44:45Z</time></trkpt><trkpt lat="43.5989199741442" lon="12.711985929292261"><ele>310.0</ele><time>2026-04-23T14:44:46Z</time></trkpt><trkpt lat="43.59901913456232" lon="12.711878294965684"><ele>308.0</ele><time>2026-04-23T14:44:47Z</time></trkpt><trkpt lat="43.59911869456421" lon="12.711778862402703"><ele>306.0</ele><time>2026-04-23T14:44:48Z</time></trkpt><trkpt lat="43.59924120264023" lon="12.711696254289103"><ele>305.3333333333333</ele><time>2026-04-23T14:44:49Z</time></trkpt><trkpt lat="43.59938333504382" lon="12.71160000332138"><ele>304.66666666666663</ele><time>2026-04-23T14:44:50Z</time></trkpt><trkpt lat="43.59954801054501" lon="12.711535535536498"><ele>304.0</ele><time>2026-04-23T14:44:51Z</time></trkpt><trkpt lat="43.59969672181052" lon="12.711461839067429"><ele>301.4</ele><time>2026-04-23T14:44:52Z</time></trkpt><trkpt lat="43.599819571446446" lon="12.711397182064195"><ele>298.79999999999995</ele><time>2026-04-23T14:44:53Z</time></trkpt><trkpt lat="43.59992394984411" lon="12.711332265173375"><ele>296.20000000000005</ele><time>2026-04-23T14:44:54Z</time></trkpt><trkpt lat="43.60001231044465" lon="12.711284666838221"><ele>293.6</ele><time>2026-04-23T14:44:55Z</time></trkpt><trkpt lat="43.60007129895521" lon="12.711204461760639"><ele>291.0</ele><time>2026-04-23T14:44:56Z</time></trkpt><trkpt lat="43.60011022616136" lon="12.711094052251044"><ele>290.6</ele><time>2026-04-23T14:44:57Z</time></trkpt><trkpt lat="43.60016297231097" lon="12.710949295080347"><ele>290.20000000000005</ele><time>2026-04-23T14:44:58Z</time></trkpt><trkpt lat="43.60021485351292" lon="12.710818198129449"><ele>289.79999999999995</ele><time>2026-04-23T14:44:59Z</time></trkpt><trkpt lat="43.60027021208325" lon="12.710726932543832"><ele>289.4</ele><time>2026-04-23T14:45:00Z</time></trkpt><trkpt lat="43.600342335657324" lon="12.710695146248367"><ele>289.0</ele><time>2026-04-23T14:45:01Z</time></trkpt><trkpt lat="43.60041640086727" lon="12.71071551375379"><ele>286.59999999999997</ele><time>2026-04-23T14:45:02Z</time></trkpt><trkpt lat="43.6004883459411" lon="12.71080953191409"><ele>284.2</ele><time>2026-04-23T14:45:03Z</time></trkpt><trkpt lat="43.60059020578922" lon="12.710927423393015"><ele>281.79999999999995</ele><time>2026-04-23T14:45:04Z</time></trkpt><trkpt lat="43.600679693642256" lon="12.710996126954221"><ele>279.4</ele><time>2026-04-23T14:45:05Z</time></trkpt><trkpt lat="43.600772450384135" lon="12.7110247038608"><ele>277.0</ele><time>2026-04-23T14:45:06Z</time></trkpt><trkpt lat="43.6009252204314" lon="12.71104023239758"><ele>277.0</ele><time>2026-04-23T14:45:07Z</time></trkpt><trkpt lat="43.60102970595117" lon="12.710978850743086"><ele>277.0</ele><time>2026-04-23T14:45:08Z</time></trkpt><trkpt lat="43.60115782465049" lon="12.710916802950727"><ele>277.0</ele><time>2026-04-23T14:45:09Z</time></trkpt><trkpt lat="43.601284638091066" lon="12.71082569988899"><ele>277.0</ele><time>2026-04-23T14:45:10Z</time></trkpt><trkpt lat="43.60137901643039" lon="12.71071023327034"><ele>277.3333333333333</ele><time>2026-04-23T14:45:11Z</time></trkpt><trkpt lat="43.60149008297613" lon="12.710565907387966"><ele>277.6666666666667</ele><time>2026-04-23T14:45:12Z</time></trkpt><trkpt lat="43.60157889860358" lon="12.710393891126786"><ele>278.0</ele><time>2026-04-23T14:45:13Z</time></trkpt><trkpt lat="43.60167262657036" lon="12.710191569775494"><ele>278.0</ele><time>2026-04-23T14:45:14Z</time></trkpt><trkpt lat="43.601749168209594" lon="12.710007443028092"><ele>278.0</ele><time>2026-04-23T14:45:15Z</time></trkpt><trkpt lat="43.60182389410334" lon="12.709824233672641"><ele>278.0</ele><time>2026-04-23T14:45:16Z</time></trkpt><trkpt lat="43.601918157553186" lon="12.70964474982219"><ele>278.0</ele><time>2026-04-23T14:45:17Z</time></trkpt><trkpt lat="43.601990728408445" lon="12.709496735559025"><ele>278.0</ele><time>2026-04-23T14:45:18Z</time></trkpt><trkpt lat="43.60205497618344" lon="12.709368866435167"><ele>278.0</ele><time>2026-04-23T14:45:19Z</time></trkpt><trkpt lat="43.60212237023902" lon="12.709239241223873"><ele>278.0</ele><time>2026-04-23T14:45:20Z</time></trkpt><trkpt lat="43.60222880656157" lon="12.709100354271934"><ele>278.6</ele><time>2026-04-23T14:45:21Z</time></trkpt><trkpt lat="43.60231107718263" lon="12.708984905197218"><ele>279.20000000000005</ele><time>2026-04-23T14:45:22Z</time></trkpt><trkpt lat="43.60238681942052" lon="12.708904341946742"><ele>279.8</ele><time>2026-04-23T14:45:23Z</time></trkpt><trkpt lat="43.6024654498318" lon="12.708893603983029"><ele>280.40000000000003</ele><time>2026-04-23T14:45:24Z</time></trkpt><trkpt lat="43.60254351097735" lon="12.708931974903681"><ele>281.0</ele><time>2026-04-23T14:45:25Z</time></trkpt><trkpt lat="43.602635776973365" lon="12.709012096133527"><ele>281.0</ele><time>2026-04-23T14:45:26Z</time></trkpt><trkpt lat="43.60276125332643" lon="12.709135376389732"><ele>281.0</ele><time>2026-04-23T14:45:27Z</time></trkpt><trkpt lat="43.602908554265255" lon="12.709268576896925"><ele>281.0</ele><time>2026-04-23T14:45:28Z</time></trkpt><trkpt lat="43.60307397875554" lon="12.709433642430517"><ele>283.5</ele><time>2026-04-23T14:45:29Z</time></trkpt><trkpt lat="43.603215440625384" lon="12.709556757366338"><ele>286.0</ele><time>2026-04-23T14:45:30Z</time></trkpt><trkpt lat="43.603332922619416" lon="12.709638376648133"><ele>288.5</ele><time>2026-04-23T14:45:31Z</time></trkpt><trkpt lat="43.60343989201897" lon="12.70965657736158"><ele>291.0</ele><time>2026-04-23T14:45:32Z</time></trkpt><trkpt lat="43.60352349245432" lon="12.709656926541996"><ele>291.0</ele><time>2026-04-23T14:45:33Z</time></trkpt><trkpt lat="43.60359315765443" lon="12.709607427056053"><ele>291.0</ele><time>2026-04-23T14:45:34Z</time></trkpt><trkpt lat="43.60368067764953" lon="12.709512317430589"><ele>291.0</ele><time>2026-04-23T14:45:35Z</time></trkpt><trkpt lat="43.60379260928914" lon="12.709411763058496"><ele>291.0</ele><time>2026-04-23T14:45:36Z</time></trkpt><trkpt lat="43.603893018898674" lon="12.709262855331334"><ele>290.3333333333333</ele><time>2026-04-23T14:45:37Z</time></trkpt><trkpt lat="43.604018615781534" lon="12.709138816089013"><ele>289.66666666666663</ele><time>2026-04-23T14:45:38Z</time></trkpt><trkpt lat="43.60412695194393" lon="12.709006864101763"><ele>289.0</ele><time>2026-04-23T14:45:39Z</time></trkpt><trkpt lat="43.60423415007348" lon="12.708857815306335"><ele>289.0</ele><time>2026-04-23T14:45:40Z</time></trkpt><trkpt lat="43.60432303362683" lon="12.708712633659262"><ele>289.0</ele><time>2026-04-23T14:45:41Z</time></trkpt><trkpt lat="43.604393273582446" lon="12.708563915725977"><ele>289.0</ele><time>2026-04-23T14:45:42Z</time></trkpt><trkpt lat="43.604463454621175" lon="12.708402158232305"><ele>289.0</ele><time>2026-04-23T14:45:43Z</time></trkpt><trkpt lat="43.604530347353474" lon="12.708229105767812"><ele>289.75</ele><time>2026-04-23T14:45:44Z</time></trkpt><trkpt lat="43.60459159043562" lon="12.708047368377411"><ele>290.5</ele><time>2026-04-23T14:45:45Z</time></trkpt><trkpt lat="43.60463399765216" lon="12.707891687782308"><ele>291.25</ele><time>2026-04-23T14:45:46Z</time></trkpt><trkpt lat="43.604659930421114" lon="12.707769231085063"><ele>292.0</ele><time>2026-04-23T14:45:47Z</time></trkpt><trkpt lat="43.604692880813104" lon="12.707607601106826"><ele>290.0</ele><time>2026-04-23T14:45:48Z</time></trkpt><trkpt lat="43.60472979738586" lon="12.707416998081841"><ele>288.0</ele><time>2026-04-23T14:45:49Z</time></trkpt><trkpt lat="43.60478782722561" lon="12.70724034216196"><ele>286.0</ele><time>2026-04-23T14:45:50Z</time></trkpt><trkpt lat="43.60484859818494" lon="12.707120944226169"><ele>284.0</ele><time>2026-04-23T14:45:51Z</time></trkpt><trkpt lat="43.604932530250586" lon="12.707049344937511"><ele>284.0</ele><time>2026-04-23T14:45:52Z</time></trkpt><trkpt lat="43.60504384474895" lon="12.707005341204228"><ele>284.0</ele><time>2026-04-23T14:45:53Z</time></trkpt><trkpt lat="43.60514927994421" lon="12.70694485837624"><ele>284.0</ele><time>2026-04-23T14:45:54Z</time></trkpt><trkpt lat="43.60515703370087" lon="12.707131254896453"><ele>284.0</ele><time>2026-04-23T14:45:58Z</time></trkpt><trkpt lat="43.60519944854672" lon="12.707284000511263"><ele>284.0</ele><time>2026-04-23T14:45:59Z</time></trkpt><trkpt lat="43.605302378680435" lon="12.707459954663685"><ele>284.0</ele><time>2026-04-23T14:46:00Z</time></trkpt><trkpt lat="43.60540032502637" lon="12.707681327431617"><ele>284.0</ele><time>2026-04-23T14:46:01Z</time></trkpt><trkpt lat="43.6054990921851" lon="12.70789737728862"><ele>289.33333333333337</ele><time>2026-04-23T14:46:02Z</time></trkpt><trkpt lat="43.605544980270594" lon="12.708109459391165"><ele>294.6666666666667</ele><time>2026-04-23T14:46:03Z</time></trkpt><trkpt lat="43.60556712546048" lon="12.708317478994566"><ele>300.0</ele><time>2026-04-23T14:46:04Z</time></trkpt><trkpt lat="43.60559666291216" lon="12.708536346260626"><ele>302.3333333333333</ele><time>2026-04-23T14:46:05Z</time></trkpt><trkpt lat="43.60565661667007" lon="12.70872888116157"><ele>304.66666666666663</ele><time>2026-04-23T14:46:06Z</time></trkpt><trkpt lat="43.605726671032855" lon="12.708910684730256"><ele>307.0</ele><time>2026-04-23T14:46:07Z</time></trkpt><trkpt lat="43.60580721656543" lon="12.709087066983193"><ele>307.0</ele><time>2026-04-23T14:46:08Z</time></trkpt><trkpt lat="43.60589947892264" lon="12.709274417525155"><ele>307.0</ele><time>2026-04-23T14:46:09Z</time></trkpt><trkpt lat="43.605991839949546" lon="12.709454501517136"><ele>307.0</ele><time>2026-04-23T14:46:10Z</time></trkpt><trkpt lat="43.606047990524985" lon="12.709608708724693"><ele>307.0</ele><time>2026-04-23T14:46:11Z</time></trkpt><trkpt lat="43.60609000806463" lon="12.709743263316991"><ele>307.5</ele><time>2026-04-23T14:46:12Z</time></trkpt><trkpt lat="43.60606614260524" lon="12.709884274976764"><ele>308.0</ele><time>2026-04-23T14:46:13Z</time></trkpt><trkpt lat="43.60603451881557" lon="12.710014530327511"><ele>308.5</ele><time>2026-04-23T14:46:14Z</time></trkpt><trkpt lat="43.60595544171819" lon="12.710151222428081"><ele>309.0</ele><time>2026-04-23T14:46:15Z</time></trkpt><trkpt lat="43.60584601690849" lon="12.710322091249813"><ele>310.3333333333333</ele><time>2026-04-23T14:46:16Z</time></trkpt><trkpt lat="43.60573235407238" lon="12.710509289939687"><ele>311.66666666666663</ele><time>2026-04-23T14:46:17Z</time></trkpt><trkpt lat="43.60557834464403" lon="12.71069279424987"><ele>313.0</ele><time>2026-04-23T14:46:18Z</time></trkpt><trkpt lat="43.605432747559355" lon="12.71092254427931"><ele>312.66666666666663</ele><time>2026-04-23T14:46:19Z</time></trkpt><trkpt lat="43.60530799388051" lon="12.71111905893199"><ele>312.3333333333333</ele><time>2026-04-23T14:46:20Z</time></trkpt><trkpt lat="43.60519380205095" lon="12.711291352382347"><ele>312.0</ele><time>2026-04-23T14:46:21Z</time></trkpt><trkpt lat="43.6050913927646" lon="12.711481400307036"><ele>312.0</ele><time>2026-04-23T14:46:22Z</time></trkpt><trkpt lat="43.60504612160921" lon="12.711712645494567"><ele>312.0</ele><time>2026-04-23T14:46:23Z</time></trkpt><trkpt lat="43.60498525201338" lon="12.711920883138433"><ele>312.0</ele><time>2026-04-23T14:46:24Z</time></trkpt><trkpt lat="43.60492146929477" lon="12.712093204953288"><ele>312.5</ele><time>2026-04-23T14:46:25Z</time></trkpt><trkpt lat="43.604849718399116" lon="12.712211364859192"><ele>313.0</ele><time>2026-04-23T14:46:26Z</time></trkpt><trkpt lat="43.60475716141595" lon="12.712257403273659"><ele>313.5</ele><time>2026-04-23T14:46:27Z</time></trkpt><trkpt lat="43.60464657804256" lon="12.712350097231974"><ele>314.0</ele><time>2026-04-23T14:46:28Z</time></trkpt><trkpt lat="43.604530610847235" lon="12.712464920793629"><ele>314.33333333333337</ele><time>2026-04-23T14:46:29Z</time></trkpt><trkpt lat="43.604409924812714" lon="12.71257976566986"><ele>314.6666666666667</ele><time>2026-04-23T14:46:30Z</time></trkpt><trkpt lat="43.604275921238674" lon="12.712705998281468"><ele>315.0</ele><time>2026-04-23T14:46:31Z</time></trkpt><trkpt lat="43.60412097558301" lon="12.712848878927113"><ele>314.3333333333333</ele><time>2026-04-23T14:46:32Z</time></trkpt><trkpt lat="43.60395964163347" lon="12.713019242130395"><ele>313.66666666666663</ele><time>2026-04-23T14:46:33Z</time></trkpt><trkpt lat="43.60376512936003" lon="12.713143334351596"><ele>313.0</ele><time>2026-04-23T14:46:34Z</time></trkpt><trkpt lat="43.60362093064129" lon="12.713253297032187"><ele>313.0</ele><time>2026-04-23T14:46:35Z</time></trkpt><trkpt lat="43.60348945991598" lon="12.713387460899286"><ele>313.0</ele><time>2026-04-23T14:46:36Z</time></trkpt><trkpt lat="43.60337851605999" lon="12.713538279291244"><ele>313.0</ele><time>2026-04-23T14:46:37Z</time></trkpt><trkpt lat="43.603283884176996" lon="12.713706704351273"><ele>314.0</ele><time>2026-04-23T14:46:38Z</time></trkpt><trkpt lat="43.60319270104595" lon="12.713912068114842"><ele>315.0</ele><time>2026-04-23T14:46:39Z</time></trkpt><trkpt lat="43.603137728266624" lon="12.714096888378196"><ele>316.0</ele><time>2026-04-23T14:46:40Z</time></trkpt><trkpt lat="43.60309089504425" lon="12.714251621068161"><ele>317.0</ele><time>2026-04-23T14:46:41Z</time></trkpt><trkpt lat="43.60308976764823" lon="12.71439730627625"><ele>319.33333333333337</ele><time>2026-04-23T14:46:42Z</time></trkpt><trkpt lat="43.60309699296919" lon="12.71459929461614"><ele>321.6666666666667</ele><time>2026-04-23T14:46:43Z</time></trkpt><trkpt lat="43.60310464045622" lon="12.71484166484185"><ele>324.0</ele><time>2026-04-23T14:46:44Z</time></trkpt><trkpt lat="43.60309994119782" lon="12.715097098982175"><ele>326.6666666666667</ele><time>2026-04-23T14:46:45Z</time></trkpt><trkpt lat="43.60309681499322" lon="12.715338389026018"><ele>329.33333333333337</ele><time>2026-04-23T14:46:46Z</time></trkpt><trkpt lat="43.603098403082896" lon="12.715535604243216"><ele>332.0</ele><time>2026-04-23T14:46:47Z</time></trkpt><trkpt lat="43.60308480874062" lon="12.71575467703051"><ele>332.0</ele><time>2026-04-23T14:46:48Z</time></trkpt><trkpt lat="43.603019428192034" lon="12.715978080145895"><ele>332.0</ele><time>2026-04-23T14:46:49Z</time></trkpt><trkpt lat="43.60299268076354" lon="12.716183541481412"><ele>332.0</ele><time>2026-04-23T14:46:50Z</time></trkpt><trkpt lat="43.603033491463854" lon="12.716364083558348"><ele>330.6</ele><time>2026-04-23T14:46:51Z</time></trkpt><trkpt lat="43.6030284823181" lon="12.716521923237817"><ele>329.20000000000005</ele><time>2026-04-23T14:46:52Z</time></trkpt><trkpt lat="43.602970244381524" lon="12.716644247958888"><ele>327.8</ele><time>2026-04-23T14:46:53Z</time></trkpt><trkpt lat="43.60289600085669" lon="12.71670861024818"><ele>326.4</ele><time>2026-04-23T14:46:54Z</time></trkpt><trkpt lat="43.60280076028705" lon="12.716801510320424"><ele>325.0</ele><time>2026-04-23T14:46:55Z</time></trkpt><trkpt lat="43.602691792435614" lon="12.716889153448024"><ele>328.4</ele><time>2026-04-23T14:46:56Z</time></trkpt><trkpt lat="43.60258263527428" lon="12.716956693476357"><ele>331.8</ele><time>2026-04-23T14:46:57Z</time></trkpt><trkpt lat="43.60247742738956" lon="12.716981702059014"><ele>335.20000000000005</ele><time>2026-04-23T14:46:58Z</time></trkpt><trkpt lat="43.602373553526306" lon="12.716947470747755"><ele>338.6</ele><time>2026-04-23T14:46:59Z</time></trkpt><trkpt lat="43.60227148329251" lon="12.716962844016777"><ele>342.0</ele><time>2026-04-23T14:47:00Z</time></trkpt><trkpt lat="43.60217215544656" lon="12.716966203009315"><ele>342.0</ele><time>2026-04-23T14:47:01Z</time></trkpt><trkpt lat="43.602088064420464" lon="12.716989426646636"><ele>342.0</ele><time>2026-04-23T14:47:02Z</time></trkpt><trkpt lat="43.60200807811005" lon="12.717055487115159"><ele>342.0</ele><time>2026-04-23T14:47:04Z</time></trkpt><trkpt lat="43.60196052625551" lon="12.717139436777735"><ele>342.0</ele><time>2026-04-23T14:49:52Z</time></trkpt><trkpt lat="43.601905917959634" lon="12.717190338572614"><ele>342.0</ele><time>2026-04-23T14:49:53Z</time></trkpt><trkpt lat="43.60187660278222" lon="12.717281974497567"><ele>342.0</ele><time>2026-04-23T14:49:54Z</time></trkpt><trkpt lat="43.601841632833654" lon="12.717366189256317"><ele>341.3333333333333</ele><time>2026-04-23T14:49:55Z</time></trkpt><trkpt lat="43.60181798261845" lon="12.717454409151223"><ele>340.6666666666667</ele><time>2026-04-23T14:49:56Z</time></trkpt><trkpt lat="43.601803866155315" lon="12.717557666504932"><ele>340.0</ele><time>2026-04-23T14:49:57Z</time></trkpt><trkpt lat="43.60180557507796" lon="12.717675315853397"><ele>339.33333333333337</ele><time>2026-04-23T14:49:58Z</time></trkpt><trkpt lat="43.601816245990854" lon="12.717795085440216"><ele>338.6666666666667</ele><time>2026-04-23T14:49:59Z</time></trkpt><trkpt lat="43.60184058194913" lon="12.717927770883602"><ele>338.0</ele><time>2026-04-23T14:50:00Z</time></trkpt><trkpt lat="43.60186797802785" lon="12.71808583855118"><ele>338.0</ele><time>2026-04-23T14:50:01Z</time></trkpt><trkpt lat="43.60186635749888" lon="12.718267906477413"><ele>338.0</ele><time>2026-04-23T14:50:02Z</time></trkpt><trkpt lat="43.601851534078726" lon="12.718440612232033"><ele>338.0</ele><time>2026-04-23T14:50:03Z</time></trkpt><trkpt lat="43.60183305706913" lon="12.718602556758695"><ele>338.0</ele><time>2026-04-23T14:50:04Z</time></trkpt><trkpt lat="43.60181216047718" lon="12.718787100247786"><ele>340.25</ele><time>2026-04-23T14:50:05Z</time></trkpt><trkpt lat="43.6017906495753" lon="12.718977068904332"><ele>342.5</ele><time>2026-04-23T14:50:06Z</time></trkpt><trkpt lat="43.601766860078826" lon="12.719186032224394"><ele>344.75</ele><time>2026-04-23T14:50:07Z</time></trkpt><trkpt lat="43.601743962637464" lon="12.719386177846221"><ele>347.0</ele><time>2026-04-23T14:50:08Z</time></trkpt><trkpt lat="43.60172692616007" lon="12.719562310825332"><ele>347.8</ele><time>2026-04-23T14:50:09Z</time></trkpt><trkpt lat="43.6016942334922" lon="12.719705785323928"><ele>348.6</ele><time>2026-04-23T14:50:10Z</time></trkpt><trkpt lat="43.60169101407268" lon="12.719835537382293"><ele>349.40000000000003</ele><time>2026-04-23T14:50:11Z</time></trkpt><trkpt lat="43.601714998678204" lon="12.71996027206359"><ele>350.20000000000005</ele><time>2026-04-23T14:50:12Z</time></trkpt><trkpt lat="43.60171251460272" lon="12.72007054004401"><ele>351.0</ele><time>2026-04-23T14:50:13Z</time></trkpt><trkpt lat="43.60170807942788" lon="12.720222555147675"><ele>351.6666666666667</ele><time>2026-04-23T14:50:14Z</time></trkpt><trkpt lat="43.60169929701119" lon="12.720362112125732"><ele>352.3333333333333</ele><time>2026-04-23T14:50:15Z</time></trkpt><trkpt lat="43.60167784120827" lon="12.720482705542244"><ele>353.0</ele><time>2026-04-23T14:50:16Z</time></trkpt><trkpt lat="43.60165528825242" lon="12.720585080954695"><ele>353.66666666666663</ele><time>2026-04-23T14:50:17Z</time></trkpt><trkpt lat="43.60167344246098" lon="12.72068410411021"><ele>354.3333333333333</ele><time>2026-04-23T14:50:18Z</time></trkpt><trkpt lat="43.601705672254134" lon="12.720782971762786"><ele>355.0</ele><time>2026-04-23T14:50:19Z</time></trkpt><trkpt lat="43.60174824499685" lon="12.720870128975312"><ele>355.0</ele><time>2026-04-23T14:50:20Z</time></trkpt><trkpt lat="43.60180046296431" lon="12.720959202385856"><ele>355.0</ele><time>2026-04-23T14:50:21Z</time></trkpt><trkpt lat="43.60187032023992" lon="12.72105906860049"><ele>355.0</ele><time>2026-04-23T14:50:22Z</time></trkpt><trkpt lat="43.60194384247339" lon="12.721175130235084"><ele>355.0</ele><time>2026-04-23T14:50:23Z</time></trkpt><trkpt lat="43.60202696169297" lon="12.7213231883955"><ele>355.0</ele><time>2026-04-23T14:50:24Z</time></trkpt><trkpt lat="43.60211773101709" lon="12.721462883331247"><ele>359.2</ele><time>2026-04-23T14:50:25Z</time></trkpt><trkpt lat="43.60220332469379" lon="12.72158481252143"><ele>363.4</ele><time>2026-04-23T14:50:26Z</time></trkpt><trkpt lat="43.60226767075288" lon="12.721700205224455"><ele>367.6</ele><time>2026-04-23T14:50:27Z</time></trkpt><trkpt lat="43.60227434955824" lon="12.721829129293063"><ele>371.8</ele><time>2026-04-23T14:50:28Z</time></trkpt><trkpt lat="43.60225850973214" lon="12.721983865684061"><ele>376.0</ele><time>2026-04-23T14:50:29Z</time></trkpt><trkpt lat="43.60219068088752" lon="12.722145430228272"><ele>376.5</ele><time>2026-04-23T14:50:30Z</time></trkpt><trkpt lat="43.602133983460725" lon="12.722299311614663"><ele>377.0</ele><time>2026-04-23T14:50:31Z</time></trkpt><trkpt lat="43.60206071420009" lon="12.722433912212901"><ele>377.5</ele><time>2026-04-23T14:50:32Z</time></trkpt><trkpt lat="43.601975136174296" lon="12.722547943906855"><ele>378.0</ele><time>2026-04-23T14:50:33Z</time></trkpt><trkpt lat="43.601885290996464" lon="12.722633876899987"><ele>374.0</ele><time>2026-04-23T14:50:34Z</time></trkpt><trkpt lat="43.60179474046439" lon="12.722675562235668"><ele>370.0</ele><time>2026-04-23T14:50:35Z</time></trkpt><trkpt lat="43.60170681699906" lon="12.722688942855918"><ele>366.0</ele><time>2026-04-23T14:50:36Z</time></trkpt><trkpt lat="43.60160334128294" lon="12.722696124342367"><ele>362.0</ele><time>2026-04-23T14:50:37Z</time></trkpt><trkpt lat="43.60146986965997" lon="12.722669788265867"><ele>358.0</ele><time>2026-04-23T14:50:38Z</time></trkpt><trkpt lat="43.60133738033265" lon="12.722668700202393"><ele>358.0</ele><time>2026-04-23T14:50:39Z</time></trkpt><trkpt lat="43.60120083456664" lon="12.722694807636737"><ele>358.0</ele><time>2026-04-23T14:50:40Z</time></trkpt><trkpt lat="43.60108588263049" lon="12.722721826642374"><ele>358.0</ele><time>2026-04-23T14:50:41Z</time></trkpt><trkpt lat="43.60098901729081" lon="12.722732886128778"><ele>358.0</ele><time>2026-04-23T14:50:42Z</time></trkpt><trkpt lat="43.60093353472048" lon="12.722790148184643"><ele>358.0</ele><time>2026-04-23T14:50:43Z</time></trkpt><trkpt lat="43.60088412053315" lon="12.722872231523105"><ele>359.59999999999997</ele><time>2026-04-23T14:50:44Z</time></trkpt><trkpt lat="43.60086683622396" lon="12.722982079565728"><ele>361.2</ele><time>2026-04-23T14:50:45Z</time></trkpt><trkpt lat="43.60085417601932" lon="12.723086439569176"><ele>362.8</ele><time>2026-04-23T14:50:46Z</time></trkpt><trkpt lat="43.60081440395476" lon="12.723205997643335"><ele>364.4</ele><time>2026-04-23T14:50:47Z</time></trkpt><trkpt lat="43.60078007836455" lon="12.72339761729868"><ele>366.0</ele><time>2026-04-23T14:50:48Z</time></trkpt><trkpt lat="43.60072303759403" lon="12.723623798397941"><ele>369.25</ele><time>2026-04-23T14:50:49Z</time></trkpt><trkpt lat="43.600630410344344" lon="12.723844847718759"><ele>372.5</ele><time>2026-04-23T14:50:50Z</time></trkpt><trkpt lat="43.60054403682256" lon="12.724006342039702"><ele>375.75</ele><time>2026-04-23T14:50:51Z</time></trkpt><trkpt lat="43.600456083675596" lon="12.724115219275825"><ele>379.0</ele><time>2026-04-23T14:50:52Z</time></trkpt><trkpt lat="43.600359795459106" lon="12.724234777753722"><ele>379.5</ele><time>2026-04-23T14:50:53Z</time></trkpt><trkpt lat="43.60025592967425" lon="12.724380696996288"><ele>380.0</ele><time>2026-04-23T14:50:54Z</time></trkpt><trkpt lat="43.60015562079693" lon="12.724530864626226"><ele>380.5</ele><time>2026-04-23T14:50:55Z</time></trkpt><trkpt lat="43.600104751567926" lon="12.724665896309004"><ele>381.0</ele><time>2026-04-23T14:50:56Z</time></trkpt><trkpt lat="43.60006073026086" lon="12.724743633740422"><ele>381.0</ele><time>2026-04-23T14:50:57Z</time></trkpt><trkpt lat="43.60008001366814" lon="12.724917472217655"><ele>381.0</ele><time>2026-04-23T14:50:59Z</time></trkpt><trkpt lat="43.600133810453414" lon="12.72505240756953"><ele>381.0</ele><time>2026-04-23T14:51:00Z</time></trkpt><trkpt lat="43.60014996466557" lon="12.725229058846738"><ele>381.0</ele><time>2026-04-23T14:51:01Z</time></trkpt><trkpt lat="43.60017777393911" lon="12.725398029727819"><ele>382.75</ele><time>2026-04-23T14:51:02Z</time></trkpt><trkpt lat="43.60021990805089" lon="12.725556928054788"><ele>384.5</ele><time>2026-04-23T14:51:03Z</time></trkpt><trkpt lat="43.6002260928628" lon="12.725776113501517"><ele>386.25</ele><time>2026-04-23T14:51:04Z</time></trkpt><trkpt lat="43.60024167759608" lon="12.725962511767502"><ele>388.0</ele><time>2026-04-23T14:51:05Z</time></trkpt><trkpt lat="43.60023683654075" lon="12.726079041941901"><ele>388.0</ele><time>2026-04-23T14:51:06Z</time></trkpt><trkpt lat="43.6001637534864" lon="12.726162352263382"><ele>388.0</ele><time>2026-04-23T14:51:08Z</time></trkpt><trkpt lat="43.6000867441204" lon="12.726155526207583"><ele>388.0</ele><time>2026-04-23T14:51:09Z</time></trkpt><trkpt lat="43.600012723832755" lon="12.726065070049517"><ele>388.0</ele><time>2026-04-23T14:51:10Z</time></trkpt><trkpt lat="43.59989641918535" lon="12.72600346190782"><ele>388.0</ele><time>2026-04-23T14:51:11Z</time></trkpt><trkpt lat="43.59977893010687" lon="12.725916212981232"><ele>388.0</ele><time>2026-04-23T14:51:12Z</time></trkpt><trkpt lat="43.599662193742134" lon="12.725828771405247"><ele>388.0</ele><time>2026-04-23T14:51:13Z</time></trkpt><trkpt lat="43.59953879266684" lon="12.725779531219594"><ele>388.0</ele><time>2026-04-23T14:51:14Z</time></trkpt><trkpt lat="43.59942248996567" lon="12.725772590336128"><ele>388.0</ele><time>2026-04-23T14:51:15Z</time></trkpt><trkpt lat="43.599313699935486" lon="12.725785438909229"><ele>387.4</ele><time>2026-04-23T14:51:16Z</time></trkpt><trkpt lat="43.599187740677195" lon="12.725778965774548"><ele>386.79999999999995</ele><time>2026-04-23T14:51:17Z</time></trkpt><trkpt lat="43.59904874846971" lon="12.72579185843634"><ele>386.2</ele><time>2026-04-23T14:51:18Z</time></trkpt><trkpt lat="43.598955227450496" lon="12.725841417506029"><ele>385.6</ele><time>2026-04-23T14:51:19Z</time></trkpt><trkpt lat="43.59888368051012" lon="12.725882721255594"><ele>385.0</ele><time>2026-04-23T14:51:20Z</time></trkpt><trkpt lat="43.59880663242512" lon="12.725976927084783"><ele>385.25</ele><time>2026-04-23T14:51:21Z</time></trkpt><trkpt lat="43.59873225291469" lon="12.726095538588567"><ele>385.5</ele><time>2026-04-23T14:51:22Z</time></trkpt><trkpt lat="43.598663296600066" lon="12.726264310666664"><ele>385.75</ele><time>2026-04-23T14:51:23Z</time></trkpt><trkpt lat="43.598558791558645" lon="12.726464861451321"><ele>386.0</ele><time>2026-04-23T14:51:24Z</time></trkpt><trkpt lat="43.59845845651762" lon="12.726690612551797"><ele>390.0</ele><time>2026-04-23T14:51:25Z</time></trkpt><trkpt lat="43.59832092665386" lon="12.726915735111131"><ele>394.0</ele><time>2026-04-23T14:51:26Z</time></trkpt><trkpt lat="43.59820597904757" lon="12.727097930656072"><ele>398.0</ele><time>2026-04-23T14:51:27Z</time></trkpt><trkpt lat="43.598089318296275" lon="12.727262826770586"><ele>398.0</ele><time>2026-04-23T14:51:28Z</time></trkpt><trkpt lat="43.59799173579278" lon="12.727401950163651"><ele>398.0</ele><time>2026-04-23T14:51:29Z</time></trkpt><trkpt lat="43.59791878875661" lon="12.727529596045432"><ele>398.0</ele><time>2026-04-23T14:51:30Z</time></trkpt><trkpt lat="43.59787705040164" lon="12.72765429910283"><ele>398.0</ele><time>2026-04-23T14:51:31Z</time></trkpt><trkpt lat="43.59784613066756" lon="12.727811386482173"><ele>393.0</ele><time>2026-04-23T14:51:32Z</time></trkpt><trkpt lat="43.597813204996484" lon="12.728011451449646"><ele>388.0</ele><time>2026-04-23T14:51:33Z</time></trkpt><trkpt lat="43.597762263886274" lon="12.728244227748108"><ele>383.0</ele><time>2026-04-23T14:51:34Z</time></trkpt><trkpt lat="43.59768036616571" lon="12.728469402198007"><ele>384.5</ele><time>2026-04-23T14:51:35Z</time></trkpt><trkpt lat="43.59761207605615" lon="12.728667900091741"><ele>386.0</ele><time>2026-04-23T14:51:36Z</time></trkpt><trkpt lat="43.59754195103824" lon="12.728841907402616"><ele>387.5</ele><time>2026-04-23T14:51:37Z</time></trkpt><trkpt lat="43.59750239377815" lon="12.728988474113196"><ele>389.0</ele><time>2026-04-23T14:51:38Z</time></trkpt><trkpt lat="43.59746797950447" lon="12.729094388054301"><ele>388.99999999999994</ele><time>2026-04-23T14:51:39Z</time></trkpt><trkpt lat="43.59746993597065" lon="12.729195804511761"><ele>389.0</ele><time>2026-04-23T14:51:40Z</time></trkpt><trkpt lat="43.5974771360668" lon="12.729305740058228"><ele>389.0</ele><time>2026-04-23T14:51:41Z</time></trkpt><trkpt lat="43.59753197118445" lon="12.729406578733485"><ele>389.0</ele><time>2026-04-23T14:51:42Z</time></trkpt><trkpt lat="43.597609370481116" lon="12.729470666409174"><ele>388.99999999999994</ele><time>2026-04-23T14:51:43Z</time></trkpt><trkpt lat="43.597680288379316" lon="12.729565584689047"><ele>389.0</ele><time>2026-04-23T14:51:44Z</time></trkpt><trkpt lat="43.59778273278658" lon="12.729650565517842"><ele>394.25</ele><time>2026-04-23T14:51:45Z</time></trkpt><trkpt lat="43.59788941932845" lon="12.729761091270761"><ele>399.5</ele><time>2026-04-23T14:51:46Z</time></trkpt><trkpt lat="43.597953610194224" lon="12.729887008265878"><ele>404.75</ele><time>2026-04-23T14:51:47Z</time></trkpt><trkpt lat="43.597995344757116" lon="12.730030955605972"><ele>410.0</ele><time>2026-04-23T14:51:48Z</time></trkpt><trkpt lat="43.59801302376454" lon="12.73020128862851"><ele>411.0</ele><time>2026-04-23T14:51:49Z</time></trkpt><trkpt lat="43.59798660566158" lon="12.730365698876641"><ele>412.0</ele><time>2026-04-23T14:51:50Z</time></trkpt><trkpt lat="43.59797526344532" lon="12.730535187000505"><ele>413.0</ele><time>2026-04-23T14:51:51Z</time></trkpt><trkpt lat="43.59796762165883" lon="12.730690695053505"><ele>414.0</ele><time>2026-04-23T14:51:52Z</time></trkpt><trkpt lat="43.597963041085485" lon="12.730817003611245"><ele>414.0</ele><time>2026-04-23T14:51:53Z</time></trkpt><trkpt lat="43.59799512793199" lon="12.730935926274121"><ele>414.0</ele><time>2026-04-23T14:51:54Z</time></trkpt><trkpt lat="43.598039609206964" lon="12.731061783818458"><ele>414.0</ele><time>2026-04-23T14:51:55Z</time></trkpt><trkpt lat="43.59807509471321" lon="12.731206628979633"><ele>414.0</ele><time>2026-04-23T14:51:56Z</time></trkpt><trkpt lat="43.59803917589417" lon="12.731311337976484"><ele>414.0</ele><time>2026-04-23T14:51:57Z</time></trkpt><trkpt lat="43.597953402167946" lon="12.731420762437859"><ele>414.4</ele><time>2026-04-23T14:51:59Z</time></trkpt><trkpt lat="43.59784568179307" lon="12.731514722261895"><ele>414.79999999999995</ele><time>2026-04-23T14:52:00Z</time></trkpt><trkpt lat="43.59777253606615" lon="12.731568392331106"><ele>415.20000000000005</ele><time>2026-04-23T14:52:01Z</time></trkpt><trkpt lat="43.59776300308395" lon="12.73174201816118"><ele>415.6</ele><time>2026-04-23T14:52:03Z</time></trkpt><trkpt lat="43.59778912155627" lon="12.731858222131697"><ele>416.0</ele><time>2026-04-23T14:52:04Z</time></trkpt><trkpt lat="43.59780727461667" lon="12.731997831648972"><ele>413.0</ele><time>2026-04-23T14:52:05Z</time></trkpt><trkpt lat="43.59779856110928" lon="12.732185929844178"><ele>410.0</ele><time>2026-04-23T14:52:06Z</time></trkpt><trkpt lat="43.59775977654844" lon="12.73235210245685"><ele>407.0</ele><time>2026-04-23T14:52:07Z</time></trkpt><trkpt lat="43.597691342531384" lon="12.732463640735428"><ele>404.0</ele><time>2026-04-23T14:52:08Z</time></trkpt><trkpt lat="43.5975983605378" lon="12.732530786046423"><ele>403.99999999999994</ele><time>2026-04-23T14:52:09Z</time></trkpt><trkpt lat="43.597522752513136" lon="12.73263962106386"><ele>404.0</ele><time>2026-04-23T14:52:10Z</time></trkpt><trkpt lat="43.59745132816214" lon="12.732725319175499"><ele>404.0</ele><time>2026-04-23T14:52:11Z</time></trkpt><trkpt lat="43.59742834071835" lon="12.73282585224386"><ele>404.0</ele><time>2026-04-23T14:52:12Z</time></trkpt><trkpt lat="43.59741476746167" lon="12.732916016551705"><ele>403.99999999999994</ele><time>2026-04-23T14:52:13Z</time></trkpt><trkpt lat="43.597381899969946" lon="12.733016421845916"><ele>404.0</ele><time>2026-04-23T14:52:14Z</time></trkpt><trkpt lat="43.59737393351706" lon="12.733159628803211"><ele>406.75</ele><time>2026-04-23T14:52:15Z</time></trkpt><trkpt lat="43.59734628336021" lon="12.733300269139093"><ele>409.5</ele><time>2026-04-23T14:52:16Z</time></trkpt><trkpt lat="43.59728661855135" lon="12.733397528401174"><ele>412.25</ele><time>2026-04-23T14:52:17Z</time></trkpt><trkpt lat="43.597126938635604" lon="12.733422137297591"><ele>415.0</ele><time>2026-04-23T14:52:20Z</time></trkpt><trkpt lat="43.59708329648369" lon="12.733295035018964"><ele>414.2</ele><time>2026-04-23T14:52:21Z</time></trkpt><trkpt lat="43.59700118102402" lon="12.733222101306644"><ele>413.4</ele><time>2026-04-23T14:52:22Z</time></trkpt><trkpt lat="43.59694441517796" lon="12.733144954043242"><ele>412.6</ele><time>2026-04-23T14:52:23Z</time></trkpt><trkpt lat="43.59686468415365" lon="12.733061438712625"><ele>411.8</ele><time>2026-04-23T14:52:24Z</time></trkpt><trkpt lat="43.596768841107576" lon="12.732999513276416"><ele>411.0</ele><time>2026-04-23T14:52:25Z</time></trkpt><trkpt lat="43.596672230269796" lon="12.73294957731869"><ele>411.0</ele><time>2026-04-23T14:52:26Z</time></trkpt><trkpt lat="43.596588188126816" lon="12.732923723133732"><ele>411.0</ele><time>2026-04-23T14:52:27Z</time></trkpt><trkpt lat="43.5965232306994" lon="12.732928753426192"><ele>411.0</ele><time>2026-04-23T14:52:28Z</time></trkpt><trkpt lat="43.59647331158991" lon="12.73298992326928"><ele>411.0</ele><time>2026-04-23T14:52:29Z</time></trkpt><trkpt lat="43.59637709166488" lon="12.733025020509944"><ele>411.0</ele><time>2026-04-23T14:52:30Z</time></trkpt><trkpt lat="43.596418213498964" lon="12.733226525158805"><ele>411.0</ele><time>2026-04-23T14:52:31Z</time></trkpt><trkpt lat="43.59637899372621" lon="12.733408947263372"><ele>411.0</ele><time>2026-04-23T14:52:32Z</time></trkpt><trkpt lat="43.59631690863161" lon="12.733578716627616"><ele>411.0</ele><time>2026-04-23T14:52:33Z</time></trkpt><trkpt lat="43.596237113674995" lon="12.733701350389401"><ele>411.0</ele><time>2026-04-23T14:52:34Z</time></trkpt><trkpt lat="43.59613550617808" lon="12.73379479134008"><ele>412.6</ele><time>2026-04-23T14:52:35Z</time></trkpt><trkpt lat="43.596031304935465" lon="12.73387370888506"><ele>414.20000000000005</ele><time>2026-04-23T14:52:36Z</time></trkpt><trkpt lat="43.59596082662623" lon="12.73397409075281"><ele>415.79999999999995</ele><time>2026-04-23T14:52:37Z</time></trkpt><trkpt lat="43.59592272317545" lon="12.734081504729179"><ele>417.4</ele><time>2026-04-23T14:52:38Z</time></trkpt><trkpt lat="43.595894463370726" lon="12.734230596078891"><ele>419.0</ele><time>2026-04-23T14:52:39Z</time></trkpt><trkpt lat="43.595830219465775" lon="12.734348953949302"><ele>422.5</ele><time>2026-04-23T14:52:40Z</time></trkpt><trkpt lat="43.595763643570095" lon="12.734422627187005"><ele>426.0</ele><time>2026-04-23T14:52:41Z</time></trkpt><trkpt lat="43.59568369027421" lon="12.7344939979813"><ele>429.5</ele><time>2026-04-23T14:52:42Z</time></trkpt><trkpt lat="43.595566805381594" lon="12.734592541063316"><ele>433.0</ele><time>2026-04-23T14:52:43Z</time></trkpt><trkpt lat="43.595449753313325" lon="12.734712587953387"><ele>433.0</ele><time>2026-04-23T14:52:44Z</time></trkpt><trkpt lat="43.59533839898323" lon="12.734874682980735"><ele>432.99999999999994</ele><time>2026-04-23T14:52:45Z</time></trkpt><trkpt lat="43.59523669642634" lon="12.734978603933753"><ele>432.99999999999994</ele><time>2026-04-23T14:52:46Z</time></trkpt><trkpt lat="43.59515414535901" lon="12.735010674403673"><ele>433.0</ele><time>2026-04-23T14:52:47Z</time></trkpt><trkpt lat="43.595081050089135" lon="12.73501325409896"><ele>433.0</ele><time>2026-04-23T14:52:48Z</time></trkpt><trkpt lat="43.59497595415272" lon="12.734932501420413"><ele>431.6666666666667</ele><time>2026-04-23T14:52:49Z</time></trkpt><trkpt lat="43.59482987714809" lon="12.734936195242787"><ele>430.33333333333337</ele><time>2026-04-23T14:52:50Z</time></trkpt><trkpt lat="43.594670071893994" lon="12.73491211603451"><ele>429.0</ele><time>2026-04-23T14:52:51Z</time></trkpt><trkpt lat="43.594508864710455" lon="12.734888806714071"><ele>429.79999999999995</ele><time>2026-04-23T14:52:52Z</time></trkpt><trkpt lat="43.59436430307891" lon="12.734871918822432"><ele>430.59999999999997</ele><time>2026-04-23T14:52:53Z</time></trkpt><trkpt lat="43.594265553913495" lon="12.734865785889667"><ele>431.4</ele><time>2026-04-23T14:52:54Z</time></trkpt><trkpt lat="43.594200254167156" lon="12.734876979739195"><ele>432.2</ele><time>2026-04-23T14:52:55Z</time></trkpt><trkpt lat="43.5941220599931" lon="12.73488058216147"><ele>433.0</ele><time>2026-04-23T14:52:56Z</time></trkpt><trkpt lat="43.5940326287006" lon="12.734976721118379"><ele>433.0</ele><time>2026-04-23T14:52:57Z</time></trkpt><trkpt lat="43.593945047616934" lon="12.73512735449278"><ele>433.0</ele><time>2026-04-23T14:52:58Z</time></trkpt><trkpt lat="43.59386704590995" lon="12.73528758715738"><ele>433.0</ele><time>2026-04-23T14:52:59Z</time></trkpt><trkpt lat="43.59382761424036" lon="12.73544783151993"><ele>433.0</ele><time>2026-04-23T14:53:00Z</time></trkpt><trkpt lat="43.5937720001856" lon="12.735626806571675"><ele>438.0</ele><time>2026-04-23T14:53:01Z</time></trkpt><trkpt lat="43.59370868284788" lon="12.735856115031549"><ele>443.0</ele><time>2026-04-23T14:53:02Z</time></trkpt><trkpt lat="43.5936417648723" lon="12.736095183695749"><ele>448.0</ele><time>2026-04-23T14:53:03Z</time></trkpt><trkpt lat="43.593583745329326" lon="12.736371758823536"><ele>448.5</ele><time>2026-04-23T14:53:04Z</time></trkpt><trkpt lat="43.59352289998449" lon="12.73658777016875"><ele>449.0</ele><time>2026-04-23T14:53:05Z</time></trkpt><trkpt lat="43.593486120314196" lon="12.736782175361169"><ele>449.5</ele><time>2026-04-23T14:53:06Z</time></trkpt><trkpt lat="43.59344581078431" lon="12.73693508703597"><ele>450.0</ele><time>2026-04-23T14:53:07Z</time></trkpt><trkpt lat="43.59339607146045" lon="12.73704061801106"><ele>450.0</ele><time>2026-04-23T14:53:08Z</time></trkpt><trkpt lat="43.593303604917935" lon="12.737085022534835"><ele>450.0</ele><time>2026-04-23T14:53:10Z</time></trkpt><trkpt lat="43.593241178701085" lon="12.736988814928802"><ele>450.0</ele><time>2026-04-23T14:53:11Z</time></trkpt><trkpt lat="43.593195097423866" lon="12.736923315460816"><ele>450.0</ele><time>2026-04-23T14:53:12Z</time></trkpt><trkpt lat="43.59311849757224" lon="12.736848911298418"><ele>450.0</ele><time>2026-04-23T14:53:13Z</time></trkpt><trkpt lat="43.593054707804285" lon="12.736785419258993"><ele>450.0</ele><time>2026-04-23T14:53:14Z</time></trkpt><trkpt lat="43.59298182574244" lon="12.736810647670161"><ele>450.0</ele><time>2026-04-23T14:53:15Z</time></trkpt><trkpt lat="43.592924220802004" lon="12.736847874173867"><ele>450.0</ele><time>2026-04-23T14:53:16Z</time></trkpt><trkpt lat="43.59287211847167" lon="12.736938558728054"><ele>450.0</ele><time>2026-04-23T14:53:17Z</time></trkpt><trkpt lat="43.592787656984015" lon="12.737035236192272"><ele>450.0</ele><time>2026-04-23T14:53:18Z</time></trkpt><trkpt lat="43.59269701721882" lon="12.737169514456067"><ele>450.0</ele><time>2026-04-23T14:53:19Z</time></trkpt><trkpt lat="43.592601717730254" lon="12.737300161717695"><ele>456.66666666666663</ele><time>2026-04-23T14:53:20Z</time></trkpt><trkpt lat="43.59245700048857" lon="12.737400504577545"><ele>463.3333333333333</ele><time>2026-04-23T14:53:21Z</time></trkpt><trkpt lat="43.59230384393962" lon="12.737514772099875"><ele>470.0</ele><time>2026-04-23T14:53:22Z</time></trkpt><trkpt lat="43.59216409417095" lon="12.737642353215742"><ele>470.0</ele><time>2026-04-23T14:53:23Z</time></trkpt><trkpt lat="43.592055456009646" lon="12.737795505155871"><ele>470.0</ele><time>2026-04-23T14:53:24Z</time></trkpt><trkpt lat="43.59195648002348" lon="12.73793841865378"><ele>470.0</ele><time>2026-04-23T14:53:25Z</time></trkpt><trkpt lat="43.591897177650175" lon="12.738038104404598"><ele>470.0</ele><time>2026-04-23T14:53:26Z</time></trkpt><trkpt lat="43.5918571350511" lon="12.738149216134255"><ele>470.0</ele><time>2026-04-23T14:53:28Z</time></trkpt><trkpt lat="43.59192094020904" lon="12.73828352999542"><ele>470.0</ele><time>2026-04-23T14:53:30Z</time></trkpt><trkpt lat="43.59200990273733" lon="12.738302588792866"><ele>470.0</ele><time>2026-04-23T14:53:31Z</time></trkpt><trkpt lat="43.59209669797548" lon="12.738253007635542"><ele>470.0</ele><time>2026-04-23T14:53:32Z</time></trkpt><trkpt lat="43.59215861851795" lon="12.738123647554334"><ele>470.0</ele><time>2026-04-23T14:53:33Z</time></trkpt><trkpt lat="43.592240097576266" lon="12.738026115119254"><ele>470.0</ele><time>2026-04-23T14:53:34Z</time></trkpt><trkpt lat="43.592333027799675" lon="12.737915693569468"><ele>470.0</ele><time>2026-04-23T14:53:35Z</time></trkpt><trkpt lat="43.59243403926331" lon="12.737801021943547"><ele>470.0</ele><time>2026-04-23T14:53:36Z</time></trkpt><trkpt lat="43.59255819217283" lon="12.737722458893087"><ele>470.0</ele><time>2026-04-23T14:53:37Z</time></trkpt><trkpt lat="43.592668868264326" lon="12.737668321848947"><ele>470.0</ele><time>2026-04-23T14:53:38Z</time></trkpt><trkpt lat="43.5927759179159" lon="12.737655593237752"><ele>470.0</ele><time>2026-04-23T14:53:39Z</time></trkpt><trkpt lat="43.59286685776644" lon="12.737668319772764"><ele>470.0</ele><time>2026-04-23T14:53:40Z</time></trkpt><trkpt lat="43.59295270319436" lon="12.737697705428591"><ele>470.0</ele><time>2026-04-23T14:53:41Z</time></trkpt><trkpt lat="43.59303002888918" lon="12.737776154799421"><ele>470.0</ele><time>2026-04-23T14:53:42Z</time></trkpt><trkpt lat="43.59308194747831" lon="12.737885104278343"><ele>475.25</ele><time>2026-04-23T14:53:43Z</time></trkpt><trkpt lat="43.59313078222969" lon="12.73801652875218"><ele>480.5</ele><time>2026-04-23T14:53:44Z</time></trkpt><trkpt lat="43.593180544141404" lon="12.73818337940274"><ele>485.75</ele><time>2026-04-23T14:53:45Z</time></trkpt><trkpt lat="43.593242955196104" lon="12.73837856779483"><ele>491.0</ele><time>2026-04-23T14:53:46Z</time></trkpt><trkpt lat="43.59331421035082" lon="12.73856502260856"><ele>491.75</ele><time>2026-04-23T14:53:47Z</time></trkpt><trkpt lat="43.5934095380611" lon="12.738734892572193"><ele>492.5</ele><time>2026-04-23T14:53:48Z</time></trkpt><trkpt lat="43.59350862496741" lon="12.738863433203777"><ele>493.25</ele><time>2026-04-23T14:53:49Z</time></trkpt><trkpt lat="43.59357783567572" lon="12.738881631598883"><ele>494.0</ele><time>2026-04-23T14:53:50Z</time></trkpt><trkpt lat="43.59361737554309" lon="12.739008921099556"><ele>499.0</ele><time>2026-04-23T14:53:53Z</time></trkpt><trkpt lat="43.59369081924844" lon="12.739099153336786"><ele>504.0</ele><time>2026-04-23T14:53:54Z</time></trkpt><trkpt lat="43.593785114967496" lon="12.739198090182121"><ele>509.0</ele><time>2026-04-23T14:53:55Z</time></trkpt><trkpt lat="43.59391011845243" lon="12.73930708500787"><ele>514.0</ele><time>2026-04-23T14:53:56Z</time></trkpt><trkpt lat="43.59401752872169" lon="12.739438606109116"><ele>514.0</ele><time>2026-04-23T14:53:57Z</time></trkpt><trkpt lat="43.594083188712084" lon="12.739564609299324"><ele>514.0</ele><time>2026-04-23T14:53:58Z</time></trkpt><trkpt lat="43.59413586791318" lon="12.739703745750665"><ele>514.0</ele><time>2026-04-23T14:53:59Z</time></trkpt><trkpt lat="43.59419742403005" lon="12.739894873168094"><ele>514.0</ele><time>2026-04-23T14:54:00Z</time></trkpt><trkpt lat="43.594282162150485" lon="12.740088989252545"><ele>514.0</ele><time>2026-04-23T14:54:01Z</time></trkpt><trkpt lat="43.59436950060011" lon="12.74023751929207"><ele>514.0</ele><time>2026-04-23T14:54:02Z</time></trkpt><trkpt lat="43.59444239649689" lon="12.740366591344545"><ele>514.0</ele><time>2026-04-23T14:54:03Z</time></trkpt><trkpt lat="43.5944934151032" lon="12.740497540215621"><ele>514.0</ele><time>2026-04-23T14:54:04Z</time></trkpt><trkpt lat="43.594497277418135" lon="12.74061362256602"><ele>514.0</ele><time>2026-04-23T14:54:05Z</time></trkpt><trkpt lat="43.594490178816" lon="12.740747695396546"><ele>514.0</ele><time>2026-04-23T14:54:06Z</time></trkpt><trkpt lat="43.59446556073444" lon="12.740913684717109"><ele>514.0</ele><time>2026-04-23T14:54:07Z</time></trkpt><trkpt lat="43.59441879900725" lon="12.741059455830985"><ele>514.0</ele><time>2026-04-23T14:54:08Z</time></trkpt><trkpt lat="43.594366815491654" lon="12.741187407645976"><ele>514.0</ele><time>2026-04-23T14:54:09Z</time></trkpt><trkpt lat="43.59430508728682" lon="12.741240086835335"><ele>514.0</ele><time>2026-04-23T14:54:10Z</time></trkpt><trkpt lat="43.594244327002066" lon="12.741269718111472"><ele>517.2</ele><time>2026-04-23T14:54:11Z</time></trkpt><trkpt lat="43.59415200086208" lon="12.741252454219078"><ele>520.4</ele><time>2026-04-23T14:54:12Z</time></trkpt><trkpt lat="43.59403514510272" lon="12.741222597996153"><ele>523.6</ele><time>2026-04-23T14:54:13Z</time></trkpt><trkpt lat="43.59389911654235" lon="12.741194516660089"><ele>526.8</ele><time>2026-04-23T14:54:14Z</time></trkpt><trkpt lat="43.59379999833338" lon="12.741192392748266"><ele>530.0</ele><time>2026-04-23T14:54:14.999Z</time></trkpt><trkpt lat="43.593694839221726" lon="12.741211158167186"><ele>527.0</ele><time>2026-04-23T14:54:15.999Z</time></trkpt><trkpt lat="43.593594682315356" lon="12.741272590639955"><ele>524.0</ele><time>2026-04-23T14:54:16.999Z</time></trkpt><trkpt lat="43.59352015455227" lon="12.741398044774893"><ele>521.0</ele><time>2026-04-23T14:54:17.999Z</time></trkpt><trkpt lat="43.593411801606884" lon="12.741496028027322"><ele>518.0</ele><time>2026-04-23T14:54:18.999Z</time></trkpt><trkpt lat="43.59330256366271" lon="12.741626598315506"><ele>518.0</ele><time>2026-04-23T14:54:20Z</time></trkpt><trkpt lat="43.59318273175043" lon="12.741737053251422"><ele>518.0</ele><time>2026-04-23T14:54:21Z</time></trkpt><trkpt lat="43.593058691624336" lon="12.741830974685957"><ele>518.0</ele><time>2026-04-23T14:54:22Z</time></trkpt><trkpt lat="43.5929314474684" lon="12.741927288297422"><ele>518.0</ele><time>2026-04-23T14:54:23Z</time></trkpt><trkpt lat="43.592811287749896" lon="12.742021640438645"><ele>517.25</ele><time>2026-04-23T14:54:24Z</time></trkpt><trkpt lat="43.59269635662985" lon="12.742127054962614"><ele>516.5</ele><time>2026-04-23T14:54:25Z</time></trkpt><trkpt lat="43.59257978229189" lon="12.74224401540486"><ele>515.75</ele><time>2026-04-23T14:54:26Z</time></trkpt><trkpt lat="43.59245497733588" lon="12.742369203840322"><ele>515.0</ele><time>2026-04-23T14:54:27Z</time></trkpt><trkpt lat="43.59233088251023" lon="12.742496509519835"><ele>515.0</ele><time>2026-04-23T14:54:28Z</time></trkpt><trkpt lat="43.592217879448675" lon="12.742654531612326"><ele>515.0</ele><time>2026-04-23T14:54:29Z</time></trkpt><trkpt lat="43.59209136048109" lon="12.742771009030426"><ele>515.0</ele><time>2026-04-23T14:54:30Z</time></trkpt><trkpt lat="43.5919806788014" lon="12.742890681419741"><ele>511.75</ele><time>2026-04-23T14:54:31Z</time></trkpt><trkpt lat="43.59186736324409" lon="12.743000686703468"><ele>508.5</ele><time>2026-04-23T14:54:32Z</time></trkpt><trkpt lat="43.59175446742644" lon="12.743084563442004"><ele>505.25</ele><time>2026-04-23T14:54:33Z</time></trkpt><trkpt lat="43.591623957855134" lon="12.743147245809157"><ele>502.0</ele><time>2026-04-23T14:54:34Z</time></trkpt><trkpt lat="43.59147343255833" lon="12.743201525481215"><ele>502.0</ele><time>2026-04-23T14:54:35Z</time></trkpt><trkpt lat="43.59129818113549" lon="12.743249403658897"><ele>502.0</ele><time>2026-04-23T14:54:36Z</time></trkpt><trkpt lat="43.591173768838225" lon="12.743282684791378"><ele>502.0</ele><time>2026-04-23T14:54:37Z</time></trkpt><trkpt lat="43.59110405969171" lon="12.74331299679168"><ele>502.0</ele><time>2026-04-23T14:54:38Z</time></trkpt><trkpt lat="43.59102698075553" lon="12.743388657177457"><ele>498.0</ele><time>2026-04-23T14:54:40Z</time></trkpt><trkpt lat="43.591028947244396" lon="12.743590680228605"><ele>494.0</ele><time>2026-04-23T14:54:42Z</time></trkpt><trkpt lat="43.591062977503356" lon="12.743718507309037"><ele>490.0</ele><time>2026-04-23T14:54:43Z</time></trkpt><trkpt lat="43.59111010851073" lon="12.743882899556036"><ele>486.0</ele><time>2026-04-23T14:54:44Z</time></trkpt><trkpt lat="43.59113886034941" lon="12.744075131804207"><ele>486.0</ele><time>2026-04-23T14:54:45Z</time></trkpt><trkpt lat="43.59115429286044" lon="12.74425027678317"><ele>486.0</ele><time>2026-04-23T14:54:46Z</time></trkpt><trkpt lat="43.59115402949447" lon="12.744359666353319"><ele>486.0</ele><time>2026-04-23T14:54:47Z</time></trkpt><trkpt lat="43.59113467567602" lon="12.744455541358157"><ele>486.0</ele><time>2026-04-23T14:54:48Z</time></trkpt><trkpt lat="43.591078916219395" lon="12.744603885471388"><ele>486.0</ele><time>2026-04-23T14:54:49Z</time></trkpt><trkpt lat="43.59102897392597" lon="12.744760185940478"><ele>485.0</ele><time>2026-04-23T14:54:50Z</time></trkpt><trkpt lat="43.59100222313708" lon="12.74488804353978"><ele>484.0</ele><time>2026-04-23T14:54:51Z</time></trkpt><trkpt lat="43.591009804378686" lon="12.745024245748096"><ele>483.0</ele><time>2026-04-23T14:54:52Z</time></trkpt><trkpt lat="43.59102880310639" lon="12.7451792394164"><ele>482.0</ele><time>2026-04-23T14:54:53Z</time></trkpt><trkpt lat="43.59103089933257" lon="12.745352071750725"><ele>481.0</ele><time>2026-04-23T14:54:54Z</time></trkpt><trkpt lat="43.59101146031541" lon="12.745541600532984"><ele>479.0</ele><time>2026-04-23T14:54:55Z</time></trkpt><trkpt lat="43.591001231727816" lon="12.745698936753726"><ele>477.0</ele><time>2026-04-23T14:54:56Z</time></trkpt><trkpt lat="43.59100369468088" lon="12.745809737936346"><ele>475.0</ele><time>2026-04-23T14:54:57Z</time></trkpt><trkpt lat="43.59104504119005" lon="12.745920157160622"><ele>473.0</ele><time>2026-04-23T14:54:58Z</time></trkpt><trkpt lat="43.59110537066302" lon="12.746045739937756"><ele>471.0</ele><time>2026-04-23T14:54:59Z</time></trkpt><trkpt lat="43.59116113411918" lon="12.746148631087745"><ele>476.5</ele><time>2026-04-23T14:55:00Z</time></trkpt><trkpt lat="43.591251076884134" lon="12.746216990264482"><ele>482.0</ele><time>2026-04-23T14:55:01Z</time></trkpt><trkpt lat="43.591347963183885" lon="12.746280817444946"><ele>487.5</ele><time>2026-04-23T14:55:02Z</time></trkpt><trkpt lat="43.5914464340401" lon="12.746375158654638"><ele>493.0</ele><time>2026-04-23T14:55:03Z</time></trkpt><trkpt lat="43.591463058648564" lon="12.746551754906642"><ele>493.0</ele><time>2026-04-23T14:55:04Z</time></trkpt><trkpt lat="43.5915253006561" lon="12.746683498781378"><ele>492.99999999999994</ele><time>2026-04-23T14:55:05Z</time></trkpt><trkpt lat="43.591562241700764" lon="12.746799929364522"><ele>492.99999999999994</ele><time>2026-04-23T14:55:06Z</time></trkpt><trkpt lat="43.59157802693118" lon="12.746884163736132"><ele>493.0</ele><time>2026-04-23T14:55:07Z</time></trkpt><trkpt lat="43.59150114697458" lon="12.746989103103155"><ele>493.0</ele><time>2026-04-23T14:55:11Z</time></trkpt><trkpt lat="43.59142458062715" lon="12.747096453057166"><ele>492.4</ele><time>2026-04-23T14:55:12Z</time></trkpt><trkpt lat="43.591340010355964" lon="12.747213581098435"><ele>491.79999999999995</ele><time>2026-04-23T14:55:13Z</time></trkpt><trkpt lat="43.591235298116366" lon="12.7472490472819"><ele>491.2</ele><time>2026-04-23T14:55:14Z</time></trkpt><trkpt lat="43.59113714772759" lon="12.747255315018501"><ele>490.6</ele><time>2026-04-23T14:55:15Z</time></trkpt><trkpt lat="43.591031150540566" lon="12.747273077637882"><ele>490.0</ele><time>2026-04-23T14:55:16Z</time></trkpt><trkpt lat="43.590914732162624" lon="12.747283246565496"><ele>490.0</ele><time>2026-04-23T14:55:17Z</time></trkpt><trkpt lat="43.590811692801566" lon="12.747290433261272"><ele>490.0</ele><time>2026-04-23T14:55:18Z</time></trkpt><trkpt lat="43.590712241014614" lon="12.747308147482295"><ele>490.0</ele><time>2026-04-23T14:55:19Z</time></trkpt><trkpt lat="43.590633373935795" lon="12.747278194236594"><ele>490.0</ele><time>2026-04-23T14:55:20Z</time></trkpt><trkpt lat="43.59056343736494" lon="12.747216375820113"><ele>490.0</ele><time>2026-04-23T14:55:21Z</time></trkpt><trkpt lat="43.59049301590418" lon="12.747126423225843"><ele>490.00000000000006</ele><time>2026-04-23T14:55:22Z</time></trkpt><trkpt lat="43.59044438126673" lon="12.747043606097705"><ele>490.0</ele><time>2026-04-23T14:55:23Z</time></trkpt><trkpt lat="43.590329749715146" lon="12.747011967444994"><ele>490.0</ele><time>2026-04-23T14:55:25Z</time></trkpt><trkpt lat="43.590266722597576" lon="12.74700834727722"><ele>490.0</ele><time>2026-04-23T14:55:26Z</time></trkpt><trkpt lat="43.590214162068776" lon="12.747072719048303"><ele>490.00000000000006</ele><time>2026-04-23T14:55:27Z</time></trkpt><trkpt lat="43.590174181711454" lon="12.7472099972763"><ele>490.0</ele><time>2026-04-23T14:55:28Z</time></trkpt><trkpt lat="43.59010562573903" lon="12.747284918917606"><ele>488.8</ele><time>2026-04-23T14:55:30Z</time></trkpt><trkpt lat="43.59006250320927" lon="12.747186940986051"><ele>487.6</ele><time>2026-04-23T14:55:31Z</time></trkpt><trkpt lat="43.589984192158525" lon="12.747143863592788"><ele>486.4</ele><time>2026-04-23T14:55:32Z</time></trkpt><trkpt lat="43.5898951690725" lon="12.747119888580672"><ele>485.2</ele><time>2026-04-23T14:55:33Z</time></trkpt><trkpt lat="43.58977390605792" lon="12.747133759473822"><ele>484.0</ele><time>2026-04-23T14:55:34Z</time></trkpt><trkpt lat="43.589600476817736" lon="12.747131177390495"><ele>481.0</ele><time>2026-04-23T14:55:35Z</time></trkpt><trkpt lat="43.58946032368196" lon="12.747122911071473"><ele>478.0</ele><time>2026-04-23T14:55:36Z</time></trkpt><trkpt lat="43.58935669184172" lon="12.747101573409152"><ele>475.0</ele><time>2026-04-23T14:55:37Z</time></trkpt><trkpt lat="43.58927147853588" lon="12.747113987165108"><ele>472.0</ele><time>2026-04-23T14:55:38Z</time></trkpt><trkpt lat="43.589187937198226" lon="12.747156900695233"><ele>469.0</ele><time>2026-04-23T14:55:39Z</time></trkpt><trkpt lat="43.58910396370523" lon="12.747222508577627"><ele>469.0</ele><time>2026-04-23T14:55:40Z</time></trkpt><trkpt lat="43.58901431866059" lon="12.747314917954377"><ele>469.0</ele><time>2026-04-23T14:55:41Z</time></trkpt><trkpt lat="43.58890871610671" lon="12.747425025143611"><ele>469.0</ele><time>2026-04-23T14:55:42Z</time></trkpt><trkpt lat="43.58880403315922" lon="12.747540357662139"><ele>469.0</ele><time>2026-04-23T14:55:43Z</time></trkpt><trkpt lat="43.58873439759586" lon="12.74765656879269"><ele>470.2</ele><time>2026-04-23T14:55:44Z</time></trkpt><trkpt lat="43.58866871246145" lon="12.747723847888711"><ele>471.4</ele><time>2026-04-23T14:55:45Z</time></trkpt><trkpt lat="43.588603938149305" lon="12.747757584107323"><ele>472.6</ele><time>2026-04-23T14:55:46Z</time></trkpt><trkpt lat="43.58848480124537" lon="12.747726761997122"><ele>473.8</ele><time>2026-04-23T14:55:48Z</time></trkpt><trkpt lat="43.588446815017335" lon="12.747633322835425"><ele>475.0</ele><time>2026-04-23T14:55:49Z</time></trkpt><trkpt lat="43.58835196821872" lon="12.747553096555844"><ele>475.00000000000006</ele><time>2026-04-23T14:55:51Z</time></trkpt><trkpt lat="43.58828573098299" lon="12.747547379644518"><ele>475.0</ele><time>2026-04-23T14:55:52Z</time></trkpt><trkpt lat="43.58822105153596" lon="12.747572076726284"><ele>475.0</ele><time>2026-04-23T14:55:53Z</time></trkpt><trkpt lat="43.588155397423684" lon="12.747618704317476"><ele>475.0</ele><time>2026-04-23T14:55:54Z</time></trkpt><trkpt lat="43.58808348645841" lon="12.747705973480555"><ele>475.00000000000006</ele><time>2026-04-23T14:55:55Z</time></trkpt><trkpt lat="43.58801573783709" lon="12.747812863744599"><ele>475.0</ele><time>2026-04-23T14:55:56Z</time></trkpt><trkpt lat="43.58795289325301" lon="12.74790940942289"><ele>475.00000000000006</ele><time>2026-04-23T14:55:57Z</time></trkpt><trkpt lat="43.58787440753598" lon="12.747954367858169"><ele>475.0</ele><time>2026-04-23T14:55:59Z</time></trkpt><trkpt lat="43.58782686762577" lon="12.747892434101708"><ele>475.0</ele><time>2026-04-23T14:56:01Z</time></trkpt><trkpt lat="43.58780430730738" lon="12.74780407834623"><ele>475.0</ele><time>2026-04-23T14:56:02Z</time></trkpt><trkpt lat="43.58779172020351" lon="12.747651065016763"><ele>475.00000000000006</ele><time>2026-04-23T14:56:03Z</time></trkpt><trkpt lat="43.58775150249367" lon="12.747538624913304"><ele>475.0</ele><time>2026-04-23T14:56:04Z</time></trkpt><trkpt lat="43.58771040056842" lon="12.74746014945591"><ele>472.33333333333337</ele><time>2026-04-23T14:56:05Z</time></trkpt><trkpt lat="43.587624060579394" lon="12.747386349429403"><ele>469.6666666666667</ele><time>2026-04-23T14:56:06Z</time></trkpt><trkpt lat="43.587547376631136" lon="12.747336580539285"><ele>467.0</ele><time>2026-04-23T14:56:07Z</time></trkpt><trkpt lat="43.587474945712025" lon="12.74730019636978"><ele>464.33333333333337</ele><time>2026-04-23T14:56:08Z</time></trkpt><trkpt lat="43.58739558321822" lon="12.747268851362747"><ele>461.6666666666667</ele><time>2026-04-23T14:56:09Z</time></trkpt><trkpt lat="43.587332713436716" lon="12.747273871365543"><ele>459.0</ele><time>2026-04-23T14:56:10Z</time></trkpt><trkpt lat="43.587194214045645" lon="12.747339736651849"><ele>459.0</ele><time>2026-04-23T14:56:12Z</time></trkpt><trkpt lat="43.58710703296195" lon="12.747390088389178"><ele>459.0</ele><time>2026-04-23T14:56:13Z</time></trkpt><trkpt lat="43.58701654017012" lon="12.747427659061609"><ele>459.0</ele><time>2026-04-23T14:56:14Z</time></trkpt><trkpt lat="43.58692265196347" lon="12.747435407499967"><ele>459.0</ele><time>2026-04-23T14:56:15Z</time></trkpt><trkpt lat="43.58682991373396" lon="12.747437394301288"><ele>459.0</ele><time>2026-04-23T14:56:16Z</time></trkpt><trkpt lat="43.586727265810936" lon="12.747423347093346"><ele>458.6</ele><time>2026-04-23T14:56:17Z</time></trkpt><trkpt lat="43.58663967680898" lon="12.74740485672819"><ele>458.2</ele><time>2026-04-23T14:56:18Z</time></trkpt><trkpt lat="43.58654750542184" lon="12.74738877969224"><ele>457.80000000000007</ele><time>2026-04-23T14:56:19Z</time></trkpt><trkpt lat="43.58646963899087" lon="12.747394383477879"><ele>457.40000000000003</ele><time>2026-04-23T14:56:20Z</time></trkpt><trkpt lat="43.58636089811237" lon="12.7473672963609"><ele>457.0</ele><time>2026-04-23T14:56:21Z</time></trkpt><trkpt lat="43.586236752194935" lon="12.747373575243092"><ele>453.40000000000003</ele><time>2026-04-23T14:56:22Z</time></trkpt><trkpt lat="43.58611783778623" lon="12.747370398169446"><ele>449.80000000000007</ele><time>2026-04-23T14:56:23Z</time></trkpt><trkpt lat="43.586005496685864" lon="12.747398346217786"><ele>446.2</ele><time>2026-04-23T14:56:24Z</time></trkpt><trkpt lat="43.58591621140829" lon="12.74744273336574"><ele>442.6</ele><time>2026-04-23T14:56:25Z</time></trkpt><trkpt lat="43.585843871683444" lon="12.747499615056253"><ele>439.0</ele><time>2026-04-23T14:56:26Z</time></trkpt><trkpt lat="43.58578816432579" lon="12.747627743296947"><ele>440.25</ele><time>2026-04-23T14:56:27Z</time></trkpt><trkpt lat="43.58573831289755" lon="12.74776641617774"><ele>441.5</ele><time>2026-04-23T14:56:28Z</time></trkpt><trkpt lat="43.58571289066927" lon="12.74792548048958"><ele>442.75</ele><time>2026-04-23T14:56:29Z</time></trkpt><trkpt lat="43.58569282420145" lon="12.748070431460796"><ele>444.0</ele><time>2026-04-23T14:56:30Z</time></trkpt><trkpt lat="43.585720304349266" lon="12.748243963469102"><ele>444.0</ele><time>2026-04-23T14:56:31Z</time></trkpt><trkpt lat="43.58571138881003" lon="12.748446004235271"><ele>444.0</ele><time>2026-04-23T14:56:32Z</time></trkpt><trkpt lat="43.58570099776662" lon="12.748621942238715"><ele>444.0</ele><time>2026-04-23T14:56:33Z</time></trkpt><trkpt lat="43.58567311592821" lon="12.748743364185456"><ele>444.0</ele><time>2026-04-23T14:56:34Z</time></trkpt><trkpt lat="43.585609500214595" lon="12.748869230984283"><ele>444.0</ele><time>2026-04-23T14:56:35Z</time></trkpt><trkpt lat="43.58556990604095" lon="12.749035123407216"><ele>444.0</ele><time>2026-04-23T14:56:36Z</time></trkpt><trkpt lat="43.585562325781844" lon="12.749218180624442"><ele>444.0</ele><time>2026-04-23T14:56:37Z</time></trkpt><trkpt lat="43.58554359873251" lon="12.749363540976654"><ele>444.0</ele><time>2026-04-23T14:56:38Z</time></trkpt><trkpt lat="43.58553036707703" lon="12.749510317987276"><ele>443.8333333333333</ele><time>2026-04-23T14:56:39Z</time></trkpt><trkpt lat="43.58548002090956" lon="12.749636343505925"><ele>443.66666666666663</ele><time>2026-04-23T14:56:40Z</time></trkpt><trkpt lat="43.585440974754896" lon="12.74973912100905"><ele>443.5</ele><time>2026-04-23T14:56:41Z</time></trkpt><trkpt lat="43.58542051118507" lon="12.749827133877215"><ele>443.3333333333333</ele><time>2026-04-23T14:56:42Z</time></trkpt><trkpt lat="43.58533933081522" lon="12.749855453457174"><ele>443.16666666666663</ele><time>2026-04-23T14:56:44Z</time></trkpt><trkpt lat="43.585299604241506" lon="12.749735699439926"><ele>443.0</ele><time>2026-04-23T14:56:46Z</time></trkpt><trkpt lat="43.58535476341082" lon="12.749657907635427"><ele>443.0</ele><time>2026-04-23T14:56:47Z</time></trkpt><trkpt lat="43.58538583271239" lon="12.749541957509186"><ele>442.99999999999994</ele><time>2026-04-23T14:56:48Z</time></trkpt><trkpt lat="43.58539066923991" lon="12.749443905064355"><ele>442.99999999999994</ele><time>2026-04-23T14:56:49Z</time></trkpt><trkpt lat="43.58536335358192" lon="12.74934417441186"><ele>443.0</ele><time>2026-04-23T14:56:50Z</time></trkpt><trkpt lat="43.58527321977762" lon="12.749268802753866"><ele>443.0</ele><time>2026-04-23T14:56:51Z</time></trkpt><trkpt lat="43.58516254573004" lon="12.74918304693687"><ele>436.5</ele><time>2026-04-23T14:56:52Z</time></trkpt><trkpt lat="43.58509287570673" lon="12.749061590196108"><ele>430.0</ele><time>2026-04-23T14:56:53Z</time></trkpt><trkpt lat="43.585084756238125" lon="12.748916944758347"><ele>423.5</ele><time>2026-04-23T14:56:54Z</time></trkpt><trkpt lat="43.585071803013214" lon="12.748730241302207"><ele>417.0</ele><time>2026-04-23T14:56:55Z</time></trkpt><trkpt lat="43.58507362359489" lon="12.748546768263365"><ele>417.0</ele><time>2026-04-23T14:56:56Z</time></trkpt><trkpt lat="43.58506770495868" lon="12.748457494861947"><ele>417.0</ele><time>2026-04-23T14:56:57Z</time></trkpt><trkpt lat="43.585003863252844" lon="12.748361930132434"><ele>417.0</ele><time>2026-04-23T14:56:59Z</time></trkpt><trkpt lat="43.58491144989257" lon="12.748397325056626"><ele>417.0</ele><time>2026-04-23T14:57:00Z</time></trkpt><trkpt lat="43.58484594864572" lon="12.748504962351545"><ele>417.0</ele><time>2026-04-23T14:57:01Z</time></trkpt><trkpt lat="43.584804253906796" lon="12.748641639277174"><ele>417.0</ele><time>2026-04-23T14:57:02Z</time></trkpt><trkpt lat="43.58474240833471" lon="12.74879558290904"><ele>417.0</ele><time>2026-04-23T14:57:03Z</time></trkpt><trkpt lat="43.584646298572856" lon="12.748937300701726"><ele>417.0</ele><time>2026-04-23T14:57:04Z</time></trkpt><trkpt lat="43.58454168731379" lon="12.749120752743723"><ele>417.0</ele><time>2026-04-23T14:57:05Z</time></trkpt><trkpt lat="43.58444909592868" lon="12.74926230435074"><ele>410.66666666666663</ele><time>2026-04-23T14:57:06Z</time></trkpt><trkpt lat="43.58435209503974" lon="12.749430317156197"><ele>404.3333333333333</ele><time>2026-04-23T14:57:07Z</time></trkpt><trkpt lat="43.584251407301" lon="12.7496134026446"><ele>398.0</ele><time>2026-04-23T14:57:08Z</time></trkpt><trkpt lat="43.584146223454496" lon="12.749812586475853"><ele>398.0</ele><time>2026-04-23T14:57:09Z</time></trkpt><trkpt lat="43.58406469752102" lon="12.74998624122051"><ele>398.0</ele><time>2026-04-23T14:57:10Z</time></trkpt><trkpt lat="43.58396105258197" lon="12.7501446598846"><ele>398.0</ele><time>2026-04-23T14:57:11Z</time></trkpt><trkpt lat="43.583874911551845" lon="12.750302202182523"><ele>398.0</ele><time>2026-04-23T14:57:12Z</time></trkpt><trkpt lat="43.58378947025823" lon="12.75044456410671"><ele>398.79999999999995</ele><time>2026-04-23T14:57:13Z</time></trkpt><trkpt lat="43.58372333406381" lon="12.750548712106378"><ele>399.6</ele><time>2026-04-23T14:57:14Z</time></trkpt><trkpt lat="43.58365467083596" lon="12.750665980094064"><ele>400.4</ele><time>2026-04-23T14:57:15Z</time></trkpt><trkpt lat="43.58359580642341" lon="12.750784501375163"><ele>401.20000000000005</ele><time>2026-04-23T14:57:16Z</time></trkpt><trkpt lat="43.58356113905059" lon="12.750933343308002"><ele>402.0</ele><time>2026-04-23T14:57:17Z</time></trkpt><trkpt lat="43.58350773910383" lon="12.751077731571252"><ele>395.75</ele><time>2026-04-23T14:57:18Z</time></trkpt><trkpt lat="43.58347210410285" lon="12.751187059934313"><ele>389.5</ele><time>2026-04-23T14:57:19Z</time></trkpt><trkpt lat="43.583450673356325" lon="12.751325993973248"><ele>383.25</ele><time>2026-04-23T14:57:20Z</time></trkpt><trkpt lat="43.583416334301035" lon="12.751482818388746"><ele>377.0</ele><time>2026-04-23T14:57:21Z</time></trkpt><trkpt lat="43.58337190508926" lon="12.751686281591525"><ele>376.0</ele><time>2026-04-23T14:57:22Z</time></trkpt><trkpt lat="43.583306047956164" lon="12.751903927501973"><ele>375.0</ele><time>2026-04-23T14:57:23Z</time></trkpt><trkpt lat="43.58325509402215" lon="12.752101036928718"><ele>374.0</ele><time>2026-04-23T14:57:24Z</time></trkpt><trkpt lat="43.58321933212944" lon="12.75228124351954"><ele>374.0</ele><time>2026-04-23T14:57:25Z</time></trkpt><trkpt lat="43.58318490073794" lon="12.75243397465606"><ele>374.0</ele><time>2026-04-23T14:57:26Z</time></trkpt><trkpt lat="43.583154179996335" lon="12.752523193511824"><ele>374.0</ele><time>2026-04-23T14:57:27Z</time></trkpt><trkpt lat="43.58303402402749" lon="12.752575061818812"><ele>374.0</ele><time>2026-04-23T14:57:29Z</time></trkpt><trkpt lat="43.58294659090326" lon="12.752599276184197"><ele>374.0</ele><time>2026-04-23T14:57:30Z</time></trkpt><trkpt lat="43.58280729863226" lon="12.752678168086124"><ele>371.75</ele><time>2026-04-23T14:57:31Z</time></trkpt><trkpt lat="43.58265800092086" lon="12.752775198226844"><ele>369.5</ele><time>2026-04-23T14:57:32Z</time></trkpt><trkpt lat="43.582554205473805" lon="12.752880402929865"><ele>367.25</ele><time>2026-04-23T14:57:33Z</time></trkpt><trkpt lat="43.582481045809324" lon="12.752938085724798"><ele>365.0</ele><time>2026-04-23T14:57:34Z</time></trkpt><trkpt lat="43.582421818543" lon="12.753001415202858"><ele>365.0</ele><time>2026-04-23T14:57:35Z</time></trkpt><trkpt lat="43.58237251170787" lon="12.753062551539973"><ele>365.0</ele><time>2026-04-23T14:57:36Z</time></trkpt><trkpt lat="43.58240003509244" lon="12.753205225786747"><ele>365.0</ele><time>2026-04-23T14:57:37Z</time></trkpt><trkpt lat="43.582443903335495" lon="12.753346277822898"><ele>365.0</ele><time>2026-04-23T14:57:38Z</time></trkpt><trkpt lat="43.582454968726346" lon="12.753505936094578"><ele>365.0</ele><time>2026-04-23T14:57:39Z</time></trkpt><trkpt lat="43.58243832228458" lon="12.753642845827443"><ele>364.6</ele><time>2026-04-23T14:57:40Z</time></trkpt><trkpt lat="43.582423480789856" lon="12.753780606556294"><ele>364.2</ele><time>2026-04-23T14:57:41Z</time></trkpt><trkpt lat="43.58240656301892" lon="12.753937639594636"><ele>363.79999999999995</ele><time>2026-04-23T14:57:42Z</time></trkpt><trkpt lat="43.58243938272864" lon="12.754082197410993"><ele>363.4</ele><time>2026-04-23T14:57:43Z</time></trkpt><trkpt lat="43.582464441197615" lon="12.754219705580747"><ele>363.0</ele><time>2026-04-23T14:57:44Z</time></trkpt><trkpt lat="43.58246587837734" lon="12.75432078183605"><ele>362.79999999999995</ele><time>2026-04-23T14:57:45Z</time></trkpt><trkpt lat="43.58242748754685" lon="12.754397114457563"><ele>362.6</ele><time>2026-04-23T14:57:46Z</time></trkpt><trkpt lat="43.5823600171297" lon="12.754462782452686"><ele>362.4</ele><time>2026-04-23T14:57:47Z</time></trkpt><trkpt lat="43.582255406987784" lon="12.75452896784273"><ele>362.20000000000005</ele><time>2026-04-23T14:57:48Z</time></trkpt><trkpt lat="43.582139423982376" lon="12.754619598793852"><ele>362.0</ele><time>2026-04-23T14:57:49Z</time></trkpt><trkpt lat="43.58200977395192" lon="12.754734324433135"><ele>363.75</ele><time>2026-04-23T14:57:50Z</time></trkpt><trkpt lat="43.581898379924255" lon="12.754855692739644"><ele>365.5</ele><time>2026-04-23T14:57:51Z</time></trkpt><trkpt lat="43.581798164748754" lon="12.754985474075529"><ele>367.25</ele><time>2026-04-23T14:57:52Z</time></trkpt><trkpt lat="43.58174271597453" lon="12.755120359987492"><ele>369.0</ele><time>2026-04-23T14:57:53Z</time></trkpt><trkpt lat="43.581723477699306" lon="12.755271691719171"><ele>369.0</ele><time>2026-04-23T14:57:54Z</time></trkpt><trkpt lat="43.5817250194409" lon="12.755434188810904"><ele>369.0</ele><time>2026-04-23T14:57:55Z</time></trkpt><trkpt lat="43.581699085414215" lon="12.755581041179806"><ele>369.0</ele><time>2026-04-23T14:57:56Z</time></trkpt><trkpt lat="43.58166078164492" lon="12.755729537739573"><ele>369.0</ele><time>2026-04-23T14:57:57Z</time></trkpt><trkpt lat="43.58157225334284" lon="12.75589958037087"><ele>367.6</ele><time>2026-04-23T14:57:58Z</time></trkpt><trkpt lat="43.58149605580877" lon="12.756050856859186"><ele>366.2</ele><time>2026-04-23T14:57:59Z</time></trkpt><trkpt lat="43.581465855852755" lon="12.756191731640165"><ele>364.8</ele><time>2026-04-23T14:58:00Z</time></trkpt><trkpt lat="43.581456857763555" lon="12.75634917082694"><ele>363.40000000000003</ele><time>2026-04-23T14:58:01Z</time></trkpt><trkpt lat="43.58143973678446" lon="12.75646647197244"><ele>362.0</ele><time>2026-04-23T14:58:02Z</time></trkpt><trkpt lat="43.58139674434212" lon="12.7565754257355"><ele>362.0</ele><time>2026-04-23T14:58:03Z</time></trkpt><trkpt lat="43.58132405279806" lon="12.756648356134608"><ele>362.0</ele><time>2026-04-23T14:58:04Z</time></trkpt><trkpt lat="43.58124247872042" lon="12.756705963838305"><ele>362.0</ele><time>2026-04-23T14:58:05Z</time></trkpt><trkpt lat="43.58115523621946" lon="12.75675999709889"><ele>362.0</ele><time>2026-04-23T14:58:06Z</time></trkpt><trkpt lat="43.58106425604527" lon="12.756830990229236"><ele>362.0</ele><time>2026-04-23T14:58:07Z</time></trkpt><trkpt lat="43.58097190727754" lon="12.756918675576237"><ele>361.40000000000003</ele><time>2026-04-23T14:58:08Z</time></trkpt><trkpt lat="43.58088275744143" lon="12.757000780111492"><ele>360.8</ele><time>2026-04-23T14:58:09Z</time></trkpt><trkpt lat="43.58079905491964" lon="12.757078712240787"><ele>360.2</ele><time>2026-04-23T14:58:10Z</time></trkpt><trkpt lat="43.58072630684248" lon="12.757152951163699"><ele>359.6</ele><time>2026-04-23T14:58:11Z</time></trkpt><trkpt lat="43.580665682666556" lon="12.757214060692633"><ele>359.0</ele><time>2026-04-23T14:58:12Z</time></trkpt><trkpt lat="43.58059801663108" lon="12.757299137640311"><ele>359.0</ele><time>2026-04-23T14:58:14Z</time></trkpt><trkpt lat="43.580624482596484" lon="12.757398105066462"><ele>359.0</ele><time>2026-04-23T14:58:16Z</time></trkpt><trkpt lat="43.58066223969316" lon="12.757499386567996"><ele>359.0</ele><time>2026-04-23T14:58:17Z</time></trkpt><trkpt lat="43.58073700760199" lon="12.757640938727587"><ele>359.0</ele><time>2026-04-23T14:58:18Z</time></trkpt><trkpt lat="43.58083840166462" lon="12.75781123178038"><ele>359.0</ele><time>2026-04-23T14:58:19Z</time></trkpt><trkpt lat="43.58094474613601" lon="12.758014806837723"><ele>357.33333333333337</ele><time>2026-04-23T14:58:20Z</time></trkpt><trkpt lat="43.58107436087433" lon="12.758259617632971"><ele>355.6666666666667</ele><time>2026-04-23T14:58:21Z</time></trkpt><trkpt lat="43.581203611578076" lon="12.758511920590461"><ele>354.0</ele><time>2026-04-23T14:58:22Z</time></trkpt><trkpt lat="43.5813173323306" lon="12.758746533839876"><ele>353.3333333333333</ele><time>2026-04-23T14:58:23Z</time></trkpt><trkpt lat="43.5814216457117" lon="12.758947566133402"><ele>352.66666666666663</ele><time>2026-04-23T14:58:24Z</time></trkpt><trkpt lat="43.58151158623189" lon="12.759138492678895"><ele>352.0</ele><time>2026-04-23T14:58:25Z</time></trkpt><trkpt lat="43.58160385632436" lon="12.759328243291987"><ele>355.5</ele><time>2026-04-23T14:58:26Z</time></trkpt><trkpt lat="43.581691909607734" lon="12.759505173705916"><ele>359.0</ele><time>2026-04-23T14:58:27Z</time></trkpt><trkpt lat="43.58176463115526" lon="12.759642489437814"><ele>362.5</ele><time>2026-04-23T14:58:28Z</time></trkpt><trkpt lat="43.58182801951888" lon="12.759727900919081"><ele>366.0</ele><time>2026-04-23T14:58:29Z</time></trkpt><trkpt lat="43.58191821350795" lon="12.759776713394995"><ele>363.25</ele><time>2026-04-23T14:58:30Z</time></trkpt><trkpt lat="43.582027818989054" lon="12.759845749830204"><ele>360.5</ele><time>2026-04-23T14:58:31Z</time></trkpt><trkpt lat="43.58215665350757" lon="12.759932626262476"><ele>357.75</ele><time>2026-04-23T14:58:32Z</time></trkpt><trkpt lat="43.58229747158053" lon="12.76002825859805"><ele>355.0</ele><time>2026-04-23T14:58:33Z</time></trkpt><trkpt lat="43.582441126805406" lon="12.760143731913672"><ele>356.3333333333333</ele><time>2026-04-23T14:58:34Z</time></trkpt><trkpt lat="43.582595938833244" lon="12.760266812869315"><ele>357.6666666666667</ele><time>2026-04-23T14:58:35Z</time></trkpt><trkpt lat="43.58274368910948" lon="12.760410538704127"><ele>359.0</ele><time>2026-04-23T14:58:36Z</time></trkpt><trkpt lat="43.5828777935179" lon="12.76053921910436"><ele>359.0</ele><time>2026-04-23T14:58:37Z</time></trkpt><trkpt lat="43.58301915638803" lon="12.760666534909051"><ele>359.0</ele><time>2026-04-23T14:58:38Z</time></trkpt><trkpt lat="43.58317384073304" lon="12.76079376233831"><ele>359.0</ele><time>2026-04-23T14:58:39Z</time></trkpt><trkpt lat="43.583335826539695" lon="12.760900114370854"><ele>359.0</ele><time>2026-04-23T14:58:40Z</time></trkpt><trkpt lat="43.58348654355086" lon="12.7610020379491"><ele>359.0</ele><time>2026-04-23T14:58:41Z</time></trkpt><trkpt lat="43.583617791875575" lon="12.761118970297089"><ele>359.0</ele><time>2026-04-23T14:58:42Z</time></trkpt><trkpt lat="43.583738178815395" lon="12.76124703039772"><ele>356.75</ele><time>2026-04-23T14:58:43Z</time></trkpt><trkpt lat="43.583846382832434" lon="12.76138306589612"><ele>354.5</ele><time>2026-04-23T14:58:44Z</time></trkpt><trkpt lat="43.58391139485276" lon="12.761542740703158"><ele>352.25</ele><time>2026-04-23T14:58:45Z</time></trkpt><trkpt lat="43.58397055563064" lon="12.761714981559576"><ele>350.0</ele><time>2026-04-23T14:58:46Z</time></trkpt><trkpt lat="43.584041221633306" lon="12.761922188336332"><ele>350.0</ele><time>2026-04-23T14:58:47Z</time></trkpt><trkpt lat="43.584119206525756" lon="12.762158401172524"><ele>350.0</ele><time>2026-04-23T14:58:48Z</time></trkpt><trkpt lat="43.5842017013569" lon="12.762409258827224"><ele>350.0</ele><time>2026-04-23T14:58:49Z</time></trkpt><trkpt lat="43.58428828378602" lon="12.762678028454685"><ele>351.33333333333337</ele><time>2026-04-23T14:58:50Z</time></trkpt><trkpt lat="43.584369464042084" lon="12.762932370504792"><ele>352.6666666666667</ele><time>2026-04-23T14:58:51Z</time></trkpt><trkpt lat="43.58444763227927" lon="12.763174811174256"><ele>354.0</ele><time>2026-04-23T14:58:52Z</time></trkpt><trkpt lat="43.584517779832424" lon="12.763378401218471"><ele>352.1666666666667</ele><time>2026-04-23T14:58:53Z</time></trkpt><trkpt lat="43.58456558975521" lon="12.76351716046697"><ele>350.3333333333333</ele><time>2026-04-23T14:58:54Z</time></trkpt><trkpt lat="43.584596693715135" lon="12.763607433799125"><ele>348.5</ele><time>2026-04-23T14:58:55Z</time></trkpt><trkpt lat="43.58462922158098" lon="12.763701839885217"><ele>346.66666666666663</ele><time>2026-04-23T14:58:57Z</time></trkpt><trkpt lat="43.584656741869544" lon="12.763781452796305"><ele>344.8333333333333</ele><time>2026-04-23T14:59:02Z</time></trkpt><trkpt lat="43.5846939690669" lon="12.763889167881992"><ele>343.0</ele><time>2026-04-23T14:59:04Z</time></trkpt><trkpt lat="43.584730894278835" lon="12.763996009182183"><ele>343.0</ele><time>2026-04-23T14:59:05Z</time></trkpt><trkpt lat="43.584788281502405" lon="12.764149610901445"><ele>343.0</ele><time>2026-04-23T14:59:06Z</time></trkpt><trkpt lat="43.584845936867396" lon="12.764341628896966"><ele>343.0</ele><time>2026-04-23T14:59:07Z</time></trkpt><trkpt lat="43.5849156763164" lon="12.76457336649846"><ele>344.3333333333333</ele><time>2026-04-23T14:59:08Z</time></trkpt><trkpt lat="43.585005345861425" lon="12.764788047060216"><ele>345.6666666666667</ele><time>2026-04-23T14:59:09Z</time></trkpt><trkpt lat="43.58508183303544" lon="12.764962597962896"><ele>347.0</ele><time>2026-04-23T14:59:10Z</time></trkpt><trkpt lat="43.585177963987725" lon="12.765084936873816"><ele>347.0</ele><time>2026-04-23T14:59:11Z</time></trkpt><trkpt lat="43.58529481585661" lon="12.765194709033766"><ele>347.0</ele><time>2026-04-23T14:59:12Z</time></trkpt><trkpt lat="43.58544815808456" lon="12.76529735071963"><ele>347.0</ele><time>2026-04-23T14:59:13Z</time></trkpt><trkpt lat="43.585596581620024" lon="12.765399376749839"><ele>348.0</ele><time>2026-04-23T14:59:14Z</time></trkpt><trkpt lat="43.585757971076326" lon="12.765545933372158"><ele>349.0</ele><time>2026-04-23T14:59:15Z</time></trkpt><trkpt lat="43.58595057954116" lon="12.765692535628535"><ele>350.0</ele><time>2026-04-23T14:59:16Z</time></trkpt><trkpt lat="43.58613779660094" lon="12.765815810351238"><ele>349.25</ele><time>2026-04-23T14:59:17Z</time></trkpt><trkpt lat="43.58627851921894" lon="12.765929756235057"><ele>348.5</ele><time>2026-04-23T14:59:18Z</time></trkpt><trkpt lat="43.58638944258505" lon="12.766020162445605"><ele>347.75</ele><time>2026-04-23T14:59:19Z</time></trkpt><trkpt lat="43.58647503951238" lon="12.766124375796485"><ele>347.0</ele><time>2026-04-23T14:59:20Z</time></trkpt><trkpt lat="43.58653381793612" lon="12.766191753582296"><ele>347.0</ele><time>2026-04-23T14:59:21Z</time></trkpt><trkpt lat="43.58660345685116" lon="12.766325314849311"><ele>347.0</ele><time>2026-04-23T14:59:22Z</time></trkpt><trkpt lat="43.586685617988046" lon="12.766483871023462"><ele>347.0</ele><time>2026-04-23T14:59:23Z</time></trkpt><trkpt lat="43.58674950244756" lon="12.766728004953874"><ele>347.0</ele><time>2026-04-23T14:59:24Z</time></trkpt><trkpt lat="43.58682551736531" lon="12.766956520460544"><ele>348.6666666666667</ele><time>2026-04-23T14:59:25Z</time></trkpt><trkpt lat="43.586884820091974" lon="12.767176934961705"><ele>350.3333333333333</ele><time>2026-04-23T14:59:26Z</time></trkpt><trkpt lat="43.58692114647541" lon="12.767377984695486"><ele>352.0</ele><time>2026-04-23T14:59:27Z</time></trkpt><trkpt lat="43.58694444049846" lon="12.767559372361925"><ele>352.3333333333333</ele><time>2026-04-23T14:59:28Z</time></trkpt><trkpt lat="43.586958311995645" lon="12.767755508158512"><ele>352.6666666666667</ele><time>2026-04-23T14:59:29Z</time></trkpt><trkpt lat="43.58696602922218" lon="12.76798167803073"><ele>353.0</ele><time>2026-04-23T14:59:30Z</time></trkpt><trkpt lat="43.5869733562111" lon="12.768228320170738"><ele>353.0</ele><time>2026-04-23T14:59:31Z</time></trkpt><trkpt lat="43.58699551247138" lon="12.768506963719826"><ele>353.0</ele><time>2026-04-23T14:59:32Z</time></trkpt><trkpt lat="43.58700707405241" lon="12.768818438388717"><ele>353.0</ele><time>2026-04-23T14:59:33Z</time></trkpt><trkpt lat="43.58702299026819" lon="12.76914408113788"><ele>348.33333333333337</ele><time>2026-04-23T14:59:34Z</time></trkpt><trkpt lat="43.58703910115069" lon="12.76945537647957"><ele>343.6666666666667</ele><time>2026-04-23T14:59:35Z</time></trkpt><trkpt lat="43.58704703488501" lon="12.76975807280412"><ele>339.0</ele><time>2026-04-23T14:59:36Z</time></trkpt><trkpt lat="43.587051896480304" lon="12.770022025290766"><ele>338.3333333333333</ele><time>2026-04-23T14:59:37Z</time></trkpt><trkpt lat="43.58704649968451" lon="12.770248566482238"><ele>337.66666666666663</ele><time>2026-04-23T14:59:38Z</time></trkpt><trkpt lat="43.587048509866555" lon="12.770457579055769"><ele>337.0</ele><time>2026-04-23T14:59:39Z</time></trkpt><trkpt lat="43.58708700120192" lon="12.77066889148428"><ele>337.0</ele><time>2026-04-23T14:59:40Z</time></trkpt><trkpt lat="43.58708984728182" lon="12.770890505816014"><ele>337.0</ele><time>2026-04-23T14:59:41Z</time></trkpt><trkpt lat="43.58709946926769" lon="12.77108134741305"><ele>337.0</ele><time>2026-04-23T14:59:42Z</time></trkpt><trkpt lat="43.58707393181469" lon="12.771286255217495"><ele>335.66666666666663</ele><time>2026-04-23T14:59:43Z</time></trkpt><trkpt lat="43.587055788332435" lon="12.77150485601979"><ele>334.3333333333333</ele><time>2026-04-23T14:59:44Z</time></trkpt><trkpt lat="43.58702929066201" lon="12.771740624223161"><ele>333.0</ele><time>2026-04-23T14:59:45Z</time></trkpt><trkpt lat="43.587002409968505" lon="12.771975103898168"><ele>338.3333333333333</ele><time>2026-04-23T14:59:46Z</time></trkpt><trkpt lat="43.586965468326234" lon="12.77218578493958"><ele>343.66666666666663</ele><time>2026-04-23T14:59:47Z</time></trkpt><trkpt lat="43.586937793008445" lon="12.772404132282794"><ele>349.0</ele><time>2026-04-23T14:59:48Z</time></trkpt><trkpt lat="43.58691518951392" lon="12.77263535615833"><ele>345.66666666666663</ele><time>2026-04-23T14:59:49Z</time></trkpt><trkpt lat="43.58689959256212" lon="12.772872330087708"><ele>342.3333333333333</ele><time>2026-04-23T14:59:50Z</time></trkpt><trkpt lat="43.586880113010075" lon="12.773087697694363"><ele>339.0</ele><time>2026-04-23T14:59:51Z</time></trkpt><trkpt lat="43.58685995845458" lon="12.773276965275507"><ele>339.0</ele><time>2026-04-23T14:59:52Z</time></trkpt><trkpt lat="43.58683778010323" lon="12.773463448416159"><ele>339.0</ele><time>2026-04-23T14:59:53Z</time></trkpt><trkpt lat="43.58680965043536" lon="12.773653494941259"><ele>339.0</ele><time>2026-04-23T14:59:54Z</time></trkpt><trkpt lat="43.58677438738187" lon="12.773852293965309"><ele>339.0</ele><time>2026-04-23T14:59:55Z</time></trkpt><trkpt lat="43.586758048637044" lon="12.774041944278581"><ele>338.4</ele><time>2026-04-23T14:59:56Z</time></trkpt><trkpt lat="43.58674097066628" lon="12.774191829447146"><ele>337.79999999999995</ele><time>2026-04-23T14:59:57Z</time></trkpt><trkpt lat="43.5867260574271" lon="12.77432498677253"><ele>337.20000000000005</ele><time>2026-04-23T14:59:58Z</time></trkpt><trkpt lat="43.58670836541059" lon="12.774451307509631"><ele>336.6</ele><time>2026-04-23T14:59:59Z</time></trkpt><trkpt lat="43.586689938872986" lon="12.774586253841113"><ele>336.0</ele><time>2026-04-23T15:00:00Z</time></trkpt><trkpt lat="43.58666626548033" lon="12.774716403047492"><ele>335.0</ele><time>2026-04-23T15:00:01Z</time></trkpt><trkpt lat="43.58664539922387" lon="12.774830508783367"><ele>334.0</ele><time>2026-04-23T15:00:02Z</time></trkpt><trkpt lat="43.586631129676974" lon="12.77495260772221"><ele>333.0</ele><time>2026-04-23T15:00:03Z</time></trkpt><trkpt lat="43.586634233162535" lon="12.775117129911216"><ele>332.0</ele><time>2026-04-23T15:00:04Z</time></trkpt><trkpt lat="43.586602672188874" lon="12.775300780435488"><ele>331.0</ele><time>2026-04-23T15:00:05Z</time></trkpt><trkpt lat="43.58657527748456" lon="12.775483788782086"><ele>331.0</ele><time>2026-04-23T15:00:06Z</time></trkpt><trkpt lat="43.58657246226508" lon="12.775661524423379"><ele>331.0</ele><time>2026-04-23T15:00:07Z</time></trkpt><trkpt lat="43.586592732311395" lon="12.77580496263837"><ele>331.0</ele><time>2026-04-23T15:00:08Z</time></trkpt><trkpt lat="43.586643164205" lon="12.7759437550065"><ele>331.0</ele><time>2026-04-23T15:00:09Z</time></trkpt><trkpt lat="43.58671080252806" lon="12.77607768586439"><ele>331.0</ele><time>2026-04-23T15:00:10Z</time></trkpt><trkpt lat="43.58680521456593" lon="12.776209931625294"><ele>331.0</ele><time>2026-04-23T15:00:11Z</time></trkpt><trkpt lat="43.58690397726848" lon="12.776328279962542"><ele>331.0</ele><time>2026-04-23T15:00:12Z</time></trkpt><trkpt lat="43.58700804971208" lon="12.776457980613669"><ele>331.0</ele><time>2026-04-23T15:00:13Z</time></trkpt><trkpt lat="43.58711492369782" lon="12.776603063807658"><ele>331.0</ele><time>2026-04-23T15:00:14Z</time></trkpt><trkpt lat="43.587227339884095" lon="12.776770925775235"><ele>331.0</ele><time>2026-04-23T15:00:15Z</time></trkpt><trkpt lat="43.58734537025176" lon="12.776949727145894"><ele>331.0</ele><time>2026-04-23T15:00:16Z</time></trkpt><trkpt lat="43.58745956583432" lon="12.777131791494716"><ele>330.3333333333333</ele><time>2026-04-23T15:00:17Z</time></trkpt><trkpt lat="43.58754865398215" lon="12.77732047817364"><ele>329.6666666666667</ele><time>2026-04-23T15:00:18Z</time></trkpt><trkpt lat="43.58760630473538" lon="12.777514067000684"><ele>329.0</ele><time>2026-04-23T15:00:19Z</time></trkpt><trkpt lat="43.587641021731685" lon="12.777729276629389"><ele>329.0</ele><time>2026-04-23T15:00:20Z</time></trkpt><trkpt lat="43.58767201983469" lon="12.77797372557951"><ele>329.0</ele><time>2026-04-23T15:00:21Z</time></trkpt><trkpt lat="43.58771082763653" lon="12.778224016523795"><ele>329.0</ele><time>2026-04-23T15:00:22Z</time></trkpt><trkpt lat="43.58775715962057" lon="12.778480786152867"><ele>327.33333333333337</ele><time>2026-04-23T15:00:23Z</time></trkpt><trkpt lat="43.587811114857594" lon="12.778763232409492"><ele>325.6666666666667</ele><time>2026-04-23T15:00:24Z</time></trkpt><trkpt lat="43.58786463395015" lon="12.779061221736193"><ele>324.0</ele><time>2026-04-23T15:00:25Z</time></trkpt><trkpt lat="43.58791263906513" lon="12.7793271770579"><ele>327.0</ele><time>2026-04-23T15:00:26Z</time></trkpt><trkpt lat="43.58795537104168" lon="12.779570881448352"><ele>330.0</ele><time>2026-04-23T15:00:27Z</time></trkpt><trkpt lat="43.58799336438974" lon="12.779788059759158"><ele>333.0</ele><time>2026-04-23T15:00:28Z</time></trkpt><trkpt lat="43.58801771362362" lon="12.779942571204494"><ele>333.0</ele><time>2026-04-23T15:00:29Z</time></trkpt><trkpt lat="43.58803970127343" lon="12.780066786711272"><ele>333.0</ele><time>2026-04-23T15:00:30Z</time></trkpt><trkpt lat="43.588070499953396" lon="12.780168578306023"><ele>333.0</ele><time>2026-04-23T15:00:31Z</time></trkpt><trkpt lat="43.58813366662324" lon="12.780259497114873"><ele>333.0</ele><time>2026-04-23T15:00:32Z</time></trkpt><trkpt lat="43.588222055327016" lon="12.780364312157564"><ele>333.0</ele><time>2026-04-23T15:00:33Z</time></trkpt><trkpt lat="43.58832096559525" lon="12.780470379878189"><ele>330.5</ele><time>2026-04-23T15:00:34Z</time></trkpt><trkpt lat="43.58842579622288" lon="12.78058772028483"><ele>328.0</ele><time>2026-04-23T15:00:35Z</time></trkpt><trkpt lat="43.588532695530574" lon="12.780724024954733"><ele>325.5</ele><time>2026-04-23T15:00:36Z</time></trkpt><trkpt lat="43.588649653765415" lon="12.780873161801"><ele>323.0</ele><time>2026-04-23T15:00:37Z</time></trkpt><trkpt lat="43.58877948835383" lon="12.781029422402149"><ele>323.0</ele><time>2026-04-23T15:00:38Z</time></trkpt><trkpt lat="43.58891053517386" lon="12.781189743950632"><ele>323.0</ele><time>2026-04-23T15:00:39Z</time></trkpt><trkpt lat="43.58904770265078" lon="12.781358136736165"><ele>323.0</ele><time>2026-04-23T15:00:40Z</time></trkpt><trkpt lat="43.589179821937364" lon="12.781538982747572"><ele>323.0</ele><time>2026-04-23T15:00:41Z</time></trkpt><trkpt lat="43.589313202519435" lon="12.781726957760904"><ele>323.0</ele><time>2026-04-23T15:00:42Z</time></trkpt><trkpt lat="43.589427828394165" lon="12.781909936999924"><ele>323.0</ele><time>2026-04-23T15:00:43Z</time></trkpt><trkpt lat="43.58954093039284" lon="12.78208633013357"><ele>324.33333333333337</ele><time>2026-04-23T15:00:44Z</time></trkpt><trkpt lat="43.58964900982898" lon="12.782257994270466"><ele>325.6666666666667</ele><time>2026-04-23T15:00:45Z</time></trkpt><trkpt lat="43.589754624673866" lon="12.782433903212016"><ele>327.0</ele><time>2026-04-23T15:00:46Z</time></trkpt><trkpt lat="43.589861639619386" lon="12.78261093675313"><ele>325.6666666666667</ele><time>2026-04-23T15:00:47Z</time></trkpt><trkpt lat="43.58997017310237" lon="12.782795571826398"><ele>324.33333333333337</ele><time>2026-04-23T15:00:48Z</time></trkpt><trkpt lat="43.59007957854861" lon="12.782985652121422"><ele>323.0</ele><time>2026-04-23T15:00:49Z</time></trkpt><trkpt lat="43.59018357419463" lon="12.78317788356159"><ele>323.0</ele><time>2026-04-23T15:00:50Z</time></trkpt><trkpt lat="43.59029418496389" lon="12.783367738829137"><ele>323.0</ele><time>2026-04-23T15:00:51Z</time></trkpt><trkpt lat="43.59040488482667" lon="12.783563416243387"><ele>323.0</ele><time>2026-04-23T15:00:52Z</time></trkpt><trkpt lat="43.590521311567954" lon="12.783762014656572"><ele>326.33333333333337</ele><time>2026-04-23T15:00:53Z</time></trkpt><trkpt lat="43.590634077357116" lon="12.783963211655736"><ele>329.6666666666667</ele><time>2026-04-23T15:00:54Z</time></trkpt><trkpt lat="43.59074296842763" lon="12.784156428093011"><ele>333.0</ele><time>2026-04-23T15:00:55Z</time></trkpt><trkpt lat="43.590843595173965" lon="12.784330286927053"><ele>330.5</ele><time>2026-04-23T15:00:56Z</time></trkpt><trkpt lat="43.59093756487873" lon="12.784481103214828"><ele>328.0</ele><time>2026-04-23T15:00:57Z</time></trkpt><trkpt lat="43.59101595504696" lon="12.784622796727813"><ele>325.5</ele><time>2026-04-23T15:00:58Z</time></trkpt><trkpt lat="43.59108720141162" lon="12.784751014212027"><ele>323.0</ele><time>2026-04-23T15:00:59Z</time></trkpt><trkpt lat="43.591171588782295" lon="12.784883200702659"><ele>323.25</ele><time>2026-04-23T15:01:00Z</time></trkpt><trkpt lat="43.59125533870219" lon="12.785017546915554"><ele>323.5</ele><time>2026-04-23T15:01:01Z</time></trkpt><trkpt lat="43.59133938904918" lon="12.785155484312158"><ele>323.75</ele><time>2026-04-23T15:01:02Z</time></trkpt><trkpt lat="43.59142874546356" lon="12.785293438718252"><ele>324.0</ele><time>2026-04-23T15:01:03Z</time></trkpt><trkpt lat="43.59151376338198" lon="12.785446096729938"><ele>324.0</ele><time>2026-04-23T15:01:04Z</time></trkpt><trkpt lat="43.59160267336117" lon="12.785594854608357"><ele>324.0</ele><time>2026-04-23T15:01:05Z</time></trkpt><trkpt lat="43.59170084354307" lon="12.7857452335487"><ele>324.0</ele><time>2026-04-23T15:01:06Z</time></trkpt><trkpt lat="43.59179737150925" lon="12.785903282592098"><ele>324.0</ele><time>2026-04-23T15:01:07Z</time></trkpt><trkpt lat="43.591896346566685" lon="12.786064854754246"><ele>325.0</ele><time>2026-04-23T15:01:08Z</time></trkpt><trkpt lat="43.59198056625991" lon="12.786227124315218"><ele>326.0</ele><time>2026-04-23T15:01:09Z</time></trkpt><trkpt lat="43.59206904992743" lon="12.786412151565065"><ele>327.0</ele><time>2026-04-23T15:01:10Z</time></trkpt><trkpt lat="43.59217440365881" lon="12.786559267834017"><ele>327.0</ele><time>2026-04-23T15:01:11Z</time></trkpt><trkpt lat="43.592278147070076" lon="12.786720859658873"><ele>327.0</ele><time>2026-04-23T15:01:12Z</time></trkpt><trkpt lat="43.592381082470425" lon="12.786870554674104"><ele>327.0</ele><time>2026-04-23T15:01:13Z</time></trkpt><trkpt lat="43.59248252826061" lon="12.787021055621427"><ele>326.25</ele><time>2026-04-23T15:01:14Z</time></trkpt><trkpt lat="43.59258385571689" lon="12.78716704620243"><ele>325.5</ele><time>2026-04-23T15:01:15Z</time></trkpt><trkpt lat="43.592692742388905" lon="12.787291590689934"><ele>324.75</ele><time>2026-04-23T15:01:16Z</time></trkpt><trkpt lat="43.59280645471503" lon="12.787412479234296"><ele>324.0</ele><time>2026-04-23T15:01:17Z</time></trkpt><trkpt lat="43.592919728719515" lon="12.787532145849308"><ele>324.0</ele><time>2026-04-23T15:01:18Z</time></trkpt><trkpt lat="43.59303704327126" lon="12.787655852846942"><ele>324.0</ele><time>2026-04-23T15:01:19Z</time></trkpt><trkpt lat="43.5931564058597" lon="12.787785275615416"><ele>324.0</ele><time>2026-04-23T15:01:20Z</time></trkpt><trkpt lat="43.593280065516254" lon="12.787914104927577"><ele>321.6666666666667</ele><time>2026-04-23T15:01:21Z</time></trkpt><trkpt lat="43.59340322745949" lon="12.788051401971448"><ele>319.33333333333337</ele><time>2026-04-23T15:01:22Z</time></trkpt><trkpt lat="43.59352553704603" lon="12.788181106431"><ele>317.0</ele><time>2026-04-23T15:01:23Z</time></trkpt><trkpt lat="43.59364380333844" lon="12.788310637555753"><ele>317.6</ele><time>2026-04-23T15:01:24Z</time></trkpt><trkpt lat="43.593752021039016" lon="12.788424763145251"><ele>318.2</ele><time>2026-04-23T15:01:25Z</time></trkpt><trkpt lat="43.59383943458234" lon="12.788522547076212"><ele>318.8</ele><time>2026-04-23T15:01:26Z</time></trkpt><trkpt lat="43.593903683878374" lon="12.788591977431977"><ele>319.4</ele><time>2026-04-23T15:01:27Z</time></trkpt><trkpt lat="43.593952026655515" lon="12.788650802165138"><ele>320.0</ele><time>2026-04-23T15:01:28Z</time></trkpt><trkpt lat="43.59399402539965" lon="12.788730860968634"><ele>320.0</ele><time>2026-04-23T15:01:30Z</time></trkpt><trkpt lat="43.593946217040816" lon="12.788623471364653"><ele>320.0</ele><time>2026-04-23T15:01:38Z</time></trkpt><trkpt lat="43.593843978478304" lon="12.78852236150029"><ele>320.0</ele><time>2026-04-23T15:01:39Z</time></trkpt><trkpt lat="43.5937947853195" lon="12.788438035226559"><ele>320.0</ele><time>2026-04-23T15:01:40Z</time></trkpt><trkpt lat="43.59376542440988" lon="12.78833432546448"><ele>320.0</ele><time>2026-04-23T15:01:41Z</time></trkpt><trkpt lat="43.593733232452955" lon="12.78820911969306"><ele>322.5</ele><time>2026-04-23T15:01:42Z</time></trkpt><trkpt lat="43.59370966806959" lon="12.78805348449128"><ele>325.0</ele><time>2026-04-23T15:01:43Z</time></trkpt><trkpt lat="43.593698521750056" lon="12.787900502777946"><ele>327.5</ele><time>2026-04-23T15:01:44Z</time></trkpt><trkpt lat="43.593713285321755" lon="12.787753932563882"><ele>330.0</ele><time>2026-04-23T15:01:45Z</time></trkpt><trkpt lat="43.59375171033397" lon="12.787577376361504"><ele>330.8</ele><time>2026-04-23T15:01:46Z</time></trkpt><trkpt lat="43.593790609728806" lon="12.78739160338146"><ele>331.6</ele><time>2026-04-23T15:01:47Z</time></trkpt><trkpt lat="43.59382490210168" lon="12.787268578481576"><ele>332.4</ele><time>2026-04-23T15:01:48Z</time></trkpt><trkpt lat="43.593863834092005" lon="12.78718343581754"><ele>333.2</ele><time>2026-04-23T15:01:49Z</time></trkpt><trkpt lat="43.59393954595545" lon="12.787201322692274"><ele>334.0</ele><time>2026-04-23T15:01:51Z</time></trkpt><trkpt lat="43.59398140353483" lon="12.787347418233157"><ele>334.0</ele><time>2026-04-23T15:01:53Z</time></trkpt><trkpt lat="43.59398724488903" lon="12.787475911736127"><ele>334.0</ele><time>2026-04-23T15:01:54Z</time></trkpt><trkpt lat="43.59399705449834" lon="12.787606086236524"><ele>334.0</ele><time>2026-04-23T15:01:55Z</time></trkpt><trkpt lat="43.59402508874941" lon="12.787711037682339"><ele>334.0</ele><time>2026-04-23T15:01:56Z</time></trkpt><trkpt lat="43.59407571569021" lon="12.787805516625877"><ele>334.0</ele><time>2026-04-23T15:01:57Z</time></trkpt><trkpt lat="43.59414673281499" lon="12.787879520119215"><ele>334.0</ele><time>2026-04-23T15:01:58Z</time></trkpt><trkpt lat="43.59422648304406" lon="12.78795720670953"><ele>333.2</ele><time>2026-04-23T15:01:59Z</time></trkpt><trkpt lat="43.59430025283969" lon="12.788005421391599"><ele>332.4</ele><time>2026-04-23T15:02:00Z</time></trkpt><trkpt lat="43.594376336948045" lon="12.788009105308888"><ele>331.6</ele><time>2026-04-23T15:02:01Z</time></trkpt><trkpt lat="43.59444533524697" lon="12.787937702376096"><ele>330.8</ele><time>2026-04-23T15:02:02Z</time></trkpt><trkpt lat="43.594516621739146" lon="12.787825278217548"><ele>330.0</ele><time>2026-04-23T15:02:03Z</time></trkpt><trkpt lat="43.59460535011723" lon="12.78769049244922"><ele>338.3333333333333</ele><time>2026-04-23T15:02:04Z</time></trkpt><trkpt lat="43.59470639731009" lon="12.78756354764707"><ele>346.66666666666663</ele><time>2026-04-23T15:02:05Z</time></trkpt><trkpt lat="43.59482625692525" lon="12.787425988259367"><ele>355.0</ele><time>2026-04-23T15:02:06Z</time></trkpt><trkpt lat="43.59496201655069" lon="12.787272365756182"><ele>355.0</ele><time>2026-04-23T15:02:07Z</time></trkpt><trkpt lat="43.595115190088784" lon="12.787121370283236"><ele>355.0</ele><time>2026-04-23T15:02:08Z</time></trkpt><trkpt lat="43.595261602606605" lon="12.787012360508792"><ele>355.0</ele><time>2026-04-23T15:02:09Z</time></trkpt><trkpt lat="43.59538723517506" lon="12.786947153264427"><ele>358.66666666666663</ele><time>2026-04-23T15:02:10Z</time></trkpt><trkpt lat="43.595531028094236" lon="12.786878495220702"><ele>362.3333333333333</ele><time>2026-04-23T15:02:11Z</time></trkpt><trkpt lat="43.59570296966276" lon="12.786822350313415"><ele>366.0</ele><time>2026-04-23T15:02:12Z</time></trkpt><trkpt lat="43.59584755160568" lon="12.786760122240231"><ele>366.0</ele><time>2026-04-23T15:02:13Z</time></trkpt><trkpt lat="43.59595884986065" lon="12.786724497104505"><ele>366.0</ele><time>2026-04-23T15:02:14Z</time></trkpt><trkpt lat="43.596038010645394" lon="12.786732947717496"><ele>366.0</ele><time>2026-04-23T15:02:15Z</time></trkpt><trkpt lat="43.596095619246704" lon="12.786768757618475"><ele>366.0</ele><time>2026-04-23T15:02:16Z</time></trkpt><trkpt lat="43.596082735633956" lon="12.786918650537869"><ele>366.0</ele><time>2026-04-23T15:02:18Z</time></trkpt><trkpt lat="43.59603912627031" lon="12.786982712544233"><ele>366.0</ele><time>2026-04-23T15:02:19Z</time></trkpt><trkpt lat="43.59598334447597" lon="12.787088666840223"><ele>367.5</ele><time>2026-04-23T15:02:20Z</time></trkpt><trkpt lat="43.5959506124749" lon="12.787218272396899"><ele>369.0</ele><time>2026-04-23T15:02:21Z</time></trkpt><trkpt lat="43.59592225534473" lon="12.787381284305827"><ele>370.5</ele><time>2026-04-23T15:02:22Z</time></trkpt><trkpt lat="43.59585168299546" lon="12.787548629305027"><ele>372.0</ele><time>2026-04-23T15:02:23Z</time></trkpt><trkpt lat="43.59577491004114" lon="12.787722186315094"><ele>372.0</ele><time>2026-04-23T15:02:24Z</time></trkpt><trkpt lat="43.59569325815706" lon="12.787876599313524"><ele>372.0</ele><time>2026-04-23T15:02:25Z</time></trkpt><trkpt lat="43.59567399782933" lon="12.787983851699556"><ele>372.0</ele><time>2026-04-23T15:02:26Z</time></trkpt><trkpt lat="43.595645463961304" lon="12.788083959361497"><ele>372.0</ele><time>2026-04-23T15:02:28Z</time></trkpt><trkpt lat="43.595693871549656" lon="12.788200699351961"><ele>372.0</ele><time>2026-04-23T15:02:30Z</time></trkpt><trkpt lat="43.595758438557695" lon="12.788178280575154"><ele>372.0</ele><time>2026-04-23T15:02:31Z</time></trkpt><trkpt lat="43.5958649332055" lon="12.788122980765577"><ele>372.0</ele><time>2026-04-23T15:02:33Z</time></trkpt><trkpt lat="43.59593899233609" lon="12.78808836340948"><ele>372.0</ele><time>2026-04-23T15:02:34Z</time></trkpt><trkpt lat="43.59602171866616" lon="12.78805089482806"><ele>372.0</ele><time>2026-04-23T15:02:35Z</time></trkpt><trkpt lat="43.596121503665366" lon="12.78799281237986"><ele>372.0</ele><time>2026-04-23T15:02:36Z</time></trkpt><trkpt lat="43.59622597414477" lon="12.787905713287929"><ele>370.20000000000005</ele><time>2026-04-23T15:02:37Z</time></trkpt><trkpt lat="43.59631994436225" lon="12.787804641059568"><ele>368.4</ele><time>2026-04-23T15:02:38Z</time></trkpt><trkpt lat="43.596401092792924" lon="12.787705309738723"><ele>366.6</ele><time>2026-04-23T15:02:39Z</time></trkpt><trkpt lat="43.59647325529632" lon="12.787604441558651"><ele>364.79999999999995</ele><time>2026-04-23T15:02:40Z</time></trkpt><trkpt lat="43.59654125076735" lon="12.787507114294604"><ele>363.0</ele><time>2026-04-23T15:02:41Z</time></trkpt><trkpt lat="43.59662438969612" lon="12.787408938012732"><ele>365.2</ele><time>2026-04-23T15:02:42Z</time></trkpt><trkpt lat="43.596712061586864" lon="12.787318770046324"><ele>367.4</ele><time>2026-04-23T15:02:43Z</time></trkpt><trkpt lat="43.59679489210876" lon="12.787221396068428"><ele>369.59999999999997</ele><time>2026-04-23T15:02:44Z</time></trkpt><trkpt lat="43.59687466465517" lon="12.787130535679351"><ele>371.79999999999995</ele><time>2026-04-23T15:02:45Z</time></trkpt><trkpt lat="43.59695442640547" lon="12.787047993885198"><ele>374.0</ele><time>2026-04-23T15:02:46Z</time></trkpt><trkpt lat="43.59703502170966" lon="12.7869705050698"><ele>374.0</ele><time>2026-04-23T15:02:47Z</time></trkpt><trkpt lat="43.597113881913636" lon="12.786886028406553"><ele>374.0</ele><time>2026-04-23T15:02:48Z</time></trkpt><trkpt lat="43.59717556490911" lon="12.786813856385985"><ele>374.0</ele><time>2026-04-23T15:02:49Z</time></trkpt><trkpt lat="43.5972244136648" lon="12.786754916058323"><ele>374.0</ele><time>2026-04-23T15:02:50Z</time></trkpt><trkpt lat="43.59729387744023" lon="12.786675743389972"><ele>374.0</ele><time>2026-04-23T15:02:52Z</time></trkpt><trkpt lat="43.5973491776431" lon="12.786603357921681"><ele>374.0</ele><time>2026-04-23T15:02:54Z</time></trkpt><trkpt lat="43.5974308397638" lon="12.786511341213533"><ele>378.33333333333337</ele><time>2026-04-23T15:02:56Z</time></trkpt><trkpt lat="43.5974822158618" lon="12.786445929456937"><ele>382.6666666666667</ele><time>2026-04-23T15:02:57Z</time></trkpt><trkpt lat="43.59754022372884" lon="12.786371083947785"><ele>387.0</ele><time>2026-04-23T15:02:58Z</time></trkpt><trkpt lat="43.59759627900516" lon="12.786297729151315"><ele>391.33333333333337</ele><time>2026-04-23T15:02:59Z</time></trkpt><trkpt lat="43.59765360313798" lon="12.786223408170908"><ele>395.6666666666667</ele><time>2026-04-23T15:03:00Z</time></trkpt><trkpt lat="43.597713198259456" lon="12.786148222009677"><ele>400.0</ele><time>2026-04-23T15:03:01Z</time></trkpt><trkpt lat="43.59778449470313" lon="12.786056272516655"><ele>405.8</ele><time>2026-04-23T15:03:02Z</time></trkpt><trkpt lat="43.59785136367139" lon="12.785960187017347"><ele>411.6</ele><time>2026-04-23T15:03:03Z</time></trkpt><trkpt lat="43.59789771482847" lon="12.785893444308506"><ele>417.4</ele><time>2026-04-23T15:03:04Z</time></trkpt><trkpt lat="43.59793705147385" lon="12.785776101862282"><ele>423.2</ele><time>2026-04-23T15:03:42Z</time></trkpt><trkpt lat="43.59798729330206" lon="12.785602937023066"><ele>429.0</ele><time>2026-04-23T15:03:44Z</time></trkpt><trkpt lat="43.59800328195257" lon="12.785470591310656"><ele>429.0</ele><time>2026-04-23T15:03:45Z</time></trkpt><trkpt lat="43.59803938768298" lon="12.785327228413735"><ele>429.0</ele><time>2026-04-23T15:03:46Z</time></trkpt><trkpt lat="43.59809886986287" lon="12.785176199562564"><ele>429.0</ele><time>2026-04-23T15:03:47Z</time></trkpt><trkpt lat="43.59814948476547" lon="12.78505332363079"><ele>429.0</ele><time>2026-04-23T15:03:48Z</time></trkpt><trkpt lat="43.598174581735385" lon="12.784939980063177"><ele>429.0</ele><time>2026-04-23T15:03:49Z</time></trkpt><trkpt lat="43.598153675433466" lon="12.784835701042436"><ele>430.0</ele><time>2026-04-23T15:03:50Z</time></trkpt><trkpt lat="43.59808941062123" lon="12.784739407967539"><ele>431.0</ele><time>2026-04-23T15:03:51Z</time></trkpt><trkpt lat="43.59799771192298" lon="12.784632106298107"><ele>432.0</ele><time>2026-04-23T15:03:52Z</time></trkpt><trkpt lat="43.597914963116146" lon="12.784548498592995"><ele>433.0</ele><time>2026-04-23T15:03:53Z</time></trkpt><trkpt lat="43.59783632320755" lon="12.784469244085555"><ele>434.0</ele><time>2026-04-23T15:03:54Z</time></trkpt><trkpt lat="43.59775834472136" lon="12.784376425757044"><ele>432.16666666666663</ele><time>2026-04-23T15:03:55Z</time></trkpt><trkpt lat="43.597689846481835" lon="12.784284102461413"><ele>430.3333333333333</ele><time>2026-04-23T15:03:56Z</time></trkpt><trkpt lat="43.5976244649598" lon="12.784194510834263"><ele>428.5</ele><time>2026-04-23T15:03:57Z</time></trkpt><trkpt lat="43.597558966880165" lon="12.78411206242352"><ele>426.66666666666663</ele><time>2026-04-23T15:03:58Z</time></trkpt><trkpt lat="43.597494382789314" lon="12.784029357654587"><ele>424.8333333333333</ele><time>2026-04-23T15:03:59Z</time></trkpt><trkpt lat="43.5974353625064" lon="12.783950789797746"><ele>423.0</ele><time>2026-04-23T15:04:00Z</time></trkpt><trkpt lat="43.59737325081453" lon="12.783877985011735"><ele>423.0</ele><time>2026-04-23T15:04:01Z</time></trkpt><trkpt lat="43.59731176259307" lon="12.783805077747289"><ele>423.0</ele><time>2026-04-23T15:04:02Z</time></trkpt><trkpt lat="43.59724485438855" lon="12.783737830533003"><ele>423.0</ele><time>2026-04-23T15:04:03Z</time></trkpt><trkpt lat="43.59716389041756" lon="12.7836846281683"><ele>423.0</ele><time>2026-04-23T15:04:04Z</time></trkpt><trkpt lat="43.59707719294594" lon="12.783621351620454"><ele>423.0</ele><time>2026-04-23T15:04:05Z</time></trkpt><trkpt lat="43.596976513897935" lon="12.783596118672683"><ele>424.2</ele><time>2026-04-23T15:04:06Z</time></trkpt><trkpt lat="43.59688730584041" lon="12.783528745898515"><ele>425.4</ele><time>2026-04-23T15:04:07Z</time></trkpt><trkpt lat="43.596789077338826" lon="12.78348407958313"><ele>426.59999999999997</ele><time>2026-04-23T15:04:08Z</time></trkpt><trkpt lat="43.59670061351415" lon="12.783454302526879"><ele>427.79999999999995</ele><time>2026-04-23T15:04:09Z</time></trkpt><trkpt lat="43.59663137687525" lon="12.783437935118348"><ele>429.0</ele><time>2026-04-23T15:04:10Z</time></trkpt><trkpt lat="43.59650496558523" lon="12.78340259854068"><ele>429.0</ele><time>2026-04-23T15:04:12Z</time></trkpt><trkpt lat="43.59645082345139" lon="12.783355092726437"><ele>429.0</ele><time>2026-04-23T15:04:13Z</time></trkpt><trkpt lat="43.596373487130265" lon="12.783286333654345"><ele>429.0</ele><time>2026-04-23T15:04:15Z</time></trkpt><trkpt lat="43.596295805461125" lon="12.783231792454767"><ele>429.0</ele><time>2026-04-23T15:04:18Z</time></trkpt><trkpt lat="43.596265669007636" lon="12.783151487568176"><ele>429.0</ele><time>2026-04-23T15:04:19Z</time></trkpt><trkpt lat="43.596226306989614" lon="12.78304036879554"><ele>429.0</ele><time>2026-04-23T15:04:20Z</time></trkpt><trkpt lat="43.596183926379446" lon="12.782918669326945"><ele>430.2</ele><time>2026-04-23T15:04:21Z</time></trkpt><trkpt lat="43.59614994129679" lon="12.782793409955767"><ele>431.4</ele><time>2026-04-23T15:04:22Z</time></trkpt><trkpt lat="43.59609912053351" lon="12.782657810400224"><ele>432.6</ele><time>2026-04-23T15:04:23Z</time></trkpt><trkpt lat="43.59603808570712" lon="12.78253013885252"><ele>433.8</ele><time>2026-04-23T15:04:24Z</time></trkpt><trkpt lat="43.59597673299525" lon="12.782403262882266"><ele>435.0</ele><time>2026-04-23T15:04:25Z</time></trkpt><trkpt lat="43.59589629932395" lon="12.782290493365627"><ele>435.0</ele><time>2026-04-23T15:04:26Z</time></trkpt><trkpt lat="43.59579393996076" lon="12.782181746649165"><ele>435.0</ele><time>2026-04-23T15:04:27Z</time></trkpt><trkpt lat="43.59569016641373" lon="12.782075636871452"><ele>435.0</ele><time>2026-04-23T15:04:28Z</time></trkpt><trkpt lat="43.59557600270682" lon="12.782002933352098"><ele>435.0</ele><time>2026-04-23T15:04:29Z</time></trkpt><trkpt lat="43.5954476650915" lon="12.781925653503519"><ele>432.75</ele><time>2026-04-23T15:04:30Z</time></trkpt><trkpt lat="43.595297769652994" lon="12.78186430467477"><ele>430.5</ele><time>2026-04-23T15:04:31Z</time></trkpt><trkpt lat="43.59517224690317" lon="12.781813600910056"><ele>428.25</ele><time>2026-04-23T15:04:32Z</time></trkpt><trkpt lat="43.59505964689094" lon="12.781759436803258"><ele>426.0</ele><time>2026-04-23T15:04:33Z</time></trkpt><trkpt lat="43.59494014403943" lon="12.781706620346977"><ele>430.5</ele><time>2026-04-23T15:04:34Z</time></trkpt><trkpt lat="43.59483237391718" lon="12.781646890455779"><ele>435.0</ele><time>2026-04-23T15:04:35Z</time></trkpt><trkpt lat="43.59475896989604" lon="12.781557524278325"><ele>439.5</ele><time>2026-04-23T15:04:36Z</time></trkpt><trkpt lat="43.594701658690205" lon="12.781473163444499"><ele>444.0</ele><time>2026-04-23T15:04:37Z</time></trkpt><trkpt lat="43.59465880757887" lon="12.781389618312453"><ele>448.5</ele><time>2026-04-23T15:04:38Z</time></trkpt><trkpt lat="43.59462868926145" lon="12.781308307189493"><ele>453.0</ele><time>2026-04-23T15:04:39Z</time></trkpt><trkpt lat="43.5946271785023" lon="12.78120142553859"><ele>453.0</ele><time>2026-04-23T15:04:40Z</time></trkpt><trkpt lat="43.59465066048622" lon="12.781096834636024"><ele>452.99999999999994</ele><time>2026-04-23T15:04:41Z</time></trkpt><trkpt lat="43.594744876952795" lon="12.780977881868315"><ele>452.99999999999994</ele><time>2026-04-23T15:04:43Z</time></trkpt><trkpt lat="43.594813873994475" lon="12.780888823693434"><ele>453.0</ele><time>2026-04-23T15:04:44Z</time></trkpt><trkpt lat="43.59492149725143" lon="12.780776567187642"><ele>453.0</ele><time>2026-04-23T15:04:45Z</time></trkpt><trkpt lat="43.59504149004146" lon="12.780643547282198"><ele>453.79999999999995</ele><time>2026-04-23T15:04:46Z</time></trkpt><trkpt lat="43.595141458404015" lon="12.780515465834311"><ele>454.59999999999997</ele><time>2026-04-23T15:04:47Z</time></trkpt><trkpt lat="43.595217054459525" lon="12.780425886512688"><ele>455.40000000000003</ele><time>2026-04-23T15:04:48Z</time></trkpt><trkpt lat="43.59528727470104" lon="12.780367454866887"><ele>456.20000000000005</ele><time>2026-04-23T15:04:49Z</time></trkpt><trkpt lat="43.59536567753176" lon="12.780306963972903"><ele>457.0</ele><time>2026-04-23T15:04:50Z</time></trkpt><trkpt lat="43.595432491582216" lon="12.780229542367715"><ele>458.20000000000005</ele><time>2026-04-23T15:04:51Z</time></trkpt><trkpt lat="43.59548878919" lon="12.780144836730603"><ele>459.40000000000003</ele><time>2026-04-23T15:04:52Z</time></trkpt><trkpt lat="43.59552608168883" lon="12.780016487202102"><ele>460.59999999999997</ele><time>2026-04-23T15:04:53Z</time></trkpt><trkpt lat="43.59555288555544" lon="12.779844780063925"><ele>461.79999999999995</ele><time>2026-04-23T15:04:54Z</time></trkpt><trkpt lat="43.5956066840437" lon="12.779702902847518"><ele>463.0</ele><time>2026-04-23T15:04:55Z</time></trkpt><trkpt lat="43.59564108654973" lon="12.779573080187484"><ele>463.00000000000006</ele><time>2026-04-23T15:04:56Z</time></trkpt><trkpt lat="43.59564813136842" lon="12.779440109364884"><ele>463.0</ele><time>2026-04-23T15:04:57Z</time></trkpt><trkpt lat="43.59563264489106" lon="12.779321178960387"><ele>463.0</ele><time>2026-04-23T15:04:58Z</time></trkpt><trkpt lat="43.59559940954388" lon="12.779217198110288"><ele>463.0</ele><time>2026-04-23T15:04:59Z</time></trkpt><trkpt lat="43.59554959591466" lon="12.779141153927949"><ele>463.00000000000006</ele><time>2026-04-23T15:05:00Z</time></trkpt><trkpt lat="43.59550953642691" lon="12.779051082439322"><ele>463.0</ele><time>2026-04-23T15:05:01Z</time></trkpt><trkpt lat="43.59546377140617" lon="12.778952158758768"><ele>462.0</ele><time>2026-04-23T15:05:02Z</time></trkpt><trkpt lat="43.59541499881571" lon="12.778854618487903"><ele>460.99999999999994</ele><time>2026-04-23T15:05:03Z</time></trkpt><trkpt lat="43.59536203897459" lon="12.778771549289104"><ele>460.0</ele><time>2026-04-23T15:05:04Z</time></trkpt><trkpt lat="43.59531580802049" lon="12.778704922696424"><ele>459.0</ele><time>2026-04-23T15:05:05Z</time></trkpt><trkpt lat="43.59528224645027" lon="12.77862588963662"><ele>457.99999999999994</ele><time>2026-04-23T15:05:06Z</time></trkpt><trkpt lat="43.59524710414076" lon="12.778546704769322"><ele>457.0</ele><time>2026-04-23T15:05:07Z</time></trkpt><trkpt lat="43.59520085165592" lon="12.778474539382588"><ele>456.0</ele><time>2026-04-23T15:05:08Z</time></trkpt><trkpt lat="43.595143951125586" lon="12.778406599264326"><ele>456.0</ele><time>2026-04-23T15:05:09Z</time></trkpt><trkpt lat="43.59508417351882" lon="12.778330993557198"><ele>456.0</ele><time>2026-04-23T15:05:10Z</time></trkpt><trkpt lat="43.5950529318578" lon="12.778227097781658"><ele>456.0</ele><time>2026-04-23T15:05:11Z</time></trkpt><trkpt lat="43.594996189041794" lon="12.77817701052457"><ele>456.0</ele><time>2026-04-23T15:05:12Z</time></trkpt><trkpt lat="43.59491130918344" lon="12.77816550787881"><ele>456.0</ele><time>2026-04-23T15:05:14Z</time></trkpt><trkpt lat="43.594783859449834" lon="12.778201650915282"><ele>456.0</ele><time>2026-04-23T15:05:16Z</time></trkpt><trkpt lat="43.59471513588417" lon="12.778244489588147"><ele>456.0</ele><time>2026-04-23T15:05:17Z</time></trkpt><trkpt lat="43.59463312218874" lon="12.778290071711064"><ele>456.0</ele><time>2026-04-23T15:05:18Z</time></trkpt><trkpt lat="43.594562719233444" lon="12.778316355872954"><ele>456.0</ele><time>2026-04-23T15:05:19Z</time></trkpt><trkpt lat="43.59443630012739" lon="12.778332846483192"><ele>456.0</ele><time>2026-04-23T15:05:21Z</time></trkpt><trkpt lat="43.594334506791114" lon="12.778326096628549"><ele>456.0</ele><time>2026-04-23T15:05:22Z</time></trkpt><trkpt lat="43.59421665665394" lon="12.778326394515297"><ele>458.0</ele><time>2026-04-23T15:05:23Z</time></trkpt><trkpt lat="43.59407544669852" lon="12.778359282388381"><ele>460.0</ele><time>2026-04-23T15:05:24Z</time></trkpt><trkpt lat="43.59393783090292" lon="12.778379399915066"><ele>462.0</ele><time>2026-04-23T15:05:25Z</time></trkpt><trkpt lat="43.5938450148742" lon="12.77836424619636"><ele>464.0</ele><time>2026-04-23T15:05:26Z</time></trkpt><trkpt lat="43.593741917753086" lon="12.778370372061758"><ele>463.99999999999994</ele><time>2026-04-23T15:05:28Z</time></trkpt><trkpt lat="43.593738878287496" lon="12.778239608944913"><ele>464.0</ele><time>2026-04-23T15:05:30Z</time></trkpt><trkpt lat="43.593790098364245" lon="12.778160679874603"><ele>464.0</ele><time>2026-04-23T15:05:32Z</time></trkpt><trkpt lat="43.59385604938286" lon="12.778192050344217"><ele>464.0</ele><time>2026-04-23T15:05:39Z</time></trkpt><trkpt lat="43.59395153660208" lon="12.77817156902039"><ele>463.99999999999994</ele><time>2026-04-23T15:05:40Z</time></trkpt><trkpt lat="43.59405185797616" lon="12.778140579898142"><ele>464.0</ele><time>2026-04-23T15:05:41Z</time></trkpt><trkpt lat="43.59414849583904" lon="12.77810192104634"><ele>464.0</ele><time>2026-04-23T15:05:42Z</time></trkpt><trkpt lat="43.594264101361155" lon="12.778081187266435"><ele>464.0</ele><time>2026-04-23T15:05:43Z</time></trkpt><trkpt lat="43.594355429080565" lon="12.778077685041346"><ele>464.0</ele><time>2026-04-23T15:05:44Z</time></trkpt><trkpt lat="43.59441470403461" lon="12.778044947617401"><ele>464.0</ele><time>2026-04-23T15:05:45Z</time></trkpt><trkpt lat="43.59452998089102" lon="12.777933987992585"><ele>464.0</ele><time>2026-04-23T15:05:47Z</time></trkpt><trkpt lat="43.594603613157126" lon="12.777839915365933"><ele>462.8571428571429</ele><time>2026-04-23T15:05:48Z</time></trkpt><trkpt lat="43.594675033389116" lon="12.777781647279111"><ele>461.7142857142857</ele><time>2026-04-23T15:05:49Z</time></trkpt><trkpt lat="43.59473823101336" lon="12.777732647451781"><ele>460.57142857142856</ele><time>2026-04-23T15:05:50Z</time></trkpt><trkpt lat="43.594799058572654" lon="12.77768329482924"><ele>459.42857142857144</ele><time>2026-04-23T15:05:51Z</time></trkpt><trkpt lat="43.5948671871604" lon="12.77763771335509"><ele>458.2857142857142</ele><time>2026-04-23T15:05:52Z</time></trkpt><trkpt lat="43.59493100904145" lon="12.777578548614546"><ele>457.1428571428571</ele><time>2026-04-23T15:05:53Z</time></trkpt><trkpt lat="43.5949896047854" lon="12.777535801630705"><ele>456.0</ele><time>2026-04-23T15:05:54Z</time></trkpt><trkpt lat="43.595089943369274" lon="12.77746300220566"><ele>460.6</ele><time>2026-04-23T15:05:56Z</time></trkpt><trkpt lat="43.59518205912191" lon="12.777351045581367"><ele>465.20000000000005</ele><time>2026-04-23T15:05:58Z</time></trkpt><trkpt lat="43.59526156089977" lon="12.777227702965613"><ele>469.79999999999995</ele><time>2026-04-23T15:06:00Z</time></trkpt><trkpt lat="43.595316467995424" lon="12.777181332347656"><ele>474.4</ele><time>2026-04-23T15:06:01Z</time></trkpt><trkpt lat="43.595416392402065" lon="12.777105636239119"><ele>479.0</ele><time>2026-04-23T15:06:03Z</time></trkpt><trkpt lat="43.59551063454378" lon="12.777009525435995"><ele>479.49999999999994</ele><time>2026-04-23T15:06:05Z</time></trkpt><trkpt lat="43.59557980267731" lon="12.776920813122562"><ele>480.0</ele><time>2026-04-23T15:06:07Z</time></trkpt><trkpt lat="43.595646459563454" lon="12.776822213639505"><ele>480.5</ele><time>2026-04-23T15:06:09Z</time></trkpt><trkpt lat="43.59568059862372" lon="12.776721537052593"><ele>481.0</ele><time>2026-04-23T15:06:11Z</time></trkpt><trkpt lat="43.59567395207577" lon="12.776634279202908"><ele>481.49999999999994</ele><time>2026-04-23T15:06:13Z</time></trkpt><trkpt lat="43.59566700186434" lon="12.776499412298056"><ele>482.0</ele><time>2026-04-23T15:06:15Z</time></trkpt><trkpt lat="43.59570509247005" lon="12.776335408788874"><ele>483.16666666666663</ele><time>2026-04-23T15:06:17Z</time></trkpt><trkpt lat="43.59573792400481" lon="12.776233866236588"><ele>484.3333333333333</ele><time>2026-04-23T15:06:18Z</time></trkpt><trkpt lat="43.59577872437302" lon="12.776120312484121"><ele>485.5</ele><time>2026-04-23T15:06:19Z</time></trkpt><trkpt lat="43.595817306206236" lon="12.776018525382328"><ele>486.66666666666663</ele><time>2026-04-23T15:06:20Z</time></trkpt><trkpt lat="43.59585873257872" lon="12.775933993305294"><ele>487.8333333333333</ele><time>2026-04-23T15:06:21Z</time></trkpt><trkpt lat="43.5959090041937" lon="12.775846938283397"><ele>489.0</ele><time>2026-04-23T15:06:22Z</time></trkpt><trkpt lat="43.59596393732843" lon="12.775735007780215"><ele>489.0</ele><time>2026-04-23T15:06:23Z</time></trkpt><trkpt lat="43.59600806382355" lon="12.775611156136481"><ele>489.0</ele><time>2026-04-23T15:06:24Z</time></trkpt><trkpt lat="43.596049022737695" lon="12.775469233087405"><ele>489.0</ele><time>2026-04-23T15:06:25Z</time></trkpt><trkpt lat="43.59607169098095" lon="12.77531737917587"><ele>489.0</ele><time>2026-04-23T15:06:26Z</time></trkpt><trkpt lat="43.59606635154353" lon="12.7751471241502"><ele>489.0</ele><time>2026-04-23T15:06:27Z</time></trkpt><trkpt lat="43.59605706400029" lon="12.774985944724177"><ele>487.2</ele><time>2026-04-23T15:06:28Z</time></trkpt><trkpt lat="43.59605493514379" lon="12.774845546107217"><ele>485.4</ele><time>2026-04-23T15:06:29Z</time></trkpt><trkpt lat="43.5960615539803" lon="12.77474454946766"><ele>483.6</ele><time>2026-04-23T15:06:30Z</time></trkpt><trkpt lat="43.59611235179226" lon="12.774583310663186"><ele>481.8</ele><time>2026-04-23T15:06:32Z</time></trkpt><trkpt lat="43.59617511432336" lon="12.774495937284161"><ele>480.0</ele><time>2026-04-23T15:06:33Z</time></trkpt><trkpt lat="43.59625340804006" lon="12.774417146369819"><ele>481.75</ele><time>2026-04-23T15:06:34Z</time></trkpt><trkpt lat="43.596342322911944" lon="12.774327580260929"><ele>483.5</ele><time>2026-04-23T15:06:35Z</time></trkpt><trkpt lat="43.59645027925432" lon="12.774211256507721"><ele>485.25</ele><time>2026-04-23T15:06:36Z</time></trkpt><trkpt lat="43.59656120532354" lon="12.774076208106168"><ele>487.0</ele><time>2026-04-23T15:06:37Z</time></trkpt><trkpt lat="43.59665193323538" lon="12.773968871001617"><ele>487.00000000000006</ele><time>2026-04-23T15:06:38Z</time></trkpt><trkpt lat="43.596723260548025" lon="12.773889913507006"><ele>487.0</ele><time>2026-04-23T15:06:39Z</time></trkpt><trkpt lat="43.596784652048285" lon="12.773836275075922"><ele>487.0</ele><time>2026-04-23T15:06:40Z</time></trkpt><trkpt lat="43.59686186575107" lon="12.773817851980139"><ele>487.0</ele><time>2026-04-23T15:06:41Z</time></trkpt><trkpt lat="43.59692517586739" lon="12.773806609262444"><ele>487.00000000000006</ele><time>2026-04-23T15:06:42Z</time></trkpt><trkpt lat="43.59699625659886" lon="12.773701413640191"><ele>487.0</ele><time>2026-04-23T15:06:44Z</time></trkpt><trkpt lat="43.59696068889032" lon="12.773625182437007"><ele>487.00000000000006</ele><time>2026-04-23T15:06:49Z</time></trkpt><trkpt lat="43.59695916470874" lon="12.773724223630719"><ele>487.0</ele><time>2026-04-23T15:06:52Z</time></trkpt><trkpt lat="43.596868291552575" lon="12.773656862019427"><ele>487.0</ele><time>2026-04-23T15:06:54Z</time></trkpt><trkpt lat="43.596754564110014" lon="12.77366780685127"><ele>487.0</ele><time>2026-04-23T15:06:56Z</time></trkpt><trkpt lat="43.59667997602729" lon="12.77367199803797"><ele>487.00000000000006</ele><time>2026-04-23T15:06:57Z</time></trkpt><trkpt lat="43.59660136240673" lon="12.773668999379142"><ele>487.0</ele><time>2026-04-23T15:06:58Z</time></trkpt><trkpt lat="43.59651624625202" lon="12.77368433717768"><ele>487.0</ele><time>2026-04-23T15:06:59Z</time></trkpt><trkpt lat="43.59640223327581" lon="12.773707909753577"><ele>487.0</ele><time>2026-04-23T15:07:00Z</time></trkpt><trkpt lat="43.59590860855549" lon="12.773874281140333"><ele>484.6666666666667</ele><time>2026-04-23T15:07:01Z</time></trkpt><trkpt lat="43.59579965157028" lon="12.773992939105893"><ele>482.33333333333337</ele><time>2026-04-23T15:07:03Z</time></trkpt><trkpt lat="43.59569766658447" lon="12.774097382641202"><ele>480.0</ele><time>2026-04-23T15:07:05Z</time></trkpt><trkpt lat="43.59605412308963" lon="12.775112897078786"><ele>482.25</ele><time>2026-04-23T15:07:08Z</time></trkpt><trkpt lat="43.5960575276441" lon="12.775272682817084"><ele>484.5</ele><time>2026-04-23T15:07:09Z</time></trkpt><trkpt lat="43.596047855816536" lon="12.775454806290526"><ele>486.75</ele><time>2026-04-23T15:07:10Z</time></trkpt><trkpt lat="43.59601979709319" lon="12.775616224232387"><ele>489.0</ele><time>2026-04-23T15:07:11Z</time></trkpt><trkpt lat="43.59596874540843" lon="12.775764336651271"><ele>489.0</ele><time>2026-04-23T15:07:12Z</time></trkpt><trkpt lat="43.595887515798225" lon="12.775897770819554"><ele>489.0</ele><time>2026-04-23T15:07:13Z</time></trkpt><trkpt lat="43.59582312684929" lon="12.776022813743529"><ele>489.0</ele><time>2026-04-23T15:07:14Z</time></trkpt><trkpt lat="43.59577384282105" lon="12.776153543087784"><ele>489.0</ele><time>2026-04-23T15:07:15Z</time></trkpt><trkpt lat="43.59572842355704" lon="12.7762925681458"><ele>489.79999999999995</ele><time>2026-04-23T15:07:16Z</time></trkpt><trkpt lat="43.595684483910915" lon="12.77641711025083"><ele>490.59999999999997</ele><time>2026-04-23T15:07:17Z</time></trkpt><trkpt lat="43.59565999318767" lon="12.77652789021658"><ele>491.4</ele><time>2026-04-23T15:07:18Z</time></trkpt><trkpt lat="43.59566820314892" lon="12.776630293446265"><ele>492.2</ele><time>2026-04-23T15:07:19Z</time></trkpt><trkpt lat="43.59562482376596" lon="12.776744654409695"><ele>493.0</ele><time>2026-04-23T15:07:21Z</time></trkpt><trkpt lat="43.59555480969685" lon="12.776884948311508"><ele>490.79999999999995</ele><time>2026-04-23T15:07:24Z</time></trkpt><trkpt lat="43.59548782619393" lon="12.776974852083924"><ele>488.59999999999997</ele><time>2026-04-23T15:07:25Z</time></trkpt><trkpt lat="43.59540548278735" lon="12.777056625827258"><ele>486.40000000000003</ele><time>2026-04-23T15:07:26Z</time></trkpt><trkpt lat="43.59531266518662" lon="12.777133948331262"><ele>484.20000000000005</ele><time>2026-04-23T15:07:27Z</time></trkpt><trkpt lat="43.59523154163827" lon="12.77721630867405"><ele>482.0</ele><time>2026-04-23T15:07:28Z</time></trkpt><trkpt lat="43.595161103061955" lon="12.777299612848099"><ele>481.40000000000003</ele><time>2026-04-23T15:07:29Z</time></trkpt><trkpt lat="43.59510665909436" lon="12.777399308448537"><ele>480.80000000000007</ele><time>2026-04-23T15:07:30Z</time></trkpt><trkpt lat="43.595042343795605" lon="12.77745829672562"><ele>480.2</ele><time>2026-04-23T15:07:31Z</time></trkpt><trkpt lat="43.594925657691725" lon="12.777528437595276"><ele>479.6</ele><time>2026-04-23T15:07:33Z</time></trkpt><trkpt lat="43.59485603184294" lon="12.777582400068692"><ele>479.0</ele><time>2026-04-23T15:07:34Z</time></trkpt><trkpt lat="43.59477666321239" lon="12.77764391353669"><ele>476.0</ele><time>2026-04-23T15:07:35Z</time></trkpt><trkpt lat="43.59469399495592" lon="12.777711647188797"><ele>473.0</ele><time>2026-04-23T15:07:36Z</time></trkpt><trkpt lat="43.59461351596021" lon="12.777782579428278"><ele>470.0</ele><time>2026-04-23T15:07:37Z</time></trkpt><trkpt lat="43.59453246318716" lon="12.77787897956912"><ele>467.0</ele><time>2026-04-23T15:07:38Z</time></trkpt><trkpt lat="43.594451840202694" lon="12.777945731913544"><ele>464.0</ele><time>2026-04-23T15:07:39Z</time></trkpt><trkpt lat="43.594379894853226" lon="12.77800422225863"><ele>464.0</ele><time>2026-04-23T15:07:40Z</time></trkpt><trkpt lat="43.59431803276046" lon="12.778047226976529"><ele>464.0</ele><time>2026-04-23T15:07:41Z</time></trkpt><trkpt lat="43.594243192452566" lon="12.778065552833933"><ele>464.0</ele><time>2026-04-23T15:07:42Z</time></trkpt><trkpt lat="43.59413326119218" lon="12.778057867126089"><ele>464.0</ele><time>2026-04-23T15:07:43Z</time></trkpt><trkpt lat="43.5940211558266" lon="12.77810855450774"><ele>464.0</ele><time>2026-04-23T15:07:44Z</time></trkpt><trkpt lat="43.593930721623046" lon="12.778129891459281"><ele>463.99999999999994</ele><time>2026-04-23T15:07:45Z</time></trkpt><trkpt lat="43.59385600909015" lon="12.778160889557775"><ele>464.0</ele><time>2026-04-23T15:07:46Z</time></trkpt><trkpt lat="43.593785343388056" lon="12.778168493400084"><ele>464.0</ele><time>2026-04-23T15:07:47Z</time></trkpt><trkpt lat="43.593703233101614" lon="12.778230152947382"><ele>464.0</ele><time>2026-04-23T15:07:49Z</time></trkpt><trkpt lat="43.593703306306864" lon="12.77835442416251"><ele>463.99999999999994</ele><time>2026-04-23T15:07:51Z</time></trkpt><trkpt lat="43.59380881339596" lon="12.77840369063569"><ele>464.0</ele><time>2026-04-23T15:07:53Z</time></trkpt><trkpt lat="43.593944588638976" lon="12.7783896148612"><ele>464.0</ele><time>2026-04-23T15:07:55Z</time></trkpt><trkpt lat="43.59405743222829" lon="12.778377545003327"><ele>464.0</ele><time>2026-04-23T15:07:56Z</time></trkpt><trkpt lat="43.59418515050942" lon="12.778363765701746"><ele>464.0</ele><time>2026-04-23T15:07:57Z</time></trkpt><trkpt lat="43.594303000871435" lon="12.778356568462243"><ele>464.0</ele><time>2026-04-23T15:07:58Z</time></trkpt><trkpt lat="43.59439969832972" lon="12.778373529740957"><ele>463.99999999999994</ele><time>2026-04-23T15:07:59Z</time></trkpt><trkpt lat="43.59447738947501" lon="12.778359912197875"><ele>464.0</ele><time>2026-04-23T15:08:00Z</time></trkpt><trkpt lat="43.5945455379087" lon="12.778370824305549"><ele>464.0</ele><time>2026-04-23T15:08:01Z</time></trkpt><trkpt lat="43.59461897281259" lon="12.778363632887142"><ele>464.0</ele><time>2026-04-23T15:08:02Z</time></trkpt><trkpt lat="43.59469265779608" lon="12.778336864326263"><ele>463.99999999999994</ele><time>2026-04-23T15:08:03Z</time></trkpt><trkpt lat="43.59480591516236" lon="12.778278383355662"><ele>464.0</ele><time>2026-04-23T15:08:04Z</time></trkpt><trkpt lat="43.59489183574009" lon="12.778229452213104"><ele>462.66666666666663</ele><time>2026-04-23T15:08:05Z</time></trkpt><trkpt lat="43.5949580120114" lon="12.778198504495736"><ele>461.3333333333333</ele><time>2026-04-23T15:08:06Z</time></trkpt><trkpt lat="43.595043573303286" lon="12.7782769943538"><ele>460.0</ele><time>2026-04-23T15:08:08Z</time></trkpt><trkpt lat="43.59508590657715" lon="12.778349984209088"><ele>458.66666666666663</ele><time>2026-04-23T15:08:09Z</time></trkpt><trkpt lat="43.59512296144785" lon="12.778436112365073"><ele>457.3333333333333</ele><time>2026-04-23T15:08:10Z</time></trkpt><trkpt lat="43.59517724549613" lon="12.778536141772207"><ele>456.0</ele><time>2026-04-23T15:08:11Z</time></trkpt><trkpt lat="43.59523870229387" lon="12.778612150962378"><ele>455.4</ele><time>2026-04-23T15:08:12Z</time></trkpt><trkpt lat="43.595294483819806" lon="12.778727251273551"><ele>454.8</ele><time>2026-04-23T15:08:14Z</time></trkpt><trkpt lat="43.59534586868869" lon="12.778783425242"><ele>454.19999999999993</ele><time>2026-04-23T15:08:15Z</time></trkpt><trkpt lat="43.59537561779976" lon="12.778873730783285"><ele>453.59999999999997</ele><time>2026-04-23T15:08:16Z</time></trkpt><trkpt lat="43.59542819312867" lon="12.77897610845664"><ele>453.0</ele><time>2026-04-23T15:08:17Z</time></trkpt><trkpt lat="43.59549183476766" lon="12.779120625210103"><ele>453.0</ele><time>2026-04-23T15:08:18Z</time></trkpt><trkpt lat="43.595547932410014" lon="12.779279075335818"><ele>452.99999999999994</ele><time>2026-04-23T15:08:19Z</time></trkpt><trkpt lat="43.59558524739537" lon="12.779426359260714"><ele>452.99999999999994</ele><time>2026-04-23T15:08:20Z</time></trkpt><trkpt lat="43.59560178592317" lon="12.779542013255877"><ele>453.0</ele><time>2026-04-23T15:08:21Z</time></trkpt><trkpt lat="43.59559475014921" lon="12.779648345551568"><ele>453.0</ele><time>2026-04-23T15:08:22Z</time></trkpt><trkpt lat="43.5955606239433" lon="12.779743571265605"><ele>453.79999999999995</ele><time>2026-04-23T15:08:23Z</time></trkpt><trkpt lat="43.595505863428194" lon="12.779851704369149"><ele>454.59999999999997</ele><time>2026-04-23T15:08:24Z</time></trkpt><trkpt lat="43.59546104138216" lon="12.780005784446628"><ele>455.40000000000003</ele><time>2026-04-23T15:08:25Z</time></trkpt><trkpt lat="43.595424940968414" lon="12.780152974862599"><ele>456.20000000000005</ele><time>2026-04-23T15:08:26Z</time></trkpt><trkpt lat="43.59538544567225" lon="12.780262291891336"><ele>457.0</ele><time>2026-04-23T15:08:27Z</time></trkpt><trkpt lat="43.59532529733462" lon="12.780299449740529"><ele>457.0</ele><time>2026-04-23T15:08:28Z</time></trkpt><trkpt lat="43.5952557865734" lon="12.78033981759306"><ele>457.0</ele><time>2026-04-23T15:08:29Z</time></trkpt><trkpt lat="43.59517705386294" lon="12.78043676262251"><ele>457.0</ele><time>2026-04-23T15:08:30Z</time></trkpt><trkpt lat="43.59506964492791" lon="12.780537891073376"><ele>457.0</ele><time>2026-04-23T15:08:31Z</time></trkpt><trkpt lat="43.594955618547935" lon="12.780681482717739"><ele>457.0</ele><time>2026-04-23T15:08:32Z</time></trkpt><trkpt lat="43.59481669614044" lon="12.780815038032488"><ele>457.0</ele><time>2026-04-23T15:08:33Z</time></trkpt><trkpt lat="43.59470398726625" lon="12.780945937615487"><ele>457.0</ele><time>2026-04-23T15:08:34Z</time></trkpt><trkpt lat="43.594637614450974" lon="12.781058235599364"><ele>457.0</ele><time>2026-04-23T15:08:35Z</time></trkpt><trkpt lat="43.5945978987425" lon="12.781148848680461"><ele>456.33333333333337</ele><time>2026-04-23T15:08:36Z</time></trkpt><trkpt lat="43.594601883975294" lon="12.781268783980543"><ele>455.6666666666667</ele><time>2026-04-23T15:08:38Z</time></trkpt><trkpt lat="43.59462328064677" lon="12.781421868000942"><ele>455.0</ele><time>2026-04-23T15:08:40Z</time></trkpt><trkpt lat="43.59467096893968" lon="12.781492958738456"><ele>454.33333333333337</ele><time>2026-04-23T15:08:41Z</time></trkpt><trkpt lat="43.59471857143325" lon="12.781567005787698"><ele>453.6666666666667</ele><time>2026-04-23T15:08:42Z</time></trkpt><trkpt lat="43.59479288598019" lon="12.781639311546215"><ele>453.0</ele><time>2026-04-23T15:08:43Z</time></trkpt><trkpt lat="43.59488127024141" lon="12.781694329907173"><ele>453.0</ele><time>2026-04-23T15:08:44Z</time></trkpt><trkpt lat="43.594980790266916" lon="12.781758286777718"><ele>452.99999999999994</ele><time>2026-04-23T15:08:45Z</time></trkpt><trkpt lat="43.5950748544925" lon="12.781820330003281"><ele>452.99999999999994</ele><time>2026-04-23T15:08:46Z</time></trkpt><trkpt lat="43.59516773810826" lon="12.781853287198254"><ele>453.0</ele><time>2026-04-23T15:08:47Z</time></trkpt><trkpt lat="43.59525891688024" lon="12.781886393356723"><ele>453.0</ele><time>2026-04-23T15:08:48Z</time></trkpt><trkpt lat="43.59535996209919" lon="12.781920936643122"><ele>448.5</ele><time>2026-04-23T15:08:49Z</time></trkpt><trkpt lat="43.59547035849423" lon="12.781976797647436"><ele>444.0</ele><time>2026-04-23T15:08:50Z</time></trkpt><trkpt lat="43.59558087470244" lon="12.78202758394033"><ele>439.5</ele><time>2026-04-23T15:08:51Z</time></trkpt><trkpt lat="43.595684747335945" lon="12.782087524844751"><ele>435.0</ele><time>2026-04-23T15:08:52Z</time></trkpt><trkpt lat="43.59576826816494" lon="12.782193202548266"><ele>435.0</ele><time>2026-04-23T15:08:53Z</time></trkpt><trkpt lat="43.595858194680744" lon="12.782282218457068"><ele>435.0</ele><time>2026-04-23T15:08:54Z</time></trkpt><trkpt lat="43.59595206662765" lon="12.782403405108765"><ele>435.0</ele><time>2026-04-23T15:08:55Z</time></trkpt><trkpt lat="43.59601170768891" lon="12.782548181483406"><ele>435.0</ele><time>2026-04-23T15:08:56Z</time></trkpt><trkpt lat="43.59606785823689" lon="12.78267224645487"><ele>433.5</ele><time>2026-04-23T15:08:57Z</time></trkpt><trkpt lat="43.59611601220419" lon="12.782813019347698"><ele>432.0</ele><time>2026-04-23T15:08:58Z</time></trkpt><trkpt lat="43.59616394715612" lon="12.782973689237485"><ele>430.5</ele><time>2026-04-23T15:08:59Z</time></trkpt><trkpt lat="43.59621792560141" lon="12.783127346101407"><ele>429.0</ele><time>2026-04-23T15:09:00Z</time></trkpt><trkpt lat="43.59628268687414" lon="12.783249291968646"><ele>429.0</ele><time>2026-04-23T15:09:01Z</time></trkpt><trkpt lat="43.59632969795015" lon="12.78331547295309"><ele>429.0</ele><time>2026-04-23T15:09:02Z</time></trkpt><trkpt lat="43.596441850414244" lon="12.783394729765906"><ele>429.0</ele><time>2026-04-23T15:09:04Z</time></trkpt><trkpt lat="43.596531220370295" lon="12.783452706896105"><ele>429.0</ele><time>2026-04-23T15:09:05Z</time></trkpt><trkpt lat="43.59662863321523" lon="12.783495181130831"><ele>429.0</ele><time>2026-04-23T15:09:06Z</time></trkpt><trkpt lat="43.5967335917609" lon="12.783505747456411"><ele>427.5</ele><time>2026-04-23T15:09:07Z</time></trkpt><trkpt lat="43.59685168006206" lon="12.783543884913792"><ele>426.0</ele><time>2026-04-23T15:09:08Z</time></trkpt><trkpt lat="43.59698545929682" lon="12.783602962583544"><ele>424.5</ele><time>2026-04-23T15:09:09Z</time></trkpt><trkpt lat="43.59712290828367" lon="12.783671925225462"><ele>423.0</ele><time>2026-04-23T15:09:10Z</time></trkpt><trkpt lat="43.597240712262725" lon="12.783753854604269"><ele>423.0</ele><time>2026-04-23T15:09:11Z</time></trkpt><trkpt lat="43.59732644025205" lon="12.783874552687783"><ele>423.0</ele><time>2026-04-23T15:09:12Z</time></trkpt><trkpt lat="43.59741103517484" lon="12.783984173925107"><ele>423.0</ele><time>2026-04-23T15:09:13Z</time></trkpt><trkpt lat="43.59750595721538" lon="12.78410602802039"><ele>423.0</ele><time>2026-04-23T15:09:14Z</time></trkpt><trkpt lat="43.597595049212515" lon="12.784219516108317"><ele>423.0</ele><time>2026-04-23T15:09:15Z</time></trkpt><trkpt lat="43.597673315905844" lon="12.78428833439951"><ele>423.0</ele><time>2026-04-23T15:09:16Z</time></trkpt><trkpt lat="43.597710852795544" lon="12.78436703016522"><ele>423.0</ele><time>2026-04-23T15:09:17Z</time></trkpt><trkpt lat="43.59779047452733" lon="12.784465670392985"><ele>423.0</ele><time>2026-04-23T15:09:19Z</time></trkpt><trkpt lat="43.597861185485854" lon="12.784521596254026"><ele>423.0</ele><time>2026-04-23T15:09:20Z</time></trkpt><trkpt lat="43.59793884523305" lon="12.784617236093021"><ele>425.2</ele><time>2026-04-23T15:09:21Z</time></trkpt><trkpt lat="43.59802193299726" lon="12.784725011845845"><ele>427.4</ele><time>2026-04-23T15:09:22Z</time></trkpt><trkpt lat="43.59809448783721" lon="12.784853245413156"><ele>429.59999999999997</ele><time>2026-04-23T15:09:23Z</time></trkpt><trkpt lat="43.59813642679053" lon="12.784946052567424"><ele>431.79999999999995</ele><time>2026-04-23T15:09:24Z</time></trkpt><trkpt lat="43.59814957299969" lon="12.78503784846336"><ele>434.0</ele><time>2026-04-23T15:09:25Z</time></trkpt><trkpt lat="43.598091257178616" lon="12.785135517360601"><ele>432.75</ele><time>2026-04-23T15:09:26Z</time></trkpt><trkpt lat="43.598018102713624" lon="12.785260865482718"><ele>431.5</ele><time>2026-04-23T15:09:27Z</time></trkpt><trkpt lat="43.59796097646747" lon="12.785482648276075"><ele>430.25</ele><time>2026-04-23T15:09:28Z</time></trkpt><trkpt lat="43.597918248382726" lon="12.785684540493484"><ele>429.0</ele><time>2026-04-23T15:09:29Z</time></trkpt><trkpt lat="43.5978713519191" lon="12.785829506189536"><ele>423.5</ele><time>2026-04-23T15:09:30Z</time></trkpt><trkpt lat="43.59779746690507" lon="12.785940004538473"><ele>418.0</ele><time>2026-04-23T15:09:31Z</time></trkpt><trkpt lat="43.59770251701835" lon="12.786073914696658"><ele>412.5</ele><time>2026-04-23T15:09:32Z</time></trkpt><trkpt lat="43.597592668680036" lon="12.786218457920786"><ele>407.0</ele><time>2026-04-23T15:09:33Z</time></trkpt><trkpt lat="43.59748805191628" lon="12.786352812434679"><ele>405.6</ele><time>2026-04-23T15:09:34Z</time></trkpt><trkpt lat="43.59739220067381" lon="12.786473100954918"><ele>404.20000000000005</ele><time>2026-04-23T15:09:35Z</time></trkpt><trkpt lat="43.59730970513785" lon="12.786576628790153"><ele>402.8</ele><time>2026-04-23T15:09:36Z</time></trkpt><trkpt lat="43.59723920915616" lon="12.786659253732886"><ele>401.4</ele><time>2026-04-23T15:09:37Z</time></trkpt><trkpt lat="43.59718732582691" lon="12.786718707648694"><ele>400.0</ele><time>2026-04-23T15:09:38Z</time></trkpt><trkpt lat="43.59713736223934" lon="12.78677576460382"><ele>400.0</ele><time>2026-04-23T15:09:41Z</time></trkpt><trkpt lat="43.5972940700141" lon="12.786881170830021"><ele>400.0</ele><time>2026-04-23T15:09:46Z</time></trkpt><trkpt lat="43.59736110392163" lon="12.786856613322326"><ele>400.0</ele><time>2026-04-23T15:09:47Z</time></trkpt><trkpt lat="43.597442313304576" lon="12.786826613669989"><ele>400.0</ele><time>2026-04-23T15:09:48Z</time></trkpt><trkpt lat="43.59753148793555" lon="12.78679396787174"><ele>400.0</ele><time>2026-04-23T15:09:49Z</time></trkpt><trkpt lat="43.597638216418524" lon="12.786764608178768"><ele>400.0</ele><time>2026-04-23T15:09:50Z</time></trkpt><trkpt lat="43.59774903949128" lon="12.786749153980619"><ele>400.0</ele><time>2026-04-23T15:09:51Z</time></trkpt><trkpt lat="43.59788196746054" lon="12.786747232977241"><ele>400.0</ele><time>2026-04-23T15:09:52Z</time></trkpt><trkpt lat="43.59801984028637" lon="12.786764416716894"><ele>400.0</ele><time>2026-04-23T15:09:53Z</time></trkpt><trkpt lat="43.59813473412743" lon="12.78678657516186"><ele>401.00000000000006</ele><time>2026-04-23T15:09:54Z</time></trkpt><trkpt lat="43.598223280719225" lon="12.786806277288086"><ele>402.0</ele><time>2026-04-23T15:09:55Z</time></trkpt><trkpt lat="43.59829056684152" lon="12.786848569945981"><ele>403.0</ele><time>2026-04-23T15:09:56Z</time></trkpt><trkpt lat="43.59835252736689" lon="12.786928290224468"><ele>404.0</ele><time>2026-04-23T15:09:57Z</time></trkpt><trkpt lat="43.59840646758945" lon="12.787019642834693"><ele>405.00000000000006</ele><time>2026-04-23T15:09:58Z</time></trkpt><trkpt lat="43.598476671905445" lon="12.787068819736415"><ele>406.0</ele><time>2026-04-23T15:09:59Z</time></trkpt><trkpt lat="43.59856326710533" lon="12.787065870949316"><ele>400.0</ele><time>2026-04-23T15:10:00Z</time></trkpt><trkpt lat="43.598657177120856" lon="12.787039424572795"><ele>394.0</ele><time>2026-04-23T15:10:01Z</time></trkpt><trkpt lat="43.598771790299814" lon="12.786989117388831"><ele>388.0</ele><time>2026-04-23T15:10:02Z</time></trkpt><trkpt lat="43.59889687773527" lon="12.786942214133191"><ele>382.0</ele><time>2026-04-23T15:10:03Z</time></trkpt><trkpt lat="43.59901850831526" lon="12.786896009583236"><ele>382.0</ele><time>2026-04-23T15:10:04Z</time></trkpt><trkpt lat="43.599136632120484" lon="12.786855939285655"><ele>382.0</ele><time>2026-04-23T15:10:05Z</time></trkpt><trkpt lat="43.5992459820723" lon="12.786825179798694"><ele>382.0</ele><time>2026-04-23T15:10:06Z</time></trkpt><trkpt lat="43.59934022033052" lon="12.786797527104124"><ele>382.0</ele><time>2026-04-23T15:10:07Z</time></trkpt><trkpt lat="43.599425664707866" lon="12.786733359694958"><ele>382.0</ele><time>2026-04-23T15:10:08Z</time></trkpt><trkpt lat="43.599522902972616" lon="12.786680579324715"><ele>385.16666666666663</ele><time>2026-04-23T15:10:09Z</time></trkpt><trkpt lat="43.599622855670894" lon="12.786661932635754"><ele>388.3333333333333</ele><time>2026-04-23T15:10:10Z</time></trkpt><trkpt lat="43.59970982063737" lon="12.786652770854275"><ele>391.5</ele><time>2026-04-23T15:10:11Z</time></trkpt><trkpt lat="43.599787302073054" lon="12.78666332319336"><ele>394.66666666666663</ele><time>2026-04-23T15:10:12Z</time></trkpt><trkpt lat="43.59986531130885" lon="12.786686506418784"><ele>397.8333333333333</ele><time>2026-04-23T15:10:13Z</time></trkpt><trkpt lat="43.59992995032283" lon="12.78668547565613"><ele>401.0</ele><time>2026-04-23T15:10:14Z</time></trkpt><trkpt lat="43.600018680303506" lon="12.786666133532252"><ele>400.99999999999994</ele><time>2026-04-23T15:10:15Z</time></trkpt><trkpt lat="43.600111804240846" lon="12.786630854015424"><ele>401.0</ele><time>2026-04-23T15:10:16Z</time></trkpt><trkpt lat="43.60018084402493" lon="12.786589737230367"><ele>401.0</ele><time>2026-04-23T15:10:17Z</time></trkpt><trkpt lat="43.600241283459404" lon="12.786565363731418"><ele>401.0</ele><time>2026-04-23T15:10:18Z</time></trkpt><trkpt lat="43.600301287402026" lon="12.786611449662526"><ele>400.99999999999994</ele><time>2026-04-23T15:10:20Z</time></trkpt><trkpt lat="43.60033232043094" lon="12.786723521256716"><ele>401.0</ele><time>2026-04-23T15:10:22Z</time></trkpt><trkpt lat="43.60037007702998" lon="12.7868072243432"><ele>400.8</ele><time>2026-04-23T15:10:24Z</time></trkpt><trkpt lat="43.60037906712029" lon="12.786904608868726"><ele>400.6</ele><time>2026-04-23T15:10:26Z</time></trkpt><trkpt lat="43.60032666902268" lon="12.787051304925432"><ele>400.4</ele><time>2026-04-23T15:10:28Z</time></trkpt><trkpt lat="43.60026784129472" lon="12.787110020028896"><ele>400.2</ele><time>2026-04-23T15:10:29Z</time></trkpt><trkpt lat="43.600141987923664" lon="12.787194683785478"><ele>400.0</ele><time>2026-04-23T15:10:31Z</time></trkpt><trkpt lat="43.600061720401825" lon="12.787242234653784"><ele>400.0</ele><time>2026-04-23T15:10:32Z</time></trkpt><trkpt lat="43.59998250202346" lon="12.78731043871829"><ele>400.0</ele><time>2026-04-23T15:10:33Z</time></trkpt><trkpt lat="43.59989780539037" lon="12.787377936458615"><ele>400.0</ele><time>2026-04-23T15:10:34Z</time></trkpt><trkpt lat="43.599815131410075" lon="12.787435463751818"><ele>400.0</ele><time>2026-04-23T15:10:35Z</time></trkpt><trkpt lat="43.59973167198434" lon="12.787499825741373"><ele>400.0</ele><time>2026-04-23T15:10:36Z</time></trkpt><trkpt lat="43.599659885915095" lon="12.787585792267294"><ele>400.2</ele><time>2026-04-23T15:10:37Z</time></trkpt><trkpt lat="43.59960443876002" lon="12.787685930319881"><ele>400.4</ele><time>2026-04-23T15:10:38Z</time></trkpt><trkpt lat="43.59955133585089" lon="12.787794996260834"><ele>400.6</ele><time>2026-04-23T15:10:39Z</time></trkpt><trkpt lat="43.59950405228563" lon="12.78790465606899"><ele>400.8</ele><time>2026-04-23T15:10:40Z</time></trkpt><trkpt lat="43.59945781157254" lon="12.78801782547748"><ele>401.0</ele><time>2026-04-23T15:10:41Z</time></trkpt><trkpt lat="43.59939906374589" lon="12.788129594318118"><ele>400.99999999999994</ele><time>2026-04-23T15:10:42Z</time></trkpt><trkpt lat="43.59933647115407" lon="12.788198436847493"><ele>401.0</ele><time>2026-04-23T15:10:43Z</time></trkpt><trkpt lat="43.59926951141879" lon="12.788219657487264"><ele>401.0</ele><time>2026-04-23T15:10:44Z</time></trkpt><trkpt lat="43.59918923657229" lon="12.788240254234163"><ele>401.0</ele><time>2026-04-23T15:10:45Z</time></trkpt><trkpt lat="43.599100495593405" lon="12.788274866282"><ele>400.99999999999994</ele><time>2026-04-23T15:10:46Z</time></trkpt><trkpt lat="43.599018716958916" lon="12.78834009621707"><ele>401.0</ele><time>2026-04-23T15:10:47Z</time></trkpt><trkpt lat="43.59894460275652" lon="12.788446255675385"><ele>400.8</ele><time>2026-04-23T15:10:48Z</time></trkpt><trkpt lat="43.598879751398314" lon="12.788559871195794"><ele>400.6</ele><time>2026-04-23T15:10:49Z</time></trkpt><trkpt lat="43.598811799235754" lon="12.788685186151415"><ele>400.4</ele><time>2026-04-23T15:10:50Z</time></trkpt><trkpt lat="43.598750235828334" lon="12.78881017516877"><ele>400.2</ele><time>2026-04-23T15:10:51Z</time></trkpt><trkpt lat="43.598699910016244" lon="12.78892176493715"><ele>400.0</ele><time>2026-04-23T15:10:52Z</time></trkpt><trkpt lat="43.59865242732162" lon="12.789036511456255"><ele>400.00000000000006</ele><time>2026-04-23T15:10:53Z</time></trkpt><trkpt lat="43.59861403259794" lon="12.78915174862555"><ele>400.0</ele><time>2026-04-23T15:10:54Z</time></trkpt><trkpt lat="43.598588633677004" lon="12.789255865236191"><ele>400.0</ele><time>2026-04-23T15:10:55Z</time></trkpt><trkpt lat="43.598561536107155" lon="12.78936285609466"><ele>400.0</ele><time>2026-04-23T15:10:56Z</time></trkpt><trkpt lat="43.59853861313869" lon="12.789474885456602"><ele>400.00000000000006</ele><time>2026-04-23T15:10:57Z</time></trkpt><trkpt lat="43.59850742411323" lon="12.789599797698694"><ele>400.0</ele><time>2026-04-23T15:10:58Z</time></trkpt><trkpt lat="43.59846955006416" lon="12.789720258318637"><ele>402.6666666666667</ele><time>2026-04-23T15:10:59Z</time></trkpt><trkpt lat="43.59841550114187" lon="12.789834419902197"><ele>405.33333333333337</ele><time>2026-04-23T15:11:00Z</time></trkpt><trkpt lat="43.59837019775985" lon="12.789934513424017"><ele>408.0</ele><time>2026-04-23T15:11:01Z</time></trkpt><trkpt lat="43.598347095211246" lon="12.790026065565142"><ele>410.66666666666663</ele><time>2026-04-23T15:11:02Z</time></trkpt><trkpt lat="43.59836831069807" lon="12.790125964415209"><ele>413.3333333333333</ele><time>2026-04-23T15:11:04Z</time></trkpt><trkpt lat="43.59844548759676" lon="12.790136792738647"><ele>416.0</ele><time>2026-04-23T15:11:12Z</time></trkpt><trkpt lat="43.59851484801705" lon="12.790082075637532"><ele>415.99999999999994</ele><time>2026-04-23T15:11:14Z</time></trkpt><trkpt lat="43.59853349128665" lon="12.789987066583722"><ele>416.0</ele><time>2026-04-23T15:11:16Z</time></trkpt><trkpt lat="43.598496527457336" lon="12.790081150413569"><ele>416.0</ele><time>2026-04-23T15:12:19Z</time></trkpt><trkpt lat="43.598429627520716" lon="12.790119227588253"><ele>416.0</ele><time>2026-04-23T15:12:21Z</time></trkpt><trkpt lat="43.59841586656323" lon="12.790206674566063"><ele>415.99999999999994</ele><time>2026-04-23T15:12:24Z</time></trkpt><trkpt lat="43.59848175556243" lon="12.790289966579339"><ele>416.0</ele><time>2026-04-23T15:12:26Z</time></trkpt><trkpt lat="43.59850715009523" lon="12.790436017671373"><ele>417.8333333333333</ele><time>2026-04-23T15:12:28Z</time></trkpt><trkpt lat="43.5984801898602" lon="12.79056666396672"><ele>419.66666666666663</ele><time>2026-04-23T15:12:29Z</time></trkpt><trkpt lat="43.59845399529723" lon="12.790665335353495"><ele>421.5</ele><time>2026-04-23T15:12:30Z</time></trkpt><trkpt lat="43.59842470372272" lon="12.790750761572859"><ele>423.33333333333337</ele><time>2026-04-23T15:12:31Z</time></trkpt><trkpt lat="43.598384784168026" lon="12.7908295473679"><ele>425.1666666666667</ele><time>2026-04-23T15:12:32Z</time></trkpt><trkpt lat="43.598377726727165" lon="12.790932546966914"><ele>427.0</ele><time>2026-04-23T15:12:34Z</time></trkpt><trkpt lat="43.598374094238885" lon="12.791091932289188"><ele>427.20000000000005</ele><time>2026-04-23T15:12:36Z</time></trkpt><trkpt lat="43.59837840259979" lon="12.791235500178036"><ele>427.40000000000003</ele><time>2026-04-23T15:12:38Z</time></trkpt><trkpt lat="43.598381917309354" lon="12.791382788593562"><ele>427.59999999999997</ele><time>2026-04-23T15:12:40Z</time></trkpt><trkpt lat="43.59838658498895" lon="12.791494802674697"><ele>427.79999999999995</ele><time>2026-04-23T15:12:42Z</time></trkpt><trkpt lat="43.59841753724967" lon="12.79157429753842"><ele>428.0</ele><time>2026-04-23T15:12:45Z</time></trkpt><trkpt lat="43.59849920287491" lon="12.791483877809608"><ele>427.99999999999994</ele><time>2026-04-23T15:12:48Z</time></trkpt><trkpt lat="43.5984993136381" lon="12.791340758466609"><ele>428.0</ele><time>2026-04-23T15:12:50Z</time></trkpt><trkpt lat="43.598453129399395" lon="12.791260939324264"><ele>428.0</ele><time>2026-04-23T15:12:52Z</time></trkpt><trkpt lat="43.598411903450106" lon="12.791184000605174"><ele>428.0</ele><time>2026-04-23T15:12:54Z</time></trkpt><trkpt lat="43.5983870456276" lon="12.791090176891295"><ele>427.99999999999994</ele><time>2026-04-23T15:12:56Z</time></trkpt><trkpt lat="43.59838091131537" lon="12.790958775834177"><ele>428.0</ele><time>2026-04-23T15:12:58Z</time></trkpt><trkpt lat="43.59838574134802" lon="12.790813161034114"><ele>427.79999999999995</ele><time>2026-04-23T15:13:00Z</time></trkpt><trkpt lat="43.5984154541816" lon="12.79068730650996"><ele>427.59999999999997</ele><time>2026-04-23T15:13:02Z</time></trkpt><trkpt lat="43.5984633101865" lon="12.790526505306238"><ele>427.40000000000003</ele><time>2026-04-23T15:13:04Z</time></trkpt><trkpt lat="43.59851065134454" lon="12.790372686558207"><ele>427.20000000000005</ele><time>2026-04-23T15:13:06Z</time></trkpt><trkpt lat="43.598458311815364" lon="12.790260337717088"><ele>427.0</ele><time>2026-04-23T15:13:08Z</time></trkpt><trkpt lat="43.598381195386324" lon="12.790203562309692"><ele>425.1666666666667</ele><time>2026-04-23T15:13:10Z</time></trkpt><trkpt lat="43.598445391050966" lon="12.79011176041803"><ele>423.33333333333337</ele><time>2026-04-23T15:13:13Z</time></trkpt><trkpt lat="43.598499202473704" lon="12.790063548756267"><ele>421.5</ele><time>2026-04-23T15:13:14Z</time></trkpt><trkpt lat="43.598544864210695" lon="12.78999723287421"><ele>419.66666666666663</ele><time>2026-04-23T15:13:15Z</time></trkpt><trkpt lat="43.59857950852857" lon="12.789898444715842"><ele>417.8333333333333</ele><time>2026-04-23T15:13:16Z</time></trkpt><trkpt lat="43.59860869610826" lon="12.789761094976019"><ele>416.0</ele><time>2026-04-23T15:13:17Z</time></trkpt><trkpt lat="43.59866056662066" lon="12.789624963329096"><ele>417.49999999999994</ele><time>2026-04-23T15:13:18Z</time></trkpt><trkpt lat="43.59872413685076" lon="12.789512219261686"><ele>419.0</ele><time>2026-04-23T15:13:19Z</time></trkpt><trkpt lat="43.59877698069465" lon="12.789435338349513"><ele>420.5</ele><time>2026-04-23T15:13:20Z</time></trkpt><trkpt lat="43.59881940143065" lon="12.789369161563242"><ele>422.0</ele><time>2026-04-23T15:13:21Z</time></trkpt><trkpt lat="43.598866180416145" lon="12.789282774296453"><ele>423.49999999999994</ele><time>2026-04-23T15:13:22Z</time></trkpt><trkpt lat="43.59891625287338" lon="12.78921872967801"><ele>425.0</ele><time>2026-04-23T15:13:23Z</time></trkpt><trkpt lat="43.599014062581944" lon="12.789142654886582"><ele>424.99999999999994</ele><time>2026-04-23T15:13:26Z</time></trkpt><trkpt lat="43.59905619529384" lon="12.789061009689995"><ele>425.0</ele><time>2026-04-23T15:13:27Z</time></trkpt><trkpt lat="43.59911727004308" lon="12.788999978564753"><ele>425.0</ele><time>2026-04-23T15:13:28Z</time></trkpt><trkpt lat="43.59917365224206" lon="12.788948193808116"><ele>425.0</ele><time>2026-04-23T15:13:29Z</time></trkpt><trkpt lat="43.59927533229139" lon="12.788886708694092"><ele>424.99999999999994</ele><time>2026-04-23T15:13:31Z</time></trkpt><trkpt lat="43.59933507026898" lon="12.788855434894941"><ele>425.0</ele><time>2026-04-23T15:13:32Z</time></trkpt><trkpt lat="43.59939777947213" lon="12.788833592284492"><ele>425.0</ele><time>2026-04-23T15:13:33Z</time></trkpt><trkpt lat="43.599467521284936" lon="12.78884183161884"><ele>425.0</ele><time>2026-04-23T15:13:34Z</time></trkpt><trkpt lat="43.599593757624284" lon="12.788908889825265"><ele>425.0</ele><time>2026-04-23T15:13:36Z</time></trkpt><trkpt lat="43.59967268238229" lon="12.788956972631407"><ele>425.0</ele><time>2026-04-23T15:13:37Z</time></trkpt><trkpt lat="43.59977182765089" lon="12.788999801125449"><ele>425.0</ele><time>2026-04-23T15:13:38Z</time></trkpt><trkpt lat="43.5998609286401" lon="12.78901962778167"><ele>425.49999999999994</ele><time>2026-04-23T15:13:39Z</time></trkpt><trkpt lat="43.599927271687214" lon="12.78903623426272"><ele>426.0</ele><time>2026-04-23T15:13:40Z</time></trkpt><trkpt lat="43.599982861172265" lon="12.788962585237574"><ele>426.5</ele><time>2026-04-23T15:13:42Z</time></trkpt><trkpt lat="43.59997935945576" lon="12.788850483794073"><ele>427.0</ele><time>2026-04-23T15:13:43Z</time></trkpt><trkpt lat="43.59998783994835" lon="12.788759917533547"><ele>427.49999999999994</ele><time>2026-04-23T15:13:44Z</time></trkpt><trkpt lat="43.60003069987145" lon="12.78858259553128"><ele>428.0</ele><time>2026-04-23T15:13:46Z</time></trkpt><trkpt lat="43.6000673034567" lon="12.788478072795671"><ele>427.99999999999994</ele><time>2026-04-23T15:13:47Z</time></trkpt><trkpt lat="43.60012347116071" lon="12.788379783435833"><ele>428.0</ele><time>2026-04-23T15:13:48Z</time></trkpt><trkpt lat="43.60018625935541" lon="12.788287895984809"><ele>428.0</ele><time>2026-04-23T15:13:49Z</time></trkpt><trkpt lat="43.600257790665125" lon="12.788222768599152"><ele>428.0</ele><time>2026-04-23T15:13:50Z</time></trkpt><trkpt lat="43.600328991511574" lon="12.788171157464614"><ele>427.99999999999994</ele><time>2026-04-23T15:13:51Z</time></trkpt><trkpt lat="43.60041933529558" lon="12.788121726104773"><ele>428.0</ele><time>2026-04-23T15:13:52Z</time></trkpt><trkpt lat="43.60051613511595" lon="12.788065564167969"><ele>432.16666666666663</ele><time>2026-04-23T15:13:53Z</time></trkpt><trkpt lat="43.600598031397276" lon="12.788024808862275"><ele>436.3333333333333</ele><time>2026-04-23T15:13:54Z</time></trkpt><trkpt lat="43.600676297673765" lon="12.788002950956171"><ele>440.5</ele><time>2026-04-23T15:13:55Z</time></trkpt><trkpt lat="43.60075990671158" lon="12.787995873245626"><ele>444.66666666666663</ele><time>2026-04-23T15:13:56Z</time></trkpt><trkpt lat="43.60084535444194" lon="12.787989340280435"><ele>448.8333333333333</ele><time>2026-04-23T15:13:57Z</time></trkpt><trkpt lat="43.600928021328045" lon="12.787997209740746"><ele>453.0</ele><time>2026-04-23T15:13:58Z</time></trkpt><trkpt lat="43.601013837744674" lon="12.788035234920084"><ele>453.0</ele><time>2026-04-23T15:13:59Z</time></trkpt><trkpt lat="43.60110421534373" lon="12.788067037344028"><ele>452.99999999999994</ele><time>2026-04-23T15:14:00Z</time></trkpt><trkpt lat="43.601193437935756" lon="12.788091442492766"><ele>452.99999999999994</ele><time>2026-04-23T15:14:01Z</time></trkpt><trkpt lat="43.60128031599084" lon="12.78803964955995"><ele>453.0</ele><time>2026-04-23T15:14:03Z</time></trkpt><trkpt lat="43.601296984968464" lon="12.787887649431186"><ele>453.0</ele><time>2026-04-23T15:14:05Z</time></trkpt><trkpt lat="43.60127831521432" lon="12.787799486231945"><ele>455.42857142857133</ele><time>2026-04-23T15:14:06Z</time></trkpt><trkpt lat="43.60125369171044" lon="12.787693412890903"><ele>457.85714285714283</ele><time>2026-04-23T15:14:07Z</time></trkpt><trkpt lat="43.60124735824501" lon="12.787587259274959"><ele>460.2857142857142</ele><time>2026-04-23T15:14:08Z</time></trkpt><trkpt lat="43.601262891695534" lon="12.7875000680346"><ele>462.71428571428567</ele><time>2026-04-23T15:14:09Z</time></trkpt><trkpt lat="43.601290960761844" lon="12.787418260795494"><ele>465.1428571428571</ele><time>2026-04-23T15:14:10Z</time></trkpt><trkpt lat="43.601324655904655" lon="12.787320539081675"><ele>467.57142857142856</ele><time>2026-04-23T15:14:11Z</time></trkpt><trkpt lat="43.60135943178432" lon="12.787234575036717"><ele>470.0</ele><time>2026-04-23T15:14:12Z</time></trkpt><trkpt lat="43.601384371617385" lon="12.787140116599357"><ele>470.0</ele><time>2026-04-23T15:14:13Z</time></trkpt><trkpt lat="43.601440663195135" lon="12.787029915336522"><ele>470.0</ele><time>2026-04-23T15:14:15Z</time></trkpt><trkpt lat="43.60150975467207" lon="12.787042952907347"><ele>470.0</ele><time>2026-04-23T15:14:17Z</time></trkpt><trkpt lat="43.601523070895325" lon="12.787148939489345"><ele>470.0</ele><time>2026-04-23T15:14:19Z</time></trkpt><trkpt lat="43.601460026644794" lon="12.787316092535054"><ele>470.0</ele><time>2026-04-23T15:14:21Z</time></trkpt><trkpt lat="43.60141886840147" lon="12.78740587226153"><ele>470.0</ele><time>2026-04-23T15:14:22Z</time></trkpt><trkpt lat="43.601391062925764" lon="12.787497653817026"><ele>469.99999999999994</ele><time>2026-04-23T15:14:23Z</time></trkpt><trkpt lat="43.60139008022584" lon="12.78759350856852"><ele>470.0</ele><time>2026-04-23T15:14:24Z</time></trkpt><trkpt lat="43.60140086793661" lon="12.787679612690953"><ele>470.0</ele><time>2026-04-23T15:14:25Z</time></trkpt><trkpt lat="43.60142484735654" lon="12.787775542821993"><ele>469.99999999999994</ele><time>2026-04-23T15:14:26Z</time></trkpt><trkpt lat="43.60146489951478" lon="12.787873846931333"><ele>470.0</ele><time>2026-04-23T15:14:27Z</time></trkpt><trkpt lat="43.60152024061785" lon="12.787958048503699"><ele>470.0</ele><time>2026-04-23T15:14:28Z</time></trkpt><trkpt lat="43.601578735234526" lon="12.788047987581855"><ele>470.8333333333333</ele><time>2026-04-23T15:14:29Z</time></trkpt><trkpt lat="43.601632470458625" lon="12.7881400042414"><ele>471.66666666666663</ele><time>2026-04-23T15:14:30Z</time></trkpt><trkpt lat="43.60167011591075" lon="12.788212083352262"><ele>472.5</ele><time>2026-04-23T15:14:31Z</time></trkpt><trkpt lat="43.60169538277994" lon="12.788317886556943"><ele>473.33333333333337</ele><time>2026-04-23T15:14:33Z</time></trkpt><trkpt lat="43.60161985386921" lon="12.788397516375408"><ele>474.1666666666667</ele><time>2026-04-23T15:14:36Z</time></trkpt><trkpt lat="43.60152605928744" lon="12.788425487940911"><ele>475.0</ele><time>2026-04-23T15:14:38Z</time></trkpt><trkpt lat="43.60140667905852" lon="12.788394811876225"><ele>475.0</ele><time>2026-04-23T15:14:40Z</time></trkpt><trkpt lat="43.60132343075852" lon="12.788402997999507"><ele>475.0</ele><time>2026-04-23T15:14:41Z</time></trkpt><trkpt lat="43.601239847429554" lon="12.788432296146215"><ele>475.0</ele><time>2026-04-23T15:14:42Z</time></trkpt><trkpt lat="43.60115202433516" lon="12.788481768992465"><ele>475.0</ele><time>2026-04-23T15:14:43Z</time></trkpt><trkpt lat="43.60106579142805" lon="12.788543389620688"><ele>475.0</ele><time>2026-04-23T15:14:44Z</time></trkpt><trkpt lat="43.600994249306815" lon="12.788622037841252"><ele>474.6666666666667</ele><time>2026-04-23T15:14:45Z</time></trkpt><trkpt lat="43.60092562154805" lon="12.788722012074912"><ele>474.33333333333337</ele><time>2026-04-23T15:14:46Z</time></trkpt><trkpt lat="43.60086440808222" lon="12.78882492975456"><ele>474.0</ele><time>2026-04-23T15:14:47Z</time></trkpt><trkpt lat="43.6008170605433" lon="12.788920690926409"><ele>473.66666666666663</ele><time>2026-04-23T15:14:48Z</time></trkpt><trkpt lat="43.600788361635665" lon="12.788998512048208"><ele>473.3333333333333</ele><time>2026-04-23T15:14:49Z</time></trkpt><trkpt lat="43.600773701232555" lon="12.789088703035299"><ele>473.0</ele><time>2026-04-23T15:14:50Z</time></trkpt><trkpt lat="43.600769680639914" lon="12.7892042459117"><ele>472.99999999999994</ele><time>2026-04-23T15:14:51Z</time></trkpt><trkpt lat="43.60075810515668" lon="12.78933071603696"><ele>473.0</ele><time>2026-04-23T15:14:52Z</time></trkpt><trkpt lat="43.60074982292661" lon="12.789462811734824"><ele>473.0</ele><time>2026-04-23T15:14:53Z</time></trkpt><trkpt lat="43.60075830489867" lon="12.789561078594062"><ele>473.0</ele><time>2026-04-23T15:14:54Z</time></trkpt><trkpt lat="43.60077780209637" lon="12.7896673302321"><ele>472.99999999999994</ele><time>2026-04-23T15:14:55Z</time></trkpt><trkpt lat="43.60081894281505" lon="12.789779253805062"><ele>473.0</ele><time>2026-04-23T15:14:56Z</time></trkpt><trkpt lat="43.600852686852434" lon="12.78990207739384"><ele>474.99999999999994</ele><time>2026-04-23T15:14:57Z</time></trkpt><trkpt lat="43.60084614686776" lon="12.790030349537737"><ele>477.0</ele><time>2026-04-23T15:14:59Z</time></trkpt><trkpt lat="43.6007627496757" lon="12.790084552457499"><ele>479.0</ele><time>2026-04-23T15:15:01Z</time></trkpt><trkpt lat="43.6006992132722" lon="12.790100492945449"><ele>481.0</ele><time>2026-04-23T15:15:02Z</time></trkpt><trkpt lat="43.60060171360836" lon="12.790110752813122"><ele>482.99999999999994</ele><time>2026-04-23T15:15:03Z</time></trkpt><trkpt lat="43.60051556993939" lon="12.790146651332343"><ele>485.0</ele><time>2026-04-23T15:15:04Z</time></trkpt><trkpt lat="43.6004309848613" lon="12.790225722789657"><ele>483.6</ele><time>2026-04-23T15:15:05Z</time></trkpt><trkpt lat="43.60036751369275" lon="12.790311776254553"><ele>482.2</ele><time>2026-04-23T15:15:06Z</time></trkpt><trkpt lat="43.60032032952542" lon="12.790399575660325"><ele>480.79999999999995</ele><time>2026-04-23T15:15:07Z</time></trkpt><trkpt lat="43.60027758062677" lon="12.790516927788227"><ele>479.4</ele><time>2026-04-23T15:15:08Z</time></trkpt><trkpt lat="43.600224173175434" lon="12.79067181298865"><ele>478.0</ele><time>2026-04-23T15:15:09Z</time></trkpt><trkpt lat="43.600175436638956" lon="12.790818871783188"><ele>478.00000000000006</ele><time>2026-04-23T15:15:10Z</time></trkpt><trkpt lat="43.600153988253915" lon="12.790941640954841"><ele>478.0</ele><time>2026-04-23T15:15:11Z</time></trkpt><trkpt lat="43.6001514736626" lon="12.79105295576462"><ele>478.0</ele><time>2026-04-23T15:15:12Z</time></trkpt><trkpt lat="43.60014827145681" lon="12.791175195018848"><ele>478.0</ele><time>2026-04-23T15:15:13Z</time></trkpt><trkpt lat="43.600157003055806" lon="12.791290185230082"><ele>478.00000000000006</ele><time>2026-04-23T15:15:14Z</time></trkpt><trkpt lat="43.60019122104175" lon="12.791367430014283"><ele>478.0</ele><time>2026-04-23T15:15:15Z</time></trkpt><trkpt lat="43.600241331191846" lon="12.791422214713862"><ele>476.50000000000006</ele><time>2026-04-23T15:15:16Z</time></trkpt><trkpt lat="43.6001829846479" lon="12.791347187056921"><ele>475.0</ele><time>2026-04-23T15:15:32Z</time></trkpt><trkpt lat="43.6001758870924" lon="12.791246326774006"><ele>473.5</ele><time>2026-04-23T15:15:36Z</time></trkpt><trkpt lat="43.60022181809181" lon="12.791332053554422"><ele>472.0</ele><time>2026-04-23T15:15:53Z</time></trkpt><trkpt lat="43.6002584258998" lon="12.791413601669756"><ele>470.50000000000006</ele><time>2026-04-23T15:15:55Z</time></trkpt><trkpt lat="43.6003367059706" lon="12.791469949358213"><ele>469.0</ele><time>2026-04-23T15:15:57Z</time></trkpt><trkpt lat="43.60043772796069" lon="12.791541367253746"><ele>472.00000000000006</ele><time>2026-04-23T15:15:59Z</time></trkpt><trkpt lat="43.600506937504086" lon="12.791583812949005"><ele>475.0</ele><time>2026-04-23T15:16:00Z</time></trkpt><trkpt lat="43.600578349113036" lon="12.791624310725656"><ele>478.0</ele><time>2026-04-23T15:16:01Z</time></trkpt><trkpt lat="43.60065278973662" lon="12.791647495171537"><ele>481.0</ele><time>2026-04-23T15:16:02Z</time></trkpt><trkpt lat="43.600720855835775" lon="12.791666079464042"><ele>484.00000000000006</ele><time>2026-04-23T15:16:03Z</time></trkpt><trkpt lat="43.60079128117818" lon="12.791689797732777"><ele>487.0</ele><time>2026-04-23T15:16:04Z</time></trkpt><trkpt lat="43.60087174172998" lon="12.791722034870054"><ele>487.00000000000006</ele><time>2026-04-23T15:16:05Z</time></trkpt><trkpt lat="43.600964140950545" lon="12.791756627020206"><ele>487.0</ele><time>2026-04-23T15:16:06Z</time></trkpt><trkpt lat="43.60105979674977" lon="12.791788877474282"><ele>487.0</ele><time>2026-04-23T15:16:07Z</time></trkpt><trkpt lat="43.601130114558686" lon="12.791819352849819"><ele>487.0</ele><time>2026-04-23T15:16:08Z</time></trkpt><trkpt lat="43.601197470217784" lon="12.791870640796214"><ele>487.00000000000006</ele><time>2026-04-23T15:16:09Z</time></trkpt><trkpt lat="43.60128023742999" lon="12.79193530299035"><ele>487.0</ele><time>2026-04-23T15:16:10Z</time></trkpt><trkpt lat="43.60138487827468" lon="12.791998555404478"><ele>484.40000000000003</ele><time>2026-04-23T15:16:11Z</time></trkpt><trkpt lat="43.601504847579484" lon="12.792040131522993"><ele>481.80000000000007</ele><time>2026-04-23T15:16:12Z</time></trkpt><trkpt lat="43.60161884226174" lon="12.792062984772446"><ele>479.2</ele><time>2026-04-23T15:16:13Z</time></trkpt><trkpt lat="43.60172198818737" lon="12.79209538125683"><ele>476.6</ele><time>2026-04-23T15:16:14Z</time></trkpt><trkpt lat="43.60182021965301" lon="12.792121223441606"><ele>474.0</ele><time>2026-04-23T15:16:15Z</time></trkpt><trkpt lat="43.601914264105325" lon="12.792128605169864"><ele>477.8333333333333</ele><time>2026-04-23T15:16:16Z</time></trkpt><trkpt lat="43.60200221866938" lon="12.792125200033174"><ele>481.66666666666663</ele><time>2026-04-23T15:16:17Z</time></trkpt><trkpt lat="43.6020982189523" lon="12.792112537964194"><ele>485.5</ele><time>2026-04-23T15:16:18Z</time></trkpt><trkpt lat="43.602186503001896" lon="12.792094051127982"><ele>489.3333333333333</ele><time>2026-04-23T15:16:19Z</time></trkpt><trkpt lat="43.6022670504148" lon="12.792095078293134"><ele>493.16666666666663</ele><time>2026-04-23T15:16:20Z</time></trkpt><trkpt lat="43.60233128663648" lon="12.792088640883728"><ele>497.0</ele><time>2026-04-23T15:16:21Z</time></trkpt><trkpt lat="43.602454171308146" lon="12.792094977421183"><ele>496.99999999999994</ele><time>2026-04-23T15:16:23Z</time></trkpt><trkpt lat="43.60253326294583" lon="12.792165998651516"><ele>497.0</ele><time>2026-04-23T15:16:25Z</time></trkpt><trkpt lat="43.60251987733026" lon="12.792265278559412"><ele>497.0</ele><time>2026-04-23T15:16:27Z</time></trkpt><trkpt lat="43.60244757455631" lon="12.792356944403366"><ele>497.0</ele><time>2026-04-23T15:16:29Z</time></trkpt><trkpt lat="43.60237526141462" lon="12.792431245344089"><ele>496.99999999999994</ele><time>2026-04-23T15:16:30Z</time></trkpt><trkpt lat="43.60230753792315" lon="12.792500671623783"><ele>497.0</ele><time>2026-04-23T15:16:31Z</time></trkpt><trkpt lat="43.60225659554136" lon="12.792576928997937"><ele>497.8</ele><time>2026-04-23T15:16:32Z</time></trkpt><trkpt lat="43.602229082451956" lon="12.792701441330255"><ele>498.6</ele><time>2026-04-23T15:16:34Z</time></trkpt><trkpt lat="43.602262240027216" lon="12.792863924060635"><ele>499.40000000000003</ele><time>2026-04-23T15:16:36Z</time></trkpt><trkpt lat="43.60223788689696" lon="12.79298375832482"><ele>500.20000000000005</ele><time>2026-04-23T15:16:38Z</time></trkpt><trkpt lat="43.602122474217744" lon="12.793008626640985"><ele>501.0</ele><time>2026-04-23T15:16:40Z</time></trkpt><trkpt lat="43.60202647345832" lon="12.792989822596745"><ele>498.0</ele><time>2026-04-23T15:16:41Z</time></trkpt><trkpt lat="43.601937341458296" lon="12.79295745070247"><ele>495.0</ele><time>2026-04-23T15:16:42Z</time></trkpt><trkpt lat="43.601861432161016" lon="12.792959773431114"><ele>492.0</ele><time>2026-04-23T15:16:43Z</time></trkpt><trkpt lat="43.60179187659924" lon="12.792979462368624"><ele>489.0</ele><time>2026-04-23T15:16:44Z</time></trkpt><trkpt lat="43.60170975070463" lon="12.793045106839433"><ele>486.0</ele><time>2026-04-23T15:16:45Z</time></trkpt><trkpt lat="43.60161657711736" lon="12.793102278485701"><ele>483.0</ele><time>2026-04-23T15:16:46Z</time></trkpt><trkpt lat="43.60149909154041" lon="12.793154069654566"><ele>483.0</ele><time>2026-04-23T15:16:47Z</time></trkpt><trkpt lat="43.60136433821847" lon="12.793211591997519"><ele>483.0</ele><time>2026-04-23T15:16:48Z</time></trkpt><trkpt lat="43.601212881170966" lon="12.793279565632568"><ele>483.0</ele><time>2026-04-23T15:16:49Z</time></trkpt><trkpt lat="43.60106420537183" lon="12.793349917063026"><ele>483.25</ele><time>2026-04-23T15:16:50Z</time></trkpt><trkpt lat="43.60093874362574" lon="12.793418737855173"><ele>483.5</ele><time>2026-04-23T15:16:51Z</time></trkpt><trkpt lat="43.600821435233684" lon="12.793481585697194"><ele>483.75</ele><time>2026-04-23T15:16:52Z</time></trkpt><trkpt lat="43.60071790975899" lon="12.793539949705439"><ele>484.0</ele><time>2026-04-23T15:16:53Z</time></trkpt><trkpt lat="43.60062237245988" lon="12.793595664688203"><ele>484.0</ele><time>2026-04-23T15:16:54Z</time></trkpt><trkpt lat="43.600528108767904" lon="12.793652764435993"><ele>484.0</ele><time>2026-04-23T15:16:55Z</time></trkpt><trkpt lat="43.60043764877076" lon="12.79370243736406"><ele>484.0</ele><time>2026-04-23T15:16:56Z</time></trkpt><trkpt lat="43.60034979585584" lon="12.793772155525128"><ele>484.0</ele><time>2026-04-23T15:16:57Z</time></trkpt><trkpt lat="43.60027195290789" lon="12.793854133888358"><ele>484.0</ele><time>2026-04-23T15:16:58Z</time></trkpt><trkpt lat="43.60022163069885" lon="12.793933465332207"><ele>481.1666666666667</ele><time>2026-04-23T15:16:59Z</time></trkpt><trkpt lat="43.60019937612613" lon="12.794016011797181"><ele>478.33333333333337</ele><time>2026-04-23T15:17:00Z</time></trkpt><trkpt lat="43.60022131381596" lon="12.794168304010027"><ele>475.5</ele><time>2026-04-23T15:17:02Z</time></trkpt><trkpt lat="43.60024777453684" lon="12.794270331859389"><ele>472.66666666666663</ele><time>2026-04-23T15:17:03Z</time></trkpt><trkpt lat="43.600280445496686" lon="12.794365084692524"><ele>469.8333333333333</ele><time>2026-04-23T15:17:04Z</time></trkpt><trkpt lat="43.600310758893016" lon="12.794451386310445"><ele>467.0</ele><time>2026-04-23T15:17:05Z</time></trkpt><trkpt lat="43.60034844428448" lon="12.794538190101331"><ele>467.0</ele><time>2026-04-23T15:17:06Z</time></trkpt><trkpt lat="43.60040004649912" lon="12.794626458475669"><ele>467.00000000000006</ele><time>2026-04-23T15:17:07Z</time></trkpt><trkpt lat="43.600462149433206" lon="12.79473129687597"><ele>467.00000000000006</ele><time>2026-04-23T15:17:08Z</time></trkpt><trkpt lat="43.600540721578184" lon="12.7948358428422"><ele>467.0</ele><time>2026-04-23T15:17:09Z</time></trkpt><trkpt lat="43.600610832699374" lon="12.794937151272833"><ele>467.0</ele><time>2026-04-23T15:17:10Z</time></trkpt><trkpt lat="43.60068371483944" lon="12.794984339506751"><ele>467.0</ele><time>2026-04-23T15:17:11Z</time></trkpt><trkpt lat="43.600762097203045" lon="12.79500751145579"><ele>467.00000000000006</ele><time>2026-04-23T15:17:12Z</time></trkpt><trkpt lat="43.60085231532906" lon="12.795017906018678"><ele>467.00000000000006</ele><time>2026-04-23T15:17:13Z</time></trkpt><trkpt lat="43.600975551263176" lon="12.795017845028369"><ele>467.0</ele><time>2026-04-23T15:17:14Z</time></trkpt><trkpt lat="43.60112818157882" lon="12.79499074749369"><ele>467.0</ele><time>2026-04-23T15:17:15Z</time></trkpt><trkpt lat="43.60127471503651" lon="12.794965001893836"><ele>469.20000000000005</ele><time>2026-04-23T15:17:16Z</time></trkpt><trkpt lat="43.60138847628273" lon="12.79498353088027"><ele>471.40000000000003</ele><time>2026-04-23T15:17:17Z</time></trkpt><trkpt lat="43.601495133635524" lon="12.795005223257103"><ele>473.59999999999997</ele><time>2026-04-23T15:17:18Z</time></trkpt><trkpt lat="43.6015785594321" lon="12.795034046218364"><ele>475.79999999999995</ele><time>2026-04-23T15:17:19Z</time></trkpt><trkpt lat="43.601678974464946" lon="12.795087368913956"><ele>478.0</ele><time>2026-04-23T15:17:20Z</time></trkpt><trkpt lat="43.601777155305044" lon="12.795117394042498"><ele>478.00000000000006</ele><time>2026-04-23T15:17:21Z</time></trkpt><trkpt lat="43.60186678619332" lon="12.795156464759433"><ele>478.0</ele><time>2026-04-23T15:17:22Z</time></trkpt><trkpt lat="43.60192842573498" lon="12.795196775364404"><ele>478.0</ele><time>2026-04-23T15:17:23Z</time></trkpt><trkpt lat="43.60198841074236" lon="12.79524590866464"><ele>478.0</ele><time>2026-04-23T15:17:24Z</time></trkpt><trkpt lat="43.602073717029356" lon="12.795307655664434"><ele>478.00000000000006</ele><time>2026-04-23T15:17:25Z</time></trkpt><trkpt lat="43.60215989406791" lon="12.795331354535177"><ele>478.0</ele><time>2026-04-23T15:17:26Z</time></trkpt><trkpt lat="43.602250158483955" lon="12.795338157064151"><ele>475.75</ele><time>2026-04-23T15:17:27Z</time></trkpt><trkpt lat="43.602352228065236" lon="12.795344688536147"><ele>473.5</ele><time>2026-04-23T15:17:28Z</time></trkpt><trkpt lat="43.60246242606955" lon="12.795381198017035"><ele>471.25</ele><time>2026-04-23T15:17:29Z</time></trkpt><trkpt lat="43.602587295306805" lon="12.795436239838411"><ele>469.0</ele><time>2026-04-23T15:17:30Z</time></trkpt><trkpt lat="43.60270661839174" lon="12.795468388944473"><ele>469.0</ele><time>2026-04-23T15:17:31Z</time></trkpt><trkpt lat="43.60280796462437" lon="12.79547151801925"><ele>469.0</ele><time>2026-04-23T15:17:32Z</time></trkpt><trkpt lat="43.6028981278839" lon="12.795460800109682"><ele>469.0</ele><time>2026-04-23T15:17:33Z</time></trkpt><trkpt lat="43.60297263857714" lon="12.795444259567834"><ele>469.0</ele><time>2026-04-23T15:17:34Z</time></trkpt><trkpt lat="43.60306858009183" lon="12.7954488477105"><ele>469.0</ele><time>2026-04-23T15:17:36Z</time></trkpt><trkpt lat="43.60313395994008" lon="12.795545857372735"><ele>474.2</ele><time>2026-04-23T15:17:38Z</time></trkpt><trkpt lat="43.6031494788474" lon="12.795646233374253"><ele>479.4</ele><time>2026-04-23T15:17:40Z</time></trkpt><trkpt lat="43.603158273969235" lon="12.795790741137015"><ele>484.6</ele><time>2026-04-23T15:17:42Z</time></trkpt><trkpt lat="43.60313578227465" lon="12.795875384989582"><ele>489.8</ele><time>2026-04-23T15:17:43Z</time></trkpt><trkpt lat="43.60303305762776" lon="12.795976645991793"><ele>495.0</ele><time>2026-04-23T15:17:45Z</time></trkpt><trkpt lat="43.60294743421528" lon="12.7960337114416"><ele>497.0</ele><time>2026-04-23T15:17:46Z</time></trkpt><trkpt lat="43.60287182583309" lon="12.796119844236358"><ele>499.0</ele><time>2026-04-23T15:17:47Z</time></trkpt><trkpt lat="43.60283914085987" lon="12.796195259301545"><ele>501.0</ele><time>2026-04-23T15:17:48Z</time></trkpt><trkpt lat="43.60279413233744" lon="12.796300043566223"><ele>503.0</ele><time>2026-04-23T15:17:50Z</time></trkpt><trkpt lat="43.60271676847697" lon="12.796413487492757"><ele>505.0</ele><time>2026-04-23T15:17:52Z</time></trkpt><trkpt lat="43.602664095332344" lon="12.796464119160758"><ele>507.0</ele><time>2026-04-23T15:17:53Z</time></trkpt><trkpt lat="43.602594152066274" lon="12.79653682579774"><ele>503.40000000000003</ele><time>2026-04-23T15:17:54Z</time></trkpt><trkpt lat="43.60251762526312" lon="12.796609328211922"><ele>499.80000000000007</ele><time>2026-04-23T15:17:55Z</time></trkpt><trkpt lat="43.60243296246513" lon="12.796674280625485"><ele>496.2</ele><time>2026-04-23T15:17:56Z</time></trkpt><trkpt lat="43.602366627247704" lon="12.79675307718459"><ele>492.6</ele><time>2026-04-23T15:17:57Z</time></trkpt><trkpt lat="43.60231109201315" lon="12.796863394322708"><ele>489.0</ele><time>2026-04-23T15:17:58Z</time></trkpt><trkpt lat="43.602263187206226" lon="12.796983633509296"><ele>489.0</ele><time>2026-04-23T15:17:59Z</time></trkpt><trkpt lat="43.60224121848021" lon="12.797109914542325"><ele>489.0</ele><time>2026-04-23T15:18:00Z</time></trkpt><trkpt lat="43.6022476586222" lon="12.797221199214095"><ele>489.0</ele><time>2026-04-23T15:18:01Z</time></trkpt><trkpt lat="43.60227900729228" lon="12.797357561943485"><ele>489.0</ele><time>2026-04-23T15:18:02Z</time></trkpt><trkpt lat="43.602315695911955" lon="12.797500078230128"><ele>489.0</ele><time>2026-04-23T15:18:03Z</time></trkpt><trkpt lat="43.60235882507756" lon="12.797598865594068"><ele>489.0</ele><time>2026-04-23T15:18:04Z</time></trkpt><trkpt lat="43.60240646752995" lon="12.797655812006246"><ele>489.0</ele><time>2026-04-23T15:18:05Z</time></trkpt><trkpt lat="43.60250730190481" lon="12.797731982346523"><ele>489.0</ele><time>2026-04-23T15:18:07Z</time></trkpt><trkpt lat="43.60257355184245" lon="12.797741469188617"><ele>489.0</ele><time>2026-04-23T15:18:08Z</time></trkpt><trkpt lat="43.6026574222811" lon="12.79774551005218"><ele>489.0</ele><time>2026-04-23T15:18:09Z</time></trkpt><trkpt lat="43.602743551569105" lon="12.797757038844841"><ele>489.0</ele><time>2026-04-23T15:18:10Z</time></trkpt><trkpt lat="43.60282533961502" lon="12.797781300789818"><ele>489.8333333333333</ele><time>2026-04-23T15:18:11Z</time></trkpt><trkpt lat="43.60290287334139" lon="12.797809521377607"><ele>490.66666666666663</ele><time>2026-04-23T15:18:12Z</time></trkpt><trkpt lat="43.602976060570235" lon="12.797840553387994"><ele>491.5</ele><time>2026-04-23T15:18:13Z</time></trkpt><trkpt lat="43.603047311661044" lon="12.797881673884449"><ele>492.3333333333333</ele><time>2026-04-23T15:18:14Z</time></trkpt><trkpt lat="43.60313080537564" lon="12.797980228738925"><ele>493.16666666666663</ele><time>2026-04-23T15:18:16Z</time></trkpt><trkpt lat="43.603200298238995" lon="12.798067265697357"><ele>494.0</ele><time>2026-04-23T15:18:18Z</time></trkpt><trkpt lat="43.60325605747007" lon="12.79812613266938"><ele>494.0</ele><time>2026-04-23T15:18:19Z</time></trkpt><trkpt lat="43.60332382513115" lon="12.798195231105385"><ele>494.0</ele><time>2026-04-23T15:18:20Z</time></trkpt><trkpt lat="43.60340773468701" lon="12.79826130907784"><ele>494.0</ele><time>2026-04-23T15:18:21Z</time></trkpt><trkpt lat="43.60350080015814" lon="12.798311884073051"><ele>494.0</ele><time>2026-04-23T15:18:22Z</time></trkpt><trkpt lat="43.60363820681179" lon="12.798323067705837"><ele>494.0</ele><time>2026-04-23T15:18:23Z</time></trkpt><trkpt lat="43.60371440724397" lon="12.79831273493972"><ele>495.4</ele><time>2026-04-23T15:18:24Z</time></trkpt><trkpt lat="43.60379930540769" lon="12.798288420558437"><ele>496.79999999999995</ele><time>2026-04-23T15:18:25Z</time></trkpt><trkpt lat="43.60389055471438" lon="12.79824431594042"><ele>498.20000000000005</ele><time>2026-04-23T15:18:26Z</time></trkpt><trkpt lat="43.603992822940235" lon="12.79817002862862"><ele>499.6</ele><time>2026-04-23T15:18:27Z</time></trkpt><trkpt lat="43.60410886539764" lon="12.798102854686023"><ele>501.0</ele><time>2026-04-23T15:18:28Z</time></trkpt><trkpt lat="43.60423398682013" lon="12.79803732405578"><ele>501.0</ele><time>2026-04-23T15:18:29Z</time></trkpt><trkpt lat="43.604342743312536" lon="12.797945806671644"><ele>501.0</ele><time>2026-04-23T15:18:30Z</time></trkpt><trkpt lat="43.604464304413995" lon="12.797838183461527"><ele>501.0</ele><time>2026-04-23T15:18:31Z</time></trkpt><trkpt lat="43.604575095991656" lon="12.797732958327869"><ele>501.0</ele><time>2026-04-23T15:18:32Z</time></trkpt><trkpt lat="43.60467508969819" lon="12.797646698750885"><ele>502.8</ele><time>2026-04-23T15:18:33Z</time></trkpt><trkpt lat="43.60474617135227" lon="12.79757483737455"><ele>504.6</ele><time>2026-04-23T15:18:34Z</time></trkpt><trkpt lat="43.60483057146315" lon="12.797517275167019"><ele>506.4</ele><time>2026-04-23T15:18:35Z</time></trkpt><trkpt lat="43.60491298923326" lon="12.797480172197757"><ele>508.2</ele><time>2026-04-23T15:18:36Z</time></trkpt><trkpt lat="43.60498751082708" lon="12.797445288681276"><ele>510.0</ele><time>2026-04-23T15:18:37Z</time></trkpt><trkpt lat="43.60509888398001" lon="12.797374642939022"><ele>510.0</ele><time>2026-04-23T15:18:38Z</time></trkpt><trkpt lat="43.605199468564216" lon="12.797284726583426"><ele>510.0</ele><time>2026-04-23T15:18:39Z</time></trkpt><trkpt lat="43.605289745716966" lon="12.797181340515355"><ele>510.0</ele><time>2026-04-23T15:18:40Z</time></trkpt><trkpt lat="43.60536642225429" lon="12.79711415136175"><ele>510.0</ele><time>2026-04-23T15:18:41Z</time></trkpt><trkpt lat="43.6054513155138" lon="12.797062691136537"><ele>510.0</ele><time>2026-04-23T15:18:42Z</time></trkpt><trkpt lat="43.60553083326603" lon="12.797020834397035"><ele>511.0</ele><time>2026-04-23T15:18:43Z</time></trkpt><trkpt lat="43.605624345080805" lon="12.79697275753275"><ele>512.0</ele><time>2026-04-23T15:18:44Z</time></trkpt><trkpt lat="43.605749679553874" lon="12.796928634729227"><ele>513.0</ele><time>2026-04-23T15:18:45Z</time></trkpt><trkpt lat="43.605854639871346" lon="12.796881496050005"><ele>514.0</ele><time>2026-04-23T15:18:46Z</time></trkpt><trkpt lat="43.60594323883015" lon="12.796828664383456"><ele>515.0</ele><time>2026-04-23T15:18:47Z</time></trkpt><trkpt lat="43.606012959266856" lon="12.796757880867295"><ele>515.0</ele><time>2026-04-23T15:18:48Z</time></trkpt><trkpt lat="43.60607605421729" lon="12.796674079740159"><ele>515.0</ele><time>2026-04-23T15:18:49Z</time></trkpt><trkpt lat="43.606141358713245" lon="12.796589844661348"><ele>515.0</ele><time>2026-04-23T15:18:50Z</time></trkpt><trkpt lat="43.60619200527411" lon="12.796533009170279"><ele>515.0</ele><time>2026-04-23T15:18:51Z</time></trkpt><trkpt lat="43.60624920891725" lon="12.796428083284422"><ele>515.0</ele><time>2026-04-23T15:18:53Z</time></trkpt><trkpt lat="43.60631324246867" lon="12.796335262304801"><ele>515.0</ele><time>2026-04-23T15:19:05Z</time></trkpt><trkpt lat="43.60636665558917" lon="12.79625592468642"><ele>514.25</ele><time>2026-04-23T15:19:06Z</time></trkpt><trkpt lat="43.60643616256834" lon="12.796162820984575"><ele>513.5</ele><time>2026-04-23T15:19:07Z</time></trkpt><trkpt lat="43.60652814938044" lon="12.796028651178666"><ele>512.75</ele><time>2026-04-23T15:19:08Z</time></trkpt><trkpt lat="43.60659978570838" lon="12.795893635907383"><ele>512.0</ele><time>2026-04-23T15:19:09Z</time></trkpt><trkpt lat="43.60666881621049" lon="12.795785776951385"><ele>511.99999999999994</ele><time>2026-04-23T15:19:10Z</time></trkpt><trkpt lat="43.60672889963157" lon="12.795699053273802"><ele>512.0</ele><time>2026-04-23T15:19:11Z</time></trkpt><trkpt lat="43.60678821002506" lon="12.795621230532777"><ele>512.0</ele><time>2026-04-23T15:19:12Z</time></trkpt><trkpt lat="43.60683803856453" lon="12.795566453710148"><ele>512.0</ele><time>2026-04-23T15:19:13Z</time></trkpt><trkpt lat="43.60694953217237" lon="12.795533047694184"><ele>511.99999999999994</ele><time>2026-04-23T15:19:15Z</time></trkpt><trkpt lat="43.6070219735453" lon="12.79551771706067"><ele>512.0</ele><time>2026-04-23T15:19:16Z</time></trkpt><trkpt lat="43.60711777646634" lon="12.795518403865488"><ele>512.1428571428571</ele><time>2026-04-23T15:19:17Z</time></trkpt><trkpt lat="43.60720359851302" lon="12.795513766664534"><ele>512.2857142857142</ele><time>2026-04-23T15:19:18Z</time></trkpt><trkpt lat="43.60727485935886" lon="12.795501213838854"><ele>512.4285714285714</ele><time>2026-04-23T15:19:19Z</time></trkpt><trkpt lat="43.60729440307079" lon="12.79538886392856"><ele>512.5714285714286</ele><time>2026-04-23T15:19:20Z</time></trkpt><trkpt lat="43.607357547616544" lon="12.795341040201619"><ele>512.7142857142858</ele><time>2026-04-23T15:19:22Z</time></trkpt><trkpt lat="43.60740747415367" lon="12.795282790437897"><ele>512.8571428571429</ele><time>2026-04-23T15:19:23Z</time></trkpt><trkpt lat="43.607442725412184" lon="12.795200959243155"><ele>513.0</ele><time>2026-04-23T15:19:24Z</time></trkpt><trkpt lat="43.60750419145545" lon="12.795052667213861"><ele>513.0</ele><time>2026-04-23T15:19:26Z</time></trkpt><trkpt lat="43.6075527425907" lon="12.794923948301808"><ele>513.0</ele><time>2026-04-23T15:19:28Z</time></trkpt><trkpt lat="43.60757135584803" lon="12.794763081233082"><ele>513.0</ele><time>2026-04-23T15:19:30Z</time></trkpt><trkpt lat="43.607570858396286" lon="12.794670072392515"><ele>513.0</ele><time>2026-04-23T15:19:31Z</time></trkpt><trkpt lat="43.6075808908745" lon="12.794555709577434"><ele>513.0</ele><time>2026-04-23T15:19:32Z</time></trkpt><trkpt lat="43.607571465618065" lon="12.794455654868626"><ele>513.0</ele><time>2026-04-23T15:19:33Z</time></trkpt><trkpt lat="43.60755164027515" lon="12.794357548223267"><ele>513.1666666666666</ele><time>2026-04-23T15:19:34Z</time></trkpt><trkpt lat="43.60753364340495" lon="12.794265997595206"><ele>513.3333333333334</ele><time>2026-04-23T15:19:35Z</time></trkpt><trkpt lat="43.60757879586751" lon="12.794162054168709"><ele>513.5</ele><time>2026-04-23T15:19:37Z</time></trkpt><trkpt lat="43.60765675706555" lon="12.794143206851679"><ele>513.6666666666667</ele><time>2026-04-23T15:19:39Z</time></trkpt><trkpt lat="43.60774000704748" lon="12.794083755118459"><ele>513.8333333333334</ele><time>2026-04-23T15:19:41Z</time></trkpt><trkpt lat="43.60780227240888" lon="12.794031267080749"><ele>514.0</ele><time>2026-04-23T15:19:43Z</time></trkpt><trkpt lat="43.60790161262533" lon="12.793973989349407"><ele>514.0</ele><time>2026-04-23T15:19:45Z</time></trkpt><trkpt lat="43.60797016080847" lon="12.79393152381754"><ele>514.0</ele><time>2026-04-23T15:19:46Z</time></trkpt><trkpt lat="43.60804622417495" lon="12.79389069985917"><ele>514.0</ele><time>2026-04-23T15:19:47Z</time></trkpt><trkpt lat="43.60812687654984" lon="12.793869557215018"><ele>514.0</ele><time>2026-04-23T15:19:48Z</time></trkpt><trkpt lat="43.608203640191256" lon="12.793813032009172"><ele>514.0</ele><time>2026-04-23T15:19:50Z</time></trkpt><trkpt lat="43.608016289436456" lon="12.793744249106393"><ele>514.0</ele><time>2026-04-23T15:20:48Z</time></trkpt><trkpt lat="43.607904687180735" lon="12.793758538636032"><ele>514.0</ele><time>2026-04-23T15:20:49Z</time></trkpt><trkpt lat="43.60777458469021" lon="12.793772295795515"><ele>514.0</ele><time>2026-04-23T15:20:50Z</time></trkpt><trkpt lat="43.60764051568961" lon="12.793794848954498"><ele>514.0</ele><time>2026-04-23T15:20:51Z</time></trkpt><trkpt lat="43.60755930871466" lon="12.793845232197052"><ele>515.6666666666667</ele><time>2026-04-23T15:20:52Z</time></trkpt><trkpt lat="43.60748132298627" lon="12.793847865341332"><ele>517.3333333333334</ele><time>2026-04-23T15:20:54Z</time></trkpt><trkpt lat="43.607459707094115" lon="12.793760236333092"><ele>519.0</ele><time>2026-04-23T15:20:56Z</time></trkpt><trkpt lat="43.60754600581748" lon="12.79367782341624"><ele>520.6666666666666</ele><time>2026-04-23T15:20:57Z</time></trkpt><trkpt lat="43.60762609096559" lon="12.793642593150093"><ele>522.3333333333333</ele><time>2026-04-23T15:20:58Z</time></trkpt><trkpt lat="43.60770519842917" lon="12.79360270150879"><ele>524.0</ele><time>2026-04-23T15:20:59Z</time></trkpt><trkpt lat="43.607783132019385" lon="12.793549410289623"><ele>525.0</ele><time>2026-04-23T15:21:00Z</time></trkpt><trkpt lat="43.60788458733781" lon="12.793439985247659"><ele>526.0</ele><time>2026-04-23T15:21:01Z</time></trkpt><trkpt lat="43.60796341819075" lon="12.793336982469071"><ele>527.0</ele><time>2026-04-23T15:21:02Z</time></trkpt><trkpt lat="43.608019471419496" lon="12.793290370009418"><ele>528.0</ele><time>2026-04-23T15:21:03Z</time></trkpt><trkpt lat="43.60808144789467" lon="12.793177154153582"><ele>529.0</ele><time>2026-04-23T15:21:05Z</time></trkpt><trkpt lat="43.60804218842973" lon="12.793060088587458"><ele>529.0</ele><time>2026-04-23T15:21:07Z</time></trkpt><trkpt lat="43.60791968650127" lon="12.793014422583555"><ele>529.0</ele><time>2026-04-23T15:21:11Z</time></trkpt><trkpt lat="43.6078407275615" lon="12.793048632429"><ele>529.0</ele><time>2026-04-23T15:21:12Z</time></trkpt><trkpt lat="43.60774523074957" lon="12.793093162331036"><ele>529.0</ele><time>2026-04-23T15:21:13Z</time></trkpt><trkpt lat="43.607635589523134" lon="12.793147699086779"><ele>529.0</ele><time>2026-04-23T15:21:14Z</time></trkpt><trkpt lat="43.60750385111036" lon="12.793211948047324"><ele>530.3333333333334</ele><time>2026-04-23T15:21:15Z</time></trkpt><trkpt lat="43.607408185966" lon="12.793249409256964"><ele>531.6666666666667</ele><time>2026-04-23T15:21:16Z</time></trkpt><trkpt lat="43.607341614833594" lon="12.793242987202825"><ele>533.0</ele><time>2026-04-23T15:21:17Z</time></trkpt><trkpt lat="43.607271374921275" lon="12.793224260875988"><ele>534.3333333333334</ele><time>2026-04-23T15:21:18Z</time></trkpt><trkpt lat="43.60719584383711" lon="12.793193388845648"><ele>535.6666666666666</ele><time>2026-04-23T15:21:19Z</time></trkpt><trkpt lat="43.607123462780024" lon="12.793144725862318"><ele>537.0</ele><time>2026-04-23T15:21:20Z</time></trkpt><trkpt lat="43.60706838090324" lon="12.793057001536313"><ele>537.0</ele><time>2026-04-23T15:21:21Z</time></trkpt><trkpt lat="43.607018550403424" lon="12.792958793183791"><ele>537.0</ele><time>2026-04-23T15:21:22Z</time></trkpt><trkpt lat="43.606957674972676" lon="12.792824209437807"><ele>537.0</ele><time>2026-04-23T15:21:23Z</time></trkpt><trkpt lat="43.60687873304356" lon="12.792686095158611"><ele>537.0</ele><time>2026-04-23T15:21:24Z</time></trkpt><trkpt lat="43.60682476119568" lon="12.792608885684594"><ele>537.0</ele><time>2026-04-23T15:21:25Z</time></trkpt><trkpt lat="43.606693836080304" lon="12.792581787230127"><ele>539.6</ele><time>2026-04-23T15:21:27Z</time></trkpt><trkpt lat="43.606615815606105" lon="12.792646849837803"><ele>542.2</ele><time>2026-04-23T15:21:28Z</time></trkpt><trkpt lat="43.6065571090203" lon="12.7927612896743"><ele>544.8</ele><time>2026-04-23T15:21:29Z</time></trkpt><trkpt lat="43.60653159204843" lon="12.79292329939197"><ele>547.4</ele><time>2026-04-23T15:21:30Z</time></trkpt><trkpt lat="43.606513572415565" lon="12.79307606634147"><ele>550.0</ele><time>2026-04-23T15:21:31Z</time></trkpt><trkpt lat="43.60649371911891" lon="12.793229007768979"><ele>550.0</ele><time>2026-04-23T15:21:32Z</time></trkpt><trkpt lat="43.60646869305291" lon="12.793341815631264"><ele>550.0</ele><time>2026-04-23T15:21:33Z</time></trkpt><trkpt lat="43.6064371800966" lon="12.793434840699545"><ele>550.0</ele><time>2026-04-23T15:21:34Z</time></trkpt><trkpt lat="43.6063793163758" lon="12.793469241991097"><ele>550.0</ele><time>2026-04-23T15:21:35Z</time></trkpt><trkpt lat="43.606300847197666" lon="12.793516772159814"><ele>550.0</ele><time>2026-04-23T15:21:36Z</time></trkpt><trkpt lat="43.60619668195664" lon="12.793576499164125"><ele>550.0</ele><time>2026-04-23T15:21:37Z</time></trkpt><trkpt lat="43.60609273236443" lon="12.793621914406048"><ele>550.0</ele><time>2026-04-23T15:21:38Z</time></trkpt><trkpt lat="43.60602303695155" lon="12.79363765978771"><ele>550.0</ele><time>2026-04-23T15:21:39Z</time></trkpt><trkpt lat="43.605930191677274" lon="12.793580523770391"><ele>550.0</ele><time>2026-04-23T15:21:41Z</time></trkpt><trkpt lat="43.6059256529795" lon="12.793463346597164"><ele>550.0</ele><time>2026-04-23T15:21:43Z</time></trkpt><trkpt lat="43.605963773290966" lon="12.793357176893112"><ele>550.0</ele><time>2026-04-23T15:21:46Z</time></trkpt><trkpt lat="43.605947861579445" lon="12.793447802599733"><ele>550.0</ele><time>2026-04-23T15:22:03Z</time></trkpt><trkpt lat="43.60592114230813" lon="12.793558053290218"><ele>550.0</ele><time>2026-04-23T15:22:05Z</time></trkpt><trkpt lat="43.6057841707116" lon="12.79360526028203"><ele>550.0</ele><time>2026-04-23T15:22:08Z</time></trkpt><trkpt lat="43.60571514910386" lon="12.793599035364137"><ele>550.0</ele><time>2026-04-23T15:22:11Z</time></trkpt><trkpt lat="43.60563982270237" lon="12.793609675056297"><ele>550.0</ele><time>2026-04-23T15:22:21Z</time></trkpt><trkpt lat="43.605563584190435" lon="12.793667936250234"><ele>550.0</ele><time>2026-04-23T15:22:29Z</time></trkpt><trkpt lat="43.605479265781256" lon="12.793722153603099"><ele>550.0</ele><time>2026-04-23T15:22:31Z</time></trkpt><trkpt lat="43.60540189500829" lon="12.793747461719947"><ele>550.0</ele><time>2026-04-23T15:22:32Z</time></trkpt><trkpt lat="43.6053054499556" lon="12.793789613435386"><ele>550.0</ele><time>2026-04-23T15:22:33Z</time></trkpt><trkpt lat="43.60519820528158" lon="12.793837067518746"><ele>550.0</ele><time>2026-04-23T15:22:34Z</time></trkpt><trkpt lat="43.6050935616345" lon="12.793889908996183"><ele>550.0</ele><time>2026-04-23T15:22:35Z</time></trkpt><trkpt lat="43.604992159097826" lon="12.793945587834914"><ele>550.5</ele><time>2026-04-23T15:22:36Z</time></trkpt><trkpt lat="43.60491329212548" lon="12.79399147654188"><ele>551.0</ele><time>2026-04-23T15:22:37Z</time></trkpt><trkpt lat="43.60483659446706" lon="12.79403371286881"><ele>551.5</ele><time>2026-04-23T15:22:38Z</time></trkpt><trkpt lat="43.604763102498836" lon="12.79407345311444"><ele>552.0</ele><time>2026-04-23T15:22:39Z</time></trkpt><trkpt lat="43.604699617545975" lon="12.79410687217605"><ele>552.5</ele><time>2026-04-23T15:22:40Z</time></trkpt><trkpt lat="43.60463951936017" lon="12.794143264196846"><ele>553.0</ele><time>2026-04-23T15:22:41Z</time></trkpt><trkpt lat="43.60457118417338" lon="12.79418785889803"><ele>552.1666666666667</ele><time>2026-04-23T15:22:42Z</time></trkpt><trkpt lat="43.604492268082566" lon="12.794233907280724"><ele>551.3333333333334</ele><time>2026-04-23T15:22:43Z</time></trkpt><trkpt lat="43.604414746301764" lon="12.79426492707918"><ele>550.5</ele><time>2026-04-23T15:22:44Z</time></trkpt><trkpt lat="43.604343981548084" lon="12.79429342308648"><ele>549.6666666666666</ele><time>2026-04-23T15:22:45Z</time></trkpt><trkpt lat="43.60424944994282" lon="12.794294648628846"><ele>548.8333333333333</ele><time>2026-04-23T15:22:47Z</time></trkpt><trkpt lat="43.60418372467464" lon="12.794279788674052"><ele>548.0</ele><time>2026-04-23T15:22:49Z</time></trkpt><trkpt lat="43.60412604623672" lon="12.794237952837157"><ele>548.0</ele><time>2026-04-23T15:22:51Z</time></trkpt><trkpt lat="43.6040582818381" lon="12.794228038203466"><ele>548.0</ele><time>2026-04-23T15:22:53Z</time></trkpt><trkpt lat="43.603990463168714" lon="12.794191354178976"><ele>548.0</ele><time>2026-04-23T15:22:55Z</time></trkpt><trkpt lat="43.60390271558431" lon="12.794187196875091"><ele>548.0</ele><time>2026-04-23T15:22:58Z</time></trkpt><trkpt lat="43.60379910740413" lon="12.794189539144067"><ele>548.0</ele><time>2026-04-23T15:23:00Z</time></trkpt><trkpt lat="43.60372147151366" lon="12.794179496023538"><ele>548.0</ele><time>2026-04-23T15:23:03Z</time></trkpt><trkpt lat="43.60364900085015" lon="12.794196102907305"><ele>544.8333333333333</ele><time>2026-04-23T15:23:05Z</time></trkpt><trkpt lat="43.60356406826606" lon="12.794204369839322"><ele>541.6666666666666</ele><time>2026-04-23T15:23:07Z</time></trkpt><trkpt lat="43.60348783623376" lon="12.794168723898231"><ele>538.5</ele><time>2026-04-23T15:23:09Z</time></trkpt><trkpt lat="43.60342466432752" lon="12.794198390229115"><ele>535.3333333333334</ele><time>2026-04-23T15:23:11Z</time></trkpt><trkpt lat="43.603339799280114" lon="12.79417268998052"><ele>532.1666666666667</ele><time>2026-04-23T15:23:17Z</time></trkpt><trkpt lat="43.6033720159274" lon="12.79425049614499"><ele>529.0</ele><time>2026-04-23T15:23:23Z</time></trkpt><trkpt lat="43.60347912368423" lon="12.794188372706799"><ele>529.0</ele><time>2026-04-23T15:23:26Z</time></trkpt><trkpt lat="43.603549066999015" lon="12.794158792609526"><ele>529.0</ele><time>2026-04-23T15:23:28Z</time></trkpt><trkpt lat="43.60363457387459" lon="12.794208627784398"><ele>529.0</ele><time>2026-04-23T15:23:30Z</time></trkpt><trkpt lat="43.60372134499894" lon="12.794184170700728"><ele>529.0</ele><time>2026-04-23T15:23:32Z</time></trkpt><trkpt lat="43.60382510273185" lon="12.79417879747966"><ele>529.0</ele><time>2026-04-23T15:23:34Z</time></trkpt><trkpt lat="43.60389387137656" lon="12.794183876844372"><ele>529.0</ele><time>2026-04-23T15:23:35Z</time></trkpt><trkpt lat="43.6039890293091" lon="12.794180603848766"><ele>532.8</ele><time>2026-04-23T15:23:37Z</time></trkpt><trkpt lat="43.60397503080154" lon="12.794093523541173"><ele>536.5999999999999</ele><time>2026-04-23T15:23:56Z</time></trkpt><trkpt lat="43.60398564424282" lon="12.793964800640872"><ele>540.4</ele><time>2026-04-23T15:23:58Z</time></trkpt><trkpt lat="43.6040421660555" lon="12.79383199830745"><ele>544.1999999999999</ele><time>2026-04-23T15:24:00Z</time></trkpt><trkpt lat="43.604044170444276" lon="12.793670630464044"><ele>548.0</ele><time>2026-04-23T15:24:02Z</time></trkpt><trkpt lat="43.60407760047937" lon="12.793534755793264"><ele>549.0</ele><time>2026-04-23T15:24:04Z</time></trkpt><trkpt lat="43.604105911218326" lon="12.793456108699743"><ele>550.0</ele><time>2026-04-23T15:24:05Z</time></trkpt><trkpt lat="43.60413469396642" lon="12.793306596509101"><ele>551.0</ele><time>2026-04-23T15:24:07Z</time></trkpt><trkpt lat="43.604115243044156" lon="12.793186622035353"><ele>552.0</ele><time>2026-04-23T15:24:09Z</time></trkpt><trkpt lat="43.60410530313632" lon="12.793069557514714"><ele>553.0</ele><time>2026-04-23T15:24:11Z</time></trkpt><trkpt lat="43.60411969716157" lon="12.7929007414699"><ele>553.0</ele><time>2026-04-23T15:24:13Z</time></trkpt><trkpt lat="43.604119191095656" lon="12.792810619028769"><ele>553.0</ele><time>2026-04-23T15:24:14Z</time></trkpt><trkpt lat="43.60415381459843" lon="12.79266331717754"><ele>553.0</ele><time>2026-04-23T15:24:16Z</time></trkpt><trkpt lat="43.6042474114985" lon="12.792583538233236"><ele>553.0</ele><time>2026-04-23T15:24:18Z</time></trkpt><trkpt lat="43.604338835635346" lon="12.792495661101539"><ele>553.0</ele><time>2026-04-23T15:24:20Z</time></trkpt><trkpt lat="43.60439043010523" lon="12.79238509982339"><ele>553.1666666666667</ele><time>2026-04-23T15:24:22Z</time></trkpt><trkpt lat="43.60438153037672" lon="12.792274965606813"><ele>553.3333333333334</ele><time>2026-04-23T15:24:24Z</time></trkpt><trkpt lat="43.60439820025505" lon="12.792117658826415"><ele>553.5</ele><time>2026-04-23T15:24:26Z</time></trkpt><trkpt lat="43.60442241227926" lon="12.792035050295572"><ele>553.6666666666666</ele><time>2026-04-23T15:24:27Z</time></trkpt><trkpt lat="43.6044459805688" lon="12.791884005450779"><ele>553.8333333333333</ele><time>2026-04-23T15:24:29Z</time></trkpt><trkpt lat="43.60443913167182" lon="12.79179750129739"><ele>554.0</ele><time>2026-04-23T15:24:30Z</time></trkpt><trkpt lat="43.60442192351983" lon="12.791704598133256"><ele>554.0</ele><time>2026-04-23T15:24:31Z</time></trkpt><trkpt lat="43.604407310715516" lon="12.791615078487752"><ele>554.0</ele><time>2026-04-23T15:24:32Z</time></trkpt><trkpt lat="43.60438508005567" lon="12.791491172074549"><ele>554.0</ele><time>2026-04-23T15:24:34Z</time></trkpt><trkpt lat="43.60437371897295" lon="12.791380192454167"><ele>554.0</ele><time>2026-04-23T15:24:37Z</time></trkpt><trkpt lat="43.60435987704854" lon="12.791294977795559"><ele>554.0</ele><time>2026-04-23T15:24:41Z</time></trkpt><trkpt lat="43.604307689107344" lon="12.791178185164888"><ele>554.0</ele><time>2026-04-23T15:24:43Z</time></trkpt><trkpt lat="43.60419253149317" lon="12.791098806195285"><ele>554.0</ele><time>2026-04-23T15:24:46Z</time></trkpt><trkpt lat="43.60412783955075" lon="12.791079114082551"><ele>554.0</ele><time>2026-04-23T15:24:47Z</time></trkpt><trkpt lat="43.60406176076751" lon="12.791067563745354"><ele>554.0</ele><time>2026-04-23T15:24:49Z</time></trkpt><trkpt lat="43.60402769580876" lon="12.790982096278814"><ele>554.0</ele><time>2026-04-23T15:24:52Z</time></trkpt><trkpt lat="43.60402603825362" lon="12.790845331289981"><ele>554.0</ele><time>2026-04-23T15:24:54Z</time></trkpt><trkpt lat="43.60403733959902" lon="12.790737393409065"><ele>554.0</ele><time>2026-04-23T15:24:55Z</time></trkpt><trkpt lat="43.60403993183014" lon="12.790627068461344"><ele>556.3333333333333</ele><time>2026-04-23T15:24:56Z</time></trkpt><trkpt lat="43.6040420998514" lon="12.790516784521358"><ele>558.6666666666666</ele><time>2026-04-23T15:24:57Z</time></trkpt><trkpt lat="43.604045360079844" lon="12.790418516954631"><ele>561.0</ele><time>2026-04-23T15:24:58Z</time></trkpt><trkpt lat="43.60406481297481" lon="12.790244101062799"><ele>563.3333333333334</ele><time>2026-04-23T15:25:00Z</time></trkpt><trkpt lat="43.604078266092706" lon="12.790124777303594"><ele>565.6666666666667</ele><time>2026-04-23T15:25:01Z</time></trkpt><trkpt lat="43.604092251895445" lon="12.790021520247464"><ele>568.0</ele><time>2026-04-23T15:25:02Z</time></trkpt><trkpt lat="43.604131602648344" lon="12.789915943333831"><ele>568.0</ele><time>2026-04-23T15:25:06Z</time></trkpt><trkpt lat="43.60420632688882" lon="12.789863405826361"><ele>568.0</ele><time>2026-04-23T15:25:08Z</time></trkpt><trkpt lat="43.60433215378317" lon="12.789870437938788"><ele>568.0</ele><time>2026-04-23T15:25:10Z</time></trkpt><trkpt lat="43.60442115556176" lon="12.789833479773687"><ele>568.0</ele><time>2026-04-23T15:25:11Z</time></trkpt><trkpt lat="43.60452227713016" lon="12.789808073602892"><ele>568.0</ele><time>2026-04-23T15:25:12Z</time></trkpt><trkpt lat="43.60461976236571" lon="12.789807790519285"><ele>568.5</ele><time>2026-04-23T15:25:13Z</time></trkpt><trkpt lat="43.60470163321406" lon="12.78982037562555"><ele>569.0</ele><time>2026-04-23T15:25:14Z</time></trkpt><trkpt lat="43.60478169164065" lon="12.78984622567539"><ele>569.5</ele><time>2026-04-23T15:25:15Z</time></trkpt><trkpt lat="43.604870841859565" lon="12.78987505259897"><ele>570.0</ele><time>2026-04-23T15:25:16Z</time></trkpt><trkpt lat="43.604962715711075" lon="12.78990867955824"><ele>570.5</ele><time>2026-04-23T15:25:17Z</time></trkpt><trkpt lat="43.60505297001411" lon="12.78994995057181"><ele>571.0</ele><time>2026-04-23T15:25:18Z</time></trkpt><trkpt lat="43.60513910964403" lon="12.789998435782845"><ele>571.0</ele><time>2026-04-23T15:25:19Z</time></trkpt><trkpt lat="43.60520558382439" lon="12.790035953453526"><ele>571.0</ele><time>2026-04-23T15:25:20Z</time></trkpt><trkpt lat="43.60528040718433" lon="12.790061297310515"><ele>571.0</ele><time>2026-04-23T15:25:21Z</time></trkpt><trkpt lat="43.60535261915008" lon="12.790092883463299"><ele>571.0</ele><time>2026-04-23T15:25:22Z</time></trkpt><trkpt lat="43.60542202577383" lon="12.790109897718214"><ele>571.0</ele><time>2026-04-23T15:25:23Z</time></trkpt><trkpt lat="43.605536402177705" lon="12.790127467365727"><ele>571.0</ele><time>2026-04-23T15:25:25Z</time></trkpt><trkpt lat="43.605634368182734" lon="12.79017645114892"><ele>571.4</ele><time>2026-04-23T15:25:27Z</time></trkpt><trkpt lat="43.60570874643734" lon="12.790219877571419"><ele>571.8</ele><time>2026-04-23T15:25:29Z</time></trkpt><trkpt lat="43.60576642921768" lon="12.790259235727202"><ele>572.1999999999999</ele><time>2026-04-23T15:25:31Z</time></trkpt><trkpt lat="43.6058461595303" lon="12.790312116622287"><ele>572.6</ele><time>2026-04-23T15:25:33Z</time></trkpt><trkpt lat="43.60594421479275" lon="12.790354176423332"><ele>573.0</ele><time>2026-04-23T15:25:35Z</time></trkpt><trkpt lat="43.60605478439381" lon="12.790406078960958"><ele>573.0</ele><time>2026-04-23T15:25:37Z</time></trkpt><trkpt lat="43.60613737028092" lon="12.790469266349504"><ele>573.0</ele><time>2026-04-23T15:25:39Z</time></trkpt><trkpt lat="43.606204839794486" lon="12.79051509993562"><ele>573.0</ele><time>2026-04-23T15:25:41Z</time></trkpt><trkpt lat="43.60630108709006" lon="12.79058677562549"><ele>573.0</ele><time>2026-04-23T15:25:43Z</time></trkpt><trkpt lat="43.60636359589636" lon="12.790606322254751"><ele>573.0</ele><time>2026-04-23T15:25:45Z</time></trkpt><trkpt lat="43.606442713376225" lon="12.790626687578428"><ele>573.0</ele><time>2026-04-23T15:25:47Z</time></trkpt><trkpt lat="43.60651167900692" lon="12.790651951844579"><ele>572.8</ele><time>2026-04-23T15:25:48Z</time></trkpt><trkpt lat="43.60659800409777" lon="12.79067351234647"><ele>572.5999999999999</ele><time>2026-04-23T15:25:50Z</time></trkpt><trkpt lat="43.60668921547429" lon="12.79062572843647"><ele>572.4000000000001</ele><time>2026-04-23T15:25:53Z</time></trkpt><trkpt lat="43.60675643732139" lon="12.7904977197026"><ele>572.2</ele><time>2026-04-23T15:25:55Z</time></trkpt><trkpt lat="43.60678979348947" lon="12.790418445418124"><ele>572.0</ele><time>2026-04-23T15:25:56Z</time></trkpt><trkpt lat="43.60686036217807" lon="12.790287272115895"><ele>572.0</ele><time>2026-04-23T15:25:58Z</time></trkpt><trkpt lat="43.60689651056393" lon="12.790211122471977"><ele>572.0</ele><time>2026-04-23T15:25:59Z</time></trkpt><trkpt lat="43.606959220220155" lon="12.79009402490353"><ele>572.0</ele><time>2026-04-23T15:26:01Z</time></trkpt><trkpt lat="43.60699825672082" lon="12.790012174403621"><ele>572.0</ele><time>2026-04-23T15:26:03Z</time></trkpt><trkpt lat="43.607040423737054" lon="12.78992574227918"><ele>572.0</ele><time>2026-04-23T15:26:05Z</time></trkpt><trkpt lat="43.607107703073474" lon="12.789830678794788"><ele>572.0</ele><time>2026-04-23T15:26:47Z</time></trkpt><trkpt lat="43.60718018408254" lon="12.78969280171618"><ele>574.2</ele><time>2026-04-23T15:26:49Z</time></trkpt><trkpt lat="43.60721580756018" lon="12.789597632112331"><ele>576.4000000000001</ele><time>2026-04-23T15:26:50Z</time></trkpt><trkpt lat="43.6072658478489" lon="12.789500055539673"><ele>578.5999999999999</ele><time>2026-04-23T15:26:51Z</time></trkpt><trkpt lat="43.607326297907235" lon="12.789385545891733"><ele>580.8</ele><time>2026-04-23T15:26:52Z</time></trkpt><trkpt lat="43.60739027042449" lon="12.78925974252802"><ele>583.0</ele><time>2026-04-23T15:26:53Z</time></trkpt><trkpt lat="43.607461806791015" lon="12.789122100166093"><ele>584.1999999999999</ele><time>2026-04-23T15:26:54Z</time></trkpt><trkpt lat="43.60751916855266" lon="12.788994781536546"><ele>585.4</ele><time>2026-04-23T15:26:55Z</time></trkpt><trkpt lat="43.60758178191744" lon="12.78885829325"><ele>586.5999999999999</ele><time>2026-04-23T15:26:56Z</time></trkpt><trkpt lat="43.60764205424655" lon="12.788731029629536"><ele>587.8</ele><time>2026-04-23T15:26:57Z</time></trkpt><trkpt lat="43.60769242670005" lon="12.78861844406215"><ele>589.0</ele><time>2026-04-23T15:26:58Z</time></trkpt><trkpt lat="43.60774975869368" lon="12.788521653482636"><ele>588.5</ele><time>2026-04-23T15:26:59Z</time></trkpt><trkpt lat="43.60779290781744" lon="12.788440955535393"><ele>588.0</ele><time>2026-04-23T15:27:00Z</time></trkpt><trkpt lat="43.60784930620678" lon="12.788331585837133"><ele>587.5</ele><time>2026-04-23T15:27:02Z</time></trkpt><trkpt lat="43.60790887944543" lon="12.788250960737164"><ele>587.0</ele><time>2026-04-23T15:27:04Z</time></trkpt><trkpt lat="43.60800160830517" lon="12.7881525092068"><ele>586.5</ele><time>2026-04-23T15:27:06Z</time></trkpt><trkpt lat="43.608071425685516" lon="12.78813965968512"><ele>586.0</ele><time>2026-04-23T15:27:07Z</time></trkpt><trkpt lat="43.608144535795546" lon="12.788114750523793"><ele>587.6666666666667</ele><time>2026-04-23T15:27:08Z</time></trkpt><trkpt lat="43.608220661539676" lon="12.788080283568416"><ele>589.3333333333334</ele><time>2026-04-23T15:27:09Z</time></trkpt><trkpt lat="43.60829937518631" lon="12.788076601290992"><ele>591.0</ele><time>2026-04-23T15:27:10Z</time></trkpt><trkpt lat="43.60837862882077" lon="12.7881105368865"><ele>592.6666666666666</ele><time>2026-04-23T15:27:11Z</time></trkpt><trkpt lat="43.608435655753844" lon="12.78816100302955"><ele>594.3333333333333</ele><time>2026-04-23T15:27:12Z</time></trkpt><trkpt lat="43.60850267084525" lon="12.788218663601322"><ele>596.0</ele><time>2026-04-23T15:27:14Z</time></trkpt><trkpt lat="43.60857615070671" lon="12.788315209273986"><ele>596.0</ele><time>2026-04-23T15:27:16Z</time></trkpt><trkpt lat="43.60864651810531" lon="12.788414976344855"><ele>596.0</ele><time>2026-04-23T15:27:18Z</time></trkpt><trkpt lat="43.60870972780037" lon="12.788473003897774"><ele>596.0</ele><time>2026-04-23T15:27:20Z</time></trkpt><trkpt lat="43.60876498266803" lon="12.788589848125842"><ele>596.0</ele><time>2026-04-23T15:27:22Z</time></trkpt><trkpt lat="43.60880695018587" lon="12.788661994118613"><ele>596.0</ele><time>2026-04-23T15:27:23Z</time></trkpt><trkpt lat="43.608851263394044" lon="12.788746635999775"><ele>596.0</ele><time>2026-04-23T15:27:24Z</time></trkpt><trkpt lat="43.608891496502146" lon="12.788847520934988"><ele>597.6</ele><time>2026-04-23T15:27:25Z</time></trkpt><trkpt lat="43.60894088799547" lon="12.788960936810842"><ele>599.2</ele><time>2026-04-23T15:27:26Z</time></trkpt><trkpt lat="43.60898691723643" lon="12.789050844983086"><ele>600.8</ele><time>2026-04-23T15:27:27Z</time></trkpt><trkpt lat="43.60903714377835" lon="12.789110006196212"><ele>602.4</ele><time>2026-04-23T15:27:28Z</time></trkpt><trkpt lat="43.6091463983995" lon="12.78909494425974"><ele>604.0</ele><time>2026-04-23T15:27:30Z</time></trkpt><trkpt lat="43.60920411944495" lon="12.788948608088806"><ele>604.0</ele><time>2026-04-23T15:27:32Z</time></trkpt><trkpt lat="43.60919876712939" lon="12.788827975612415"><ele>604.0</ele><time>2026-04-23T15:27:34Z</time></trkpt><trkpt lat="43.60919326306217" lon="12.788664067874576"><ele>604.0</ele><time>2026-04-23T15:27:36Z</time></trkpt><trkpt lat="43.609194041196176" lon="12.788559357756515"><ele>604.0</ele><time>2026-04-23T15:27:37Z</time></trkpt><trkpt lat="43.60921706685852" lon="12.788459472002128"><ele>604.0</ele><time>2026-04-23T15:27:38Z</time></trkpt><trkpt lat="43.609219103333416" lon="12.788355126147604"><ele>604.0</ele><time>2026-04-23T15:27:39Z</time></trkpt><trkpt lat="43.60923218626104" lon="12.788221354228261"><ele>605.1666666666667</ele><time>2026-04-23T15:27:41Z</time></trkpt><trkpt lat="43.60921967775014" lon="12.788073200751278"><ele>606.3333333333334</ele><time>2026-04-23T15:27:43Z</time></trkpt><trkpt lat="43.60923991586428" lon="12.787983766460911"><ele>607.5</ele><time>2026-04-23T15:27:46Z</time></trkpt><trkpt lat="43.609225926595386" lon="12.78789565186727"><ele>608.6666666666666</ele><time>2026-04-23T15:28:07Z</time></trkpt><trkpt lat="43.60923044071148" lon="12.78798446422045"><ele>609.8333333333333</ele><time>2026-04-23T15:28:26Z</time></trkpt><trkpt lat="43.60922742900091" lon="12.788108580072468"><ele>611.0</ele><time>2026-04-23T15:28:27Z</time></trkpt><trkpt lat="43.60921179794192" lon="12.788317939607074"><ele>611.0</ele><time>2026-04-23T15:28:28Z</time></trkpt><trkpt lat="43.60927186238037" lon="12.788377818572142"><ele>611.0</ele><time>2026-04-23T15:28:38Z</time></trkpt><trkpt lat="43.60932827464497" lon="12.78833162517044"><ele>611.0</ele><time>2026-04-23T15:28:42Z</time></trkpt><trkpt lat="43.60941703124434" lon="12.788328912625293"><ele>611.0</ele><time>2026-04-23T15:28:46Z</time></trkpt><trkpt lat="43.60950230249664" lon="12.788308797370219"><ele>611.0</ele><time>2026-04-23T15:28:48Z</time></trkpt><trkpt lat="43.60962415183254" lon="12.788267904470686"><ele>611.0</ele><time>2026-04-23T15:28:50Z</time></trkpt><trkpt lat="43.60970355367976" lon="12.78821288413416"><ele>613.2</ele><time>2026-04-23T15:28:52Z</time></trkpt><trkpt lat="43.60978717361724" lon="12.78811628393083"><ele>615.4000000000001</ele><time>2026-04-23T15:28:54Z</time></trkpt><trkpt lat="43.60984904165082" lon="12.788034549820773"><ele>617.6</ele><time>2026-04-23T15:28:56Z</time></trkpt><trkpt lat="43.60989579930826" lon="12.787959052732846"><ele>619.8000000000001</ele><time>2026-04-23T15:28:58Z</time></trkpt><trkpt lat="43.609984509007646" lon="12.787871930181876"><ele>622.0</ele><time>2026-04-23T15:29:00Z</time></trkpt><trkpt lat="43.61006585016666" lon="12.787740281646828"><ele>623.0</ele><time>2026-04-23T15:29:02Z</time></trkpt><trkpt lat="43.61011571757565" lon="12.787657718496762"><ele>624.0</ele><time>2026-04-23T15:29:03Z</time></trkpt><trkpt lat="43.61015752926589" lon="12.787587946963086"><ele>625.0</ele><time>2026-04-23T15:29:04Z</time></trkpt><trkpt lat="43.61022896348056" lon="12.787506202297006"><ele>626.0</ele><time>2026-04-23T15:29:07Z</time></trkpt><trkpt lat="43.610246795951994" lon="12.78739992919621"><ele>627.0</ele><time>2026-04-23T15:29:09Z</time></trkpt><trkpt lat="43.61021769112842" lon="12.787224242737622"><ele>628.0</ele><time>2026-04-23T15:29:11Z</time></trkpt><trkpt lat="43.6101950080167" lon="12.787134718250732"><ele>628.0</ele><time>2026-04-23T15:29:12Z</time></trkpt><trkpt lat="43.610168784792656" lon="12.787018727796541"><ele>628.0</ele><time>2026-04-23T15:29:13Z</time></trkpt><trkpt lat="43.61015151582826" lon="12.786888620199578"><ele>628.0</ele><time>2026-04-23T15:29:14Z</time></trkpt><trkpt lat="43.61013146169587" lon="12.786738652232472"><ele>628.0</ele><time>2026-04-23T15:29:15Z</time></trkpt><trkpt lat="43.610096122182355" lon="12.786597035554312"><ele>628.0</ele><time>2026-04-23T15:29:16Z</time></trkpt><trkpt lat="43.61006228039253" lon="12.786476607322973"><ele>628.8333333333334</ele><time>2026-04-23T15:29:17Z</time></trkpt><trkpt lat="43.61002866864389" lon="12.786377062122545"><ele>629.6666666666667</ele><time>2026-04-23T15:29:18Z</time></trkpt><trkpt lat="43.610002031319375" lon="12.786263374217166"><ele>630.5</ele><time>2026-04-23T15:29:19Z</time></trkpt><trkpt lat="43.60998099917139" lon="12.786140065544512"><ele>631.3333333333334</ele><time>2026-04-23T15:29:20Z</time></trkpt><trkpt lat="43.6099711386678" lon="12.786010428424047"><ele>632.1666666666666</ele><time>2026-04-23T15:29:21Z</time></trkpt><trkpt lat="43.60995870593972" lon="12.785890124464299"><ele>633.0</ele><time>2026-04-23T15:29:22Z</time></trkpt><trkpt lat="43.60994520247586" lon="12.785780039653693"><ele>633.1666666666666</ele><time>2026-04-23T15:29:23Z</time></trkpt><trkpt lat="43.60993216754494" lon="12.785687667766997"><ele>633.3333333333334</ele><time>2026-04-23T15:29:24Z</time></trkpt><trkpt lat="43.60991738669797" lon="12.785533768698727"><ele>633.5</ele><time>2026-04-23T15:29:26Z</time></trkpt><trkpt lat="43.609913366065825" lon="12.785444159327907"><ele>633.6666666666667</ele><time>2026-04-23T15:29:27Z</time></trkpt><trkpt lat="43.609911182915624" lon="12.785347365727006"><ele>633.8333333333334</ele><time>2026-04-23T15:29:28Z</time></trkpt><trkpt lat="43.60991377280616" lon="12.785233923164062"><ele>634.0</ele><time>2026-04-23T15:29:29Z</time></trkpt><trkpt lat="43.60990658466404" lon="12.785119727284334"><ele>634.5</ele><time>2026-04-23T15:29:30Z</time></trkpt><trkpt lat="43.60989785393222" lon="12.785000674641612"><ele>635.0</ele><time>2026-04-23T15:29:31Z</time></trkpt><trkpt lat="43.60988482406347" lon="12.784877425718351"><ele>635.5</ele><time>2026-04-23T15:29:32Z</time></trkpt><trkpt lat="43.60987416617986" lon="12.784752106955823"><ele>636.0</ele><time>2026-04-23T15:29:33Z</time></trkpt><trkpt lat="43.609855776436405" lon="12.784628994355248"><ele>636.5</ele><time>2026-04-23T15:29:34Z</time></trkpt><trkpt lat="43.60982559673071" lon="12.784524919938459"><ele>637.0</ele><time>2026-04-23T15:29:35Z</time></trkpt><trkpt lat="43.60979718140808" lon="12.784430652151547"><ele>636.2857142857143</ele><time>2026-04-23T15:29:36Z</time></trkpt><trkpt lat="43.60977395874303" lon="12.784340831018177"><ele>635.5714285714286</ele><time>2026-04-23T15:29:37Z</time></trkpt><trkpt lat="43.609740615813514" lon="12.784256491009984"><ele>634.8571428571429</ele><time>2026-04-23T15:29:38Z</time></trkpt><trkpt lat="43.609702119152246" lon="12.784166735201849"><ele>634.1428571428571</ele><time>2026-04-23T15:29:39Z</time></trkpt><trkpt lat="43.60966939293943" lon="12.784070597147617"><ele>633.4285714285714</ele><time>2026-04-23T15:29:40Z</time></trkpt><trkpt lat="43.609642625931244" lon="12.783989407601505"><ele>632.7142857142858</ele><time>2026-04-23T15:29:41Z</time></trkpt><trkpt lat="43.60962062423823" lon="12.783903500499127"><ele>632.0</ele><time>2026-04-23T15:29:42Z</time></trkpt><trkpt lat="43.60959708945548" lon="12.783815757815688"><ele>632.0</ele><time>2026-04-23T15:29:43Z</time></trkpt><trkpt lat="43.609558573597965" lon="12.78367563716643"><ele>632.0</ele><time>2026-04-23T15:29:45Z</time></trkpt><trkpt lat="43.60953120494726" lon="12.7835897823947"><ele>632.0</ele><time>2026-04-23T15:29:47Z</time></trkpt><trkpt lat="43.609501157651046" lon="12.783505834020051"><ele>632.0</ele><time>2026-04-23T15:29:50Z</time></trkpt><trkpt lat="43.60946594687307" lon="12.78336046064617"><ele>632.0</ele><time>2026-04-23T15:29:52Z</time></trkpt><trkpt lat="43.60944181740112" lon="12.783202541535658"><ele>632.4</ele><time>2026-04-23T15:29:54Z</time></trkpt><trkpt lat="43.60946759522586" lon="12.783095851423544"><ele>632.8000000000001</ele><time>2026-04-23T15:29:56Z</time></trkpt><trkpt lat="43.6095378047523" lon="12.782987097180156"><ele>633.2</ele><time>2026-04-23T15:29:58Z</time></trkpt><trkpt lat="43.60962496270044" lon="12.78287553889201"><ele>633.6</ele><time>2026-04-23T15:30:00Z</time></trkpt><trkpt lat="43.609708503824066" lon="12.782740028321118"><ele>634.0</ele><time>2026-04-23T15:30:02Z</time></trkpt><trkpt lat="43.60975991696196" lon="12.782654708401228"><ele>635.1666666666667</ele><time>2026-04-23T15:30:03Z</time></trkpt><trkpt lat="43.60980695965258" lon="12.782561793651999"><ele>636.3333333333334</ele><time>2026-04-23T15:30:04Z</time></trkpt><trkpt lat="43.6098405268044" lon="12.78245803839162"><ele>637.5</ele><time>2026-04-23T15:30:05Z</time></trkpt><trkpt lat="43.60986270871914" lon="12.782352470164264"><ele>638.6666666666666</ele><time>2026-04-23T15:30:06Z</time></trkpt><trkpt lat="43.60987681008559" lon="12.782237727317051"><ele>639.8333333333333</ele><time>2026-04-23T15:30:07Z</time></trkpt><trkpt lat="43.609873567196566" lon="12.782113743414612"><ele>641.0</ele><time>2026-04-23T15:30:08Z</time></trkpt><trkpt lat="43.609860929516536" lon="12.781985149442072"><ele>641.0</ele><time>2026-04-23T15:30:09Z</time></trkpt><trkpt lat="43.609856178410226" lon="12.781859774468408"><ele>641.0</ele><time>2026-04-23T15:30:10Z</time></trkpt><trkpt lat="43.60985796773119" lon="12.781730505666568"><ele>641.0</ele><time>2026-04-23T15:30:11Z</time></trkpt><trkpt lat="43.60985447705825" lon="12.781606722088325"><ele>641.0</ele><time>2026-04-23T15:30:12Z</time></trkpt><trkpt lat="43.609853253988796" lon="12.78147763767555"><ele>641.0</ele><time>2026-04-23T15:30:13Z</time></trkpt><trkpt lat="43.609851870810076" lon="12.78135272568075"><ele>641.8333333333333</ele><time>2026-04-23T15:30:14Z</time></trkpt><trkpt lat="43.609849072843375" lon="12.78123162391609"><ele>642.6666666666666</ele><time>2026-04-23T15:30:15Z</time></trkpt><trkpt lat="43.60986052183064" lon="12.781107230734838"><ele>643.5</ele><time>2026-04-23T15:30:16Z</time></trkpt><trkpt lat="43.609879273992355" lon="12.781002263745568"><ele>644.3333333333334</ele><time>2026-04-23T15:30:17Z</time></trkpt><trkpt lat="43.60993236082243" lon="12.780878104637129"><ele>645.1666666666667</ele><time>2026-04-23T15:30:19Z</time></trkpt><trkpt lat="43.60998315200135" lon="12.780820006744229"><ele>646.0</ele><time>2026-04-23T15:31:36Z</time></trkpt><trkpt lat="43.6100677299189" lon="12.780740929197028"><ele>646.3333333333334</ele><time>2026-04-23T15:31:38Z</time></trkpt><trkpt lat="43.61013334528688" lon="12.780698460492284"><ele>646.6666666666667</ele><time>2026-04-23T15:31:39Z</time></trkpt><trkpt lat="43.61020371381277" lon="12.780655878694718"><ele>647.0</ele><time>2026-04-23T15:31:40Z</time></trkpt><trkpt lat="43.61028061832299" lon="12.780612844979668"><ele>647.3333333333334</ele><time>2026-04-23T15:31:41Z</time></trkpt><trkpt lat="43.61036667862583" lon="12.780533037752289"><ele>647.6666666666666</ele><time>2026-04-23T15:31:43Z</time></trkpt><trkpt lat="43.61043966134906" lon="12.780482304826497"><ele>648.0</ele><time>2026-04-23T15:31:45Z</time></trkpt><trkpt lat="43.61054233616741" lon="12.780414237955652"><ele>649.1666666666666</ele><time>2026-04-23T15:31:47Z</time></trkpt><trkpt lat="43.610653926534006" lon="12.780366561787277"><ele>650.3333333333334</ele><time>2026-04-23T15:31:49Z</time></trkpt><trkpt lat="43.610730445725196" lon="12.780302005607332"><ele>651.5</ele><time>2026-04-23T15:31:51Z</time></trkpt><trkpt lat="43.6107605344637" lon="12.78021251775944"><ele>652.6666666666667</ele><time>2026-04-23T15:32:03Z</time></trkpt><trkpt lat="43.610782401739726" lon="12.780119340606467"><ele>653.8333333333334</ele><time>2026-04-23T15:32:06Z</time></trkpt><trkpt lat="43.61085516411431" lon="12.780068796709763"><ele>655.0</ele><time>2026-04-23T15:32:09Z</time></trkpt><trkpt lat="43.61090587637527" lon="12.779999671222033"><ele>655.8333333333334</ele><time>2026-04-23T15:32:13Z</time></trkpt><trkpt lat="43.61097657885945" lon="12.77990978439392"><ele>656.6666666666667</ele><time>2026-04-23T15:32:15Z</time></trkpt><trkpt lat="43.611007573732785" lon="12.779833824919436"><ele>657.5</ele><time>2026-04-23T15:32:17Z</time></trkpt><trkpt lat="43.61093421042865" lon="12.779864311126925"><ele>658.3333333333334</ele><time>2026-04-23T15:32:38Z</time></trkpt><trkpt lat="43.61089319237122" lon="12.77995490028736"><ele>659.1666666666666</ele><time>2026-04-23T15:32:41Z</time></trkpt><trkpt lat="43.610858142376095" lon="12.780051888131856"><ele>660.0</ele><time>2026-04-23T15:32:44Z</time></trkpt><trkpt lat="43.61079729555947" lon="12.780115418107451"><ele>659.1666666666666</ele><time>2026-04-23T15:32:47Z</time></trkpt><trkpt lat="43.610760151053576" lon="12.780206445266439"><ele>658.3333333333334</ele><time>2026-04-23T15:32:50Z</time></trkpt><trkpt lat="43.6108246072517" lon="12.780311526514428"><ele>657.5</ele><time>2026-04-23T15:32:55Z</time></trkpt><trkpt lat="43.61088542090937" lon="12.780347401820155"><ele>656.6666666666667</ele><time>2026-04-23T15:32:56Z</time></trkpt><trkpt lat="43.610944913994985" lon="12.78038887185704"><ele>655.8333333333334</ele><time>2026-04-23T15:32:57Z</time></trkpt><trkpt lat="43.61104064262433" lon="12.780476022056405"><ele>655.0</ele><time>2026-04-23T15:32:59Z</time></trkpt><trkpt lat="43.61110296368285" lon="12.780528426484642"><ele>656.3333333333334</ele><time>2026-04-23T15:33:00Z</time></trkpt><trkpt lat="43.61116024348411" lon="12.780591115546226"><ele>657.6666666666667</ele><time>2026-04-23T15:33:01Z</time></trkpt><trkpt lat="43.61120003272271" lon="12.780663059658533"><ele>659.0</ele><time>2026-04-23T15:33:02Z</time></trkpt><trkpt lat="43.611269566779875" lon="12.780811250367522"><ele>660.3333333333334</ele><time>2026-04-23T15:33:04Z</time></trkpt><trkpt lat="43.61132154138301" lon="12.780875564443097"><ele>661.6666666666666</ele><time>2026-04-23T15:33:05Z</time></trkpt><trkpt lat="43.611381301391454" lon="12.78094861265938"><ele>663.0</ele><time>2026-04-23T15:33:06Z</time></trkpt><trkpt lat="43.611442259636085" lon="12.781022220995423"><ele>663.0</ele><time>2026-04-23T15:33:07Z</time></trkpt><trkpt lat="43.61150874169114" lon="12.781084616425392"><ele>663.0</ele><time>2026-04-23T15:33:08Z</time></trkpt><trkpt lat="43.61159940229635" lon="12.78118790872215"><ele>663.0</ele><time>2026-04-23T15:33:10Z</time></trkpt><trkpt lat="43.6116503854501" lon="12.781250716251398"><ele>663.0</ele><time>2026-04-23T15:33:11Z</time></trkpt><trkpt lat="43.611692908469315" lon="12.781328001185706"><ele>663.0</ele><time>2026-04-23T15:33:12Z</time></trkpt><trkpt lat="43.611735977797636" lon="12.781393049283478"><ele>663.0</ele><time>2026-04-23T15:33:13Z</time></trkpt><trkpt lat="43.61177176221414" lon="12.781476459608323"><ele>663.0</ele><time>2026-04-23T15:33:14Z</time></trkpt><trkpt lat="43.61181524121104" lon="12.781579172228009"><ele>663.0</ele><time>2026-04-23T15:33:15Z</time></trkpt><trkpt lat="43.61185803274872" lon="12.781690855191407"><ele>663.0</ele><time>2026-04-23T15:33:16Z</time></trkpt><trkpt lat="43.61188283148541" lon="12.781798084434103"><ele>663.0</ele><time>2026-04-23T15:33:17Z</time></trkpt><trkpt lat="43.611892670809205" lon="12.7819079382848"><ele>663.0</ele><time>2026-04-23T15:33:18Z</time></trkpt><trkpt lat="43.611908325511" lon="12.782030834032614"><ele>663.0</ele><time>2026-04-23T15:33:19Z</time></trkpt><trkpt lat="43.61193470631937" lon="12.782146829125299"><ele>663.6666666666666</ele><time>2026-04-23T15:33:20Z</time></trkpt><trkpt lat="43.61197350161306" lon="12.782249046675176"><ele>664.3333333333334</ele><time>2026-04-23T15:33:21Z</time></trkpt><trkpt lat="43.61202236905729" lon="12.78234078990122"><ele>665.0</ele><time>2026-04-23T15:33:22Z</time></trkpt><trkpt lat="43.61207914403518" lon="12.782419217761406"><ele>665.6666666666667</ele><time>2026-04-23T15:33:23Z</time></trkpt><trkpt lat="43.612141979233385" lon="12.782508312586979"><ele>666.3333333333334</ele><time>2026-04-23T15:33:24Z</time></trkpt><trkpt lat="43.61220388110547" lon="12.782567662807208"><ele>667.0</ele><time>2026-04-23T15:33:25Z</time></trkpt><trkpt lat="43.6122597180779" lon="12.782635166234996"><ele>665.1666666666667</ele><time>2026-04-23T15:33:26Z</time></trkpt><trkpt lat="43.612296791708964" lon="12.78271538726209"><ele>663.3333333333334</ele><time>2026-04-23T15:33:27Z</time></trkpt><trkpt lat="43.61233183102967" lon="12.782816780483337"><ele>661.5</ele><time>2026-04-23T15:33:28Z</time></trkpt><trkpt lat="43.61235947818359" lon="12.782921003869575"><ele>659.6666666666666</ele><time>2026-04-23T15:33:29Z</time></trkpt><trkpt lat="43.612364840744696" lon="12.783023134480926"><ele>657.8333333333333</ele><time>2026-04-23T15:33:30Z</time></trkpt><trkpt lat="43.61238310272172" lon="12.783128028468083"><ele>656.0</ele><time>2026-04-23T15:33:31Z</time></trkpt><trkpt lat="43.61241759725535" lon="12.783220742093937"><ele>656.0</ele><time>2026-04-23T15:33:32Z</time></trkpt><trkpt lat="43.61247239917518" lon="12.783295118737602"><ele>656.0</ele><time>2026-04-23T15:33:33Z</time></trkpt><trkpt lat="43.61252738641049" lon="12.783369302270978"><ele>656.0</ele><time>2026-04-23T15:33:34Z</time></trkpt><trkpt lat="43.612590668479406" lon="12.783434666485782"><ele>656.0</ele><time>2026-04-23T15:33:35Z</time></trkpt><trkpt lat="43.61266020698041" lon="12.783470707163344"><ele>656.0</ele><time>2026-04-23T15:33:36Z</time></trkpt><trkpt lat="43.61273173126409" lon="12.783480696940316"><ele>656.0</ele><time>2026-04-23T15:33:37Z</time></trkpt><trkpt lat="43.612806914393744" lon="12.783473242013216"><ele>654.8</ele><time>2026-04-23T15:33:38Z</time></trkpt><trkpt lat="43.61289937956173" lon="12.783384728553367"><ele>653.5999999999999</ele><time>2026-04-23T15:33:40Z</time></trkpt><trkpt lat="43.61296103249608" lon="12.783220087458437"><ele>652.4</ele><time>2026-04-23T15:33:42Z</time></trkpt><trkpt lat="43.61300838113531" lon="12.783156797440148"><ele>651.2</ele><time>2026-04-23T15:33:43Z</time></trkpt><trkpt lat="43.61312714170573" lon="12.783154069703468"><ele>650.0</ele><time>2026-04-23T15:33:45Z</time></trkpt><trkpt lat="43.61323408291915" lon="12.783213630347444"><ele>650.0</ele><time>2026-04-23T15:33:47Z</time></trkpt><trkpt lat="43.613348129685214" lon="12.783147817064211"><ele>650.0</ele><time>2026-04-23T15:33:49Z</time></trkpt><trkpt lat="43.613420542730815" lon="12.78308780430178"><ele>650.0</ele><time>2026-04-23T15:33:50Z</time></trkpt><trkpt lat="43.61348384262542" lon="12.783014963435093"><ele>650.0</ele><time>2026-04-23T15:33:51Z</time></trkpt><trkpt lat="43.61353656919626" lon="12.782942809665418"><ele>650.0</ele><time>2026-04-23T15:33:52Z</time></trkpt><trkpt lat="43.61358246942781" lon="12.782877585442334"><ele>650.0</ele><time>2026-04-23T15:33:53Z</time></trkpt><trkpt lat="43.61367648989068" lon="12.782885103547082"><ele>652.5</ele><time>2026-04-23T15:33:56Z</time></trkpt><trkpt lat="43.61373634189707" lon="12.782917482668486"><ele>655.0</ele><time>2026-04-23T15:33:57Z</time></trkpt><trkpt lat="43.61379774009642" lon="12.782940288127817"><ele>657.5</ele><time>2026-04-23T15:33:58Z</time></trkpt><trkpt lat="43.61389651787718" lon="12.782970252474382"><ele>660.0</ele><time>2026-04-23T15:34:00Z</time></trkpt><trkpt lat="43.61395274393762" lon="12.783103431441909"><ele>662.5</ele><time>2026-04-23T15:34:02Z</time></trkpt><trkpt lat="43.613969398109376" lon="12.78324915486226"><ele>665.0</ele><time>2026-04-23T15:34:04Z</time></trkpt><trkpt lat="43.61399179529637" lon="12.783346078469203"><ele>665.0</ele><time>2026-04-23T15:34:05Z</time></trkpt><trkpt lat="43.61400264241737" lon="12.783459774497828"><ele>665.0</ele><time>2026-04-23T15:34:06Z</time></trkpt><trkpt lat="43.614006694402846" lon="12.783584980330742"><ele>665.0</ele><time>2026-04-23T15:34:07Z</time></trkpt><trkpt lat="43.61401006161526" lon="12.78371711991895"><ele>665.0</ele><time>2026-04-23T15:34:08Z</time></trkpt><trkpt lat="43.61403985806751" lon="12.783818834824338"><ele>665.0</ele><time>2026-04-23T15:34:09Z</time></trkpt><trkpt lat="43.61406176093631" lon="12.783909224197773"><ele>665.0</ele><time>2026-04-23T15:34:10Z</time></trkpt><trkpt lat="43.614071061912504" lon="12.784006029851977"><ele>663.5</ele><time>2026-04-23T15:34:11Z</time></trkpt><trkpt lat="43.6140992682337" lon="12.78409458547761"><ele>662.0</ele><time>2026-04-23T15:34:12Z</time></trkpt><trkpt lat="43.6141367440015" lon="12.78417674018877"><ele>660.5</ele><time>2026-04-23T15:34:13Z</time></trkpt><trkpt lat="43.614181316537454" lon="12.784255083385576"><ele>659.0</ele><time>2026-04-23T15:34:14Z</time></trkpt><trkpt lat="43.614222236943476" lon="12.784322135275257"><ele>657.5</ele><time>2026-04-23T15:34:15Z</time></trkpt><trkpt lat="43.61429366424269" lon="12.784438154953355"><ele>656.0</ele><time>2026-04-23T15:34:17Z</time></trkpt><trkpt lat="43.61434964403494" lon="12.784511209143773"><ele>657.5999999999999</ele><time>2026-04-23T15:34:18Z</time></trkpt><trkpt lat="43.61441779132819" lon="12.784611785970574"><ele>659.2</ele><time>2026-04-23T15:34:19Z</time></trkpt><trkpt lat="43.61448514647295" lon="12.784727006853295"><ele>660.8</ele><time>2026-04-23T15:34:20Z</time></trkpt><trkpt lat="43.61454948184696" lon="12.784842479792676"><ele>662.4000000000001</ele><time>2026-04-23T15:34:21Z</time></trkpt><trkpt lat="43.61460711672108" lon="12.784926767997554"><ele>664.0</ele><time>2026-04-23T15:34:22Z</time></trkpt><trkpt lat="43.61465526605473" lon="12.784995929504884"><ele>664.0</ele><time>2026-04-23T15:34:23Z</time></trkpt><trkpt lat="43.61470059974363" lon="12.785074954588405"><ele>664.0</ele><time>2026-04-23T15:34:24Z</time></trkpt><trkpt lat="43.61478060061367" lon="12.785167161640356"><ele>664.0</ele><time>2026-04-23T15:34:26Z</time></trkpt><trkpt lat="43.61486048656542" lon="12.78520920925124"><ele>664.0</ele><time>2026-04-23T15:34:28Z</time></trkpt><trkpt lat="43.61492855228414" lon="12.785252688431587"><ele>664.0</ele><time>2026-04-23T15:34:31Z</time></trkpt><trkpt lat="43.615023410800895" lon="12.785316120345048"><ele>664.0</ele><time>2026-04-23T15:34:33Z</time></trkpt><trkpt lat="43.6151219860665" lon="12.785386644955674"><ele>664.0</ele><time>2026-04-23T15:34:35Z</time></trkpt><trkpt lat="43.61520868597252" lon="12.785457938018196"><ele>664.0</ele><time>2026-04-23T15:34:37Z</time></trkpt><trkpt lat="43.615328158627676" lon="12.785535815101504"><ele>664.0</ele><time>2026-04-23T15:34:39Z</time></trkpt><trkpt lat="43.6154069756134" lon="12.785584751361984"><ele>664.0</ele><time>2026-04-23T15:34:40Z</time></trkpt><trkpt lat="43.6154745568186" lon="12.785635496103925"><ele>664.0</ele><time>2026-04-23T15:34:41Z</time></trkpt><trkpt lat="43.615577410947246" lon="12.785692392308425"><ele>664.0</ele><time>2026-04-23T15:34:43Z</time></trkpt><trkpt lat="43.61563352250818" lon="12.785778388349435"><ele>664.0</ele><time>2026-04-23T15:34:45Z</time></trkpt><trkpt lat="43.61567658426174" lon="12.785862317383183"><ele>664.0</ele><time>2026-04-23T15:34:47Z</time></trkpt><trkpt lat="43.61574591954916" lon="12.785879086607444"><ele>664.0</ele><time>2026-04-23T15:35:00Z</time></trkpt><trkpt lat="43.615823889028526" lon="12.7860189146264"><ele>664.0</ele><time>2026-04-23T15:35:03Z</time></trkpt><trkpt lat="43.61590897679967" lon="12.786109912990185"><ele>664.8000000000001</ele><time>2026-04-23T15:35:05Z</time></trkpt><trkpt lat="43.61599285293689" lon="12.786209761182638"><ele>665.6</ele><time>2026-04-23T15:35:07Z</time></trkpt><trkpt lat="43.6160600479623" lon="12.786272344270255"><ele>666.4</ele><time>2026-04-23T15:35:08Z</time></trkpt><trkpt lat="43.61612476050953" lon="12.78635626493899"><ele>667.2</ele><time>2026-04-23T15:35:09Z</time></trkpt><trkpt lat="43.61620357833763" lon="12.786453683188302"><ele>668.0</ele><time>2026-04-23T15:35:10Z</time></trkpt><trkpt lat="43.61629721640271" lon="12.78655542705043"><ele>668.0</ele><time>2026-04-23T15:35:11Z</time></trkpt><trkpt lat="43.61635595978941" lon="12.786653339746673"><ele>668.0</ele><time>2026-04-23T15:35:12Z</time></trkpt><trkpt lat="43.616396608114805" lon="12.786778519848372"><ele>668.0</ele><time>2026-04-23T15:35:13Z</time></trkpt><trkpt lat="43.616427185548595" lon="12.786908501733684"><ele>668.0</ele><time>2026-04-23T15:35:14Z</time></trkpt><trkpt lat="43.61645329883475" lon="12.787060058960176"><ele>668.0</ele><time>2026-04-23T15:35:15Z</time></trkpt><trkpt lat="43.61649248472702" lon="12.787197465840594"><ele>664.25</ele><time>2026-04-23T15:35:16Z</time></trkpt><trkpt lat="43.61656524176629" lon="12.78730142351348"><ele>660.5</ele><time>2026-04-23T15:35:17Z</time></trkpt><trkpt lat="43.616645550840076" lon="12.787397885613824"><ele>656.75</ele><time>2026-04-23T15:35:18Z</time></trkpt><trkpt lat="43.616740292011954" lon="12.787490556331923"><ele>653.0</ele><time>2026-04-23T15:35:19Z</time></trkpt><trkpt lat="43.61684550878476" lon="12.787587194884113"><ele>653.0</ele><time>2026-04-23T15:35:20Z</time></trkpt><trkpt lat="43.616964346712656" lon="12.787660940097178"><ele>653.0</ele><time>2026-04-23T15:35:21Z</time></trkpt><trkpt lat="43.61706603726005" lon="12.787724846124991"><ele>653.0</ele><time>2026-04-23T15:35:22Z</time></trkpt><trkpt lat="43.61715128000456" lon="12.787781573855193"><ele>653.0</ele><time>2026-04-23T15:35:23Z</time></trkpt><trkpt lat="43.617220309041564" lon="12.787819644114434"><ele>653.0</ele><time>2026-04-23T15:35:25Z</time></trkpt><trkpt lat="43.617258402546945" lon="12.78791047232166"><ele>652.6666666666666</ele><time>2026-04-23T15:36:21Z</time></trkpt><trkpt lat="43.61727856536511" lon="12.788022898466995"><ele>652.3333333333333</ele><time>2026-04-23T15:36:23Z</time></trkpt><trkpt lat="43.617276197901965" lon="12.788118872368678"><ele>652.0</ele><time>2026-04-23T15:36:25Z</time></trkpt><trkpt lat="43.61726264139511" lon="12.788239279031782"><ele>651.6666666666666</ele><time>2026-04-23T15:36:27Z</time></trkpt><trkpt lat="43.617248443019506" lon="12.788329274805413"><ele>651.3333333333334</ele><time>2026-04-23T15:36:29Z</time></trkpt><trkpt lat="43.617235056233284" lon="12.788446561665978"><ele>651.0</ele><time>2026-04-23T15:36:32Z</time></trkpt><trkpt lat="43.61729366648105" lon="12.788555813433844"><ele>649.8333333333334</ele><time>2026-04-23T15:36:36Z</time></trkpt><trkpt lat="43.61732582326356" lon="12.78863343792778"><ele>648.6666666666666</ele><time>2026-04-23T15:36:38Z</time></trkpt><trkpt lat="43.61733439825848" lon="12.788760390912733"><ele>647.5</ele><time>2026-04-23T15:36:42Z</time></trkpt><trkpt lat="43.61730440995627" lon="12.788858996885043"><ele>646.3333333333333</ele><time>2026-04-23T15:36:44Z</time></trkpt><trkpt lat="43.617304410278095" lon="12.78897280252837"><ele>645.1666666666666</ele><time>2026-04-23T15:36:50Z</time></trkpt><trkpt lat="43.6173310971162" lon="12.789052369099391"><ele>644.0</ele><time>2026-04-23T15:36:53Z</time></trkpt><trkpt lat="43.617303402298425" lon="12.789143066746046"><ele>644.0</ele><time>2026-04-23T15:36:58Z</time></trkpt><trkpt lat="43.617260202769394" lon="12.789232196140789"><ele>644.0</ele><time>2026-04-23T15:37:03Z</time></trkpt><trkpt lat="43.6172003660442" lon="12.789303568878108"><ele>644.0</ele><time>2026-04-23T15:37:06Z</time></trkpt><trkpt lat="43.61716343555509" lon="12.789379257268964"><ele>644.0</ele><time>2026-04-23T15:37:09Z</time></trkpt><trkpt lat="43.61716584223521" lon="12.789481884681726"><ele>644.0</ele><time>2026-04-23T15:37:12Z</time></trkpt><trkpt lat="43.6171244922387" lon="12.789580302827178"><ele>644.0</ele><time>2026-04-23T15:37:15Z</time></trkpt><trkpt lat="43.61704105351988" lon="12.789652131716425"><ele>640.0</ele><time>2026-04-23T15:37:17Z</time></trkpt><trkpt lat="43.61697633812988" lon="12.789752782390602"><ele>636.0</ele><time>2026-04-23T15:37:19Z</time></trkpt><trkpt lat="43.61689470613375" lon="12.789833188934923"><ele>632.0</ele><time>2026-04-23T15:37:21Z</time></trkpt><trkpt lat="43.6168026410898" lon="12.78983368039948"><ele>628.0</ele><time>2026-04-23T15:37:23Z</time></trkpt><trkpt lat="43.61674227537535" lon="12.789862568146457"><ele>624.0</ele><time>2026-04-23T15:37:24Z</time></trkpt><trkpt lat="43.61668769567138" lon="12.789984003616992"><ele>624.0</ele><time>2026-04-23T15:37:26Z</time></trkpt><trkpt lat="43.61663571568961" lon="12.790139890371846"><ele>624.0</ele><time>2026-04-23T15:37:28Z</time></trkpt><trkpt lat="43.61660992402218" lon="12.790222251174397"><ele>624.0</ele><time>2026-04-23T15:37:29Z</time></trkpt><trkpt lat="43.616578691682506" lon="12.790312982367928"><ele>624.0</ele><time>2026-04-23T15:37:30Z</time></trkpt><trkpt lat="43.61654392105495" lon="12.790397608143051"><ele>624.0</ele><time>2026-04-23T15:37:31Z</time></trkpt><trkpt lat="43.61650178361318" lon="12.790492714418408"><ele>624.0</ele><time>2026-04-23T15:37:32Z</time></trkpt><trkpt lat="43.61646470263838" lon="12.790580192042402"><ele>622.8333333333334</ele><time>2026-04-23T15:37:33Z</time></trkpt><trkpt lat="43.616429498145166" lon="12.790662211946017"><ele>621.6666666666666</ele><time>2026-04-23T15:37:34Z</time></trkpt><trkpt lat="43.61639891740285" lon="12.790740864711347"><ele>620.5</ele><time>2026-04-23T15:37:35Z</time></trkpt><trkpt lat="43.61634982028031" lon="12.790889599953813"><ele>619.3333333333333</ele><time>2026-04-23T15:37:37Z</time></trkpt><trkpt lat="43.61633241798094" lon="12.79105760834157"><ele>618.1666666666666</ele><time>2026-04-23T15:37:39Z</time></trkpt><trkpt lat="43.616324707876686" lon="12.791144488870419"><ele>617.0</ele><time>2026-04-23T15:37:40Z</time></trkpt><trkpt lat="43.61630702887427" lon="12.79132072886324"><ele>614.8333333333333</ele><time>2026-04-23T15:37:42Z</time></trkpt><trkpt lat="43.616303646263674" lon="12.7914799695031"><ele>612.6666666666666</ele><time>2026-04-23T15:37:44Z</time></trkpt><trkpt lat="43.6163074083776" lon="12.791590900232864"><ele>610.5</ele><time>2026-04-23T15:37:46Z</time></trkpt><trkpt lat="43.616293009637126" lon="12.791695485895982"><ele>608.3333333333334</ele><time>2026-04-23T15:37:48Z</time></trkpt><trkpt lat="43.61625286015811" lon="12.791767402707753"><ele>606.1666666666667</ele><time>2026-04-23T15:37:50Z</time></trkpt><trkpt lat="43.616218007386145" lon="12.791840788990246"><ele>604.0</ele><time>2026-04-23T15:37:51Z</time></trkpt><trkpt lat="43.61617048489373" lon="12.791959125897348"><ele>602.2</ele><time>2026-04-23T15:37:53Z</time></trkpt><trkpt lat="43.61614255602641" lon="12.792046605160335"><ele>600.4</ele><time>2026-04-23T15:37:55Z</time></trkpt><trkpt lat="43.61608467108106" lon="12.792150096305672"><ele>598.6</ele><time>2026-04-23T15:37:57Z</time></trkpt><trkpt lat="43.61600942255185" lon="12.792295941797876"><ele>596.8</ele><time>2026-04-23T15:37:59Z</time></trkpt><trkpt lat="43.615966214014996" lon="12.792377414189698"><ele>595.0</ele><time>2026-04-23T15:38:00Z</time></trkpt><trkpt lat="43.6158989055797" lon="12.792510463537981"><ele>595.0</ele><time>2026-04-23T15:38:02Z</time></trkpt><trkpt lat="43.61585865187181" lon="12.792643738044049"><ele>595.0</ele><time>2026-04-23T15:38:04Z</time></trkpt><trkpt lat="43.615786512285524" lon="12.792800327219144"><ele>595.0</ele><time>2026-04-23T15:38:06Z</time></trkpt><trkpt lat="43.61573451673413" lon="12.792902279220977"><ele>595.0</ele><time>2026-04-23T15:38:07Z</time></trkpt><trkpt lat="43.61567605666037" lon="12.793013893494754"><ele>595.0</ele><time>2026-04-23T15:38:08Z</time></trkpt><trkpt lat="43.61562479166975" lon="12.793121167657967"><ele>594.3333333333334</ele><time>2026-04-23T15:38:09Z</time></trkpt><trkpt lat="43.61557767418983" lon="12.793217212021643"><ele>593.6666666666667</ele><time>2026-04-23T15:38:10Z</time></trkpt><trkpt lat="43.61554089345167" lon="12.793294668443128"><ele>593.0</ele><time>2026-04-23T15:38:11Z</time></trkpt><trkpt lat="43.61548590644879" lon="12.793352333609747"><ele>592.3333333333334</ele><time>2026-04-23T15:38:13Z</time></trkpt><trkpt lat="43.61555221043526" lon="12.793266200289228"><ele>591.6666666666666</ele><time>2026-04-23T15:39:20Z</time></trkpt><trkpt lat="43.61560263274843" lon="12.793196709366583"><ele>591.0</ele><time>2026-04-23T15:39:21Z</time></trkpt><trkpt lat="43.61583673943039" lon="12.793225636440438"><ele>591.0</ele><time>2026-04-23T15:39:22Z</time></trkpt><trkpt lat="43.6159398037492" lon="12.793123808720871"><ele>591.0</ele><time>2026-04-23T15:39:23Z</time></trkpt><trkpt lat="43.616036631952085" lon="12.793033894290646"><ele>591.0</ele><time>2026-04-23T15:39:24Z</time></trkpt><trkpt lat="43.616128018077596" lon="12.792950632457792"><ele>591.0</ele><time>2026-04-23T15:39:25Z</time></trkpt><trkpt lat="43.616218106501364" lon="12.79286236082956"><ele>589.75</ele><time>2026-04-23T15:39:26Z</time></trkpt><trkpt lat="43.61632211895499" lon="12.792797568577711"><ele>588.5</ele><time>2026-04-23T15:39:27Z</time></trkpt><trkpt lat="43.61642384476185" lon="12.792707448606375"><ele>587.25</ele><time>2026-04-23T15:39:28Z</time></trkpt><trkpt lat="43.61650601492693" lon="12.792601734374397"><ele>586.0</ele><time>2026-04-23T15:39:29Z</time></trkpt><trkpt lat="43.616593363905245" lon="12.792524407785923"><ele>586.0</ele><time>2026-04-23T15:39:30Z</time></trkpt><trkpt lat="43.616661289413116" lon="12.792448607866648"><ele>586.0</ele><time>2026-04-23T15:39:31Z</time></trkpt><trkpt lat="43.616728507337136" lon="12.792346637566698"><ele>586.0</ele><time>2026-04-23T15:39:32Z</time></trkpt><trkpt lat="43.61681607965849" lon="12.792236638563502"><ele>586.0</ele><time>2026-04-23T15:39:33Z</time></trkpt><trkpt lat="43.61690789668724" lon="12.792134693411862"><ele>586.0</ele><time>2026-04-23T15:39:34Z</time></trkpt><trkpt lat="43.61698198723719" lon="12.792073661907516"><ele>587.1666666666667</ele><time>2026-04-23T15:39:35Z</time></trkpt><trkpt lat="43.61703193776885" lon="12.791996536341502"><ele>588.3333333333334</ele><time>2026-04-23T15:39:36Z</time></trkpt><trkpt lat="43.61708627471938" lon="12.791939838333908"><ele>589.5</ele><time>2026-04-23T15:39:37Z</time></trkpt><trkpt lat="43.617151333503884" lon="12.791898986086577"><ele>590.6666666666666</ele><time>2026-04-23T15:39:38Z</time></trkpt><trkpt lat="43.617217215436895" lon="12.791859392633587"><ele>591.8333333333333</ele><time>2026-04-23T15:39:39Z</time></trkpt><trkpt lat="43.617314846002216" lon="12.791807546300207"><ele>593.0</ele><time>2026-04-23T15:39:40Z</time></trkpt><trkpt lat="43.6174011255201" lon="12.791742891082995"><ele>593.0</ele><time>2026-04-23T15:39:41Z</time></trkpt><trkpt lat="43.617481886004825" lon="12.791746951198"><ele>593.0</ele><time>2026-04-23T15:39:43Z</time></trkpt><trkpt lat="43.61755288515142" lon="12.791874364239376"><ele>593.0</ele><time>2026-04-23T15:39:45Z</time></trkpt><trkpt lat="43.61756172569914" lon="12.792061328415658"><ele>593.0</ele><time>2026-04-23T15:39:47Z</time></trkpt><trkpt lat="43.61756937168453" lon="12.792191242666776"><ele>593.0</ele><time>2026-04-23T15:39:48Z</time></trkpt><trkpt lat="43.617568894699325" lon="12.792326181951038"><ele>590.0</ele><time>2026-04-23T15:39:49Z</time></trkpt><trkpt lat="43.61758807805478" lon="12.792476640776329"><ele>587.0</ele><time>2026-04-23T15:39:50Z</time></trkpt><trkpt lat="43.61758364991868" lon="12.792634246661965"><ele>584.0</ele><time>2026-04-23T15:39:51Z</time></trkpt><trkpt lat="43.61759220998641" lon="12.7927706804381"><ele>581.0</ele><time>2026-04-23T15:39:52Z</time></trkpt><trkpt lat="43.617594207146375" lon="12.792889765454754"><ele>578.0</ele><time>2026-04-23T15:39:53Z</time></trkpt><trkpt lat="43.617595140429536" lon="12.79300971736427"><ele>575.1999999999999</ele><time>2026-04-23T15:39:54Z</time></trkpt><trkpt lat="43.617597563014435" lon="12.793125933231076"><ele>572.4</ele><time>2026-04-23T15:39:55Z</time></trkpt><trkpt lat="43.61761571587051" lon="12.793256699399548"><ele>569.5999999999999</ele><time>2026-04-23T15:39:56Z</time></trkpt><trkpt lat="43.61763428587218" lon="12.793408074065244"><ele>566.8</ele><time>2026-04-23T15:39:57Z</time></trkpt><trkpt lat="43.61766073020197" lon="12.793552344686596"><ele>564.0</ele><time>2026-04-23T15:39:58Z</time></trkpt><trkpt lat="43.617679142962665" lon="12.793684702458489"><ele>563.2</ele><time>2026-04-23T15:39:59Z</time></trkpt><trkpt lat="43.61770078400913" lon="12.793797189777425"><ele>562.4</ele><time>2026-04-23T15:40:00Z</time></trkpt><trkpt lat="43.61773033243933" lon="12.793973743456444"><ele>561.6</ele><time>2026-04-23T15:40:02Z</time></trkpt><trkpt lat="43.61776641668461" lon="12.79410976406312"><ele>560.8</ele><time>2026-04-23T15:40:03Z</time></trkpt><trkpt lat="43.61780422593183" lon="12.79423971038948"><ele>560.0</ele><time>2026-04-23T15:40:04Z</time></trkpt><trkpt lat="43.61785770346051" lon="12.794351506293552"><ele>560.0</ele><time>2026-04-23T15:40:05Z</time></trkpt><trkpt lat="43.61788205914852" lon="12.794471936922156"><ele>560.0</ele><time>2026-04-23T15:40:06Z</time></trkpt><trkpt lat="43.61792153835181" lon="12.794585520191115"><ele>560.0</ele><time>2026-04-23T15:40:07Z</time></trkpt><trkpt lat="43.61795872050166" lon="12.794710844259418"><ele>560.0</ele><time>2026-04-23T15:40:08Z</time></trkpt><trkpt lat="43.617994595828826" lon="12.794834827952904"><ele>560.0</ele><time>2026-04-23T15:40:09Z</time></trkpt><trkpt lat="43.61804003784967" lon="12.794955324961299"><ele>560.0</ele><time>2026-04-23T15:40:10Z</time></trkpt><trkpt lat="43.618085038303114" lon="12.795079087587908"><ele>560.0</ele><time>2026-04-23T15:40:11Z</time></trkpt><trkpt lat="43.61811112450549" lon="12.795186568704187"><ele>560.0</ele><time>2026-04-23T15:40:12Z</time></trkpt><trkpt lat="43.618134264906836" lon="12.795286397299515"><ele>560.0</ele><time>2026-04-23T15:40:13Z</time></trkpt><trkpt lat="43.61816889752024" lon="12.795406564250253"><ele>560.0</ele><time>2026-04-23T15:40:14Z</time></trkpt><trkpt lat="43.61820870080403" lon="12.795552540693903"><ele>557.1666666666666</ele><time>2026-04-23T15:40:15Z</time></trkpt><trkpt lat="43.61826597363634" lon="12.795706458236396"><ele>554.3333333333333</ele><time>2026-04-23T15:40:16Z</time></trkpt><trkpt lat="43.618318327100205" lon="12.795840603281855"><ele>551.5</ele><time>2026-04-23T15:40:17Z</time></trkpt><trkpt lat="43.61835903233909" lon="12.79592879384172"><ele>548.6666666666666</ele><time>2026-04-23T15:40:18Z</time></trkpt><trkpt lat="43.61837056078735" lon="12.79602337849207"><ele>545.8333333333334</ele><time>2026-04-23T15:40:19Z</time></trkpt><trkpt lat="43.61840196879591" lon="12.796103063234405"><ele>543.0</ele><time>2026-04-23T15:40:20Z</time></trkpt><trkpt lat="43.61843322057406" lon="12.796194089634554"><ele>542.0</ele><time>2026-04-23T15:40:21Z</time></trkpt><trkpt lat="43.61848657969441" lon="12.796305679999996"><ele>541.0</ele><time>2026-04-23T15:40:22Z</time></trkpt><trkpt lat="43.618539087295666" lon="12.7963744606475"><ele>540.0</ele><time>2026-04-23T15:40:23Z</time></trkpt><trkpt lat="43.61862117065197" lon="12.796445293476577"><ele>539.0</ele><time>2026-04-23T15:40:25Z</time></trkpt><trkpt lat="43.618717269603486" lon="12.796539365018228"><ele>538.0</ele><time>2026-04-23T15:40:27Z</time></trkpt><trkpt lat="43.618779172454865" lon="12.796588948579982"><ele>538.0</ele><time>2026-04-23T15:40:28Z</time></trkpt><trkpt lat="43.61883956407015" lon="12.796665806524087"><ele>538.0</ele><time>2026-04-23T15:40:29Z</time></trkpt><trkpt lat="43.618909933018735" lon="12.796709131047733"><ele>538.0</ele><time>2026-04-23T15:40:30Z</time></trkpt><trkpt lat="43.61895747934979" lon="12.796774817794354"><ele>538.0</ele><time>2026-04-23T15:40:33Z</time></trkpt><trkpt lat="43.61900864166468" lon="12.796857778172818"><ele>538.0</ele><time>2026-04-23T15:40:47Z</time></trkpt><trkpt lat="43.61907291130395" lon="12.79691189637285"><ele>538.0</ele><time>2026-04-23T15:40:48Z</time></trkpt><trkpt lat="43.619133350473255" lon="12.796996074491723"><ele>536.0</ele><time>2026-04-23T15:40:49Z</time></trkpt><trkpt lat="43.619213838400704" lon="12.797099471346662"><ele>534.0</ele><time>2026-04-23T15:40:51Z</time></trkpt><trkpt lat="43.61928445250328" lon="12.797194284966277"><ele>532.0</ele><time>2026-04-23T15:40:53Z</time></trkpt><trkpt lat="43.6193346980288" lon="12.797258886871827"><ele>530.0</ele><time>2026-04-23T15:40:54Z</time></trkpt><trkpt lat="43.619349953340354" lon="12.797347513628608"><ele>528.0</ele><time>2026-04-23T15:40:55Z</time></trkpt><trkpt lat="43.6193199527013" lon="12.797424644258808"><ele>526.0</ele><time>2026-04-23T15:40:56Z</time></trkpt><trkpt lat="43.61925301290285" lon="12.79754705257903"><ele>524.2</ele><time>2026-04-23T15:40:58Z</time></trkpt><trkpt lat="43.6191527513689" lon="12.797682837468965"><ele>522.4000000000001</ele><time>2026-04-23T15:41:00Z</time></trkpt><trkpt lat="43.619105759382656" lon="12.797813072011103"><ele>520.6</ele><time>2026-04-23T15:41:01Z</time></trkpt><trkpt lat="43.61908007820638" lon="12.797929997614407"><ele>518.8000000000001</ele><time>2026-04-23T15:41:02Z</time></trkpt><trkpt lat="43.6190715378283" lon="12.798047709675908"><ele>517.0</ele><time>2026-04-23T15:41:03Z</time></trkpt><trkpt lat="43.61909293844599" lon="12.798168847972095"><ele>517.0</ele><time>2026-04-23T15:41:04Z</time></trkpt><trkpt lat="43.61913321360238" lon="12.79830774402737"><ele>517.0</ele><time>2026-04-23T15:41:05Z</time></trkpt><trkpt lat="43.61917795416221" lon="12.798438361379207"><ele>517.0</ele><time>2026-04-23T15:41:06Z</time></trkpt><trkpt lat="43.61923872595887" lon="12.798549617195679"><ele>517.0</ele><time>2026-04-23T15:41:07Z</time></trkpt><trkpt lat="43.61928780830954" lon="12.798662222230522"><ele>517.0</ele><time>2026-04-23T15:41:08Z</time></trkpt><trkpt lat="43.61933677418599" lon="12.798808358769508"><ele>515.0</ele><time>2026-04-23T15:41:09Z</time></trkpt><trkpt lat="43.61940771117378" lon="12.798955248191973"><ele>513.0</ele><time>2026-04-23T15:41:10Z</time></trkpt><trkpt lat="43.61947649969792" lon="12.79909513575757"><ele>511.00000000000006</ele><time>2026-04-23T15:41:11Z</time></trkpt><trkpt lat="43.61953756875438" lon="12.799212580082806"><ele>509.0</ele><time>2026-04-23T15:41:12Z</time></trkpt><trkpt lat="43.619585913133704" lon="12.799305552846471"><ele>507.0</ele><time>2026-04-23T15:41:13Z</time></trkpt><trkpt lat="43.61962896178152" lon="12.799384000762146"><ele>505.8333333333333</ele><time>2026-04-23T15:41:14Z</time></trkpt><trkpt lat="43.619683454330364" lon="12.79948117362917"><ele>504.66666666666663</ele><time>2026-04-23T15:41:15Z</time></trkpt><trkpt lat="43.6197448756709" lon="12.799553620409105"><ele>503.5</ele><time>2026-04-23T15:41:16Z</time></trkpt><trkpt lat="43.619792165236994" lon="12.799629267173565"><ele>502.3333333333333</ele><time>2026-04-23T15:41:18Z</time></trkpt><trkpt lat="43.619842012249926" lon="12.79970754764894"><ele>501.16666666666663</ele><time>2026-04-23T15:41:20Z</time></trkpt><trkpt lat="43.619882883257695" lon="12.799786234021992"><ele>500.0</ele><time>2026-04-23T15:41:21Z</time></trkpt><trkpt lat="43.61993250296946" lon="12.7998549385832"><ele>499.99999999999994</ele><time>2026-04-23T15:41:22Z</time></trkpt><trkpt lat="43.61999156921912" lon="12.799934370917827"><ele>500.0</ele><time>2026-04-23T15:41:23Z</time></trkpt><trkpt lat="43.62006497180495" lon="12.800025083924645"><ele>500.0</ele><time>2026-04-23T15:41:24Z</time></trkpt><trkpt lat="43.62013290243607" lon="12.800105135835501"><ele>500.0</ele><time>2026-04-23T15:41:25Z</time></trkpt><trkpt lat="43.62019748045148" lon="12.800178260469833"><ele>499.99999999999994</ele><time>2026-04-23T15:41:26Z</time></trkpt><trkpt lat="43.62025810542149" lon="12.800246337619296"><ele>500.0</ele><time>2026-04-23T15:41:27Z</time></trkpt><trkpt lat="43.62031817914361" lon="12.80031464993179"><ele>498.8333333333333</ele><time>2026-04-23T15:41:28Z</time></trkpt><trkpt lat="43.620373837564536" lon="12.800383169932543"><ele>497.66666666666663</ele><time>2026-04-23T15:41:29Z</time></trkpt><trkpt lat="43.620426180060605" lon="12.800449025771819"><ele>496.5</ele><time>2026-04-23T15:41:30Z</time></trkpt><trkpt lat="43.6205010678962" lon="12.800549034322932"><ele>495.33333333333337</ele><time>2026-04-23T15:43:23Z</time></trkpt><trkpt lat="43.620577369138246" lon="12.8006889594758"><ele>494.1666666666667</ele><time>2026-04-23T15:43:25Z</time></trkpt><trkpt lat="43.62060006928409" lon="12.800777294926437"><ele>493.0</ele><time>2026-04-23T15:43:26Z</time></trkpt><trkpt lat="43.6206235369227" lon="12.800867274613678"><ele>493.0</ele><time>2026-04-23T15:43:27Z</time></trkpt><trkpt lat="43.62060745036079" lon="12.80098335668173"><ele>492.99999999999994</ele><time>2026-04-23T15:43:29Z</time></trkpt><trkpt lat="43.620650042105126" lon="12.801059991282168"><ele>492.99999999999994</ele><time>2026-04-23T15:43:30Z</time></trkpt><trkpt lat="43.62076785210961" lon="12.801125024164504"><ele>493.0</ele><time>2026-04-23T15:43:31Z</time></trkpt><trkpt lat="43.62086836521546" lon="12.801236161724828"><ele>493.0</ele><time>2026-04-23T15:43:32Z</time></trkpt><trkpt lat="43.620973551042034" lon="12.801344934325689"><ele>491.5</ele><time>2026-04-23T15:43:33Z</time></trkpt><trkpt lat="43.62108391452119" lon="12.801433624210347"><ele>490.0</ele><time>2026-04-23T15:43:34Z</time></trkpt><trkpt lat="43.62121313383937" lon="12.801510931706005"><ele>488.5</ele><time>2026-04-23T15:43:35Z</time></trkpt><trkpt lat="43.62135178049594" lon="12.80162348064125"><ele>487.0</ele><time>2026-04-23T15:43:36Z</time></trkpt><trkpt lat="43.62149258409544" lon="12.801715603787738"><ele>486.25</ele><time>2026-04-23T15:43:37Z</time></trkpt><trkpt lat="43.621601527048966" lon="12.801852197553336"><ele>485.5</ele><time>2026-04-23T15:43:38Z</time></trkpt><trkpt lat="43.62170927602748" lon="12.801983952749538"><ele>484.75</ele><time>2026-04-23T15:43:39Z</time></trkpt><trkpt lat="43.621816437549434" lon="12.802085614109409"><ele>484.0</ele><time>2026-04-23T15:43:40Z</time></trkpt><trkpt lat="43.621901791473796" lon="12.802175114743173"><ele>482.25</ele><time>2026-04-23T15:43:41Z</time></trkpt><trkpt lat="43.621992516785575" lon="12.802224733286304"><ele>480.5</ele><time>2026-04-23T15:43:42Z</time></trkpt><trkpt lat="43.62210238008097" lon="12.802262298286934"><ele>478.75</ele><time>2026-04-23T15:43:43Z</time></trkpt><trkpt lat="43.62222788448316" lon="12.802309997920785"><ele>477.0</ele><time>2026-04-23T15:43:44Z</time></trkpt><trkpt lat="43.62234188769724" lon="12.802347639002084"><ele>477.0</ele><time>2026-04-23T15:43:45Z</time></trkpt><trkpt lat="43.622430469824586" lon="12.802406270398997"><ele>477.00000000000006</ele><time>2026-04-23T15:43:46Z</time></trkpt><trkpt lat="43.6224951076059" lon="12.802510489025229"><ele>477.00000000000006</ele><time>2026-04-23T15:43:47Z</time></trkpt><trkpt lat="43.62256251953362" lon="12.802624164153336"><ele>477.0</ele><time>2026-04-23T15:43:48Z</time></trkpt><trkpt lat="43.62264185280831" lon="12.802774331887747"><ele>477.0</ele><time>2026-04-23T15:43:49Z</time></trkpt><trkpt lat="43.622731272104694" lon="12.802945245563341"><ele>476.6</ele><time>2026-04-23T15:43:50Z</time></trkpt><trkpt lat="43.62279685168409" lon="12.80308829174092"><ele>476.20000000000005</ele><time>2026-04-23T15:43:51Z</time></trkpt><trkpt lat="43.62282994033755" lon="12.803196116370106"><ele>475.8</ele><time>2026-04-23T15:43:52Z</time></trkpt><trkpt lat="43.62284092376542" lon="12.803297022467042"><ele>475.4</ele><time>2026-04-23T15:43:53Z</time></trkpt><trkpt lat="43.6228315759156" lon="12.803427417276776"><ele>475.0</ele><time>2026-04-23T15:43:54Z</time></trkpt><trkpt lat="43.62282590327229" lon="12.803610230609117"><ele>473.2</ele><time>2026-04-23T15:43:55Z</time></trkpt><trkpt lat="43.62282215030744" lon="12.803770664284395"><ele>471.4</ele><time>2026-04-23T15:43:56Z</time></trkpt><trkpt lat="43.62282491595269" lon="12.803893593746103"><ele>469.6</ele><time>2026-04-23T15:43:57Z</time></trkpt><trkpt lat="43.62285035274168" lon="12.804008888924619"><ele>467.8</ele><time>2026-04-23T15:43:58Z</time></trkpt><trkpt lat="43.622921708991136" lon="12.804103254105266"><ele>466.0</ele><time>2026-04-23T15:43:59Z</time></trkpt><trkpt lat="43.62300321898786" lon="12.804154623803235"><ele>466.00000000000006</ele><time>2026-04-23T15:44:00Z</time></trkpt><trkpt lat="43.62307640593888" lon="12.804203060188504"><ele>466.0</ele><time>2026-04-23T15:44:01Z</time></trkpt><trkpt lat="43.62316986841811" lon="12.804228165994447"><ele>466.0</ele><time>2026-04-23T15:44:02Z</time></trkpt><trkpt lat="43.62327008178679" lon="12.804236398789977"><ele>466.0</ele><time>2026-04-23T15:44:03Z</time></trkpt><trkpt lat="43.62336243741746" lon="12.804219206173922"><ele>466.00000000000006</ele><time>2026-04-23T15:44:04Z</time></trkpt><trkpt lat="43.62343324881541" lon="12.804176960892896"><ele>466.0</ele><time>2026-04-23T15:44:05Z</time></trkpt><trkpt lat="43.62348813015658" lon="12.804128991191668"><ele>466.0</ele><time>2026-04-23T15:44:06Z</time></trkpt><trkpt lat="43.62355207353974" lon="12.804035823665917"><ele>466.0</ele><time>2026-04-23T15:44:08Z</time></trkpt><trkpt lat="43.62363782861441" lon="12.803879809396362"><ele>466.0</ele><time>2026-04-23T15:44:10Z</time></trkpt><trkpt lat="43.623698814765" lon="12.803777986115367"><ele>466.0</ele><time>2026-04-23T15:44:11Z</time></trkpt><trkpt lat="43.62375782053657" lon="12.80368277783593"><ele>466.0</ele><time>2026-04-23T15:44:12Z</time></trkpt><trkpt lat="43.62382831485695" lon="12.803603801373798"><ele>465.0</ele><time>2026-04-23T15:44:13Z</time></trkpt><trkpt lat="43.62392137608055" lon="12.80352377715433"><ele>464.0</ele><time>2026-04-23T15:44:14Z</time></trkpt><trkpt lat="43.624021621465445" lon="12.803445441531341"><ele>463.0</ele><time>2026-04-23T15:44:15Z</time></trkpt><trkpt lat="43.624098222854904" lon="12.80339707997429"><ele>462.0</ele><time>2026-04-23T15:44:16Z</time></trkpt><trkpt lat="43.6241741738428" lon="12.803369775129902"><ele>461.0</ele><time>2026-04-23T15:44:17Z</time></trkpt><trkpt lat="43.624270522519225" lon="12.80334717396784"><ele>461.0</ele><time>2026-04-23T15:44:18Z</time></trkpt><trkpt lat="43.62438387042132" lon="12.803328804169439"><ele>461.0</ele><time>2026-04-23T15:44:19Z</time></trkpt><trkpt lat="43.62448387832549" lon="12.803295410547495"><ele>461.0</ele><time>2026-04-23T15:44:20Z</time></trkpt><trkpt lat="43.62456528454088" lon="12.803254870965965"><ele>461.0</ele><time>2026-04-23T15:44:21Z</time></trkpt><trkpt lat="43.624645051357646" lon="12.803223169871268"><ele>461.0</ele><time>2026-04-23T15:44:22Z</time></trkpt><trkpt lat="43.62473459145546" lon="12.803198520750625"><ele>461.0</ele><time>2026-04-23T15:44:23Z</time></trkpt><trkpt lat="43.62483051277247" lon="12.803164353627325"><ele>461.0</ele><time>2026-04-23T15:44:24Z</time></trkpt><trkpt lat="43.6249187169743" lon="12.803109753306126"><ele>461.0</ele><time>2026-04-23T15:44:25Z</time></trkpt><trkpt lat="43.62498942980038" lon="12.803027536383931"><ele>461.0</ele><time>2026-04-23T15:44:26Z</time></trkpt><trkpt lat="43.62504434064807" lon="12.802925400158303"><ele>461.0</ele><time>2026-04-23T15:44:27Z</time></trkpt><trkpt lat="43.6250971607151" lon="12.802841495797932"><ele>460.99999999999994</ele><time>2026-04-23T15:44:28Z</time></trkpt><trkpt lat="43.62516562190775" lon="12.802756980618415"><ele>461.0</ele><time>2026-04-23T15:44:29Z</time></trkpt><trkpt lat="43.62522157996212" lon="12.802667018355955"><ele>461.0</ele><time>2026-04-23T15:44:30Z</time></trkpt><trkpt lat="43.62525450693249" lon="12.802572802368257"><ele>461.0</ele><time>2026-04-23T15:44:31Z</time></trkpt><trkpt lat="43.62526699593849" lon="12.80246975853371"><ele>460.99999999999994</ele><time>2026-04-23T15:44:32Z</time></trkpt><trkpt lat="43.625262565084284" lon="12.802379045300453"><ele>461.0</ele><time>2026-04-23T15:44:33Z</time></trkpt><trkpt lat="43.6252453356162" lon="12.802281028393628"><ele>457.8333333333333</ele><time>2026-04-23T15:44:35Z</time></trkpt><trkpt lat="43.62521871927603" lon="12.802179003555192"><ele>454.66666666666663</ele><time>2026-04-23T15:44:37Z</time></trkpt><trkpt lat="43.625173119761016" lon="12.802043238728398"><ele>451.5</ele><time>2026-04-23T15:44:39Z</time></trkpt><trkpt lat="43.6251981899969" lon="12.801932242465973"><ele>448.33333333333337</ele><time>2026-04-23T15:44:41Z</time></trkpt><trkpt lat="43.62529885218116" lon="12.80194913725859"><ele>445.1666666666667</ele><time>2026-04-23T15:44:43Z</time></trkpt><trkpt lat="43.62534964693833" lon="12.802027484587189"><ele>442.0</ele><time>2026-04-23T15:44:44Z</time></trkpt><trkpt lat="43.6253801344264" lon="12.802165489731204"><ele>439.8</ele><time>2026-04-23T15:44:45Z</time></trkpt><trkpt lat="43.625466139130616" lon="12.80226351302083"><ele>437.6</ele><time>2026-04-23T15:44:46Z</time></trkpt><trkpt lat="43.62554747710532" lon="12.802334981348816"><ele>435.40000000000003</ele><time>2026-04-23T15:44:47Z</time></trkpt><trkpt lat="43.625649356090605" lon="12.802384111519073"><ele>433.20000000000005</ele><time>2026-04-23T15:44:48Z</time></trkpt><trkpt lat="43.625747397056216" lon="12.802444475450063"><ele>431.0</ele><time>2026-04-23T15:44:49Z</time></trkpt><trkpt lat="43.625826688855845" lon="12.80252985388159"><ele>431.0</ele><time>2026-04-23T15:44:50Z</time></trkpt><trkpt lat="43.625858998292614" lon="12.802659983416877"><ele>431.0</ele><time>2026-04-23T15:44:51Z</time></trkpt><trkpt lat="43.62588993546119" lon="12.802775629493995"><ele>431.0</ele><time>2026-04-23T15:44:52Z</time></trkpt><trkpt lat="43.62589464658365" lon="12.802891234868422"><ele>431.0</ele><time>2026-04-23T15:44:53Z</time></trkpt><trkpt lat="43.62591486900443" lon="12.803024917845782"><ele>431.0</ele><time>2026-04-23T15:44:54Z</time></trkpt><trkpt lat="43.62594568366548" lon="12.80313482329618"><ele>434.4</ele><time>2026-04-23T15:44:55Z</time></trkpt><trkpt lat="43.62605038882862" lon="12.803208665889956"><ele>437.8</ele><time>2026-04-23T15:44:57Z</time></trkpt><trkpt lat="43.62611563376209" lon="12.803139419194824"><ele>441.19999999999993</ele><time>2026-04-23T15:44:58Z</time></trkpt><trkpt lat="43.626177841751534" lon="12.803050554284992"><ele>444.59999999999997</ele><time>2026-04-23T15:44:59Z</time></trkpt><trkpt lat="43.6262715162137" lon="12.802982963994777"><ele>448.0</ele><time>2026-04-23T15:45:00Z</time></trkpt><trkpt lat="43.62637981670343" lon="12.80289679356767"><ele>448.5</ele><time>2026-04-23T15:45:01Z</time></trkpt><trkpt lat="43.62650943895178" lon="12.802822278417537"><ele>449.0</ele><time>2026-04-23T15:45:02Z</time></trkpt><trkpt lat="43.6266364207426" lon="12.802743397830925"><ele>449.5</ele><time>2026-04-23T15:45:03Z</time></trkpt><trkpt lat="43.626771023919574" lon="12.802671452400894"><ele>450.0</ele><time>2026-04-23T15:45:04Z</time></trkpt><trkpt lat="43.6268792324427" lon="12.80257742189118"><ele>446.25</ele><time>2026-04-23T15:45:05Z</time></trkpt><trkpt lat="43.62697710468572" lon="12.802481184896633"><ele>442.5</ele><time>2026-04-23T15:45:06Z</time></trkpt><trkpt lat="43.6270642531012" lon="12.802360885987369"><ele>438.75</ele><time>2026-04-23T15:45:07Z</time></trkpt><trkpt lat="43.62715864604414" lon="12.802209811074546"><ele>435.0</ele><time>2026-04-23T15:45:08Z</time></trkpt><trkpt lat="43.62725830885744" lon="12.802024032992378"><ele>435.0</ele><time>2026-04-23T15:45:09Z</time></trkpt><trkpt lat="43.6273486581816" lon="12.80186425396816"><ele>435.0</ele><time>2026-04-23T15:45:10Z</time></trkpt><trkpt lat="43.62743044171251" lon="12.80171317130657"><ele>435.0</ele><time>2026-04-23T15:45:11Z</time></trkpt><trkpt lat="43.627512131571585" lon="12.801570614313787"><ele>435.0</ele><time>2026-04-23T15:45:12Z</time></trkpt><trkpt lat="43.62760431201595" lon="12.801412913603901"><ele>435.5</ele><time>2026-04-23T15:45:13Z</time></trkpt><trkpt lat="43.62769821596711" lon="12.80127029894101"><ele>436.0</ele><time>2026-04-23T15:45:14Z</time></trkpt><trkpt lat="43.62779282530208" lon="12.801135728455195"><ele>436.5</ele><time>2026-04-23T15:45:15Z</time></trkpt><trkpt lat="43.62786572205526" lon="12.801003252704497"><ele>437.0</ele><time>2026-04-23T15:45:16Z</time></trkpt><trkpt lat="43.627938595496154" lon="12.800892287827798"><ele>432.49999999999994</ele><time>2026-04-23T15:45:17Z</time></trkpt><trkpt lat="43.62799723704505" lon="12.800780105672724"><ele>428.0</ele><time>2026-04-23T15:45:18Z</time></trkpt><trkpt lat="43.62804078634809" lon="12.800688717478426"><ele>423.5</ele><time>2026-04-23T15:45:19Z</time></trkpt><trkpt lat="43.628030134615344" lon="12.80057206288228"><ele>419.0</ele><time>2026-04-23T15:45:20Z</time></trkpt><trkpt lat="43.628049651832" lon="12.800464196144198"><ele>414.49999999999994</ele><time>2026-04-23T15:45:21Z</time></trkpt><trkpt lat="43.6280983347847" lon="12.80034205111733"><ele>410.0</ele><time>2026-04-23T15:45:23Z</time></trkpt><trkpt lat="43.62816054933389" lon="12.80031947882474"><ele>410.0</ele><time>2026-04-23T15:45:24Z</time></trkpt><trkpt lat="43.62827228359341" lon="12.8003076247366"><ele>410.0</ele><time>2026-04-23T15:45:25Z</time></trkpt><trkpt lat="43.62841585817154" lon="12.800277146823191"><ele>410.0</ele><time>2026-04-23T15:45:26Z</time></trkpt><trkpt lat="43.6285619620509" lon="12.800243120661525"><ele>410.0</ele><time>2026-04-23T15:45:27Z</time></trkpt><trkpt lat="43.62866696913087" lon="12.800227818046501"><ele>409.0</ele><time>2026-04-23T15:45:28Z</time></trkpt><trkpt lat="43.628754813943345" lon="12.80023081366838"><ele>408.0</ele><time>2026-04-23T15:45:29Z</time></trkpt><trkpt lat="43.62882294961944" lon="12.80016941857775"><ele>407.0</ele><time>2026-04-23T15:45:31Z</time></trkpt><trkpt lat="43.62875751642514" lon="12.800028369614957"><ele>406.0</ele><time>2026-04-23T15:45:33Z</time></trkpt><trkpt lat="43.62869644656053" lon="12.799954167339243"><ele>405.0</ele><time>2026-04-23T15:45:34Z</time></trkpt><trkpt lat="43.628609909599874" lon="12.799931506616993"><ele>398.25</ele><time>2026-04-23T15:45:35Z</time></trkpt><trkpt lat="43.62851938864907" lon="12.79992660172326"><ele>391.5</ele><time>2026-04-23T15:45:36Z</time></trkpt><trkpt lat="43.62839459257364" lon="12.799920623479853"><ele>384.75</ele><time>2026-04-23T15:45:37Z</time></trkpt><trkpt lat="43.6282493794426" lon="12.799937746862339"><ele>378.0</ele><time>2026-04-23T15:45:38Z</time></trkpt><trkpt lat="43.628135110140704" lon="12.799898378459224"><ele>378.0</ele><time>2026-04-23T15:45:39Z</time></trkpt><trkpt lat="43.62802304991988" lon="12.799847545844225"><ele>378.0</ele><time>2026-04-23T15:45:40Z</time></trkpt><trkpt lat="43.6278991519391" lon="12.799781360148776"><ele>378.0</ele><time>2026-04-23T15:45:41Z</time></trkpt><trkpt lat="43.62779893049948" lon="12.799724648665416"><ele>378.0</ele><time>2026-04-23T15:45:42Z</time></trkpt><trkpt lat="43.62772237766634" lon="12.799709621014959"><ele>378.0</ele><time>2026-04-23T15:45:43Z</time></trkpt><trkpt lat="43.627657190821225" lon="12.799697828837848"><ele>380.0</ele><time>2026-04-23T15:45:44Z</time></trkpt><trkpt lat="43.627536655540915" lon="12.799766799240214"><ele>382.0</ele><time>2026-04-23T15:45:46Z</time></trkpt><trkpt lat="43.62749937048121" lon="12.799893588142357"><ele>384.0</ele><time>2026-04-23T15:45:47Z</time></trkpt><trkpt lat="43.62744980659133" lon="12.80006254399594"><ele>386.0</ele><time>2026-04-23T15:45:48Z</time></trkpt><trkpt lat="43.62739726637321" lon="12.800215493423229"><ele>385.99999999999994</ele><time>2026-04-23T15:45:49Z</time></trkpt><trkpt lat="43.627334894194796" lon="12.80031794345577"><ele>386.0</ele><time>2026-04-23T15:45:50Z</time></trkpt><trkpt lat="43.627259845510146" lon="12.800378829184202"><ele>386.0</ele><time>2026-04-23T15:45:51Z</time></trkpt><trkpt lat="43.62717351027491" lon="12.800438316497464"><ele>386.0</ele><time>2026-04-23T15:45:52Z</time></trkpt><trkpt lat="43.627100430590374" lon="12.800458569514937"><ele>385.99999999999994</ele><time>2026-04-23T15:45:53Z</time></trkpt><trkpt lat="43.62702422153979" lon="12.800442374655217"><ele>386.0</ele><time>2026-04-23T15:45:54Z</time></trkpt><trkpt lat="43.62695197739813" lon="12.800385983742078"><ele>384.20000000000005</ele><time>2026-04-23T15:45:55Z</time></trkpt><trkpt lat="43.62688575809982" lon="12.800307579419293"><ele>382.40000000000003</ele><time>2026-04-23T15:45:56Z</time></trkpt><trkpt lat="43.62686223321641" lon="12.800172804604378"><ele>380.6</ele><time>2026-04-23T15:45:57Z</time></trkpt><trkpt lat="43.62682760151038" lon="12.80004433666812"><ele>378.8</ele><time>2026-04-23T15:45:58Z</time></trkpt><trkpt lat="43.62682034839998" lon="12.799891527611662"><ele>377.0</ele><time>2026-04-23T15:45:59Z</time></trkpt><trkpt lat="43.626817595191376" lon="12.79971737381935"><ele>374.20000000000005</ele><time>2026-04-23T15:46:00Z</time></trkpt><trkpt lat="43.62681222907854" lon="12.79955583198647"><ele>371.4</ele><time>2026-04-23T15:46:01Z</time></trkpt><trkpt lat="43.62681483518755" lon="12.79940907842243"><ele>368.6</ele><time>2026-04-23T15:46:02Z</time></trkpt><trkpt lat="43.62679843087717" lon="12.79930089125537"><ele>365.79999999999995</ele><time>2026-04-23T15:46:03Z</time></trkpt><trkpt lat="43.626760420192745" lon="12.799205587388702"><ele>363.0</ele><time>2026-04-23T15:46:04Z</time></trkpt><trkpt lat="43.62670893301446" lon="12.799122867901696"><ele>360.6666666666667</ele><time>2026-04-23T15:46:05Z</time></trkpt><trkpt lat="43.62663785975636" lon="12.799046493892908"><ele>358.3333333333333</ele><time>2026-04-23T15:46:07Z</time></trkpt><trkpt lat="43.62657377941765" lon="12.799010088852594"><ele>356.0</ele><time>2026-04-23T15:46:09Z</time></trkpt><trkpt lat="43.62645007245621" lon="12.799056568907329"><ele>353.66666666666663</ele><time>2026-04-23T15:46:27Z</time></trkpt><trkpt lat="43.626364019008726" lon="12.79904747322839"><ele>351.3333333333333</ele><time>2026-04-23T15:46:29Z</time></trkpt><trkpt lat="43.62636701333773" lon="12.79894573183952"><ele>349.0</ele><time>2026-04-23T15:46:31Z</time></trkpt><trkpt lat="43.62651464892646" lon="12.79890193661824"><ele>349.0</ele><time>2026-04-23T15:46:33Z</time></trkpt><trkpt lat="43.626610811978345" lon="12.798884919068115"><ele>349.0</ele><time>2026-04-23T15:46:34Z</time></trkpt><trkpt lat="43.62673417837022" lon="12.79886704198707"><ele>349.0</ele><time>2026-04-23T15:46:35Z</time></trkpt><trkpt lat="43.62683268798594" lon="12.79883882988771"><ele>349.0</ele><time>2026-04-23T15:46:36Z</time></trkpt><trkpt lat="43.62692687388886" lon="12.798786849980782"><ele>349.0</ele><time>2026-04-23T15:46:37Z</time></trkpt><trkpt lat="43.62702978534375" lon="12.798714496621546"><ele>349.5</ele><time>2026-04-23T15:46:38Z</time></trkpt><trkpt lat="43.627136946003326" lon="12.798610884192474"><ele>350.0</ele><time>2026-04-23T15:46:39Z</time></trkpt><trkpt lat="43.62726717876259" lon="12.798537049907138"><ele>350.5</ele><time>2026-04-23T15:46:40Z</time></trkpt><trkpt lat="43.62739371399341" lon="12.798463630310167"><ele>351.0</ele><time>2026-04-23T15:46:41Z</time></trkpt><trkpt lat="43.62751529415346" lon="12.798384490940107"><ele>347.6</ele><time>2026-04-23T15:46:42Z</time></trkpt><trkpt lat="43.627636967135274" lon="12.798285517915076"><ele>344.20000000000005</ele><time>2026-04-23T15:46:43Z</time></trkpt><trkpt lat="43.627735121584706" lon="12.798204135401212"><ele>340.79999999999995</ele><time>2026-04-23T15:46:44Z</time></trkpt><trkpt lat="43.62783144322465" lon="12.798162965846256"><ele>337.4</ele><time>2026-04-23T15:46:45Z</time></trkpt><trkpt lat="43.62791648192609" lon="12.798139100776345"><ele>334.0</ele><time>2026-04-23T15:46:46Z</time></trkpt><trkpt lat="43.62801787851808" lon="12.798132101631268"><ele>333.3333333333333</ele><time>2026-04-23T15:46:47Z</time></trkpt><trkpt lat="43.62814540631566" lon="12.798134061498004"><ele>332.6666666666667</ele><time>2026-04-23T15:46:48Z</time></trkpt><trkpt lat="43.62831302127211" lon="12.798139546273482"><ele>332.0</ele><time>2026-04-23T15:46:49Z</time></trkpt><trkpt lat="43.628484423375575" lon="12.798133404821483"><ele>332.0</ele><time>2026-04-23T15:46:50Z</time></trkpt><trkpt lat="43.62862205693313" lon="12.798171125029379"><ele>332.0</ele><time>2026-04-23T15:46:51Z</time></trkpt><trkpt lat="43.62871440448359" lon="12.79819265402233"><ele>332.0</ele><time>2026-04-23T15:46:52Z</time></trkpt><trkpt lat="43.628803136457584" lon="12.798212917210272"><ele>332.0</ele><time>2026-04-23T15:46:53Z</time></trkpt><trkpt lat="43.62888803323833" lon="12.798225357543568"><ele>332.0</ele><time>2026-04-23T15:46:54Z</time></trkpt><trkpt lat="43.62897640072983" lon="12.798208109622077"><ele>330.40000000000003</ele><time>2026-04-23T15:46:55Z</time></trkpt><trkpt lat="43.629087570865174" lon="12.798208784464828"><ele>328.8</ele><time>2026-04-23T15:46:56Z</time></trkpt><trkpt lat="43.62920852813793" lon="12.798155292577707"><ele>327.2</ele><time>2026-04-23T15:46:57Z</time></trkpt><trkpt lat="43.62931669141493" lon="12.798090016580026"><ele>325.6</ele><time>2026-04-23T15:46:58Z</time></trkpt><trkpt lat="43.62939646897544" lon="12.798045232892688"><ele>324.0</ele><time>2026-04-23T15:46:59Z</time></trkpt><trkpt lat="43.629468370460614" lon="12.798012512705553"><ele>322.0</ele><time>2026-04-23T15:47:00Z</time></trkpt><trkpt lat="43.629539165607675" lon="12.797977308584002"><ele>320.0</ele><time>2026-04-23T15:47:01Z</time></trkpt><trkpt lat="43.629632509013724" lon="12.79797205121916"><ele>318.0</ele><time>2026-04-23T15:47:19Z</time></trkpt><trkpt lat="43.62975025077824" lon="12.797969758386369"><ele>316.0</ele><time>2026-04-23T15:47:21Z</time></trkpt><trkpt lat="43.62982987474315" lon="12.79798049506438"><ele>314.0</ele><time>2026-04-23T15:47:22Z</time></trkpt><trkpt lat="43.62992857760223" lon="12.797992412255192"><ele>314.0</ele><time>2026-04-23T15:47:23Z</time></trkpt><trkpt lat="43.63002953304877" lon="12.798003233929341"><ele>314.0</ele><time>2026-04-23T15:47:24Z</time></trkpt><trkpt lat="43.63011609343778" lon="12.79801210890196"><ele>314.0</ele><time>2026-04-23T15:47:25Z</time></trkpt><trkpt lat="43.63020661740435" lon="12.798014906336341"><ele>314.0</ele><time>2026-04-23T15:47:26Z</time></trkpt><trkpt lat="43.63028814497561" lon="12.79800239302497"><ele>314.0</ele><time>2026-04-23T15:47:27Z</time></trkpt><trkpt lat="43.6303842909786" lon="12.797905771740167"><ele>313.5</ele><time>2026-04-23T15:47:29Z</time></trkpt><trkpt lat="43.63041940729655" lon="12.797742666839236"><ele>313.0</ele><time>2026-04-23T15:47:31Z</time></trkpt><trkpt lat="43.63042493414703" lon="12.797645829029387"><ele>312.5</ele><time>2026-04-23T15:47:32Z</time></trkpt><trkpt lat="43.63042411882499" lon="12.797541809720496"><ele>312.0</ele><time>2026-04-23T15:47:33Z</time></trkpt><trkpt lat="43.63041261977471" lon="12.797428911790405"><ele>311.5</ele><time>2026-04-23T15:47:34Z</time></trkpt><trkpt lat="43.63039491143356" lon="12.797319140048208"><ele>311.0</ele><time>2026-04-23T15:47:35Z</time></trkpt><trkpt lat="43.63037356289441" lon="12.797209449594131"><ele>312.0</ele><time>2026-04-23T15:47:36Z</time></trkpt><trkpt lat="43.630373496732005" lon="12.797076902189852"><ele>313.0</ele><time>2026-04-23T15:47:37Z</time></trkpt><trkpt lat="43.63038927121283" lon="12.796980727110405"><ele>314.0</ele><time>2026-04-23T15:47:38Z</time></trkpt><trkpt lat="43.63043554245116" lon="12.796906528645398"><ele>315.0</ele><time>2026-04-23T15:47:39Z</time></trkpt><trkpt lat="43.63051849049622" lon="12.796847060559111"><ele>316.0</ele><time>2026-04-23T15:47:40Z</time></trkpt><trkpt lat="43.630612745264536" lon="12.796795082448611"><ele>317.0</ele><time>2026-04-23T15:47:41Z</time></trkpt><trkpt lat="43.63075283796635" lon="12.796722540529473"><ele>317.8</ele><time>2026-04-23T15:47:42Z</time></trkpt><trkpt lat="43.63087663319353" lon="12.796652755206852"><ele>318.6</ele><time>2026-04-23T15:47:43Z</time></trkpt><trkpt lat="43.6309778616357" lon="12.796610075842878"><ele>319.40000000000003</ele><time>2026-04-23T15:47:44Z</time></trkpt><trkpt lat="43.63107068678654" lon="12.796575878747463"><ele>320.2</ele><time>2026-04-23T15:47:45Z</time></trkpt><trkpt lat="43.63112969570404" lon="12.796525560890881"><ele>321.0</ele><time>2026-04-23T15:47:46Z</time></trkpt><trkpt lat="43.63115628844889" lon="12.796444524753454"><ele>321.8333333333333</ele><time>2026-04-23T15:47:47Z</time></trkpt><trkpt lat="43.63116035258605" lon="12.796340141905729"><ele>322.6666666666667</ele><time>2026-04-23T15:47:48Z</time></trkpt><trkpt lat="43.631147716879454" lon="12.796197497577394"><ele>323.5</ele><time>2026-04-23T15:47:49Z</time></trkpt><trkpt lat="43.631144741224404" lon="12.796068532582224"><ele>324.33333333333337</ele><time>2026-04-23T15:47:50Z</time></trkpt><trkpt lat="43.63117623515528" lon="12.79597845771372"><ele>325.1666666666667</ele><time>2026-04-23T15:47:51Z</time></trkpt><trkpt lat="43.63123744901028" lon="12.795909510516472"><ele>326.0</ele><time>2026-04-23T15:47:52Z</time></trkpt><trkpt lat="43.631311712442916" lon="12.79585347637447"><ele>326.0</ele><time>2026-04-23T15:47:53Z</time></trkpt><trkpt lat="43.63139452706343" lon="12.795807077965387"><ele>326.0</ele><time>2026-04-23T15:47:54Z</time></trkpt><trkpt lat="43.6314797707196" lon="12.795752340625546"><ele>326.0</ele><time>2026-04-23T15:47:55Z</time></trkpt><trkpt lat="43.6315482344734" lon="12.795680830759771"><ele>326.0</ele><time>2026-04-23T15:47:56Z</time></trkpt><trkpt lat="43.63159363178909" lon="12.79557532338386"><ele>326.0</ele><time>2026-04-23T15:47:57Z</time></trkpt><trkpt lat="43.6316453735369" lon="12.795454388981652"><ele>326.0</ele><time>2026-04-23T15:47:58Z</time></trkpt><trkpt lat="43.631688594379824" lon="12.795344027511213"><ele>326.0</ele><time>2026-04-23T15:47:59Z</time></trkpt><trkpt lat="43.63170193792553" lon="12.79525780784111"><ele>326.0</ele><time>2026-04-23T15:48:00Z</time></trkpt><trkpt lat="43.6316851110265" lon="12.795153791385747"><ele>326.0</ele><time>2026-04-23T15:48:01Z</time></trkpt><trkpt lat="43.63165835440322" lon="12.795053392913546"><ele>326.0</ele><time>2026-04-23T15:48:02Z</time></trkpt><trkpt lat="43.631630225937286" lon="12.794967524608852"><ele>326.0</ele><time>2026-04-23T15:48:03Z</time></trkpt><trkpt lat="43.63159083048537" lon="12.79489904950186"><ele>326.0</ele><time>2026-04-23T15:48:06Z</time></trkpt><trkpt lat="43.63165845248632" lon="12.794708098754814"><ele>326.8</ele><time>2026-04-23T15:48:53Z</time></trkpt><trkpt lat="43.6316668260516" lon="12.794562928664703"><ele>327.6</ele><time>2026-04-23T15:48:55Z</time></trkpt><trkpt lat="43.63172894006676" lon="12.794465591730958"><ele>328.4</ele><time>2026-04-23T15:48:57Z</time></trkpt><trkpt lat="43.63175961667484" lon="12.794369190544419"><ele>329.2</ele><time>2026-04-23T15:49:00Z</time></trkpt><trkpt lat="43.63177656951271" lon="12.794265529914686"><ele>330.0</ele><time>2026-04-23T15:49:02Z</time></trkpt><trkpt lat="43.63173298432396" lon="12.794100319216874"><ele>330.6666666666667</ele><time>2026-04-23T15:49:04Z</time></trkpt><trkpt lat="43.63167278673526" lon="12.794037712245322"><ele>331.3333333333333</ele><time>2026-04-23T15:49:05Z</time></trkpt><trkpt lat="43.631622815056495" lon="12.79393622295833"><ele>332.0</ele><time>2026-04-23T15:49:06Z</time></trkpt><trkpt lat="43.63156795763052" lon="12.793833040058672"><ele>332.66666666666663</ele><time>2026-04-23T15:49:07Z</time></trkpt><trkpt lat="43.63152004695235" lon="12.79371818733927"><ele>333.3333333333333</ele><time>2026-04-23T15:49:08Z</time></trkpt><trkpt lat="43.631461425095225" lon="12.793617533157907"><ele>334.0</ele><time>2026-04-23T15:49:09Z</time></trkpt><trkpt lat="43.63142474464577" lon="12.793490015832539"><ele>334.5</ele><time>2026-04-23T15:49:10Z</time></trkpt><trkpt lat="43.631362837293814" lon="12.793375411219365"><ele>335.0</ele><time>2026-04-23T15:49:11Z</time></trkpt><trkpt lat="43.631291581127144" lon="12.79324185138841"><ele>335.5</ele><time>2026-04-23T15:49:12Z</time></trkpt><trkpt lat="43.631207939609745" lon="12.793105395087663"><ele>336.0</ele><time>2026-04-23T15:49:13Z</time></trkpt><trkpt lat="43.63114096442178" lon="12.792960250505512"><ele>336.8</ele><time>2026-04-23T15:49:14Z</time></trkpt><trkpt lat="43.63107892024119" lon="12.792822421875602"><ele>337.6</ele><time>2026-04-23T15:49:15Z</time></trkpt><trkpt lat="43.63102897417262" lon="12.792688761409563"><ele>338.4</ele><time>2026-04-23T15:49:16Z</time></trkpt><trkpt lat="43.630979142143936" lon="12.792565226918747"><ele>339.2</ele><time>2026-04-23T15:49:17Z</time></trkpt><trkpt lat="43.630948900388034" lon="12.792440088921325"><ele>340.0</ele><time>2026-04-23T15:49:18Z</time></trkpt><trkpt lat="43.630953064947015" lon="12.792344354426785"><ele>340.5</ele><time>2026-04-23T15:49:19Z</time></trkpt><trkpt lat="43.63103823216549" lon="12.79227381045419"><ele>341.0</ele><time>2026-04-23T15:49:22Z</time></trkpt><trkpt lat="43.63111711946377" lon="12.792225724225721"><ele>341.5</ele><time>2026-04-23T15:49:23Z</time></trkpt><trkpt lat="43.631221465990656" lon="12.792146400088969"><ele>342.0</ele><time>2026-04-23T15:49:24Z</time></trkpt><trkpt lat="43.631375403545675" lon="12.792035112544513"><ele>342.0</ele><time>2026-04-23T15:49:25Z</time></trkpt><trkpt lat="43.631554818190565" lon="12.791912046905626"><ele>342.0</ele><time>2026-04-23T15:49:26Z</time></trkpt><trkpt lat="43.63173146332973" lon="12.791798205402285"><ele>342.0</ele><time>2026-04-23T15:49:27Z</time></trkpt><trkpt lat="43.63187920700885" lon="12.791701794311416"><ele>344.25</ele><time>2026-04-23T15:49:28Z</time></trkpt><trkpt lat="43.63201441063683" lon="12.791610118667046"><ele>346.5</ele><time>2026-04-23T15:49:29Z</time></trkpt><trkpt lat="43.632135781368945" lon="12.791510523472363"><ele>348.75</ele><time>2026-04-23T15:49:30Z</time></trkpt><trkpt lat="43.63223150060546" lon="12.791429974738774"><ele>351.0</ele><time>2026-04-23T15:49:31Z</time></trkpt><trkpt lat="43.632306202504054" lon="12.791353481874417"><ele>351.0</ele><time>2026-04-23T15:49:32Z</time></trkpt><trkpt lat="43.632369944721745" lon="12.791247227008526"><ele>351.0</ele><time>2026-04-23T15:49:33Z</time></trkpt><trkpt lat="43.6324244854227" lon="12.791098242762384"><ele>351.0</ele><time>2026-04-23T15:49:34Z</time></trkpt><trkpt lat="43.63249623236311" lon="12.79092044490611"><ele>351.0</ele><time>2026-04-23T15:49:35Z</time></trkpt><trkpt lat="43.632597908686996" lon="12.790711228770157"><ele>352.3333333333333</ele><time>2026-04-23T15:49:36Z</time></trkpt><trkpt lat="43.63271799400928" lon="12.790519307460308"><ele>353.66666666666663</ele><time>2026-04-23T15:49:37Z</time></trkpt><trkpt lat="43.63284276317351" lon="12.790284482449394"><ele>355.0</ele><time>2026-04-23T15:49:38Z</time></trkpt><trkpt lat="43.63297328725949" lon="12.790040136631879"><ele>359.66666666666663</ele><time>2026-04-23T15:49:39Z</time></trkpt><trkpt lat="43.63307813111397" lon="12.789848785104594"><ele>364.3333333333333</ele><time>2026-04-23T15:49:40Z</time></trkpt><trkpt lat="43.63316047288459" lon="12.789650766943188"><ele>369.0</ele><time>2026-04-23T15:49:41Z</time></trkpt><trkpt lat="43.633243365423205" lon="12.789468874790959"><ele>369.0</ele><time>2026-04-23T15:49:42Z</time></trkpt><trkpt lat="43.63327944530189" lon="12.789360410911296"><ele>369.0</ele><time>2026-04-23T15:49:43Z</time></trkpt><trkpt lat="43.633341512808485" lon="12.78929346057718"><ele>369.0</ele><time>2026-04-23T15:49:44Z</time></trkpt><trkpt lat="43.633419345945406" lon="12.789250789682287"><ele>369.0</ele><time>2026-04-23T15:49:45Z</time></trkpt><trkpt lat="43.63351375440427" lon="12.789223892442006"><ele>369.0</ele><time>2026-04-23T15:49:46Z</time></trkpt><trkpt lat="43.63362388821696" lon="12.789219072754172"><ele>373.5</ele><time>2026-04-23T15:49:47Z</time></trkpt><trkpt lat="43.633742535879655" lon="12.789217528150823"><ele>378.0</ele><time>2026-04-23T15:49:48Z</time></trkpt><trkpt lat="43.63387374449796" lon="12.789219057244441"><ele>382.5</ele><time>2026-04-23T15:49:49Z</time></trkpt><trkpt lat="43.63401081090181" lon="12.789205746250078"><ele>387.0</ele><time>2026-04-23T15:49:50Z</time></trkpt><trkpt lat="43.634169080126284" lon="12.78918670676325"><ele>387.0</ele><time>2026-04-23T15:49:51Z</time></trkpt><trkpt lat="43.63433424524892" lon="12.78917352968331"><ele>387.0</ele><time>2026-04-23T15:49:52Z</time></trkpt><trkpt lat="43.63451932103201" lon="12.789149964317055"><ele>387.0</ele><time>2026-04-23T15:49:53Z</time></trkpt><trkpt lat="43.63469012497857" lon="12.789138053345345"><ele>390.20000000000005</ele><time>2026-04-23T15:49:54Z</time></trkpt><trkpt lat="43.63485865686428" lon="12.789134617153051"><ele>393.4</ele><time>2026-04-23T15:49:55Z</time></trkpt><trkpt lat="43.63497995017607" lon="12.789137956798356"><ele>396.6</ele><time>2026-04-23T15:49:56Z</time></trkpt><trkpt lat="43.6350622362664" lon="12.789162052683361"><ele>399.79999999999995</ele><time>2026-04-23T15:49:57Z</time></trkpt><trkpt lat="43.635127137685004" lon="12.789178345319852"><ele>403.0</ele><time>2026-04-23T15:49:59Z</time></trkpt><trkpt lat="43.63519111883058" lon="12.789109409873891"><ele>403.00000000000006</ele><time>2026-04-23T15:50:01Z</time></trkpt><trkpt lat="43.6352478775886" lon="12.789040507937514"><ele>403.0</ele><time>2026-04-23T15:50:02Z</time></trkpt><trkpt lat="43.63532759311555" lon="12.788952412685484"><ele>403.0</ele><time>2026-04-23T15:50:03Z</time></trkpt><trkpt lat="43.635406884973676" lon="12.788900439001727"><ele>403.0</ele><time>2026-04-23T15:50:04Z</time></trkpt><trkpt lat="43.635480075669875" lon="12.788870634260997"><ele>403.00000000000006</ele><time>2026-04-23T15:50:05Z</time></trkpt><trkpt lat="43.635545710540974" lon="12.78887907593309"><ele>403.0</ele><time>2026-04-23T15:50:06Z</time></trkpt><trkpt lat="43.635611397702355" lon="12.788911466437025"><ele>404.25</ele><time>2026-04-23T15:50:07Z</time></trkpt><trkpt lat="43.635710203856" lon="12.788947915603845"><ele>405.5</ele><time>2026-04-23T15:50:08Z</time></trkpt><trkpt lat="43.63583862072578" lon="12.78896082733535"><ele>406.75</ele><time>2026-04-23T15:50:09Z</time></trkpt><trkpt lat="43.635992574447" lon="12.78899918107286"><ele>408.0</ele><time>2026-04-23T15:50:10Z</time></trkpt><trkpt lat="43.63617307118274" lon="12.789000857515934"><ele>409.0</ele><time>2026-04-23T15:50:11Z</time></trkpt><trkpt lat="43.63636582938213" lon="12.788978426291408"><ele>410.0</ele><time>2026-04-23T15:50:12Z</time></trkpt><trkpt lat="43.63650926617195" lon="12.788938861855108"><ele>411.0</ele><time>2026-04-23T15:50:13Z</time></trkpt><trkpt lat="43.63661967303602" lon="12.788916815036004"><ele>411.0</ele><time>2026-04-23T15:50:14Z</time></trkpt><trkpt lat="43.636700759373504" lon="12.788842310189674"><ele>411.0</ele><time>2026-04-23T15:50:15Z</time></trkpt><trkpt lat="43.63676749498515" lon="12.788737027770594"><ele>411.0</ele><time>2026-04-23T15:50:16Z</time></trkpt><trkpt lat="43.636846134273185" lon="12.788611980580564"><ele>411.0</ele><time>2026-04-23T15:50:17Z</time></trkpt><trkpt lat="43.63693301492585" lon="12.788497471952693"><ele>411.0</ele><time>2026-04-23T15:50:18Z</time></trkpt><trkpt lat="43.63701106168833" lon="12.788454369462222"><ele>411.75</ele><time>2026-04-23T15:50:19Z</time></trkpt><trkpt lat="43.63711325834196" lon="12.78842779356766"><ele>412.5</ele><time>2026-04-23T15:50:20Z</time></trkpt><trkpt lat="43.63725052772471" lon="12.788432378063481"><ele>413.25</ele><time>2026-04-23T15:50:21Z</time></trkpt><trkpt lat="43.63740108414211" lon="12.788448973885686"><ele>414.0</ele><time>2026-04-23T15:50:22Z</time></trkpt><trkpt lat="43.63757159365406" lon="12.788481061357576"><ele>414.0</ele><time>2026-04-23T15:50:23Z</time></trkpt><trkpt lat="43.63771244096617" lon="12.788499980631773"><ele>414.0</ele><time>2026-04-23T15:50:24Z</time></trkpt><trkpt lat="43.63782583428303" lon="12.788460620814128"><ele>414.0</ele><time>2026-04-23T15:50:25Z</time></trkpt><trkpt lat="43.63796422675741" lon="12.788399266153146"><ele>414.0</ele><time>2026-04-23T15:50:26Z</time></trkpt><trkpt lat="43.6381142705009" lon="12.788311678967899"><ele>413.79999999999995</ele><time>2026-04-23T15:50:27Z</time></trkpt><trkpt lat="43.63821321372528" lon="12.788235270907949"><ele>413.59999999999997</ele><time>2026-04-23T15:50:28Z</time></trkpt><trkpt lat="43.63826337131586" lon="12.78812532868252"><ele>413.4</ele><time>2026-04-23T15:50:30Z</time></trkpt><trkpt lat="43.63827455654515" lon="12.787997749655085"><ele>413.2</ele><time>2026-04-23T15:50:32Z</time></trkpt><trkpt lat="43.63819015028328" lon="12.787857404351298"><ele>413.0</ele><time>2026-04-23T15:50:34Z</time></trkpt><trkpt lat="43.638098242431326" lon="12.787771106028963"><ele>413.75</ele><time>2026-04-23T15:50:35Z</time></trkpt><trkpt lat="43.63800297566249" lon="12.787674157452123"><ele>414.5</ele><time>2026-04-23T15:50:36Z</time></trkpt><trkpt lat="43.63789479144214" lon="12.787567681147054"><ele>415.25</ele><time>2026-04-23T15:50:37Z</time></trkpt><trkpt lat="43.63776641553239" lon="12.787451897822127"><ele>416.0</ele><time>2026-04-23T15:50:38Z</time></trkpt><trkpt lat="43.637620762782284" lon="12.787296178887024"><ele>416.0</ele><time>2026-04-23T15:50:39Z</time></trkpt><trkpt lat="43.63749204994172" lon="12.78716903497373"><ele>416.0</ele><time>2026-04-23T15:50:40Z</time></trkpt><trkpt lat="43.63737930384018" lon="12.787065475502574"><ele>416.0</ele><time>2026-04-23T15:50:41Z</time></trkpt><trkpt lat="43.63726990186251" lon="12.78698558303845"><ele>416.0</ele><time>2026-04-23T15:50:42Z</time></trkpt><trkpt lat="43.63715476241305" lon="12.78693037785169"><ele>415.99999999999994</ele><time>2026-04-23T15:50:43Z</time></trkpt><trkpt lat="43.637061117460895" lon="12.786891481288292"><ele>416.0</ele><time>2026-04-23T15:50:44Z</time></trkpt><trkpt lat="43.63698780120134" lon="12.786879888662305"><ele>416.0</ele><time>2026-04-23T15:50:45Z</time></trkpt><trkpt lat="43.63688753515978" lon="12.786873309517002"><ele>416.0</ele><time>2026-04-23T15:50:47Z</time></trkpt><trkpt lat="43.636855998428764" lon="12.786790859755168"><ele>415.99999999999994</ele><time>2026-04-23T15:50:59Z</time></trkpt><trkpt lat="43.636832732546814" lon="12.786676943758005"><ele>416.0</ele><time>2026-04-23T15:51:00Z</time></trkpt><trkpt lat="43.63680839925272" lon="12.78651874042269"><ele>417.25</ele><time>2026-04-23T15:51:01Z</time></trkpt><trkpt lat="43.63678216787975" lon="12.786339391187154"><ele>418.5</ele><time>2026-04-23T15:51:02Z</time></trkpt><trkpt lat="43.636763652252036" lon="12.786178010457354"><ele>419.75</ele><time>2026-04-23T15:51:03Z</time></trkpt><trkpt lat="43.63676660170803" lon="12.786045426482383"><ele>421.0</ele><time>2026-04-23T15:51:04Z</time></trkpt><trkpt lat="43.63679485020854" lon="12.785845949919862"><ele>421.0</ele><time>2026-04-23T15:51:06Z</time></trkpt><trkpt lat="43.636863421072164" lon="12.785723013195192"><ele>421.0</ele><time>2026-04-23T15:51:07Z</time></trkpt><trkpt lat="43.63693263482489" lon="12.785597892186246"><ele>421.0</ele><time>2026-04-23T15:51:08Z</time></trkpt><trkpt lat="43.63701641111112" lon="12.785495109422941"><ele>421.0</ele><time>2026-04-23T15:51:09Z</time></trkpt><trkpt lat="43.63708456497762" lon="12.785429607344824"><ele>421.0</ele><time>2026-04-23T15:51:10Z</time></trkpt><trkpt lat="43.63719911311199" lon="12.785393248722173"><ele>416.20000000000005</ele><time>2026-04-23T15:51:12Z</time></trkpt><trkpt lat="43.63729403536004" lon="12.78540168125607"><ele>411.40000000000003</ele><time>2026-04-23T15:51:13Z</time></trkpt><trkpt lat="43.637403613860634" lon="12.785409986512795"><ele>406.6</ele><time>2026-04-23T15:51:14Z</time></trkpt><trkpt lat="43.63751088171505" lon="12.785425571653716"><ele>401.8</ele><time>2026-04-23T15:51:15Z</time></trkpt><trkpt lat="43.6376107361642" lon="12.785450624137077"><ele>397.0</ele><time>2026-04-23T15:51:16Z</time></trkpt><trkpt lat="43.637675082214464" lon="12.785467562000376"><ele>397.0</ele><time>2026-04-23T15:51:17Z</time></trkpt><trkpt lat="43.637753385322895" lon="12.78556664687552"><ele>397.0</ele><time>2026-04-23T15:51:19Z</time></trkpt><trkpt lat="43.637815128804476" lon="12.785680860007593"><ele>397.0</ele><time>2026-04-23T15:51:20Z</time></trkpt><trkpt lat="43.6379002472011" lon="12.785826082327848"><ele>397.0</ele><time>2026-04-23T15:51:21Z</time></trkpt><trkpt lat="43.637994533489675" lon="12.78595140688502"><ele>395.83333333333337</ele><time>2026-04-23T15:51:22Z</time></trkpt><trkpt lat="43.638053634573886" lon="12.786042229641046"><ele>394.6666666666667</ele><time>2026-04-23T15:51:23Z</time></trkpt><trkpt lat="43.63810793769464" lon="12.786096164514959"><ele>393.5</ele><time>2026-04-23T15:51:24Z</time></trkpt><trkpt lat="43.63817133431958" lon="12.786118592501243"><ele>392.33333333333337</ele><time>2026-04-23T15:51:25Z</time></trkpt><trkpt lat="43.638253628618955" lon="12.786136064859674"><ele>391.1666666666667</ele><time>2026-04-23T15:51:26Z</time></trkpt><trkpt lat="43.638368020252734" lon="12.786173244257151"><ele>390.0</ele><time>2026-04-23T15:51:27Z</time></trkpt><trkpt lat="43.638501582419806" lon="12.786218203404264"><ele>388.75</ele><time>2026-04-23T15:51:28Z</time></trkpt><trkpt lat="43.63863590689621" lon="12.78626142409256"><ele>387.5</ele><time>2026-04-23T15:51:29Z</time></trkpt><trkpt lat="43.6387490311714" lon="12.786306969241116"><ele>386.25</ele><time>2026-04-23T15:51:30Z</time></trkpt><trkpt lat="43.638862713403356" lon="12.786343446039204"><ele>385.0</ele><time>2026-04-23T15:51:31Z</time></trkpt><trkpt lat="43.63899129805005" lon="12.786390968034617"><ele>385.0</ele><time>2026-04-23T15:51:32Z</time></trkpt><trkpt lat="43.639088126620805" lon="12.786423784207736"><ele>385.0</ele><time>2026-04-23T15:51:33Z</time></trkpt><trkpt lat="43.63919810012402" lon="12.786464665330112"><ele>385.0</ele><time>2026-04-23T15:51:34Z</time></trkpt><trkpt lat="43.63933373753524" lon="12.786509347974087"><ele>385.0</ele><time>2026-04-23T15:51:35Z</time></trkpt><trkpt lat="43.63947411880106" lon="12.786539917842328"><ele>384.0</ele><time>2026-04-23T15:51:36Z</time></trkpt><trkpt lat="43.63958597333662" lon="12.786567047151893"><ele>383.0</ele><time>2026-04-23T15:51:37Z</time></trkpt><trkpt lat="43.63968188775864" lon="12.786590293688258"><ele>382.0</ele><time>2026-04-23T15:51:38Z</time></trkpt><trkpt lat="43.63976679918765" lon="12.786572352154678"><ele>381.0</ele><time>2026-04-23T15:51:39Z</time></trkpt><trkpt lat="43.639837478902514" lon="12.786504880061365"><ele>380.0</ele><time>2026-04-23T15:51:40Z</time></trkpt><trkpt lat="43.639905621047326" lon="12.786390606150489"><ele>380.0</ele><time>2026-04-23T15:51:41Z</time></trkpt><trkpt lat="43.63998252955019" lon="12.78627758496763"><ele>380.0</ele><time>2026-04-23T15:51:42Z</time></trkpt><trkpt lat="43.64005428697416" lon="12.786208687235494"><ele>380.0</ele><time>2026-04-23T15:51:43Z</time></trkpt><trkpt lat="43.6401385117579" lon="12.786168419440855"><ele>380.0</ele><time>2026-04-23T15:51:44Z</time></trkpt><trkpt lat="43.6402300364463" lon="12.786192815142622"><ele>380.0</ele><time>2026-04-23T15:51:45Z</time></trkpt><trkpt lat="43.64034810890333" lon="12.786163676050533"><ele>379.0</ele><time>2026-04-23T15:51:46Z</time></trkpt><trkpt lat="43.64049372841379" lon="12.786131715292802"><ele>378.0</ele><time>2026-04-23T15:51:47Z</time></trkpt><trkpt lat="43.64065658607896" lon="12.78607754244629"><ele>377.0</ele><time>2026-04-23T15:51:48Z</time></trkpt><trkpt lat="43.64080276902188" lon="12.786019381975732"><ele>372.75</ele><time>2026-04-23T15:51:49Z</time></trkpt><trkpt lat="43.64094086561975" lon="12.785969046007915"><ele>368.5</ele><time>2026-04-23T15:51:50Z</time></trkpt><trkpt lat="43.64106820521254" lon="12.78593111472459"><ele>364.25</ele><time>2026-04-23T15:51:51Z</time></trkpt><trkpt lat="43.64118172869828" lon="12.78591922942302"><ele>360.0</ele><time>2026-04-23T15:51:52Z</time></trkpt><trkpt lat="43.64128676907201" lon="12.785906693248908"><ele>358.57142857142856</ele><time>2026-04-23T15:51:53Z</time></trkpt><trkpt lat="43.64135780689638" lon="12.785889128470057"><ele>357.14285714285717</ele><time>2026-04-23T15:51:54Z</time></trkpt><trkpt lat="43.641414073024386" lon="12.785840740825085"><ele>355.7142857142857</ele><time>2026-04-23T15:51:55Z</time></trkpt><trkpt lat="43.6414598606454" lon="12.785754125603237"><ele>354.2857142857143</ele><time>2026-04-23T15:51:56Z</time></trkpt><trkpt lat="43.6414745318774" lon="12.785649989844943"><ele>352.8571428571429</ele><time>2026-04-23T15:51:57Z</time></trkpt><trkpt lat="43.64148682279106" lon="12.78556012204841"><ele>351.42857142857144</ele><time>2026-04-23T15:51:58Z</time></trkpt><trkpt lat="43.641509718111024" lon="12.785473279736477"><ele>350.0</ele><time>2026-04-23T15:51:59Z</time></trkpt><trkpt lat="43.6415309862342" lon="12.785387000847228"><ele>350.0</ele><time>2026-04-23T15:52:00Z</time></trkpt><trkpt lat="43.6415496652415" lon="12.785278736183455"><ele>350.0</ele><time>2026-04-23T15:52:01Z</time></trkpt><trkpt lat="43.641584549990206" lon="12.785185177138612"><ele>350.0</ele><time>2026-04-23T15:52:02Z</time></trkpt><trkpt lat="43.64161841065562" lon="12.785068031943068"><ele>350.0</ele><time>2026-04-23T15:52:03Z</time></trkpt><trkpt lat="43.641655229664494" lon="12.784914599565464"><ele>350.0</ele><time>2026-04-23T15:52:04Z</time></trkpt><trkpt lat="43.64170187739274" lon="12.784726680007328"><ele>350.8</ele><time>2026-04-23T15:52:05Z</time></trkpt><trkpt lat="43.64171601350429" lon="12.784551544114471"><ele>351.6</ele><time>2026-04-23T15:52:06Z</time></trkpt><trkpt lat="43.64173479813172" lon="12.78442265085875"><ele>352.4</ele><time>2026-04-23T15:52:07Z</time></trkpt><trkpt lat="43.64173595451534" lon="12.784311688591421"><ele>353.2</ele><time>2026-04-23T15:52:08Z</time></trkpt><trkpt lat="43.64173398828607" lon="12.784206090373663"><ele>354.0</ele><time>2026-04-23T15:52:09Z</time></trkpt><trkpt lat="43.6417224195629" lon="12.784068653479657"><ele>353.8333333333333</ele><time>2026-04-23T15:52:11Z</time></trkpt><trkpt lat="43.64176621212413" lon="12.783988624225643"><ele>353.6666666666667</ele><time>2026-04-23T15:52:13Z</time></trkpt><trkpt lat="43.64179418684889" lon="12.783910671868972"><ele>353.5</ele><time>2026-04-23T15:52:14Z</time></trkpt><trkpt lat="43.64179544431602" lon="12.783788960434658"><ele>353.33333333333337</ele><time>2026-04-23T15:52:16Z</time></trkpt><trkpt lat="43.6417587115073" lon="12.78365287894359"><ele>353.1666666666667</ele><time>2026-04-23T15:52:27Z</time></trkpt><trkpt lat="43.64174268389253" lon="12.783543205980182"><ele>353.0</ele><time>2026-04-23T15:52:28Z</time></trkpt><trkpt lat="43.641741799125114" lon="12.783420406899502"><ele>353.0</ele><time>2026-04-23T15:52:29Z</time></trkpt><trkpt lat="43.64176401149363" lon="12.783313781901445"><ele>353.0</ele><time>2026-04-23T15:52:30Z</time></trkpt><trkpt lat="43.64180480271743" lon="12.783198053192177"><ele>353.0</ele><time>2026-04-23T15:52:31Z</time></trkpt><trkpt lat="43.64186884813541" lon="12.783105778515365"><ele>353.0</ele><time>2026-04-23T15:52:32Z</time></trkpt><trkpt lat="43.641944467912715" lon="12.783017628439206"><ele>353.0</ele><time>2026-04-23T15:52:33Z</time></trkpt><trkpt lat="43.642044509635184" lon="12.782935272748905"><ele>351.75</ele><time>2026-04-23T15:52:34Z</time></trkpt><trkpt lat="43.642154908471795" lon="12.782850338766227"><ele>350.5</ele><time>2026-04-23T15:52:35Z</time></trkpt><trkpt lat="43.64224805129957" lon="12.782766457866673"><ele>349.25</ele><time>2026-04-23T15:52:36Z</time></trkpt><trkpt lat="43.64232713778074" lon="12.782657503070244"><ele>348.0</ele><time>2026-04-23T15:52:37Z</time></trkpt><trkpt lat="43.64240225268435" lon="12.782510657356948"><ele>344.6666666666667</ele><time>2026-04-23T15:52:38Z</time></trkpt><trkpt lat="43.64248990563319" lon="12.782347795121376"><ele>341.33333333333337</ele><time>2026-04-23T15:52:39Z</time></trkpt><trkpt lat="43.642586043147915" lon="12.782157862135637"><ele>338.0</ele><time>2026-04-23T15:52:40Z</time></trkpt><trkpt lat="43.64271546130808" lon="12.78193391463594"><ele>333.6666666666667</ele><time>2026-04-23T15:52:41Z</time></trkpt><trkpt lat="43.64280742970181" lon="12.781699375824843"><ele>329.3333333333333</ele><time>2026-04-23T15:52:42Z</time></trkpt><trkpt lat="43.642892226164086" lon="12.781489862253718"><ele>325.0</ele><time>2026-04-23T15:52:43Z</time></trkpt><trkpt lat="43.64299265079945" lon="12.781270719873481"><ele>325.0</ele><time>2026-04-23T15:52:44Z</time></trkpt><trkpt lat="43.64308284056666" lon="12.781067885248957"><ele>325.0</ele><time>2026-04-23T15:52:45Z</time></trkpt><trkpt lat="43.64318526195361" lon="12.780865342629571"><ele>325.0</ele><time>2026-04-23T15:52:46Z</time></trkpt><trkpt lat="43.64328676320245" lon="12.78066633198155"><ele>323.75</ele><time>2026-04-23T15:52:47Z</time></trkpt><trkpt lat="43.64336881535032" lon="12.780484432201396"><ele>322.5</ele><time>2026-04-23T15:52:48Z</time></trkpt><trkpt lat="43.6434283160333" lon="12.78031347455247"><ele>321.25</ele><time>2026-04-23T15:52:49Z</time></trkpt><trkpt lat="43.64347506859203" lon="12.78015849766183"><ele>320.0</ele><time>2026-04-23T15:52:50Z</time></trkpt><trkpt lat="43.64354141436484" lon="12.780019180390305"><ele>319.2</ele><time>2026-04-23T15:52:51Z</time></trkpt><trkpt lat="43.64361090263143" lon="12.779904189664462"><ele>318.4</ele><time>2026-04-23T15:52:52Z</time></trkpt><trkpt lat="43.64369638078989" lon="12.779822005848656"><ele>317.6</ele><time>2026-04-23T15:52:53Z</time></trkpt><trkpt lat="43.64378791702703" lon="12.779732218078637"><ele>316.8</ele><time>2026-04-23T15:52:54Z</time></trkpt><trkpt lat="43.64386357396024" lon="12.779602693510835"><ele>316.0</ele><time>2026-04-23T15:52:55Z</time></trkpt><trkpt lat="43.64392512635557" lon="12.779469797659598"><ele>313.0</ele><time>2026-04-23T15:52:56Z</time></trkpt><trkpt lat="43.64404133947122" lon="12.779217187611357"><ele>310.0</ele><time>2026-04-23T15:52:57Z</time></trkpt><trkpt lat="43.64410926532271" lon="12.778983599432358"><ele>307.0</ele><time>2026-04-23T15:52:58Z</time></trkpt><trkpt lat="43.64415213308616" lon="12.778794215335912"><ele>307.0</ele><time>2026-04-23T15:52:59Z</time></trkpt><trkpt lat="43.64413680019454" lon="12.778627174800354"><ele>307.0</ele><time>2026-04-23T15:53:00Z</time></trkpt><trkpt lat="43.64413807248951" lon="12.77847698467831"><ele>307.0</ele><time>2026-04-23T15:53:01Z</time></trkpt><trkpt lat="43.64411732747146" lon="12.778326156586333"><ele>307.0</ele><time>2026-04-23T15:53:02Z</time></trkpt><trkpt lat="43.64411750364808" lon="12.778179477200617"><ele>307.0</ele><time>2026-04-23T15:53:03Z</time></trkpt><trkpt lat="43.64413224385032" lon="12.77801204038666"><ele>304.75</ele><time>2026-04-23T15:53:04Z</time></trkpt><trkpt lat="43.64418371840614" lon="12.777852965723875"><ele>302.5</ele><time>2026-04-23T15:53:05Z</time></trkpt><trkpt lat="43.644227195295215" lon="12.77767073151729"><ele>300.25</ele><time>2026-04-23T15:53:06Z</time></trkpt><trkpt lat="43.644286273403765" lon="12.777490638685942"><ele>298.0</ele><time>2026-04-23T15:53:07Z</time></trkpt><trkpt lat="43.644345294077354" lon="12.777316788326038"><ele>298.0</ele><time>2026-04-23T15:53:08Z</time></trkpt><trkpt lat="43.64442048369318" lon="12.77717086731973"><ele>298.0</ele><time>2026-04-23T15:53:09Z</time></trkpt><trkpt lat="43.64445992210504" lon="12.777031501519312"><ele>298.0</ele><time>2026-04-23T15:53:10Z</time></trkpt><trkpt lat="43.6445078009251" lon="12.776891411104529"><ele>298.0</ele><time>2026-04-23T15:53:11Z</time></trkpt><trkpt lat="43.64454817067992" lon="12.776730075407764"><ele>295.75</ele><time>2026-04-23T15:53:12Z</time></trkpt><trkpt lat="43.644569586018314" lon="12.776555421021"><ele>293.5</ele><time>2026-04-23T15:53:13Z</time></trkpt><trkpt lat="43.64457631848362" lon="12.776372364949248"><ele>291.25</ele><time>2026-04-23T15:53:14Z</time></trkpt><trkpt lat="43.644602736107466" lon="12.776182634537603"><ele>289.0</ele><time>2026-04-23T15:53:15Z</time></trkpt><trkpt lat="43.6447065805876" lon="12.776055149158886"><ele>291.5</ele><time>2026-04-23T15:53:16Z</time></trkpt><trkpt lat="43.644799000912485" lon="12.775910725443186"><ele>294.0</ele><time>2026-04-23T15:53:17Z</time></trkpt><trkpt lat="43.644895976476114" lon="12.775767005930437"><ele>296.5</ele><time>2026-04-23T15:53:18Z</time></trkpt><trkpt lat="43.64500370747651" lon="12.775630335204772"><ele>299.0</ele><time>2026-04-23T15:53:19Z</time></trkpt><trkpt lat="43.64511156974929" lon="12.7755032106589"><ele>299.0</ele><time>2026-04-23T15:53:20Z</time></trkpt><trkpt lat="43.645213562975364" lon="12.775377471601209"><ele>299.0</ele><time>2026-04-23T15:53:21Z</time></trkpt><trkpt lat="43.64530375759307" lon="12.775275994765558"><ele>299.0</ele><time>2026-04-23T15:53:22Z</time></trkpt><trkpt lat="43.645393740642845" lon="12.775226966227912"><ele>299.0</ele><time>2026-04-23T15:53:23Z</time></trkpt><trkpt lat="43.645492582753214" lon="12.775290615443451"><ele>297.25</ele><time>2026-04-23T15:53:24Z</time></trkpt><trkpt lat="43.645617751551825" lon="12.775290046557856"><ele>295.5</ele><time>2026-04-23T15:53:25Z</time></trkpt><trkpt lat="43.64574445468548" lon="12.77527512980882"><ele>293.75</ele><time>2026-04-23T15:53:26Z</time></trkpt><trkpt lat="43.6458504279986" lon="12.775219486155766"><ele>292.0</ele><time>2026-04-23T15:53:27Z</time></trkpt><trkpt lat="43.645937564777746" lon="12.77514125001628"><ele>295.0</ele><time>2026-04-23T15:53:28Z</time></trkpt><trkpt lat="43.64601219842624" lon="12.775020445485188"><ele>298.0</ele><time>2026-04-23T15:53:29Z</time></trkpt><trkpt lat="43.64607768798809" lon="12.774909346813407"><ele>301.0</ele><time>2026-04-23T15:53:30Z</time></trkpt><trkpt lat="43.64614667929714" lon="12.77490340898762"><ele>304.0</ele><time>2026-04-23T15:53:31Z</time></trkpt><trkpt lat="43.64623380889454" lon="12.774919385333057"><ele>307.0</ele><time>2026-04-23T15:53:32Z</time></trkpt><trkpt lat="43.6463377752014" lon="12.774879192686068"><ele>307.0</ele><time>2026-04-23T15:53:33Z</time></trkpt><trkpt lat="43.646440280566914" lon="12.774842776104345"><ele>307.0</ele><time>2026-04-23T15:53:34Z</time></trkpt><trkpt lat="43.64652651620919" lon="12.77479894522367"><ele>307.0</ele><time>2026-04-23T15:53:35Z</time></trkpt><trkpt lat="43.64658626772843" lon="12.774756137488655"><ele>307.0</ele><time>2026-04-23T15:53:38Z</time></trkpt><trkpt lat="43.64668411243894" lon="12.774677133486787"><ele>307.0</ele><time>2026-04-23T15:53:41Z</time></trkpt><trkpt lat="43.64674564263746" lon="12.774620959177819"><ele>307.0</ele><time>2026-04-23T15:53:42Z</time></trkpt><trkpt lat="43.646820120891775" lon="12.774562808035997"><ele>307.0</ele><time>2026-04-23T15:53:43Z</time></trkpt><trkpt lat="43.646905627120454" lon="12.774496378030825"><ele>307.0</ele><time>2026-04-23T15:53:44Z</time></trkpt><trkpt lat="43.64698493406681" lon="12.774420062443678"><ele>307.0</ele><time>2026-04-23T15:53:45Z</time></trkpt><trkpt lat="43.64706978621123" lon="12.774335946155524"><ele>307.0</ele><time>2026-04-23T15:53:46Z</time></trkpt><trkpt lat="43.64716672091769" lon="12.77424179233162"><ele>307.8</ele><time>2026-04-23T15:53:47Z</time></trkpt><trkpt lat="43.64727437084297" lon="12.774148688713854"><ele>308.6</ele><time>2026-04-23T15:53:48Z</time></trkpt><trkpt lat="43.64737307892514" lon="12.774059839150823"><ele>309.40000000000003</ele><time>2026-04-23T15:53:49Z</time></trkpt><trkpt lat="43.64745775263469" lon="12.773997419430183"><ele>310.2</ele><time>2026-04-23T15:53:50Z</time></trkpt><trkpt lat="43.64750835704793" lon="12.773915529342199"><ele>311.0</ele><time>2026-04-23T15:53:51Z</time></trkpt><trkpt lat="43.647541798553895" lon="12.773830119759252"><ele>311.0</ele><time>2026-04-23T15:53:52Z</time></trkpt><trkpt lat="43.64757212711812" lon="12.773722012378032"><ele>311.0</ele><time>2026-04-23T15:53:53Z</time></trkpt><trkpt lat="43.64757165023367" lon="12.773587329959659"><ele>311.0</ele><time>2026-04-23T15:53:54Z</time></trkpt><trkpt lat="43.647593930291826" lon="12.773407812544002"><ele>311.0</ele><time>2026-04-23T15:53:55Z</time></trkpt><trkpt lat="43.64764330868189" lon="12.773180735053653"><ele>310.5</ele><time>2026-04-23T15:53:56Z</time></trkpt><trkpt lat="43.64768543034745" lon="12.772965688165602"><ele>310.0</ele><time>2026-04-23T15:53:57Z</time></trkpt><trkpt lat="43.647719185761886" lon="12.77279735272534"><ele>309.5</ele><time>2026-04-23T15:53:58Z</time></trkpt><trkpt lat="43.64775221934993" lon="12.77264861661292"><ele>309.0</ele><time>2026-04-23T15:53:59Z</time></trkpt><trkpt lat="43.64783219968945" lon="12.772519541390801"><ele>309.0</ele><time>2026-04-23T15:54:00Z</time></trkpt><trkpt lat="43.64794064588929" lon="12.772394053164277"><ele>309.0</ele><time>2026-04-23T15:54:01Z</time></trkpt><trkpt lat="43.648036420459086" lon="12.772237138744481"><ele>309.0</ele><time>2026-04-23T15:54:02Z</time></trkpt><trkpt lat="43.64819081254971" lon="12.772072654254229"><ele>309.0</ele><time>2026-04-23T15:54:03Z</time></trkpt><trkpt lat="43.64836187943692" lon="12.771900422912271"><ele>309.0</ele><time>2026-04-23T15:54:04Z</time></trkpt><trkpt lat="43.64855301873217" lon="12.77174537314758"><ele>309.0</ele><time>2026-04-23T15:54:05Z</time></trkpt><trkpt lat="43.64869525191444" lon="12.771636253163539"><ele>309.59999999999997</ele><time>2026-04-23T15:54:06Z</time></trkpt><trkpt lat="43.648807344303734" lon="12.771559346891527"><ele>310.2</ele><time>2026-04-23T15:54:07Z</time></trkpt><trkpt lat="43.648889908386714" lon="12.771468130668545"><ele>310.79999999999995</ele><time>2026-04-23T15:54:08Z</time></trkpt><trkpt lat="43.648963365864695" lon="12.771389987338237"><ele>311.4</ele><time>2026-04-23T15:54:09Z</time></trkpt><trkpt lat="43.64902488095415" lon="12.771311569606334"><ele>312.0</ele><time>2026-04-23T15:54:10Z</time></trkpt><trkpt lat="43.64907676954261" lon="12.77122347499376"><ele>312.0</ele><time>2026-04-23T15:54:11Z</time></trkpt><trkpt lat="43.64913988220856" lon="12.771130197055228"><ele>312.0</ele><time>2026-04-23T15:54:12Z</time></trkpt><trkpt lat="43.64919436845191" lon="12.77102371999311"><ele>312.0</ele><time>2026-04-23T15:54:13Z</time></trkpt><trkpt lat="43.64924502994452" lon="12.770927544866113"><ele>312.0</ele><time>2026-04-23T15:54:14Z</time></trkpt><trkpt lat="43.64928739669945" lon="12.770830519800478"><ele>312.0</ele><time>2026-04-23T15:54:15Z</time></trkpt><trkpt lat="43.64931591918157" lon="12.770723472896956"><ele>312.0</ele><time>2026-04-23T15:54:16Z</time></trkpt><trkpt lat="43.64932311619284" lon="12.77061264784324"><ele>313.0</ele><time>2026-04-23T15:54:17Z</time></trkpt><trkpt lat="43.649320564855174" lon="12.770518223021941"><ele>314.0</ele><time>2026-04-23T15:54:18Z</time></trkpt><trkpt lat="43.64939335050309" lon="12.770420023496376"><ele>315.0</ele><time>2026-04-23T15:54:20Z</time></trkpt><trkpt lat="43.64946347003121" lon="12.7704353199207"><ele>316.0</ele><time>2026-04-23T15:54:21Z</time></trkpt><trkpt lat="43.64953296482238" lon="12.770464271948631"><ele>317.0</ele><time>2026-04-23T15:54:22Z</time></trkpt><trkpt lat="43.64959943650089" lon="12.770491732790742"><ele>318.0</ele><time>2026-04-23T15:54:23Z</time></trkpt><trkpt lat="43.64966804050838" lon="12.770522156126763"><ele>318.0</ele><time>2026-04-23T15:54:24Z</time></trkpt><trkpt lat="43.64972969660745" lon="12.770553588432211"><ele>318.0</ele><time>2026-04-23T15:54:25Z</time></trkpt><trkpt lat="43.64982010325946" lon="12.770618764900252"><ele>318.0</ele><time>2026-04-23T15:54:27Z</time></trkpt><trkpt lat="43.64989443918029" lon="12.770667782659796"><ele>318.0</ele><time>2026-04-23T15:54:29Z</time></trkpt><trkpt lat="43.64997304305834" lon="12.770718662800624"><ele>318.0</ele><time>2026-04-23T15:54:31Z</time></trkpt><trkpt lat="43.650057500949124" lon="12.770745344032175"><ele>318.0</ele><time>2026-04-23T15:54:33Z</time></trkpt><trkpt lat="43.650132395440636" lon="12.770806417434084"><ele>318.0</ele><time>2026-04-23T15:54:35Z</time></trkpt><trkpt lat="43.65019430922218" lon="12.770861450227526"><ele>318.0</ele><time>2026-04-23T15:54:38Z</time></trkpt><trkpt lat="43.65026307783179" lon="12.770829329047293"><ele>318.0</ele><time>2026-04-23T15:55:23Z</time></trkpt><trkpt lat="43.65035367715555" lon="12.770829329048354"><ele>318.0</ele><time>2026-04-23T15:55:27Z</time></trkpt><trkpt lat="43.65039414267183" lon="12.770760153923277"><ele>318.0</ele><time>2026-04-23T15:55:28Z</time></trkpt><trkpt lat="43.650432276145395" lon="12.77067829762996"><ele>318.0</ele><time>2026-04-23T15:55:31Z</time></trkpt><trkpt lat="43.65050150660439" lon="12.770654736535892"><ele>318.0</ele><time>2026-04-23T15:55:33Z</time></trkpt><trkpt lat="43.65059943088095" lon="12.77068620271493"><ele>318.5</ele><time>2026-04-23T15:55:35Z</time></trkpt><trkpt lat="43.6506784009917" lon="12.770680689897935"><ele>319.0</ele><time>2026-04-23T15:55:36Z</time></trkpt><trkpt lat="43.650805411264685" lon="12.770637185452271"><ele>319.5</ele><time>2026-04-23T15:55:37Z</time></trkpt><trkpt lat="43.65096682319349" lon="12.770646305445656"><ele>320.0</ele><time>2026-04-23T15:55:38Z</time></trkpt><trkpt lat="43.65112579372114" lon="12.770645438718677"><ele>322.25</ele><time>2026-04-23T15:55:39Z</time></trkpt><trkpt lat="43.651278950412205" lon="12.770628799978583"><ele>324.5</ele><time>2026-04-23T15:55:40Z</time></trkpt><trkpt lat="43.65140877919504" lon="12.770623201191771"><ele>326.75</ele><time>2026-04-23T15:55:41Z</time></trkpt><trkpt lat="43.65154656186699" lon="12.770572503422244"><ele>329.0</ele><time>2026-04-23T15:55:42Z</time></trkpt><trkpt lat="43.651668754952844" lon="12.77050366515965"><ele>329.0</ele><time>2026-04-23T15:55:43Z</time></trkpt><trkpt lat="43.651789764466585" lon="12.77040707031757"><ele>329.0</ele><time>2026-04-23T15:55:44Z</time></trkpt><trkpt lat="43.65190836242791" lon="12.770270093300617"><ele>329.0</ele><time>2026-04-23T15:55:45Z</time></trkpt><trkpt lat="43.65204715241904" lon="12.770156147285322"><ele>325.0</ele><time>2026-04-23T15:55:46Z</time></trkpt><trkpt lat="43.65217059641067" lon="12.769993207121855"><ele>321.0</ele><time>2026-04-23T15:55:47Z</time></trkpt><trkpt lat="43.65228904982367" lon="12.769829025043869"><ele>317.0</ele><time>2026-04-23T15:55:48Z</time></trkpt><trkpt lat="43.652389395692914" lon="12.76964220762306"><ele>317.0</ele><time>2026-04-23T15:55:49Z</time></trkpt><trkpt lat="43.65249397410262" lon="12.769463023713858"><ele>317.0</ele><time>2026-04-23T15:55:50Z</time></trkpt><trkpt lat="43.652594491566965" lon="12.769314843436534"><ele>317.0</ele><time>2026-04-23T15:55:51Z</time></trkpt><trkpt lat="43.65269846391505" lon="12.769180807138964"><ele>311.75</ele><time>2026-04-23T15:55:52Z</time></trkpt><trkpt lat="43.65281984643356" lon="12.769059899487447"><ele>306.5</ele><time>2026-04-23T15:55:53Z</time></trkpt><trkpt lat="43.6529491397824" lon="12.768966312119229"><ele>301.25</ele><time>2026-04-23T15:55:54Z</time></trkpt><trkpt lat="43.65307197609644" lon="12.768894307320254"><ele>296.0</ele><time>2026-04-23T15:55:55Z</time></trkpt><trkpt lat="43.6531797081584" lon="12.768874073126515"><ele>296.0</ele><time>2026-04-23T15:55:56Z</time></trkpt><trkpt lat="43.653263479670514" lon="12.768850628295345"><ele>296.0</ele><time>2026-04-23T15:55:57Z</time></trkpt><trkpt lat="43.653362906994055" lon="12.76887229534829"><ele>296.0</ele><time>2026-04-23T15:55:58Z</time></trkpt><trkpt lat="43.653484180201986" lon="12.768920254317926"><ele>296.0</ele><time>2026-04-23T15:55:59Z</time></trkpt><trkpt lat="43.653584070386174" lon="12.768976005251432"><ele>296.0</ele><time>2026-04-23T15:56:00Z</time></trkpt><trkpt lat="43.65368088002747" lon="12.769001787395371"><ele>280.0</ele><time>2026-04-23T15:56:01Z</time></trkpt><trkpt lat="43.65376074098196" lon="12.769037891548042"><ele>280.0</ele><time>2026-04-23T15:56:02Z</time></trkpt><trkpt lat="43.65383153314407" lon="12.769085925500795"><ele>280.0</ele><time>2026-04-23T15:56:04Z</time></trkpt><trkpt lat="43.65388765274209" lon="12.769127920718693"><ele>280.0</ele><time>2026-04-23T15:56:16Z</time></trkpt></trkseg></trk></gpx>